# Wetter Temperatur Luftdruck Luftfeuchtigkeit Sichtweite Windgeschwindigkeit Windrichtung Zeit
1 Rain 7 1008 93 10000 2.1 50 19:42 17.10.2019
2 Rain 7 1008 93 10000 1.5 60 19:20 17.10.2019
3 Drizzle 7 1008 93 6000 2.6 40 18:59 17.10.2019
4 Rain 7 1008 93 6000 2.6 80 18:39 17.10.2019
5 Rain 7 1008 93 6000 2.6 80 18:20 17.10.2019
6 Drizzle 7 1008 93 10000 2.6 50 17:43 17.10.2019
7 Clouds 7 1008 93 10000 2.1 60 17:25 17.10.2019
8 Clouds 7 1008 93 10000 2.6 0 16:59 17.10.2019
9 Clouds 7 1008 93 10000 2.6 0 16:41 17.10.2019
10 Fog 7 1008 93 10000 2.6 90 16:19 17.10.2019
11 Rain 7 1008 93 10000 3.6 60 15:57 17.10.2019
12 Rain 7 1008 93 10000 3.6 60 15:38 17.10.2019
13 Rain 7 1008 93 10000 3.6 60 15:38 17.10.2019
14 Clouds 7 1009 93 10000 2.6 80 15:20 17.10.2019
15 Clouds 7 1009 93 10000 2.6 80 14:56 17.10.2019
16 Clouds 7 1009 93 10000 2.6 80 14:38 17.10.2019
17 Clouds 7 1009 87 10000 3.1 70 14:19 17.10.2019
18 Clouds 7 1009 93 10000 2.6 90 13:39 17.10.2019
19 Clouds 7 1009 87 10000 2.1 70 13:20 17.10.2019
20 Clouds 7 1009 87 10000 2.1 50 12:58 17.10.2019
21 Clouds 7 1009 87 10000 2.1 50 12:37 17.10.2019
22 Clouds 7 1009 87 10000 2.6 30 12:19 17.10.2019
23 Clouds 7 1009 93 10000 3.1 40 11:42 17.10.2019
24 Clouds 7 1009 87 10000 3.1 30 11:22 17.10.2019
25 Clouds 7 1009 100 10000 3.1 30 10:59 17.10.2019
26 Clouds 7 1009 100 10000 3.1 30 10:41 17.10.2019
27 Clouds 7 1009 100 10000 3.1 30 10:41 17.10.2019
28 Clouds 6 1008 93 10000 3.1 30 10:19 17.10.2019
29 -273 0 0 0 0 0 09:56 17.10.2019
30 Clouds 6 1008 93 10000 2.6 30 09:38 17.10.2019
31 Clouds 6 1008 93 10000 2.6 20 09:19 17.10.2019
32 Clouds 6 1008 93 10000 2.6 20 08:48 17.10.2019
33 Clouds 6 1008 93 10000 2.6 20 08:27 17.10.2019
34 Clouds 6 1008 93 10000 2.1 10 07:59 17.10.2019
35 Clouds 6 1008 93 10000 2.1 10 07:41 17.10.2019
36 Clouds 6 1008 100 10000 2.6 20 07:21 17.10.2019
37 Clouds 6 1008 100 10000 3.1 20 06:51 17.10.2019
38 Clouds 6 1008 100 10000 3.1 10 06:31 17.10.2019
39 Clouds 6 1008 100 10000 3.1 10 05:59 17.10.2019
40 Clouds 6 1008 100 10000 3.1 10 05:37 17.10.2019
41 Clouds 6 1008 100 10000 2.6 10 05:19 17.10.2019
42 Clouds 6 1008 100 10000 2.6 10 04:45 17.10.2019
43 Clouds 6 1008 100 10000 3.1 10 03:45 17.10.2019
44 Rain 7 1008 100 0 2.6 10 01:56 17.10.2019
45 Rain 7 1008 100 0 2.6 10 01:56 17.10.2019
46 Rain 7 1008 93 10000 3.6 10 00:42 17.10.2019
47 Rain 7 1008 93 10000 3.6 10 00:20 17.10.2019
48 Rain 7 1008 93 8000 4.1 10 23:58 16.10.2019
49 Rain 7 1008 93 8000 4.1 10 23:39 16.10.2019
50 Rain 7 1008 93 8000 3.1 360 23:18 16.10.2019
51 Rain 7 1008 93 10000 3.6 360 22:54 16.10.2019
52 Rain 7 1008 93 10000 3.6 360 22:36 16.10.2019
53 Rain 7 1008 100 10000 3.6 10 22:18 16.10.2019
54 Rain 7 1008 100 10000 3.6 10 21:54 16.10.2019
55 Rain 7 1008 100 10000 3.6 10 21:54 16.10.2019
56 Rain 7 1008 100 10000 3.6 10 21:36 16.10.2019
57 Rain 7 1008 100 9000 3.6 10 21:18 16.10.2019
58 Rain 7 1008 100 9000 3.1 10 20:54 16.10.2019
59 Rain 7 1008 100 9000 3.1 10 20:36 16.10.2019
60 Rain 7 1008 100 9000 3.1 10 20:36 16.10.2019
61 Rain 7 1008 100 10000 3.1 10 20:18 16.10.2019
62 -273 0 0 0 0 0 19:40 16.10.2019
63 Rain 7 1007 100 10000 3.6 10 19:40 16.10.2019
64 Rain 7 1007 100 10000 3.6 10 19:21 16.10.2019
65 Rain 7 1007 100 10000 3.6 10 19:21 16.10.2019
66 Rain 7 1007 100 8000 3.6 360 18:58 16.10.2019
67 Rain 7 1007 100 8000 3.6 360 18:37 16.10.2019
68 Rain 7 1007 100 8000 3.1 360 18:18 16.10.2019
69 Rain 7 1007 100 10000 2.6 360 17:55 16.10.2019
70 Rain 7 1007 100 10000 2.6 360 17:37 16.10.2019
71 Rain 7 1007 100 10000 3.6 10 17:18 16.10.2019
72 Rain 7 1007 100 10000 4.1 10 16:55 16.10.2019
73 Rain 7 1007 100 10000 4.1 10 16:37 16.10.2019
74 Rain 7 1007 100 7000 3.6 10 16:18 16.10.2019
75 Rain 7 1008 93 9000 3.6 20 15:40 16.10.2019
76 Rain 7 1008 93 9000 3.6 20 15:40 16.10.2019
77 Rain 7 1007 93 9000 3.6 360 15:19 16.10.2019
78 Rain 7 1007 93 9000 3.6 360 15:19 16.10.2019
79 Rain 7 1007 93 9000 3.6 360 14:58 16.10.2019
80 Rain 7 1007 93 9000 3.6 360 14:40 16.10.2019
81 Rain 7 1008 93 9000 4.1 360 14:21 16.10.2019
82 Rain 6 1008 100 6000 4.1 10 13:58 16.10.2019
83 Rain 6 1008 100 6000 4.1 10 13:39 16.10.2019
84 Rain 6 1008 100 4600 4.6 10 13:21 16.10.2019
85 Rain 6 1008 100 7000 5.1 10 12:43 16.10.2019
86 Rain 6 1008 93 10000 4.6 20 12:20 16.10.2019
87 -273 0 0 0 0 0 11:55 16.10.2019
88 Drizzle 6 1008 100 6000 4.6 10 11:37 16.10.2019
89 Drizzle 6 1008 100 5000 4.1 10 11:18 16.10.2019
90 Drizzle 6 1008 100 3500 4.1 10 10:36 16.10.2019
91 Drizzle 6 1008 93 3300 4.6 10 10:18 16.10.2019
92 Drizzle 5 1008 100 3700 4.6 10 09:40 16.10.2019
93 Drizzle 5 1008 100 4200 4.1 10 09:22 16.10.2019
94 Drizzle 5 1008 100 3400 3.6 360 08:57 16.10.2019
95 Drizzle 5 1008 100 3400 3.6 360 08:39 16.10.2019
96 Drizzle 5 1008 100 3400 3.6 360 08:39 16.10.2019
97 -273 0 0 0 0 0 08:20 16.10.2019
98 Clouds 5 1008 93 9000 3.6 360 07:43 16.10.2019
99 Clouds 5 1008 93 10000 3.1 350 07:24 16.10.2019
100 Clouds 5 1008 100 10000 3.6 20 06:55 16.10.2019
101 Clouds 5 1008 100 8000 5.1 20 06:31 16.10.2019
102 Drizzle 5 1008 100 6000 5.1 10 05:22 16.10.2019
103 Rain 5 1009 100 10000 4.6 10 02:53 16.10.2019
104 Rain 5 1010 93 10000 5.1 10 01:38 16.10.2019
105 Rain 5 1010 93 10000 5.1 20 01:18 16.10.2019
106 Rain 5 1010 93 10000 5.7 20 00:42 16.10.2019
107 Rain 5 1010 100 10000 5.7 20 23:59 15.10.2019
108 Rain 5 1010 100 10000 5.7 20 23:39 15.10.2019
109 Rain 5 1011 93 10000 5.7 10 23:21 15.10.2019
110 Rain 5 1011 93 10000 5.1 360 22:55 15.10.2019
111 Rain 5 1011 93 10000 5.1 360 22:55 15.10.2019
112 Rain 5 1010 93 10000 5.1 10 22:37 15.10.2019
113 Rain 5 1010 93 10000 5.1 10 22:19 15.10.2019
114 Rain 5 1010 93 9000 5.7 20 21:55 15.10.2019
115 Rain 5 1010 93 9000 5.7 20 21:36 15.10.2019
116 Rain 5 1011 93 9000 5.7 20 21:18 15.10.2019
117 Rain 5 1011 93 10000 5.1 10 20:55 15.10.2019
118 Rain 5 1011 93 10000 5.1 10 20:55 15.10.2019
119 Rain 5 1011 93 10000 5.1 10 20:37 15.10.2019
120 Rain 6 1011 93 8000 5.1 20 20:19 15.10.2019
121 Rain 6 1012 93 9000 5.1 10 19:55 15.10.2019
122 Rain 6 1012 93 9000 5.1 10 19:55 15.10.2019
123 Rain 6 1012 93 9000 5.1 10 19:37 15.10.2019
124 Rain 6 1012 93 9000 5.1 10 19:37 15.10.2019
125 Rain 6 1011 93 10000 6.2 20 19:18 15.10.2019
126 Rain 6 1011 93 8000 6.7 20 18:44 15.10.2019
127 Rain 6 1011 100 7000 6.2 20 18:25 15.10.2019
128 Rain 6 1012 93 10000 5.1 20 17:55 15.10.2019
129 Rain 6 1012 93 10000 5.1 20 17:55 15.10.2019
130 Rain 6 1012 93 10000 5.1 20 17:37 15.10.2019
131 Rain 6 1013 93 8000 4.1 20 17:19 15.10.2019
132 Rain 6 1013 93 7000 3.6 20 16:45 15.10.2019
133 Rain 6 1013 87 7000 4.6 50 16:22 15.10.2019
134 Rain 7 1013 93 7000 3.1 60 15:58 15.10.2019
135 Rain 7 1013 93 7000 3.1 60 15:39 15.10.2019
136 Rain 7 1014 93 8000 2.6 50 15:19 15.10.2019
137 Rain 7 1014 93 10000 2.6 50 14:56 15.10.2019
138 Rain 7 1014 93 10000 2.6 50 14:37 15.10.2019
139 Rain 7 1014 93 10000 2.6 50 14:37 15.10.2019
140 Rain 7 1014 93 10000 3.6 60 14:19 15.10.2019
141 Rain 7 1014 93 10000 3.6 50 13:43 15.10.2019
142 Rain 7 1014 93 10000 3.6 50 13:43 15.10.2019
143 Rain 7 1014 100 10000 3.1 60 13:21 15.10.2019
144 Rain 7 1015 93 10000 3.1 70 12:57 15.10.2019
145 Rain 7 1015 93 10000 3.1 70 12:38 15.10.2019
146 Rain 7 1015 93 9000 2.6 70 12:19 15.10.2019
147 Rain 7 1015 93 9000 2.6 70 11:43 15.10.2019
148 Rain 7 1015 93 9000 2.1 60 11:20 15.10.2019
149 Rain 7 1015 93 9000 2.1 40 10:56 15.10.2019
150 Rain 7 1015 93 9000 2.1 40 10:38 15.10.2019
151 Rain 7 1015 93 10000 1.5 50 10:18 15.10.2019
152 Rain 7 1016 93 9000 1.5 100 09:55 15.10.2019
153 Rain 7 1016 93 9000 1.5 100 09:36 15.10.2019
154 Rain 7 1016 93 10000 1.5 110 09:18 15.10.2019
155 Drizzle 7 1015 93 10000 1 0 08:41 15.10.2019
156 Drizzle 7 1015 93 10000 1 0 08:20 15.10.2019
157 Drizzle 7 1015 93 10000 2.1 110 07:48 15.10.2019
158 Clouds 7 1015 93 10000 1.5 100 07:23 15.10.2019
159 Clouds 7 1015 93 10000 1 0 06:58 15.10.2019
160 Clouds 6 1015 93 10000 1 0 06:40 15.10.2019
161 Clouds 6 1016 93 10000 1 0 05:58 15.10.2019
162 Clouds 6 1016 93 10000 1 110 05:37 15.10.2019
163 Clouds 6 1016 93 10000 1 110 04:53 15.10.2019
164 Clouds 7 1016 93 10000 1.5 130 04:19 15.10.2019
165 Clouds 6 1016 93 10000 3.1 150 03:35 15.10.2019
166 Clouds 6 1016 93 10000 3.1 150 03:35 15.10.2019
167 Clouds 6 1016 93 10000 1.5 180 01:59 15.10.2019
168 Rain 6 1016 93 10000 1.5 180 01:40 15.10.2019
169 Rain 6 1016 93 10000 2.1 170 00:59 15.10.2019
170 Clouds 6 1015 93 10000 1.5 150 00:26 15.10.2019
171 Clouds 6 1015 93 10000 2.6 170 23:59 14.10.2019
172 Clouds 6 1015 93 10000 2.6 170 23:37 14.10.2019
173 Clouds 6 1015 93 10000 2.6 170 23:19 14.10.2019
174 Clouds 6 1015 93 10000 2.6 170 23:19 14.10.2019
175 Clouds 6 1015 93 10000 2.6 180 22:40 14.10.2019
176 Rain 6 1015 93 10000 2.6 180 22:21 14.10.2019
177 Clouds 6 1015 93 10000 3.1 170 21:59 14.10.2019
178 Clouds 6 1015 93 10000 3.1 170 21:40 14.10.2019
179 Clouds 6 1015 87 10000 1 0 21:21 14.10.2019
180 Clouds 6 1015 87 10000 1 0 20:58 14.10.2019
181 Clouds 6 1014 87 10000 1.64 152.763 20:38 14.10.2019
182 Clouds 6 1014 87 10000 1.64 152.763 20:19 14.10.2019
183 Clouds 6 1014 81 10000 1 0 19:55 14.10.2019
184 Clouds 6 1014 81 10000 1 0 19:37 14.10.2019
185 Clouds 6 1014 87 10000 1 0 19:19 14.10.2019
186 Clouds 7 1013 81 10000 2.1 100 18:57 14.10.2019
187 Clouds 7 1013 81 10000 2.1 100 18:37 14.10.2019
188 Rain 7 1013 75 10000 2.1 130 18:18 14.10.2019
189 Rain 8 1013 75 10000 1.5 110 17:41 14.10.2019
190 Rain 9 1013 75 10000 1.5 230 17:23 14.10.2019
191 Clouds 9 1012 75 10000 1.5 0 16:56 14.10.2019
192 Rain 9 1012 75 10000 1.5 0 16:38 14.10.2019
193 Clouds 10 1012 75 10000 2.1 80 16:19 14.10.2019
194 Clouds 9 1012 81 10000 1 0 15:41 14.10.2019
195 Clouds 10 1011 81 10000 2.1 30 15:21 14.10.2019
196 Clouds 10 1011 81 10000 2.6 20 14:44 14.10.2019
197 Clouds 9 1011 81 10000 3.1 40 14:26 14.10.2019
198 Clouds 9 1010 81 10000 3.6 360 13:59 14.10.2019
199 Clouds 9 1010 81 10000 3.6 360 13:40 14.10.2019
200 Clouds 9 1010 81 10000 4.6 10 13:21 14.10.2019
201 Clouds 9 1009 81 10000 3.1 360 12:42 14.10.2019
202 Clouds 9 1009 81 10000 4.1 350 12:21 14.10.2019
203 Clouds 8 1008 87 10000 3.1 350 11:57 14.10.2019
204 Clouds 8 1008 87 10000 3.1 350 11:39 14.10.2019
205 Clouds 8 1008 87 10000 2.1 360 11:20 14.10.2019
206 Clouds 7 1007 87 10000 2.6 360 10:44 14.10.2019
207 Clouds 7 1006 87 10000 3.6 20 10:21 14.10.2019
208 Drizzle 7 1005 93 10000 4.6 20 09:59 14.10.2019
209 Drizzle 6 1005 93 10000 4.6 20 09:40 14.10.2019
210 Drizzle 6 1004 93 10000 4.6 360 09:20 14.10.2019
211 Rain 6 1004 93 10000 4.6 360 08:48 14.10.2019
212 Rain 6 1003 93 10000 4.6 360 08:23 14.10.2019
213 Rain 6 1003 100 10000 3.6 10 07:45 14.10.2019
214 Rain 6 1003 100 10000 3.6 10 07:23 14.10.2019
215 Rain 6 1002 100 10000 4.1 10 06:56 14.10.2019
216 Rain 6 1002 100 10000 4.6 360 06:28 14.10.2019
217 Rain 6 1002 100 10000 3.6 10 05:55 14.10.2019
218 Rain 6 1002 100 10000 3.6 20 04:59 14.10.2019
219 Rain 6 1003 100 9000 3.6 40 03:49 14.10.2019
220 Rain 7 1003 100 9000 3.1 40 03:22 14.10.2019
221 Rain 7 1004 93 10000 2.1 30 02:25 14.10.2019
222 Rain 7 1004 100 10000 2.6 30 01:19 14.10.2019
223 Rain 7 1004 100 10000 1.5 30 00:41 14.10.2019
224 Rain 7 1004 93 10000 1.5 10 00:18 14.10.2019
225 Clouds 7 1004 93 0 2.1 60 23:40 13.10.2019
226 Clouds 7 1005 93 0 2.1 70 23:19 13.10.2019
227 Clouds 7 1006 100 10000 1.5 360 22:56 13.10.2019
228 Clouds 7 1006 100 10000 2.1 20 22:38 13.10.2019
229 Clouds 7 1006 100 10000 2.1 20 22:19 13.10.2019
230 Clear 7 1007 100 10000 1.5 20 21:56 13.10.2019
231 Clear 7 1007 100 10000 1.5 20 21:36 13.10.2019
232 Clear 7 1007 100 10000 1.5 20 21:36 13.10.2019
233 Clear 7 1007 100 10000 1 340 21:18 13.10.2019
234 Clear 7 1007 100 10000 1 340 21:18 13.10.2019
235 Clear 7 1007 93 10000 1.5 350 20:55 13.10.2019
236 Clear 7 1007 93 10000 1.5 350 20:37 13.10.2019
237 Clear 7 1007 93 10000 1.5 360 20:18 13.10.2019
238 Clouds 7 1007 93 10000 1.5 10 19:54 13.10.2019
239 -273 0 0 0 0 0 19:54 13.10.2019
240 Clear 7 1007 93 10000 1.5 20 19:36 13.10.2019
241 Clear 7 1007 93 10000 1.5 20 19:36 13.10.2019
242 Clear 7 1007 93 10000 1.5 20 19:18 13.10.2019
243 Clear 8 1007 93 10000 1.5 20 18:40 13.10.2019
244 Clear 8 1007 93 10000 1.5 20 18:40 13.10.2019
245 Clear 9 1007 87 10000 3.6 30 18:21 13.10.2019
246 Clear 9 1007 87 10000 3.1 30 17:59 13.10.2019
247 Clear 10 1007 87 10000 3.1 30 17:41 13.10.2019
248 Clouds 10 1007 81 10000 2.1 30 17:22 13.10.2019
249 Clouds 11 1007 76 10000 1.5 10 16:43 13.10.2019
250 Clouds 11 1007 81 10000 1 0 16:19 13.10.2019
251 Clouds 11 1007 75 10000 1.5 40 15:58 13.10.2019
252 Clouds 11 1007 75 10000 1.5 40 15:57 13.10.2019
253 Clouds 11 1007 75 10000 1.5 40 15:39 13.10.2019
254 Clouds 11 1007 81 10000 1.5 0 15:20 13.10.2019
255 Clouds 11 1007 81 10000 1 0 14:58 13.10.2019
256 Clouds 11 1007 81 10000 1 0 14:39 13.10.2019
257 Clouds 11 1006 87 10000 1 0 14:20 13.10.2019
258 Clouds 12 1007 62 0 3.1 220 13:55 13.10.2019
259 Clouds 11 1006 87 10000 1 0 13:37 13.10.2019
260 Clouds 11 1006 87 10000 1 0 13:37 13.10.2019
261 Clouds 11 1007 62 0 4.6 200 13:18 13.10.2019
262 Clouds 10 1007 66 0 4.6 220 12:55 13.10.2019
263 Clouds 10 1007 66 0 4.6 220 12:55 13.10.2019
264 Clouds 10 1007 62 0 3.6 220 12:36 13.10.2019
265 Clouds 10 1007 62 0 3.6 220 12:36 13.10.2019
266 Clouds 9 1007 62 0 3.6 220 12:18 13.10.2019
267 Clouds 9 1006 66 0 3.1 220 11:54 13.10.2019
268 Clouds 9 1006 66 0 3.1 220 11:36 13.10.2019
269 Fog 7 1005 100 5000 2.6 40 11:18 13.10.2019
270 Fog 6 1005 93 10000 2.1 20 10:40 13.10.2019
271 Fog 5 1004 93 10000 1.5 20 10:22 13.10.2019
272 Fog 5 1004 93 10000 1.5 20 10:22 13.10.2019
273 Fog 5 1004 93 10000 1.5 20 10:22 13.10.2019
274 Fog 4 1004 100 10000 1 0 09:40 13.10.2019
275 Fog 3 1004 85 450 1 10 09:21 13.10.2019
276 Fog 4 1004 85 450 1 10 09:21 13.10.2019
277 Clouds 4 1005 81 0 2.6 200 08:57 13.10.2019
278 Fog 3 1003 100 400 1 0 08:37 13.10.2019
279 Fog 3 1003 89 500 1.5 20 08:18 13.10.2019
280 Fog 3 1002 89 2800 1 0 07:45 13.10.2019
281 Clouds 3 1002 89 10000 1 30 06:55 13.10.2019
282 Fog 3 1002 88 10000 0.5 0 06:31 13.10.2019
283 Fog 4 1002 88 10000 1.27 298.607 05:34 13.10.2019
284 Fog 4 1002 88 10000 1.27 298.607 05:34 13.10.2019
285 Fog 3 1001 88 10000 1 30 04:46 13.10.2019
286 Fog 4 1000 100 10000 0.5 0 03:39 13.10.2019
287 Clear 4 1000 93 10000 1 0 02:35 13.10.2019
288 Clear 4 999 93 10000 1.3 294.517 01:51 13.10.2019
289 Clear 4 999 93 10000 1.27 314.331 01:22 13.10.2019
290 Clear 5 998 86 10000 2.1 310 00:44 13.10.2019
291 Clear 6 997 93 10000 2.1 310 00:21 13.10.2019
292 Clear 6 997 93 10000 2.1 280 23:55 12.10.2019
293 Clouds 6 996 87 10000 2.1 310 23:36 12.10.2019
294 Clouds 6 996 87 10000 2.1 310 23:18 12.10.2019
295 Clear 7 996 87 10000 2.1 320 22:55 12.10.2019
296 Clear 7 996 87 10000 2.1 320 22:36 12.10.2019
297 Clear 7 995 93 10000 3.1 310 22:18 12.10.2019
298 Clear 8 994 87 10000 1.45 314.131 21:41 12.10.2019
299 Clear 8 994 93 10000 1.36 297.959 21:23 12.10.2019
300 Clear 8 994 100 10000 1.64 310.355 20:56 12.10.2019
301 Clear 8 994 100 10000 1.64 310.355 20:38 12.10.2019
302 Clear 8 993 93 10000 0.5 0 20:20 12.10.2019
303 Clear 9 993 87 10000 1.64 310.355 19:37 12.10.2019
304 Clear 9 993 93 10000 2.6 190 19:19 12.10.2019
305 Clear 10 992 87 10000 2.6 200 18:46 12.10.2019
306 Clouds 10 992 93 10000 3.1 210 18:27 12.10.2019
307 Rain 11 992 93 10000 3.1 200 17:58 12.10.2019
308 Rain 11 992 93 10000 3.1 200 17:40 12.10.2019
309 Rain 11 992 81 10000 3.1 200 17:18 12.10.2019
310 Rain 12 992 81 10000 4.1 210 16:41 12.10.2019
311 Rain 12 992 81 10000 4.1 210 16:41 12.10.2019
312 Clouds 12 992 81 10000 2.1 220 16:21 12.10.2019
313 Clouds 12 992 81 10000 4.6 210 15:59 12.10.2019
314 Clouds 11 992 81 10000 4.6 210 15:39 12.10.2019
315 Clouds 11 992 87 10000 5.7 210 15:21 12.10.2019
316 Clouds 11 992 81 10000 5.1 200 14:41 12.10.2019
317 Clouds 11 991 81 10000 5.7 170 14:21 12.10.2019
318 Clouds 11 991 81 10000 5.7 170 14:21 12.10.2019
319 Clouds 11 991 87 10000 5.1 200 13:53 12.10.2019
320 Clouds 11 991 87 10000 5.1 200 13:53 12.10.2019
321 Clouds 11 991 87 10000 5.1 200 13:33 12.10.2019
322 Clouds 11 991 81 10000 4.1 190 12:59 12.10.2019
323 Clouds 10 991 81 10000 4.1 190 12:38 12.10.2019
324 Clouds 10 991 87 10000 3.1 200 12:20 12.10.2019
325 Clouds 9 991 93 10000 4.1 210 11:56 12.10.2019
326 Clouds 9 991 93 10000 4.1 210 11:38 12.10.2019
327 Clouds 8 991 87 10000 4.1 210 11:18 12.10.2019
328 Clouds 7 990 93 10000 2.6 230 10:40 12.10.2019
329 Clouds 7 990 93 10000 3.6 210 10:22 12.10.2019
330 Clouds 7 990 93 10000 3.1 220 09:57 12.10.2019
331 Clouds 6 990 93 10000 3.1 220 09:57 12.10.2019
332 Clouds 6 990 93 10000 3.1 210 09:38 12.10.2019
333 Clouds 5 990 93 10000 3.1 210 09:19 12.10.2019
334 Clouds 5 990 93 10000 2.6 210 08:44 12.10.2019
335 Clouds 5 989 93 10000 2.6 220 08:25 12.10.2019
336 Clouds 5 989 93 10000 2.1 210 07:57 12.10.2019
337 Clouds 5 989 93 10000 2.6 200 07:31 12.10.2019
338 Clouds 5 989 93 10000 1.5 170 06:37 12.10.2019
339 Clouds 5 989 93 10000 3.6 220 05:44 12.10.2019
340 Clouds 6 989 100 10000 2.6 200 04:43 12.10.2019
341 Drizzle 6 989 100 9000 2.6 200 03:56 12.10.2019
342 Clouds 7 989 100 7000 3.1 170 02:50 12.10.2019
343 Clouds 7 989 100 9000 1 0 01:34 12.10.2019
344 Clouds 7 989 93 8000 2.1 180 00:56 12.10.2019
345 Clouds 7 989 93 10000 1 0 00:38 12.10.2019
346 Fog 7 989 100 7000 2.6 190 23:55 11.10.2019
347 Fog 7 989 100 7000 2.6 190 23:36 11.10.2019
348 Fog 7 989 100 7000 1.5 190 23:18 11.10.2019
349 Fog 7 989 100 6000 3.6 170 22:38 11.10.2019
350 Fog 7 989 100 8000 2.1 200 22:19 11.10.2019
351 Rain 7 990 100 7000 1 0 21:44 11.10.2019
352 Mist 7 990 100 7000 1.5 0 21:22 11.10.2019
353 Clouds 7 990 100 9000 1.5 160 20:59 11.10.2019
354 Clouds 7 990 100 9000 1.5 160 20:41 11.10.2019
355 Rain 7 991 100 0 1 0 20:23 11.10.2019
356 Rain 7 990 100 7000 1 0 19:55 11.10.2019
357 Rain 7 990 100 7000 1 0 19:37 11.10.2019
358 Rain 7 991 100 4500 0.55 302.552 19:37 11.10.2019
359 Rain 7 991 100 4500 0.55 302.552 19:18 11.10.2019
360 Rain 7 991 100 4500 0.55 302.552 19:18 11.10.2019
361 Rain 7 991 100 4500 0.55 302.552 19:18 11.10.2019
362 Rain 7 991 100 3000 1.5 320 18:56 11.10.2019
363 Rain 7 991 100 3000 1.5 320 18:37 11.10.2019
364 Rain 8 991 100 3000 1 0 18:18 11.10.2019
365 Rain 8 991 100 3000 1 0 17:55 11.10.2019
366 Rain 8 991 100 3000 1 0 17:36 11.10.2019
367 Clouds 8 991 100 10000 0.5 0 17:18 11.10.2019
368 Clouds 8 991 100 10000 0.5 0 17:18 11.10.2019
369 Clouds 8 992 93 10000 0.5 0 16:41 11.10.2019
370 Clouds 8 992 93 10000 1 0 16:20 11.10.2019
371 Clouds 8 992 93 10000 1 0 16:20 11.10.2019
372 Rain 8 992 93 10000 1 0 15:59 11.10.2019
373 Rain 8 992 93 10000 1 0 15:38 11.10.2019
374 Rain 7 993 93 10000 1 0 15:19 11.10.2019
375 Rain 8 993 93 9000 1 0 14:47 11.10.2019
376 Rain 8 994 100 9000 1.5 300 14:29 11.10.2019
377 Rain 7 994 100 9000 0.5 0 13:57 11.10.2019
378 Rain 7 994 100 10000 1 0 13:38 11.10.2019
379 Rain 7 994 100 10000 1 0 13:19 11.10.2019
380 Rain 6 994 93 10000 1 0 12:56 11.10.2019
381 Rain 6 994 93 10000 1 0 12:38 11.10.2019
382 Rain 6 995 93 10000 2.1 200 12:18 11.10.2019
383 Rain 6 995 100 10000 2.1 210 11:41 11.10.2019
384 Fog 6 995 100 10000 1.5 160 11:22 11.10.2019
385 Rain 5 995 100 10000 0.5 0 10:58 11.10.2019
386 Rain 5 995 100 10000 0.5 0 10:40 11.10.2019
387 Rain 5 995 100 10000 1 360 10:22 11.10.2019
388 Rain 5 995 100 10000 1.5 350 09:55 11.10.2019
389 Rain 4 995 100 10000 1.5 350 09:37 11.10.2019
390 Drizzle 4 995 100 10000 1 0 09:18 11.10.2019
391 Fog 4 995 93 10000 2.1 280 08:55 11.10.2019
392 Fog 4 995 93 10000 2.1 280 08:36 11.10.2019
393 Fog 3 995 100 10000 2.1 280 08:18 11.10.2019
394 Fog 4 995 100 10000 3.1 210 07:41 11.10.2019
395 Fog 4 995 100 10000 3.1 210 07:22 11.10.2019
396 Fog 4 995 100 8000 1.5 210 06:47 11.10.2019
397 Fog 4 995 100 5000 0.61 266.424 06:22 11.10.2019
398 Fog 4 995 100 8000 1 350 05:39 11.10.2019
399 Fog 5 997 93 0 3.6 210 04:59 11.10.2019
400 Fog 5 995 93 9000 2.6 200 04:24 11.10.2019
401 Fog 7 996 93 7000 1.5 180 02:19 11.10.2019
402 Clouds 8 996 100 8000 1 230 00:47 11.10.2019
403 Clouds 8 996 100 9000 1.5 170 00:27 11.10.2019
404 Rain 8 996 100 7000 1.5 200 23:44 10.10.2019
405 Clouds 8 996 100 8000 2.6 180 23:22 10.10.2019
406 Drizzle 8 996 100 9000 3.1 180 22:57 10.10.2019
407 Rain 8 996 93 10000 3.1 170 22:39 10.10.2019
408 Rain 8 996 93 10000 3.1 170 22:20 10.10.2019
409 Rain 8 996 93 9000 3.6 160 21:57 10.10.2019
410 Rain 8 996 93 9000 3.6 160 21:39 10.10.2019
411 Rain 8 997 93 10000 3.1 160 21:20 10.10.2019
412 Rain 8 997 93 10000 3.6 160 20:42 10.10.2019
413 Rain 7 997 93 10000 3.1 170 20:21 10.10.2019
414 Rain 7 997 93 10000 3.1 170 20:21 10.10.2019
415 Clouds 8 997 93 10000 2.1 180 19:59 10.10.2019
416 Clouds 8 997 93 10000 2.1 180 19:40 10.10.2019
417 Clouds 8 997 93 10000 2.1 180 19:40 10.10.2019
418 Clouds 8 997 93 10000 1 0 19:20 10.10.2019
419 Clouds 8 997 93 10000 2.1 220 18:57 10.10.2019
420 Clouds 8 999 93 10000 2.1 130 18:39 10.10.2019
421 Clouds 8 999 93 10000 2.1 130 18:20 10.10.2019
422 Clouds 8 997 87 10000 4.6 160 17:54 10.10.2019
423 Clouds 8 997 87 10000 4.6 160 17:36 10.10.2019
424 Clouds 8 997 87 10000 4.6 160 17:36 10.10.2019
425 Clouds 8 997 93 10000 4.1 160 17:18 10.10.2019
426 Clouds 8 997 93 10000 4.1 160 17:18 10.10.2019
427 Clouds 8 997 93 10000 3.6 160 16:41 10.10.2019
428 Clouds 8 997 93 10000 5.1 170 16:22 10.10.2019
429 Clouds 9 997 93 10000 4.1 170 15:44 10.10.2019
430 Clouds 8 997 87 10000 3.1 170 15:25 10.10.2019
431 Clouds 8 997 87 10000 2.6 170 14:59 10.10.2019
432 Clouds 8 997 87 10000 2.6 170 14:38 10.10.2019
433 Clouds 8 997 87 10000 2.1 140 14:19 10.10.2019
434 Clouds 8 997 93 10000 1.5 170 13:59 10.10.2019
435 Clouds 7 997 93 10000 1.5 170 13:41 10.10.2019
436 Fog 7 997 93 8000 2.6 190 13:41 10.10.2019
437 Fog 7 997 93 8000 2.6 190 13:20 10.10.2019
438 Fog 7 997 93 7000 2.1 160 12:57 10.10.2019
439 Fog 7 997 93 7000 2.1 160 12:39 10.10.2019
440 Fog 7 997 100 9000 1.5 170 12:19 10.10.2019
441 Fog 6 997 100 8000 0.5 0 11:55 10.10.2019
442 Fog 6 997 100 8000 0.5 0 11:37 10.10.2019
443 Fog 6 997 93 8000 1 0 11:18 10.10.2019
444 Fog 6 997 93 7000 1.5 350 10:44 10.10.2019
445 Fog 6 997 100 5000 1 0 10:26 10.10.2019
446 Mist 5 997 100 3400 1.5 260 09:56 10.10.2019
447 Mist 5 997 100 3400 1.5 260 09:38 10.10.2019
448 Fog 5 996 100 7000 1 0 09:19 10.10.2019
449 Fog 5 996 100 7000 1.5 350 08:41 10.10.2019
450 Mist 5 996 100 4400 1 0 08:23 10.10.2019
451 Fog 5 996 100 2600 0.5 0 07:59 10.10.2019
452 Fog 5 996 100 2600 0.5 0 07:40 10.10.2019
453 Mist 5 996 100 3000 1 360 07:20 10.10.2019
454 Mist 5 996 100 2200 1 0 06:45 10.10.2019
455 Mist 5 996 100 1500 1.5 320 06:24 10.10.2019
456 Mist 5 996 100 3000 1.5 320 05:25 10.10.2019
457 Mist 5 996 100 3700 1.5 350 04:37 10.10.2019
458 Drizzle 5 996 100 5000 1 0 03:42 10.10.2019
459 Drizzle 5 996 100 4600 2.1 340 01:43 10.10.2019
460 Drizzle 5 996 100 3900 2.1 350 01:24 10.10.2019
461 Rain 5 996 100 4400 2.1 360 00:53 10.10.2019
462 Rain 5 996 100 4600 2.1 350 00:21 10.10.2019
463 Drizzle 5 996 100 5000 2.1 360 23:39 09.10.2019
464 Drizzle 5 996 100 6000 2.1 360 23:20 09.10.2019
465 Drizzle 5 997 100 6000 2.6 10 22:43 09.10.2019
466 Drizzle 5 997 100 5000 2.1 10 22:24 09.10.2019
467 Drizzle 5 997 100 7000 2.1 10 21:59 09.10.2019
468 Drizzle 5 997 100 7000 2.1 10 21:40 09.10.2019
469 Drizzle 5 997 100 7000 3.1 10 21:20 09.10.2019
470 Drizzle 5 997 100 7000 3.1 20 20:56 09.10.2019
471 Drizzle 5 997 100 7000 3.1 20 20:56 09.10.2019
472 Drizzle 5 997 93 7000 3.1 20 20:37 09.10.2019
473 Drizzle 5 997 100 7000 3.1 20 20:37 09.10.2019
474 Drizzle 5 997 93 7000 3.1 20 20:18 09.10.2019
475 Drizzle 5 997 100 6000 2.6 20 19:46 09.10.2019
476 Drizzle 5 997 100 4000 2.1 360 19:24 09.10.2019
477 Drizzle 5 997 100 3400 2.6 20 18:58 09.10.2019
478 Mist 5 997 100 4000 2.6 10 18:38 09.10.2019
479 Mist 5 997 100 4000 2.6 10 18:18 09.10.2019
480 Mist 5 997 100 3500 2.6 20 17:56 09.10.2019
481 Mist 5 997 100 4300 3.1 20 17:37 09.10.2019
482 Mist 5 997 100 4300 3.1 20 17:19 09.10.2019
483 Mist 5 997 100 5000 2.6 10 16:42 09.10.2019
484 Drizzle 5 997 93 5000 3.1 20 16:23 09.10.2019
485 Drizzle 5 997 93 5000 3.1 10 15:58 09.10.2019
486 Drizzle 5 997 93 5000 3.1 10 15:39 09.10.2019
487 Rain 5 997 100 5000 3.1 10 15:20 09.10.2019
488 Rain 5 997 93 8000 3.1 360 14:59 09.10.2019
489 Rain 5 997 93 8000 3.1 360 14:41 09.10.2019
490 Drizzle 5 997 93 4000 3.6 80 14:18 09.10.2019
491 Drizzle 5 997 93 4000 3.6 80 14:18 09.10.2019
492 Clouds 5 997 87 10000 3.1 100 13:40 09.10.2019
493 Mist 5 997 100 5000 2.1 330 13:22 09.10.2019
494 Clouds 5 997 93 10000 1.5 350 12:59 09.10.2019
495 Clouds 5 997 93 10000 1.5 350 12:59 09.10.2019
496 Clouds 4 997 93 10000 1.5 350 12:41 09.10.2019
497 Snow 4 997 93 9000 1.5 0 12:22 09.10.2019
498 Snow 4 997 93 9000 2.1 0 11:56 09.10.2019
499 Snow 4 997 93 9000 2.1 0 11:37 09.10.2019
500 Clouds 4 997 93 9000 2.1 0 11:19 09.10.2019
501 Rain 4 997 93 10000 1.5 80 10:44 09.10.2019
502 Rain 4 997 93 9000 2.6 0 10:22 09.10.2019
503 Rain 4 997 93 10000 2.1 110 09:59 09.10.2019
504 Rain 4 997 93 10000 2.1 110 09:41 09.10.2019
505 Clouds 4 997 93 10000 2.1 0 09:19 09.10.2019
506 Rain 4 997 93 10000 2.6 0 08:43 09.10.2019
507 Drizzle 4 997 93 9000 2.6 110 08:23 09.10.2019
508 Drizzle 4 997 93 8000 3.6 0 07:59 09.10.2019
509 Drizzle 4 997 93 8000 3.6 0 07:39 09.10.2019
510 Clouds 4 996 93 9000 3.6 100 07:21 09.10.2019
511 Drizzle 4 996 93 10000 3.1 110 06:52 09.10.2019
512 Drizzle 4 996 93 10000 3.1 110 06:52 09.10.2019
513 Clouds 4 996 93 9000 1.5 110 06:19 09.10.2019
514 Rain 4 996 93 10000 1.5 100 05:44 09.10.2019
515 Rain 4 996 93 10000 2.6 110 04:26 09.10.2019
516 Clouds 4 996 100 10000 2.6 120 02:53 09.10.2019
517 Clouds 4 996 100 8000 2.1 110 01:44 09.10.2019
518 Clouds 4 996 100 6000 2.1 120 01:21 09.10.2019
519 Clouds 4 996 100 6000 2.1 120 00:57 09.10.2019
520 Clouds 4 996 100 6000 2.1 120 00:38 09.10.2019
521 Clouds 4 996 100 7000 2.6 130 00:20 09.10.2019
522 Mist 4 996 100 5000 2.1 130 23:39 08.10.2019
523 Clouds 4 996 100 6000 2.1 120 23:19 08.10.2019
524 Clouds 4 996 100 6000 2.1 120 23:19 08.10.2019
525 Clouds 4 996 100 7000 2.1 130 22:57 08.10.2019
526 Clouds 4 996 100 7000 2.1 130 22:38 08.10.2019
527 Clouds 4 996 100 9000 1.5 130 22:19 08.10.2019
528 Clouds 4 996 100 9000 2.1 0 21:57 08.10.2019
529 Clouds 4 996 100 9000 2.1 0 21:39 08.10.2019
530 Clouds 4 997 100 10000 1 0 21:19 08.10.2019
531 Clouds 4 997 100 10000 1.5 30 20:56 08.10.2019
532 Clouds 4 997 100 10000 1.5 30 20:56 08.10.2019
533 Clouds 4 997 100 10000 1.5 30 20:37 08.10.2019
534 Clouds 4 997 93 10000 1 0 20:19 08.10.2019
535 Clouds 4 997 100 10000 1 0 19:58 08.10.2019
536 Clouds 4 997 100 10000 1 0 19:39 08.10.2019
537 Clouds 4 997 100 9000 1 300 19:20 08.10.2019
538 Clouds 4 997 93 9000 1 0 18:54 08.10.2019
539 Clouds 4 997 93 9000 1 0 18:36 08.10.2019
540 Clouds 4 997 93 9000 1.5 290 18:18 08.10.2019
541 Drizzle 4 997 100 9000 1.5 300 17:40 08.10.2019
542 Rain 4 997 100 10000 1.5 290 17:20 08.10.2019
543 Rain 4 998 100 9000 1.5 290 16:58 08.10.2019
544 Rain 4 998 100 9000 1.5 290 16:39 08.10.2019
545 Drizzle 4 998 100 9000 1.5 300 16:21 08.10.2019
546 Rain 4 998 93 9000 0.5 0 15:41 08.10.2019
547 Rain 4 998 93 9000 0.5 0 15:41 08.10.2019
548 Rain 4 998 93 9000 0.5 0 15:21 08.10.2019
549 Rain 4 999 93 8000 1 0 14:58 08.10.2019
550 Rain 4 999 93 8000 1 0 14:39 08.10.2019
551 Rain 4 999 93 10000 3.1 100 14:20 08.10.2019
552 Rain 3 999 100 9000 1 0 13:57 08.10.2019
553 Rain 3 999 100 9000 1 0 13:38 08.10.2019
554 Rain 3 1000 100 5000 0.5 0 13:19 08.10.2019
555 Rain 3 1000 100 5000 0.5 0 13:19 08.10.2019
556 Rain 3 1000 100 4500 1 0 12:58 08.10.2019
557 Rain 3 1000 100 4500 1 0 12:37 08.10.2019
558 Snow 3 1000 97 6000 1 0 12:18 08.10.2019
559 Rain 3 1001 93 7000 3.6 100 11:41 08.10.2019
560 Rain 3 1001 93 7000 3.6 100 11:41 08.10.2019
561 Rain 3 1001 93 10000 4.1 110 11:23 08.10.2019
562 Snow 3 1001 97 3500 1 0 10:56 08.10.2019
563 Rain 3 1002 93 10000 3.6 110 10:37 08.10.2019
564 Rain 3 1002 93 10000 4.1 110 10:19 08.10.2019
565 Snow 2 1002 97 6000 1 350 09:55 08.10.2019
566 Snow 2 1002 97 3500 1 350 09:37 08.10.2019
567 Snow 2 1002 96 3500 1 350 09:19 08.10.2019
568 Snow 2 1002 97 3500 1 20 08:42 08.10.2019
569 Snow 2 1003 97 7000 0.73 124.561 08:23 08.10.2019
570 Snow 2 1003 97 7000 0.73 124.561 08:23 08.10.2019
571 Rain 2 1003 97 10000 0.73 124.561 07:44 08.10.2019
572 Rain 2 1004 97 10000 0.5 0 07:21 08.10.2019
573 Drizzle 2 1004 97 10000 1 0 06:51 08.10.2019
574 Drizzle 2 1005 97 10000 0.5 0 06:28 08.10.2019
575 Rain 2 1006 93 0 4.1 120 05:46 08.10.2019
576 Rain 2 1006 93 0 4.1 120 05:46 08.10.2019
577 Rain 1 1007 86 0 3.1 120 05:25 08.10.2019
578 Clear 1 1008 92 10000 0.5 0 04:31 08.10.2019
579 Clear 1 1008 92 10000 1 0 03:27 08.10.2019
580 Clear 1 1009 92 10000 0.5 0 02:36 08.10.2019
581 Clear 1 1009 85 10000 0.62 162.446 01:47 08.10.2019
582 Clear 1 1010 84 10000 1.11 133.653 01:27 08.10.2019
583 Clear 1 1010 84 10000 1.11 133.653 00:46 08.10.2019
584 Clear 1 1010 86 10000 1 0 00:21 08.10.2019
585 Clear 2 1011 80 10000 0.5 0 23:40 07.10.2019
586 Clear 1 1011 80 10000 0.5 0 23:20 07.10.2019
587 Clear 2 1012 86 10000 1.16 130.434 22:56 07.10.2019
588 Clear 2 1012 86 10000 1.16 130.434 22:56 07.10.2019
589 Clear 2 1012 86 10000 1.16 130.434 22:38 07.10.2019
590 Clear 2 1012 86 10000 1.16 130.434 22:38 07.10.2019
591 Clear 2 1013 86 10000 1 230 22:20 07.10.2019
592 Clear 2 1013 86 10000 1.16 130.434 21:56 07.10.2019
593 Clear 2 1013 86 10000 1.16 130.434 21:56 07.10.2019
594 Clear 2 1013 86 10000 1.16 130.434 21:38 07.10.2019
595 Clear 2 1013 86 10000 1 280 21:20 07.10.2019
596 Clear 2 1013 80 10000 1 0 20:57 07.10.2019
597 Clear 2 1013 80 10000 1 0 20:39 07.10.2019
598 Clear 2 1013 69 10000 1.1 138.024 20:20 07.10.2019
599 Clear 2 1014 74 10000 0.5 0 19:58 07.10.2019
600 Clear 2 1014 74 10000 0.5 0 19:39 07.10.2019
601 Clear 3 1015 69 10000 1.5 210 19:19 07.10.2019
602 Clear 3 1015 69 10000 1.5 190 18:56 07.10.2019
603 Clear 4 1015 69 10000 1.5 190 18:38 07.10.2019
604 Clear 5 1016 65 10000 3.1 210 18:18 07.10.2019
605 Clear 6 1016 65 10000 3.1 200 17:43 07.10.2019
606 Clear 6 1016 56 10000 2.1 230 17:20 07.10.2019
607 Clear 6 1016 52 10000 2.1 230 16:57 07.10.2019
608 Clear 7 1016 52 10000 2.1 230 16:38 07.10.2019
609 Clear 7 1017 52 10000 1 0 16:20 07.10.2019
610 Clear 7 1017 52 10000 2.1 0 15:45 07.10.2019
611 Clouds 7 1017 52 10000 1.5 0 15:25 07.10.2019
612 Clouds 7 1018 56 10000 1 0 14:55 07.10.2019
613 Clouds 7 1018 56 10000 1 0 14:37 07.10.2019
614 Clouds 7 1018 56 10000 2.1 0 14:18 07.10.2019
615 Clouds 7 1019 56 10000 2.1 50 13:41 07.10.2019
616 Clouds 7 1019 60 10000 1.5 0 13:20 07.10.2019
617 Clear 6 1019 60 10000 1.5 40 12:55 07.10.2019
618 Clear 6 1019 60 10000 1.5 40 12:37 07.10.2019
619 Clear 5 1020 64 10000 2.1 30 12:19 07.10.2019
620 Clear 4 1020 64 10000 1 0 11:57 07.10.2019
621 Clear 3 1020 64 10000 1 0 11:37 07.10.2019
622 Clear 2 1021 64 10000 1 0 11:18 07.10.2019
623 Clear 2 1021 74 10000 0.78 325.435 10:41 07.10.2019
624 Clear 2 1021 74 10000 0.78 325.435 10:41 07.10.2019
625 -273 0 0 0 0 0 10:41 07.10.2019
626 Clear 1 1021 41 10000 0.5 0 10:20 07.10.2019
627 Clear 1 1021 41 10000 0.5 0 10:20 07.10.2019
628 Clear -1 1021 86 10000 0.5 0 09:42 07.10.2019
629 Clear -1 1021 86 10000 0.5 0 09:42 07.10.2019
630 Clear -2 1021 86 10000 0.5 0 09:23 07.10.2019
631 Clear -3 1021 79 10000 1.5 10 08:56 07.10.2019
632 Clear -3 1021 79 10000 1.5 10 08:38 07.10.2019
633 Clear -3 1020 85 10000 2.1 350 08:19 07.10.2019
634 Clear -3 1020 92 10000 2.1 340 07:41 07.10.2019
635 Clear -3 1021 92 10000 2.6 350 07:22 07.10.2019
636 Clear -3 1021 92 10000 2.1 360 06:49 07.10.2019
637 Clear -3 1021 92 10000 2.1 340 06:27 07.10.2019
638 Clear -3 1021 92 10000 2.1 10 05:47 07.10.2019
639 Clear -3 1021 92 10000 2.1 340 05:21 07.10.2019
640 Clear -2 1022 86 10000 1.5 360 04:25 07.10.2019
641 Clear -3 1022 86 10000 2.1 350 03:44 07.10.2019
642 Clear -2 1022 86 10000 2.1 340 03:21 07.10.2019
643 Clear -2 1022 86 10000 2.1 350 02:21 07.10.2019
644 Clear -2 1022 79 10000 1.5 10 01:52 07.10.2019
645 Clear -2 1022 86 10000 1 0 01:21 07.10.2019
646 Clear -2 1023 86 10000 1.5 10 00:39 07.10.2019
647 Clear -2 1023 86 10000 1 0 00:20 07.10.2019
648 Clear -1 1023 80 10000 1 0 23:42 06.10.2019
649 Clear -1 1023 80 10000 1 0 23:42 06.10.2019
650 Clear -1 1023 80 10000 1 0 23:42 06.10.2019
651 Clear -1 1023 80 10000 3.1 330 23:22 06.10.2019
652 Clear -1 1023 80 10000 1.5 340 22:59 06.10.2019
653 Clear -1 1023 80 10000 1.5 340 22:41 06.10.2019
654 Clear -1 1023 80 10000 2.6 320 22:22 06.10.2019
655 Clear -1 1023 86 10000 1.5 350 21:58 06.10.2019
656 Clear -1 1023 86 10000 1.5 350 21:38 06.10.2019
657 Clear 0 1023 68 10000 1.5 360 21:19 06.10.2019
658 Clear 0 1023 68 10000 1.5 350 20:58 06.10.2019
659 Clear 0 1023 70 10000 1.5 350 20:40 06.10.2019
660 Clear 0 1023 70 10000 1.5 350 20:40 06.10.2019
661 Clear 1 1023 70 10000 1.5 350 20:21 06.10.2019
662 Clear 1 1023 69 10000 1 0 19:57 06.10.2019
663 Clear 1 1023 69 10000 1 0 19:57 06.10.2019
664 Clear 1 1023 69 10000 1 0 19:37 06.10.2019
665 Clear 2 1024 59 10000 1 0 19:19 06.10.2019
666 Clear 3 1023 59 10000 2.1 40 18:57 06.10.2019
667 Clear 3 1023 59 10000 2.1 40 18:38 06.10.2019
668 Clear 4 1023 48 10000 1 0 18:19 06.10.2019
669 Clear 4 1023 48 10000 1 0 18:19 06.10.2019
670 Clear 5 1023 48 10000 2.1 40 17:57 06.10.2019
671 Clear 5 1023 48 10000 2.1 40 17:39 06.10.2019
672 Clear 5 1024 48 10000 3.1 20 17:19 06.10.2019
673 Clear 6 1024 44 10000 2.6 30 16:42 06.10.2019
674 Clear 6 1024 48 10000 2.1 30 16:24 06.10.2019
675 Clear 6 1024 48 10000 2.6 30 15:56 06.10.2019
676 Clear 6 1024 48 10000 2.6 30 15:38 06.10.2019
677 Clear 6 1024 44 10000 3.1 0 15:18 06.10.2019
678 Clear 6 1025 44 10000 3.1 0 14:42 06.10.2019
679 Clear 6 1025 48 10000 2.6 30 14:24 06.10.2019
680 Clear 6 1025 51 10000 2.6 20 13:58 06.10.2019
681 Clear 5 1025 55 10000 2.6 350 13:39 06.10.2019
682 Clear 5 1025 55 10000 2.6 350 13:20 06.10.2019
683 Clear 5 1026 55 10000 2.1 10 12:56 06.10.2019
684 Clear 4 1026 55 10000 3.6 30 12:38 06.10.2019
685 Clear 4 1026 55 10000 3.6 30 12:20 06.10.2019
686 Clouds 3 1026 69 10000 3.1 30 11:56 06.10.2019
687 Clouds 3 1026 69 10000 3.1 30 11:37 06.10.2019
688 Clouds 3 1026 69 10000 3.1 30 11:37 06.10.2019
689 Clear 3 1026 74 10000 3.6 30 11:18 06.10.2019
690 Clear 2 1026 80 10000 2.1 40 10:43 06.10.2019
691 Clouds 1 1026 59 10000 2.1 40 10:24 06.10.2019
692 Clouds 1 1026 86 10000 2.1 30 09:56 06.10.2019
693 Clouds 0 1026 92 10000 1 0 09:38 06.10.2019
694 Clouds -1 1026 92 10000 1 0 09:18 06.10.2019
695 Clouds -1 1026 92 10000 1 360 08:40 06.10.2019
696 Clouds -1 1026 92 10000 1.5 360 08:20 06.10.2019
697 Clouds -2 1025 100 10000 1 0 07:44 06.10.2019
698 Clouds -1 1025 92 10000 1.5 350 07:19 06.10.2019
699 Clouds -1 1026 92 10000 1 340 06:20 06.10.2019
700 Clouds -1 1026 92 10000 1.5 10 05:33 06.10.2019
701 Clouds -1 1026 86 10000 1.5 360 03:41 06.10.2019
702 Clouds -2 1026 92 10000 1.5 350 02:42 06.10.2019
703 Clouds -1 1026 92 10000 1 0 02:20 06.10.2019
704 Clouds -1 1026 100 10000 0.82 329.513 01:40 06.10.2019
705 Clouds -2 1026 86 10000 1.5 30 01:21 06.10.2019
706 Clouds -2 1026 86 10000 2.1 350 00:46 06.10.2019
707 Clouds -1 1026 92 10000 2.1 340 00:25 06.10.2019
708 Clouds -1 1026 86 10000 2.1 340 23:44 05.10.2019
709 Clouds -1 1025 92 10000 2.1 340 23:22 05.10.2019
710 Clear -1 1025 86 10000 2.1 340 22:58 05.10.2019
711 Clear -1 1025 86 10000 2.1 340 22:40 05.10.2019
712 Clear -1 1025 86 10000 2.1 340 22:40 05.10.2019
713 Clear -1 1025 86 10000 1.5 330 22:20 05.10.2019
714 Clear 0 1025 82 10000 0.5 0 21:56 05.10.2019
715 Clear 0 1025 82 10000 0.5 0 21:38 05.10.2019
716 Clear 0 1025 74 10000 1 0 21:18 05.10.2019
717 Clouds 1 1024 74 10000 1 0 20:55 05.10.2019
718 Clouds 1 1024 74 10000 1 0 20:37 05.10.2019
719 Clouds 1 1024 64 10000 0.32 315.505 20:18 05.10.2019
720 Clouds 2 1024 55 10000 1 0 19:37 05.10.2019
721 Clouds 2 1024 55 10000 1 0 19:19 05.10.2019
722 Clouds 2 1024 55 10000 1 0 19:19 05.10.2019
723 Clouds 3 1024 60 10000 2.1 200 18:55 05.10.2019
724 Clouds 3 1024 60 10000 2.1 200 18:55 05.10.2019
725 Clouds 3 1024 60 10000 2.1 200 18:37 05.10.2019
726 Clouds 5 1024 52 10000 1.5 200 18:19 05.10.2019
727 Clouds 6 1023 52 10000 1.5 190 17:43 05.10.2019
728 Clouds 6 1023 48 10000 0.77 307.168 17:25 05.10.2019
729 Clouds 6 1023 48 10000 1.5 230 16:58 05.10.2019
730 Clouds 6 1023 48 10000 2.1 240 16:40 05.10.2019
731 Clouds 6 1023 48 10000 2.1 240 16:21 05.10.2019
732 Clouds 6 1023 48 10000 2.1 210 15:57 05.10.2019
733 Clouds 7 1023 48 10000 2.1 210 15:38 05.10.2019
734 Clouds 7 1023 48 10000 2.1 0 15:20 05.10.2019
735 Clouds 6 1023 52 10000 1.5 190 14:44 05.10.2019
736 Clouds 7 1023 48 10000 1.5 190 14:25 05.10.2019
737 Clouds 6 1023 48 10000 1 0 13:59 05.10.2019
738 Clouds 6 1023 48 10000 1 0 13:40 05.10.2019
739 Clouds 6 1023 48 10000 1.5 170 13:20 05.10.2019
740 Clouds 6 1023 55 10000 2.1 160 12:44 05.10.2019
741 Clouds 5 1023 64 10000 1.5 160 12:20 05.10.2019
742 Clouds 5 1023 69 10000 1.5 200 11:44 05.10.2019
743 Clear 4 1024 64 10000 1 0 11:23 05.10.2019
744 Clouds 4 1023 69 10000 1 0 10:59 05.10.2019
745 Clouds 3 1022 80 10000 1 0 10:40 05.10.2019
746 Clouds 2 1022 80 10000 1 0 10:21 05.10.2019
747 Clouds 1 1022 69 10000 0.5 0 09:56 05.10.2019
748 Clouds 1 1022 69 10000 0.5 0 09:37 05.10.2019
749 Clouds 0 1022 92 10000 1.46 342.224 09:19 05.10.2019
750 Clouds 0 1022 92 10000 1.54 339.035 08:39 05.10.2019
751 Clear -1 1023 92 0 2.1 360 08:19 05.10.2019
752 Clear -1 1021 92 10000 1 0 07:52 05.10.2019
753 Clear -1 1021 92 10000 1 0 07:31 05.10.2019
754 Clear -1 1021 92 10000 1 0 06:57 05.10.2019
755 Clear -1 1021 92 10000 1 20 06:26 05.10.2019
756 Clear 0 1021 92 10000 1 360 05:40 05.10.2019
757 Clear 0 1021 92 10000 1.5 320 03:39 05.10.2019
758 Clear 0 1020 86 10000 1 350 03:20 05.10.2019
759 Clear 1 1020 92 10000 1 340 01:29 05.10.2019
760 Clear 1 1020 92 10000 1.5 20 00:51 05.10.2019
761 Clear 1 1020 92 10000 2.1 40 00:28 05.10.2019
762 Clouds 1 1019 89 10000 1.5 20 23:59 04.10.2019
763 Clouds 1 1019 89 10000 1.5 20 23:41 04.10.2019
764 Clouds 1 1019 89 10000 1 0 23:23 04.10.2019
765 Clouds 1 1019 80 10000 1 0 22:57 04.10.2019
766 Clouds 1 1019 80 10000 1 0 22:38 04.10.2019
767 Clouds 1 1019 80 10000 1 0 22:38 04.10.2019
768 Clouds 1 1019 80 10000 3.1 360 22:19 04.10.2019
769 Clouds 2 1019 80 10000 3.1 10 21:55 04.10.2019
770 Clouds 2 1019 80 10000 3.1 10 21:36 04.10.2019
771 Clouds 2 1019 74 10000 3.6 360 21:18 04.10.2019
772 Clouds 2 1018 74 10000 3.6 360 20:42 04.10.2019
773 Clear 3 1018 74 10000 2.6 360 20:23 04.10.2019
774 Clear 3 1018 69 10000 2.1 350 19:58 04.10.2019
775 Clear 3 1018 69 10000 2.1 350 19:39 04.10.2019
776 Clear 4 1018 64 10000 2.1 340 19:21 04.10.2019
777 Clear 4 1017 69 10000 2.6 10 18:56 04.10.2019
778 Clear 4 1017 64 10000 3.1 10 18:37 04.10.2019
779 Clear 5 1017 64 10000 3.1 10 18:18 04.10.2019
780 Clear 5 1017 64 10000 3.1 10 18:18 04.10.2019
781 Clouds 5 1017 64 10000 4.1 20 17:41 04.10.2019
782 Clouds 5 1017 64 10000 4.1 20 17:41 04.10.2019
783 Rain 5 1017 64 10000 3.1 30 17:22 04.10.2019
784 Rain 5 1017 56 10000 4.1 20 16:58 04.10.2019
785 Rain 6 1017 56 10000 4.1 20 16:40 04.10.2019
786 Rain 6 1017 60 10000 4.1 10 16:19 04.10.2019
787 Rain 6 1017 60 10000 4.1 10 16:19 04.10.2019
788 Rain 6 1017 52 10000 4.1 20 15:57 04.10.2019
789 Rain 6 1017 60 10000 4.6 40 15:39 04.10.2019
790 Rain 6 1017 60 10000 4.6 40 15:20 04.10.2019
791 Clouds 6 1017 56 10000 4.1 30 14:56 04.10.2019
792 Clouds 6 1017 56 10000 4.1 30 14:38 04.10.2019
793 Clouds 5 1017 60 10000 4.1 20 14:20 04.10.2019
794 Clouds 5 1017 64 10000 4.1 30 13:44 04.10.2019
795 Clouds 5 1017 60 10000 2.6 50 13:22 04.10.2019
796 Clouds 5 1017 64 10000 4.6 40 12:55 04.10.2019
797 Clouds 5 1017 64 10000 4.6 40 12:37 04.10.2019
798 Clouds 4 1018 69 10000 4.1 30 12:18 04.10.2019
799 Clouds 4 1018 69 10000 4.1 30 11:42 04.10.2019
800 Clouds 4 1018 69 10000 4.1 30 11:42 04.10.2019
801 Clouds 4 1017 74 10000 4.1 30 11:22 04.10.2019
802 Rain 4 1017 74 10000 2.6 10 10:55 04.10.2019
803 Rain 4 1017 74 10000 2.6 10 10:37 04.10.2019
804 Clouds 3 1017 80 10000 2.6 20 10:18 04.10.2019
805 Clouds 2 1017 86 10000 3.1 20 09:41 04.10.2019
806 Clouds 2 1017 86 10000 2.6 20 09:23 04.10.2019
807 Clouds 2 1017 86 10000 3.1 10 08:45 04.10.2019
808 Clouds 2 1016 93 0 3.6 30 08:26 04.10.2019
809 Clouds 2 1016 86 10000 2.6 30 07:47 04.10.2019
810 Clear 2 1016 86 10000 2.6 360 07:26 04.10.2019
811 Clear 2 1016 86 10000 2.1 30 06:59 04.10.2019
812 Clear 2 1016 86 10000 2.1 30 06:39 04.10.2019
813 Clear 2 1016 86 10000 2.1 30 06:20 04.10.2019
814 Drizzle 2 1016 94 10000 3.1 40 05:21 04.10.2019
815 Drizzle 2 1016 94 10000 2.1 30 04:38 04.10.2019
816 Drizzle 3 1016 93 10000 3.1 20 03:28 04.10.2019
817 Drizzle 3 1016 93 10000 2.1 20 02:44 04.10.2019
818 Drizzle 3 1016 93 10000 2.6 10 01:54 04.10.2019
819 Drizzle 3 1017 93 10000 2.6 360 01:26 04.10.2019
820 Rain 3 1017 86 10000 1.5 10 00:34 04.10.2019
821 Rain 3 1016 86 10000 2.6 20 23:41 03.10.2019
822 Rain 3 1016 86 10000 2.6 30 23:22 03.10.2019
823 Rain 4 1016 86 10000 3.1 70 22:58 03.10.2019
824 Rain 4 1016 86 10000 3.1 70 22:58 03.10.2019
825 Rain 4 1016 86 10000 3.1 70 22:39 03.10.2019
826 Rain 4 1016 86 10000 3.1 70 22:39 03.10.2019
827 Rain 4 1016 86 10000 3.1 70 22:39 03.10.2019
828 Rain 4 1016 86 10000 4.6 70 22:21 03.10.2019
829 Rain 4 1016 93 10000 4.6 60 21:58 03.10.2019
830 Rain 4 1016 93 10000 4.6 60 21:40 03.10.2019
831 Rain 4 1016 93 10000 4.1 40 21:20 03.10.2019
832 Rain 4 1016 93 10000 4.1 40 20:58 03.10.2019
833 Rain 4 1016 93 10000 4.1 40 20:39 03.10.2019
834 Rain 4 1016 93 10000 3.6 20 20:20 03.10.2019
835 Rain 4 1015 86 10000 4.1 10 19:56 03.10.2019
836 Rain 4 1015 86 10000 4.1 10 19:56 03.10.2019
837 Rain 4 1015 86 10000 4.1 10 19:56 03.10.2019
838 Rain 4 1015 86 10000 4.1 10 19:38 03.10.2019
839 Rain 4 1015 86 10000 3.1 20 19:19 03.10.2019
840 Rain 5 1015 75 10000 3.1 60 18:56 03.10.2019
841 Rain 5 1015 75 10000 3.1 50 18:37 03.10.2019
842 Rain 5 1015 75 10000 3.1 50 18:18 03.10.2019
843 Drizzle 5 1015 75 10000 2.6 50 17:42 03.10.2019
844 Rain 5 1015 75 10000 3.1 30 17:22 03.10.2019
845 Rain 5 1015 75 10000 3.6 30 16:57 03.10.2019
846 Rain 5 1015 75 10000 4.1 40 16:39 03.10.2019
847 Rain 5 1015 75 10000 4.1 40 16:20 03.10.2019
848 Rain 5 1015 80 10000 5.1 30 15:45 03.10.2019
849 Rain 5 1015 75 10000 4.6 30 15:24 03.10.2019
850 Rain 5 1015 96 10000 2.6 60 14:59 03.10.2019
851 Rain 5 1015 96 10000 2.1 50 14:37 03.10.2019
852 Rain 5 1015 96 10000 2.1 50 14:19 03.10.2019
853 Rain 5 1015 96 10000 2.6 0 13:44 03.10.2019
854 Rain 5 1016 96 10000 2.6 80 13:26 03.10.2019
855 Rain 6 1015 75 10000 1.5 350 12:59 03.10.2019
856 Rain 6 1015 75 10000 1.5 350 12:40 03.10.2019
857 Rain 6 1015 75 10000 1.5 350 12:40 03.10.2019
858 -273 0 0 0 0 0 12:20 03.10.2019
859 Clouds 5 1015 80 10000 1 0 11:58 03.10.2019
860 Clouds 5 1015 80 10000 1 0 11:58 03.10.2019
861 Clouds 5 1015 80 10000 1 0 11:40 03.10.2019
862 Rain 5 1015 91 10000 1.5 50 11:21 03.10.2019
863 Rain 5 1015 91 10000 1 0 10:57 03.10.2019
864 Rain 5 1015 91 10000 1 0 10:38 03.10.2019
865 Rain 5 1015 91 10000 1.5 60 10:18 03.10.2019
866 Clouds 5 1015 91 10000 2.1 0 09:56 03.10.2019
867 Clouds 5 1015 91 10000 2.1 0 09:37 03.10.2019
868 Clouds 4 1015 69 10000 1.5 90 09:19 03.10.2019
869 Clouds 4 1014 88 10000 1.5 100 08:42 03.10.2019
870 Clouds 4 1014 88 10000 2.1 100 08:24 03.10.2019
871 Clouds 4 1014 88 10000 2.6 120 07:42 03.10.2019
872 Clouds 4 1014 80 10000 2.6 110 07:20 03.10.2019
873 Clouds 4 1014 80 10000 1 0 06:53 03.10.2019
874 Clouds 4 1014 80 10000 2.1 100 06:27 03.10.2019
875 Clouds 5 1014 80 10000 1.5 90 05:49 03.10.2019
876 Clouds 4 1014 80 10000 1 0 05:27 03.10.2019
877 Clouds 4 1014 80 10000 1.5 60 04:45 03.10.2019
878 Clouds 5 1013 80 10000 2.1 50 03:54 03.10.2019
879 Clouds 5 1013 80 10000 1.5 320 03:19 03.10.2019
880 Clouds 5 1013 70 10000 2.6 50 02:22 03.10.2019
881 Clouds 5 1013 80 10000 2.6 20 01:40 03.10.2019
882 Clouds 6 1013 75 10000 2.6 360 00:53 03.10.2019
883 Clouds 6 1012 75 10000 3.1 20 00:31 03.10.2019
884 Clouds 6 1012 75 10000 1.5 350 23:55 02.10.2019
885 Clouds 7 1012 75 10000 1.5 350 23:36 02.10.2019
886 Clouds 7 1012 70 10000 3.1 30 23:18 02.10.2019
887 Clouds 7 1011 70 10000 3.6 20 22:41 02.10.2019
888 Clouds 7 1011 70 10000 3.6 20 22:20 02.10.2019
889 Clouds 7 1011 70 10000 4.6 20 21:55 02.10.2019
890 Clouds 7 1011 70 10000 4.6 20 21:55 02.10.2019
891 Clouds 7 1011 70 10000 4.6 20 21:37 02.10.2019
892 Rain 8 1010 75 10000 4.1 30 21:18 02.10.2019
893 Rain 8 1010 75 10000 4.6 20 20:55 02.10.2019
894 Rain 8 1010 75 10000 4.6 20 20:55 02.10.2019
895 Rain 8 1010 75 10000 4.6 20 20:55 02.10.2019
896 Rain 8 1010 75 10000 4.6 20 20:54 02.10.2019
897 Rain 8 1010 75 10000 4.6 20 20:36 02.10.2019
898 Rain 8 1010 75 10000 4.6 20 20:36 02.10.2019
899 Rain 8 1009 75 10000 2.6 10 20:18 02.10.2019
900 Clouds 8 1009 70 10000 3.6 30 19:43 02.10.2019
901 Rain 8 1009 70 10000 2.1 10 19:21 02.10.2019
902 Clouds 8 1008 70 10000 5.7 30 18:57 02.10.2019
903 Clouds 8 1008 70 10000 5.7 30 18:38 02.10.2019
904 Clouds 9 1008 70 10000 5.7 30 18:20 02.10.2019
905 Clouds 9 1008 66 10000 5.7 20 17:57 02.10.2019
906 Clouds 9 1008 66 10000 5.7 20 17:38 02.10.2019
907 Clouds 9 1007 66 10000 6.2 20 17:19 02.10.2019
908 Clouds 9 1006 66 10000 5.7 10 16:42 02.10.2019
909 Clouds 10 1005 66 10000 8.2 20 16:22 02.10.2019
910 Clouds 10 1005 66 10000 8.2 20 15:59 02.10.2019
911 Clouds 10 1005 66 10000 7.7 10 15:40 02.10.2019
912 Clouds 10 1005 66 10000 7.7 10 15:22 02.10.2019
913 Clouds 10 1004 70 10000 6.2 10 14:57 02.10.2019
914 Clouds 9 1004 70 10000 6.7 10 14:39 02.10.2019
915 Clouds 9 1004 70 10000 6.7 10 14:39 02.10.2019
916 Clouds 9 1004 70 10000 6.7 10 14:20 02.10.2019
917 Drizzle 9 1003 70 10000 7.2 10 13:45 02.10.2019
918 Drizzle 9 1003 70 10000 7.2 10 13:25 02.10.2019
919 Drizzle 9 1002 70 10000 7.2 10 12:58 02.10.2019
920 Drizzle 9 1002 75 10000 7.2 360 12:37 02.10.2019
921 Drizzle 8 1002 75 10000 7.2 360 12:19 02.10.2019
922 Drizzle 8 1000 75 10000 7.7 10 11:44 02.10.2019
923 Drizzle 8 1000 75 10000 7.7 10 11:23 02.10.2019
924 Drizzle 8 999 81 10000 8.2 360 10:42 02.10.2019
925 Drizzle 8 999 81 10000 8.2 360 10:20 02.10.2019
926 Rain 8 998 81 10000 8.2 360 09:59 02.10.2019
927 Drizzle 8 997 81 10000 7.7 360 09:38 02.10.2019
928 Rain 7 996 81 10000 9.3 10 09:19 02.10.2019
929 Rain 7 996 81 10000 9.3 10 08:44 02.10.2019
930 -273 0 0 0 0 0 08:25 02.10.2019
931 Drizzle 7 995 87 10000 7.2 360 07:59 02.10.2019
932 Rain 6 994 93 10000 7.2 360 07:38 02.10.2019
933 Rain 6 994 93 10000 7.2 360 07:20 02.10.2019
934 Drizzle 6 993 87 10000 6.2 360 06:36 02.10.2019
935 Drizzle 6 994 87 0 4.1 340 05:55 02.10.2019
936 Rain 6 993 87 10000 7.2 350 05:24 02.10.2019
937 Rain 5 992 86 10000 6.7 350 04:50 02.10.2019
938 Rain 6 992 93 10000 4.1 340 03:52 02.10.2019
939 Rain 6 991 86 10000 3.6 340 02:41 02.10.2019
940 Rain 6 991 86 10000 3.6 340 02:23 02.10.2019
941 Rain 6 991 75 10000 3.1 330 01:22 02.10.2019
942 Rain 7 991 70 10000 4.1 320 00:49 02.10.2019
943 Rain 7 991 70 10000 4.1 320 00:25 02.10.2019
944 Clear 7 991 65 10000 3.6 330 23:43 01.10.2019
945 Clear 7 991 65 10000 3.6 330 23:24 01.10.2019
946 Clouds 6 990 70 10000 4.6 350 22:58 01.10.2019
947 Clear 7 990 75 10000 1.5 320 22:39 01.10.2019
948 Clear 7 990 75 10000 1.5 320 22:19 01.10.2019
949 Clear 7 990 70 10000 1 0 21:55 01.10.2019
950 Clear 7 990 65 10000 1 0 21:37 01.10.2019
951 Clear 7 990 65 10000 1 0 21:18 01.10.2019
952 Clear 8 990 61 10000 1.5 280 20:54 01.10.2019
953 Clear 8 990 61 10000 1.5 280 20:36 01.10.2019
954 Clear 8 990 57 10000 3.1 350 20:18 01.10.2019
955 Clear 8 990 53 10000 2.1 10 19:44 01.10.2019
956 Clear 9 990 53 10000 2.1 10 19:26 01.10.2019
957 Clear 10 990 65 10000 2.6 350 18:59 01.10.2019
958 Clear 10 989 43 10000 2.1 340 18:39 01.10.2019
959 Clear 10 989 43 10000 2.1 340 18:39 01.10.2019
960 Clear 11 989 43 10000 2.1 340 18:21 01.10.2019
961 Clear 12 989 37 10000 2.6 290 17:55 01.10.2019
962 Clear 12 989 37 10000 2.1 280 17:37 01.10.2019
963 Clear 12 989 37 10000 2.1 280 17:18 01.10.2019
964 Clear 13 989 37 10000 3.1 270 16:54 01.10.2019
965 Clear 13 989 34 10000 3.6 290 16:36 01.10.2019
966 Clear 13 989 35 10000 3.6 300 16:18 01.10.2019
967 Clear 13 989 34 10000 3.6 290 15:42 01.10.2019
968 Clear 13 989 34 10000 4.1 270 15:21 01.10.2019
969 Clear 13 990 37 10000 3.1 0 14:41 01.10.2019
970 Clear 12 990 37 10000 3.1 0 14:20 01.10.2019
971 -273 0 0 0 0 0 13:57 01.10.2019
972 Clear 12 990 40 10000 3.6 270 13:38 01.10.2019
973 Clear 12 990 46 10000 3.1 0 13:18 01.10.2019
974 Clear 12 990 46 10000 3.1 0 12:56 01.10.2019
975 Clear 11 992 53 10000 4.1 240 12:38 01.10.2019
976 Clear 11 992 53 10000 4.1 240 12:18 01.10.2019
977 Clear 11 992 53 10000 4.1 240 11:57 01.10.2019
978 Clear 11 992 53 10000 3.6 260 11:37 01.10.2019
979 Clear 10 992 53 10000 3.6 260 11:18 01.10.2019
980 Clear 9 992 57 10000 4.1 260 10:47 01.10.2019
981 Clear 8 992 57 10000 3.6 240 10:28 01.10.2019
982 Clear 7 992 65 10000 3.6 220 09:46 01.10.2019
983 Clear 5 990 85 10000 1 0 09:26 01.10.2019
984 Clear 4 990 82 10000 1 0 08:46 01.10.2019
985 Clear 4 990 86 10000 1 0 08:27 01.10.2019
986 Clear 4 990 82 10000 2.6 60 07:58 01.10.2019
987 Clouds 4 992 82 0 4.1 210 07:40 01.10.2019
988 Clear 4 990 69 10000 3.1 350 07:20 01.10.2019
989 Clear 4 990 80 10000 1 0 06:42 01.10.2019
990 Clear 4 990 80 10000 1 0 06:18 01.10.2019
991 Clear 4 989 69 10000 1.5 220 05:44 01.10.2019
992 Clear 4 989 69 10000 1.5 220 05:44 01.10.2019
993 Clear 5 989 69 10000 4.1 200 04:42 01.10.2019
994 Clear 5 989 52 10000 2.1 200 03:49 01.10.2019
995 Clear 4 990 64 10000 2.1 220 02:20 01.10.2019
996 Clear 5 990 56 10000 1 0 01:56 01.10.2019
997 Clear 4 990 60 10000 3.6 220 00:52 01.10.2019
998 Clear 5 990 56 10000 2.1 250 00:26 01.10.2019
999 Clear 5 991 48 10000 1 0 23:42 30.09.2019
1000 Clear 5 991 48 10000 1 0 23:42 30.09.2019
1001 Clear 5 991 48 10000 1 0 23:23 30.09.2019
1002 Clear 5 991 56 10000 2.1 0 22:59 30.09.2019
1003 Clear 5 991 56 10000 2.1 0 22:59 30.09.2019
1004 Clear 5 991 56 10000 2.1 220 22:40 30.09.2019
1005 Clear 5 991 60 10000 2.6 230 22:22 30.09.2019
1006 Clear 5 991 60 10000 2.6 230 21:56 30.09.2019
1007 Clear 5 991 60 10000 2.6 230 21:56 30.09.2019
1008 Clear 5 991 60 10000 1 0 21:37 30.09.2019
1009 Clear 5 991 60 10000 1 0 21:19 30.09.2019
1010 Clear 5 991 88 10000 1 0 20:55 30.09.2019
1011 Clear 5 991 88 10000 1 0 20:55 30.09.2019
1012 Clear 5 991 75 10000 2.1 210 20:37 30.09.2019
1013 Clear 5 991 80 10000 3.1 200 20:19 30.09.2019
1014 Clear 5 991 80 10000 3.1 200 19:56 30.09.2019
1015 Clear 5 991 80 10000 3.1 200 19:55 30.09.2019
1016 Clear 5 991 75 10000 2.1 180 19:37 30.09.2019
1017 Clear 5 991 75 10000 2.1 180 19:18 30.09.2019
1018 Clear 5 991 75 10000 2.1 180 19:18 30.09.2019
1019 Clear 6 991 75 10000 1.5 210 18:41 30.09.2019
1020 Clear 7 991 75 10000 1.5 210 18:22 30.09.2019
1021 Clear 8 993 75 10000 2.1 330 17:58 30.09.2019
1022 Clear 7 991 70 10000 1 0 17:39 30.09.2019
1023 Clear 7 991 70 10000 1 0 17:39 30.09.2019
1024 Clear 7 991 70 10000 1 0 17:21 30.09.2019
1025 Clouds 8 991 86 10000 1.5 290 16:55 30.09.2019
1026 Rain 7 990 80 10000 1.5 330 16:36 30.09.2019
1027 Rain 7 991 80 10000 7.2 350 16:18 30.09.2019
1028 Rain 7 991 80 10000 7.2 350 15:54 30.09.2019
1029 Rain 7 990 80 10000 7.7 350 15:36 30.09.2019
1030 Rain 7 990 80 10000 7.7 350 15:18 30.09.2019
1031 Rain 8 990 75 10000 4.1 350 14:54 30.09.2019
1032 Clouds 9 989 81 10000 3.6 360 14:36 30.09.2019
1033 Clouds 9 989 81 10000 3.1 350 14:18 30.09.2019
1034 Clouds 9 989 87 10000 2.6 360 13:43 30.09.2019
1035 Clouds 9 989 87 10000 2.6 360 13:22 30.09.2019
1036 Clouds 9 989 87 10000 2.6 30 12:57 30.09.2019
1037 Clouds 8 990 81 10000 5.7 360 12:39 30.09.2019
1038 Rain 7 989 93 10000 3.6 360 12:19 30.09.2019
1039 Rain 7 989 93 10000 3.1 340 11:43 30.09.2019
1040 Rain 7 989 93 10000 3.1 340 11:22 30.09.2019
1041 Rain 7 989 93 10000 2.1 340 10:58 30.09.2019
1042 Rain 7 989 93 10000 5.7 10 10:38 30.09.2019
1043 Rain 7 988 93 10000 5.7 20 10:18 30.09.2019
1044 Rain 8 988 93 10000 5.7 20 09:57 30.09.2019
1045 Rain 8 988 93 10000 6.7 30 09:38 30.09.2019
1046 Clouds 8 987 100 10000 3.1 350 09:18 30.09.2019
1047 Rain 8 988 93 10000 5.7 10 08:46 30.09.2019
1048 Rain 8 988 93 7000 5.7 10 08:27 30.09.2019
1049 Rain 8 987 93 10000 5.7 20 07:42 30.09.2019
1050 Rain 8 987 93 10000 5.7 20 07:20 30.09.2019
1051 Fog 8 987 93 10000 4.6 20 06:50 30.09.2019
1052 Fog 8 987 87 10000 4.6 20 06:31 30.09.2019
1053 Clouds 8 988 93 10000 5.7 10 05:45 30.09.2019
1054 Fog 8 988 100 10000 1 0 02:55 30.09.2019
1055 Fog 8 988 100 800 0.24 72.534 02:37 30.09.2019
1056 Rain 8 989 100 10000 2.1 20 01:31 30.09.2019
1057 Rain 8 989 93 10000 1.5 310 00:38 30.09.2019
1058 Mist 8 989 93 10000 0.5 0 00:20 30.09.2019
1059 Clear 8 989 93 10000 0.5 0 23:44 29.09.2019
1060 Clear 8 989 93 10000 0.5 0 23:22 29.09.2019
1061 -273 0 0 0 0 0 22:55 29.09.2019
1062 Clear 8 989 93 10000 0.5 10 22:55 29.09.2019
1063 Clear 8 990 87 10000 1 0 22:36 29.09.2019
1064 Clear 8 990 87 10000 1 0 22:18 29.09.2019
1065 Clear 8 990 87 10000 1 360 21:56 29.09.2019
1066 Clear 8 990 93 10000 0.78 165.982 21:37 29.09.2019
1067 Clear 8 990 93 10000 0.78 165.982 21:37 29.09.2019
1068 Clear 8 991 87 10000 1.5 320 21:18 29.09.2019
1069 Clear 9 991 87 10000 2.1 250 20:43 29.09.2019
1070 Clear 9 991 87 10000 1.5 210 20:20 29.09.2019
1071 Clear 9 991 87 10000 1.5 210 19:58 29.09.2019
1072 Clear 10 991 76 10000 1.5 210 19:37 29.09.2019
1073 Clear 10 991 76 10000 1.5 210 19:19 29.09.2019
1074 Clouds 11 992 81 0 2.1 260 18:56 29.09.2019
1075 Clouds 12 992 71 10000 2.1 190 18:37 29.09.2019
1076 Clouds 13 992 66 10000 2.1 200 18:19 29.09.2019
1077 Clouds 13 992 66 10000 2.1 200 17:56 29.09.2019
1078 Clouds 14 992 71 10000 1 0 17:38 29.09.2019
1079 Clouds 14 992 71 10000 1 0 17:19 29.09.2019
1080 Clouds 15 993 71 10000 2.1 170 16:57 29.09.2019
1081 Clouds 15 993 71 10000 2.1 170 16:57 29.09.2019
1082 Clouds 14 993 66 10000 1 0 16:39 29.09.2019
1083 Clouds 14 993 66 10000 1 0 16:18 29.09.2019
1084 Clouds 14 993 71 10000 1 0 15:41 29.09.2019
1085 Rain 15 994 66 10000 1.5 0 15:20 29.09.2019
1086 Rain 14 994 66 10000 1.5 0 14:59 29.09.2019
1087 Clouds 14 994 66 10000 1 0 14:40 29.09.2019
1088 Clouds 14 995 66 10000 1.5 40 14:20 29.09.2019
1089 Clouds 14 995 66 10000 1.5 40 13:57 29.09.2019
1090 Clouds 13 995 71 10000 1.5 10 13:39 29.09.2019
1091 Clouds 13 995 71 10000 2.1 10 13:19 29.09.2019
1092 Clouds 13 995 71 10000 2.1 10 12:57 29.09.2019
1093 Clouds 13 995 81 10000 2.1 350 12:39 29.09.2019
1094 Clouds 13 995 81 10000 2.1 350 12:39 29.09.2019
1095 Clouds 12 995 81 10000 2.1 350 12:21 29.09.2019
1096 Clouds 12 996 87 10000 1.5 340 11:55 29.09.2019
1097 Clouds 11 996 87 10000 1 0 11:37 29.09.2019
1098 Clouds 11 996 87 10000 1 0 11:18 29.09.2019
1099 Rain 11 996 93 10000 1.5 20 10:55 29.09.2019
1100 Clouds 11 996 93 10000 1.5 320 10:36 29.09.2019
1101 Clouds 11 996 93 10000 1.5 320 10:18 29.09.2019
1102 Fog 10 996 100 10000 1.5 310 09:43 29.09.2019
1103 Fog 10 996 93 10000 1 0 09:20 29.09.2019
1104 Fog 10 996 93 10000 1 0 08:57 29.09.2019
1105 Fog 10 996 93 10000 1 340 08:37 29.09.2019
1106 Fog 10 996 93 10000 1 0 08:18 29.09.2019
1107 Fog 10 996 93 10000 1 0 07:41 29.09.2019
1108 Fog 10 996 93 10000 1 0 07:23 29.09.2019
1109 Fog 10 997 93 10000 1 30 06:42 29.09.2019
1110 Fog 10 998 100 10000 1.5 360 04:57 29.09.2019
1111 Fog 10 998 100 1400 1 340 04:25 29.09.2019
1112 Fog 10 998 100 800 1 340 03:49 29.09.2019
1113 Fog 9 999 100 1000 1.5 330 02:28 29.09.2019
1114 Fog 9 999 100 900 1.5 330 01:51 29.09.2019
1115 Fog 9 999 100 1100 2.1 330 01:30 29.09.2019
1116 Fog 9 1000 100 550 1.5 40 00:42 29.09.2019
1117 Fog 9 1000 100 550 1.5 40 00:19 29.09.2019
1118 Rain 10 1000 93 3000 0.5 0 23:42 28.09.2019
1119 Rain 10 1000 93 3000 0.5 0 23:22 28.09.2019
1120 Rain 10 1000 100 10000 1.5 340 22:56 28.09.2019
1121 Rain 10 1000 100 10000 0.5 0 22:37 28.09.2019
1122 Rain 10 1000 100 10000 1 0 22:19 28.09.2019
1123 Rain 10 1000 100 10000 1 0 21:55 28.09.2019
1124 Rain 10 1000 100 10000 1 0 21:55 28.09.2019
1125 Rain 10 1000 100 10000 1.5 50 21:36 28.09.2019
1126 Rain 10 1001 100 4500 1 0 21:18 28.09.2019
1127 Rain 10 1001 100 4500 1 0 20:55 28.09.2019
1128 Rain 11 1001 100 10000 1 0 20:36 28.09.2019
1129 Rain 11 1001 100 10000 1 0 20:18 28.09.2019
1130 Fog 11 1001 100 10000 0.5 0 19:54 28.09.2019
1131 Clouds 11 1001 100 10000 0.5 330 19:36 28.09.2019
1132 Rain 11 1001 93 10000 0.62 126.135 19:18 28.09.2019
1133 Rain 12 1001 93 10000 1 0 18:41 28.09.2019
1134 Rain 12 1001 93 10000 4.1 170 18:22 28.09.2019
1135 Rain 12 1001 93 10000 4.1 170 17:59 28.09.2019
1136 Rain 13 1001 93 10000 3.1 180 17:40 28.09.2019
1137 Rain 13 1001 93 10000 3.1 180 17:21 28.09.2019
1138 Rain 13 1001 93 10000 4.1 150 16:49 28.09.2019
1139 Rain 13 1001 93 10000 4.1 150 16:29 28.09.2019
1140 Rain 12 1002 87 10000 4.1 150 15:59 28.09.2019
1141 Clouds 12 1002 87 10000 5.1 140 15:39 28.09.2019
1142 Clouds 12 1002 87 10000 5.1 140 15:21 28.09.2019
1143 Clouds 12 1002 93 10000 4.1 120 14:55 28.09.2019
1144 Rain 12 1002 93 10000 2.6 90 14:36 28.09.2019
1145 Rain 12 1002 100 10000 2.1 70 14:18 28.09.2019
1146 Rain 12 1002 93 8000 2.6 60 13:43 28.09.2019
1147 Rain 12 1002 93 8000 2.6 60 13:20 28.09.2019
1148 Rain 12 1002 100 4400 3.1 40 12:57 28.09.2019
1149 Rain 11 1003 100 4500 2.6 30 12:37 28.09.2019
1150 Rain 11 1003 93 7000 3.1 20 12:18 28.09.2019
1151 Rain 11 1003 93 10000 2.6 30 11:41 28.09.2019
1152 Rain 11 1003 93 10000 2.6 30 11:20 28.09.2019
1153 Clouds 11 1003 100 10000 3.1 40 10:56 28.09.2019
1154 Clouds 11 1003 100 9000 3.1 40 10:38 28.09.2019
1155 Clouds 10 1003 100 9000 3.1 40 10:18 28.09.2019
1156 Fog 10 1003 100 2800 2.1 40 09:41 28.09.2019
1157 Fog 10 1003 100 2800 2.1 40 09:19 28.09.2019
1158 Fog 10 1003 100 700 0.5 0 08:48 28.09.2019
1159 Fog 9 1003 100 700 0.5 0 08:29 28.09.2019
1160 Mist 10 1003 100 1200 1 50 07:57 28.09.2019
1161 Mist 10 1003 100 0 2.6 360 07:38 28.09.2019
1162 Clouds 10 1003 93 6000 1 60 07:19 28.09.2019
1163 Clouds 9 1003 100 6000 1.5 10 06:40 28.09.2019
1164 Clouds 9 1003 100 6000 1.5 10 06:21 28.09.2019
1165 Drizzle 9 1003 100 4700 2.1 20 05:25 28.09.2019
1166 Rain 9 1003 100 6000 2.6 360 04:56 28.09.2019
1167 Rain 9 1003 100 6000 2.6 10 04:30 28.09.2019
1168 Rain 10 1003 100 8000 2.6 20 03:42 28.09.2019
1169 Rain 10 1004 100 8000 3.1 10 02:59 28.09.2019
1170 Rain 10 1004 100 6000 3.6 10 02:40 28.09.2019
1171 Rain 9 1004 100 6000 3.6 10 02:22 28.09.2019
1172 Rain 9 1004 93 4800 3.1 10 01:43 28.09.2019
1173 Rain 10 1004 93 5000 3.6 10 01:19 28.09.2019
1174 Rain 10 1004 93 5000 3.6 10 00:46 28.09.2019
1175 Rain 10 1004 93 10000 4.6 20 00:28 28.09.2019
1176 Rain 9 1005 100 10000 3.6 20 23:39 27.09.2019
1177 Rain 10 1005 100 10000 3.6 20 23:21 27.09.2019
1178 Rain 9 1005 100 10000 3.6 10 22:56 27.09.2019
1179 Rain 10 1005 100 10000 3.1 360 22:37 27.09.2019
1180 Rain 10 1005 100 10000 3.1 360 22:18 27.09.2019
1181 Rain 10 1005 93 9000 4.1 10 21:41 27.09.2019
1182 Rain 10 1005 93 9000 4.1 10 21:21 27.09.2019
1183 Rain 10 1006 93 9000 3.1 20 20:59 27.09.2019
1184 Rain 10 1006 93 9000 4.1 40 20:40 27.09.2019
1185 Rain 10 1006 93 9000 4.1 40 20:20 27.09.2019
1186 Rain 10 1006 93 7000 4.1 40 19:58 27.09.2019
1187 Rain 10 1006 93 6000 4.6 50 19:39 27.09.2019
1188 Rain 10 1006 93 6000 4.6 50 19:21 27.09.2019
1189 Rain 10 1006 93 9000 4.1 33 18:43 27.09.2019
1190 Rain 10 1006 93 9000 4.1 33 18:25 27.09.2019
1191 Rain 10 1006 93 7000 3.1 40 17:57 27.09.2019
1192 Rain 10 1005 93 10000 5.1 80 17:39 27.09.2019
1193 Rain 10 1005 93 10000 5.1 80 17:20 27.09.2019
1194 Rain 10 1005 93 10000 5.1 80 16:58 27.09.2019
1195 Rain 10 1007 93 6000 2.6 30 16:39 27.09.2019
1196 Rain 10 1007 93 6000 2.6 30 16:19 27.09.2019
1197 Rain 10 1007 93 6000 2.6 30 16:19 27.09.2019
1198 Rain 10 1007 100 7000 3.1 40 15:55 27.09.2019
1199 Rain 10 1007 100 7000 3.1 40 15:36 27.09.2019
1200 Rain 10 1007 100 7000 3.1 40 15:36 27.09.2019
1201 Rain 10 1007 100 7000 3.1 40 15:18 27.09.2019
1202 Rain 10 1007 93 7000 3.1 30 14:41 27.09.2019
1203 Rain 10 1007 93 7000 3.1 30 14:23 27.09.2019
1204 Rain 10 1007 93 7000 3.1 30 14:23 27.09.2019
1205 Rain 10 1008 93 5000 3.6 20 13:59 27.09.2019
1206 Rain 10 1008 93 8000 2.6 20 13:40 27.09.2019
1207 Rain 10 1008 93 6000 3.1 30 13:21 27.09.2019
1208 Rain 10 1008 93 6000 3.1 30 12:57 27.09.2019
1209 Rain 10 1008 93 6000 3.1 30 12:38 27.09.2019
1210 Rain 10 1008 93 6000 3.1 30 12:19 27.09.2019
1211 Rain 9 1008 93 6000 3.6 60 11:39 27.09.2019
1212 Rain 9 1008 93 6000 3.6 60 11:39 27.09.2019
1213 Rain 9 1008 93 6000 3.6 60 11:39 27.09.2019
1214 Rain 9 1008 93 6000 3.6 60 11:20 27.09.2019
1215 Rain 9 1008 93 6000 4.1 50 10:55 27.09.2019
1216 Rain 9 1009 93 5000 4.1 50 10:37 27.09.2019
1217 Rain 9 1009 93 5000 4.1 50 10:37 27.09.2019
1218 Rain 9 1009 93 5000 4.1 50 10:37 27.09.2019
1219 Rain 9 1009 93 5000 4.1 50 10:18 27.09.2019
1220 Rain 9 1009 93 5000 4.6 50 09:41 27.09.2019
1221 Rain 9 1009 93 5000 4.6 50 09:20 27.09.2019
1222 Rain 9 1009 87 8000 4.1 70 08:57 27.09.2019
1223 Rain 9 1009 87 10000 3.1 90 08:37 27.09.2019
1224 Rain 9 1009 87 10000 3.1 90 08:19 27.09.2019
1225 Drizzle 9 1010 81 10000 3.6 90 07:45 27.09.2019
1226 Drizzle 9 1010 81 10000 3.6 90 07:22 27.09.2019
1227 Drizzle 10 1010 81 10000 3.1 70 06:42 27.09.2019
1228 Drizzle 10 1010 81 10000 3.1 70 06:23 27.09.2019
1229 Clouds 10 1010 87 10000 2.6 60 05:49 27.09.2019
1230 Clouds 10 1010 87 10000 2.6 60 05:31 27.09.2019
1231 Drizzle 10 1011 87 10000 3.1 50 03:54 27.09.2019
1232 Clouds 10 1012 81 10000 1.5 60 02:41 27.09.2019
1233 Clouds 10 1012 81 10000 2.1 60 01:44 27.09.2019
1234 Clouds 11 1011 76 10000 5.7 90 00:59 27.09.2019
1235 Clouds 11 1013 81 10000 2.1 60 00:19 27.09.2019
1236 Clouds 11 1013 81 10000 2.1 60 23:55 26.09.2019
1237 Clouds 11 1013 81 10000 2.1 60 23:55 26.09.2019
1238 Clouds 11 1013 81 10000 2.1 60 23:55 26.09.2019
1239 Clouds 11 1013 81 10000 3.1 60 23:37 26.09.2019
1240 Clouds 10 1013 81 10000 3.1 60 23:18 26.09.2019
1241 Clouds 11 1013 81 10000 2.6 50 22:55 26.09.2019
1242 Clouds 11 1013 81 10000 2.1 50 22:37 26.09.2019
1243 Clouds 11 1013 81 10000 2.1 60 22:18 26.09.2019
1244 Clouds 11 1013 81 10000 2.1 60 22:18 26.09.2019
1245 -273 0 0 0 0 0 21:55 26.09.2019
1246 Clouds 11 1013 76 10000 2.1 50 21:36 26.09.2019
1247 Clouds 11 1013 81 10000 3.1 70 21:18 26.09.2019
1248 Clouds 11 1013 81 10000 3.1 70 21:18 26.09.2019
1249 Clouds 11 1013 81 10000 3.1 70 21:18 26.09.2019
1250 Clouds 11 1013 81 10000 3.1 70 20:55 26.09.2019
1251 Clouds 11 1013 76 10000 2.6 50 20:37 26.09.2019
1252 Clouds 11 1013 76 10000 2.6 50 20:19 26.09.2019
1253 Clouds 11 1013 76 10000 2.6 50 20:19 26.09.2019
1254 Clouds 11 1014 76 10000 2.1 60 19:40 26.09.2019
1255 Clouds 11 1014 76 10000 2.6 50 19:19 26.09.2019
1256 Clouds 11 1014 76 10000 2.6 50 18:58 26.09.2019
1257 Clouds 11 1013 62 10000 4.1 80 18:39 26.09.2019
1258 Clouds 11 1013 62 10000 4.1 80 18:39 26.09.2019
1259 Clouds 12 1014 66 10000 3.1 60 18:21 26.09.2019
1260 Clouds 12 1014 66 10000 3.1 60 17:56 26.09.2019
1261 Clouds 12 1014 66 10000 3.1 70 17:36 26.09.2019
1262 Clouds 12 1014 66 10000 3.1 70 17:18 26.09.2019
1263 Clouds 12 1014 66 10000 3.1 70 17:18 26.09.2019
1264 Clouds 12 1014 71 10000 2.6 40 16:40 26.09.2019
1265 Clouds 13 1014 71 10000 2.6 40 16:21 26.09.2019
1266 Clouds 13 1014 71 10000 2.6 40 16:21 26.09.2019
1267 Clouds 12 1014 71 10000 2.6 50 15:59 26.09.2019
1268 Clouds 12 1014 76 10000 2.1 30 15:38 26.09.2019
1269 Clouds 12 1014 76 10000 2.1 30 15:20 26.09.2019
1270 Clouds 12 1014 76 10000 2.1 40 14:57 26.09.2019
1271 Clouds 12 1015 81 10000 1.5 50 14:38 26.09.2019
1272 Clouds 12 1015 81 10000 1.5 50 14:19 26.09.2019
1273 Clouds 11 1014 62 10000 3.6 90 13:41 26.09.2019
1274 Clouds 12 1014 62 10000 3.6 90 13:41 26.09.2019
1275 Clouds 11 1014 66 10000 4.1 90 13:20 26.09.2019
1276 Clouds 11 1014 66 10000 4.1 90 13:20 26.09.2019
1277 Clouds 11 1014 66 10000 4.1 90 13:20 26.09.2019
1278 Clouds 11 1014 66 10000 4.1 90 12:59 26.09.2019
1279 Clouds 11 1015 81 10000 1.5 50 12:41 26.09.2019
1280 Clouds 11 1015 81 10000 1.5 50 12:41 26.09.2019
1281 Clouds 10 1015 81 10000 1 0 12:20 26.09.2019
1282 Clouds 10 1015 81 10000 1 0 11:42 26.09.2019
1283 Clouds 10 1015 81 10000 1 0 11:23 26.09.2019
1284 Clouds 10 1015 87 10000 1.5 0 10:58 26.09.2019
1285 Clouds 10 1015 87 10000 1.5 0 10:58 26.09.2019
1286 Clouds 10 1015 87 10000 2.1 40 10:39 26.09.2019
1287 Clouds 9 1015 87 10000 2.1 40 10:20 26.09.2019
1288 Clouds 9 1014 87 10000 2.6 50 09:45 26.09.2019
1289 Clouds 9 1014 87 10000 2.6 50 09:26 26.09.2019
1290 Clouds 9 1014 87 10000 1.5 20 08:59 26.09.2019
1291 Clouds 9 1014 93 10000 1 0 08:41 26.09.2019
1292 Clouds 9 1014 93 10000 1 0 08:23 26.09.2019
1293 Clouds 9 1014 87 10000 1 0 07:44 26.09.2019
1294 Clouds 9 1014 87 10000 1 0 07:22 26.09.2019
1295 Clouds 9 1014 93 10000 0.5 350 06:50 26.09.2019
1296 Clouds 9 1014 93 10000 1 350 06:27 26.09.2019
1297 Clouds 9 1014 93 10000 1 340 05:51 26.09.2019
1298 Clouds 9 1014 93 10000 1 340 05:25 26.09.2019
1299 Clouds 9 1014 87 10000 1 0 03:18 26.09.2019
1300 Clouds 9 1014 87 10000 2.1 30 01:55 26.09.2019
1301 Clouds 9 1014 87 10000 1.5 40 01:32 26.09.2019
1302 Clouds 9 1014 76 0 2.6 50 00:58 26.09.2019
1303 Clouds 9 1014 87 10000 1.5 10 00:38 26.09.2019
1304 Clouds 10 1014 87 10000 1.5 10 00:20 26.09.2019
1305 Clouds 10 1014 87 10000 1.5 20 23:42 25.09.2019
1306 Clouds 10 1014 76 10000 2.6 20 23:19 25.09.2019
1307 Clouds 10 1014 81 10000 1.5 20 22:43 25.09.2019
1308 Clouds 10 1014 81 10000 2.6 20 22:21 25.09.2019
1309 Clouds 10 1014 81 10000 2.6 20 21:58 25.09.2019
1310 -273 0 0 0 0 0 21:40 25.09.2019
1311 Clouds 10 1014 76 10000 1.5 30 21:19 25.09.2019
1312 Clouds 10 1014 76 10000 1.5 30 20:59 25.09.2019
1313 Clouds 10 1014 76 10000 2.1 30 20:40 25.09.2019
1314 Clouds 10 1014 71 10000 1.5 40 20:22 25.09.2019
1315 Clouds 11 1014 71 10000 1.5 40 19:59 25.09.2019
1316 Clouds 11 1014 71 10000 1.5 40 19:38 25.09.2019
1317 Clouds 11 1014 76 10000 2.6 30 19:19 25.09.2019
1318 Clouds 11 1014 76 10000 2.6 30 18:56 25.09.2019
1319 Clouds 11 1013 66 10000 2.6 40 18:37 25.09.2019
1320 Clouds 11 1013 66 10000 2.6 40 18:18 25.09.2019
1321 Clouds 12 1014 76 10000 3.1 30 17:40 25.09.2019
1322 Clouds 12 1014 76 10000 3.1 30 17:21 25.09.2019
1323 Clouds 12 1014 76 10000 3.1 20 16:57 25.09.2019
1324 Clouds 12 1014 76 10000 3.6 30 16:37 25.09.2019
1325 Clouds 12 1014 71 10000 3.6 30 16:19 25.09.2019
1326 Clouds 12 1014 71 10000 3.6 30 16:19 25.09.2019
1327 Clouds 12 1013 62 10000 3.6 40 15:42 25.09.2019
1328 Clouds 12 1013 62 10000 3.6 40 15:23 25.09.2019
1329 Clouds 12 1014 62 10000 4.6 20 14:59 25.09.2019
1330 Clouds 12 1014 62 10000 4.6 20 14:59 25.09.2019
1331 Clouds 12 1014 62 10000 3.6 40 14:41 25.09.2019
1332 Clouds 12 1014 76 10000 3.6 30 14:22 25.09.2019
1333 Clouds 12 1014 76 10000 3.6 10 13:56 25.09.2019
1334 Clouds 12 1014 76 10000 3.1 20 13:38 25.09.2019
1335 Clouds 12 1014 76 10000 3.1 20 13:19 25.09.2019
1336 Clouds 12 1014 76 10000 3.6 10 12:42 25.09.2019
1337 Clouds 12 1014 81 10000 2.6 40 12:24 25.09.2019
1338 Clouds 12 1014 81 10000 2.6 40 11:59 25.09.2019
1339 Clouds 12 1014 81 10000 2.6 40 11:59 25.09.2019
1340 Clouds 11 1014 81 10000 2.1 360 11:40 25.09.2019
1341 Clouds 11 1014 81 10000 2.1 360 11:40 25.09.2019
1342 Clouds 11 1014 81 10000 2.1 360 11:19 25.09.2019
1343 Clouds 11 1014 81 10000 2.1 360 11:19 25.09.2019
1344 Clouds 11 1014 87 10000 2.1 20 10:45 25.09.2019
1345 Clouds 11 1014 87 10000 2.1 20 10:26 25.09.2019
1346 Clouds 11 1014 87 10000 2.1 20 10:26 25.09.2019
1347 Clouds 10 1014 81 10000 1.5 360 09:58 25.09.2019
1348 Clouds 10 1014 81 10000 1.5 360 09:58 25.09.2019
1349 Clouds 10 1014 93 10000 1 0 09:38 25.09.2019
1350 Clouds 10 1014 93 10000 1.14 43.223 09:20 25.09.2019
1351 Clouds 10 1014 93 10000 1.12 32.401 08:55 25.09.2019
1352 Clouds 9 1013 93 10000 1.12 32.401 08:37 25.09.2019
1353 Clouds 9 1013 93 10000 1 0 08:18 25.09.2019
1354 Clouds 9 1013 93 10000 1 0 07:40 25.09.2019
1355 Clouds 9 1013 93 10000 1 0 07:22 25.09.2019
1356 Clouds 9 1013 93 10000 1.12 32.401 06:45 25.09.2019
1357 Clouds 9 1013 93 10000 1.08 35.476 06:23 25.09.2019
1358 Clouds 9 1013 87 10000 1 0 05:37 25.09.2019
1359 Clouds 9 1014 87 10000 2.6 50 04:55 25.09.2019
1360 Clouds 9 1014 87 10000 1.5 340 02:31 25.09.2019
1361 Clouds 9 1014 87 0 1.5 20 00:56 25.09.2019
1362 Clouds 9 1014 87 10000 1 0 00:36 25.09.2019
1363 Clouds 9 1014 87 10000 1 0 00:18 25.09.2019
1364 Clouds 9 1014 87 10000 2.1 10 23:40 24.09.2019
1365 Clouds 9 1014 87 10000 1.5 10 23:21 24.09.2019
1366 Clouds 9 1014 87 10000 1.5 10 22:56 24.09.2019
1367 Clouds 10 1014 87 10000 1.5 360 22:36 24.09.2019
1368 Clouds 10 1014 81 10000 1.5 360 22:18 24.09.2019
1369 Clouds 10 1014 81 10000 1.5 360 22:18 24.09.2019
1370 Clouds 10 1014 81 10000 1.5 360 21:54 24.09.2019
1371 Clouds 10 1014 87 10000 1.5 30 21:36 24.09.2019
1372 Clouds 10 1014 81 10000 1 0 21:18 24.09.2019
1373 Clouds 10 1014 81 10000 1 0 20:54 24.09.2019
1374 Clouds 10 1014 81 10000 1 0 20:36 24.09.2019
1375 Clouds 11 1014 81 10000 0.54 88.941 20:18 24.09.2019
1376 Clouds 11 1014 81 10000 0.54 88.941 19:41 24.09.2019
1377 Clouds 11 1014 81 10000 1 0 19:19 24.09.2019
1378 Clouds 11 1014 81 10000 1 0 18:56 24.09.2019
1379 Clouds 11 1014 81 10000 2.1 30 18:38 24.09.2019
1380 Clouds 11 1014 81 10000 1.5 40 18:20 24.09.2019
1381 Clouds 12 1014 81 10000 1.5 40 17:55 24.09.2019
1382 Clouds 12 1014 76 10000 1.5 360 17:37 24.09.2019
1383 Clouds 12 1014 76 10000 1.5 360 17:19 24.09.2019
1384 Clouds 12 1014 76 10000 1 0 16:41 24.09.2019
1385 Clouds 12 1015 76 10000 1 0 16:20 24.09.2019
1386 Clouds 12 1015 76 10000 1 0 15:57 24.09.2019
1387 Clouds 12 1015 76 10000 1 0 15:38 24.09.2019
1388 Clouds 12 1015 81 10000 2.1 20 15:19 24.09.2019
1389 Clouds 12 1015 81 10000 2.1 10 14:38 24.09.2019
1390 Clouds 12 1015 76 10000 1 0 14:18 24.09.2019
1391 Clouds 11 1015 71 10000 1 0 13:45 24.09.2019
1392 Clouds 11 1015 71 10000 1 0 13:21 24.09.2019
1393 Clouds 11 1016 76 10000 0.5 0 12:44 24.09.2019
1394 Clouds 11 1016 76 10000 0.5 0 12:23 24.09.2019
1395 Clouds 11 1015 81 10000 1 0 11:58 24.09.2019
1396 Clouds 10 1015 81 10000 1 0 11:58 24.09.2019
1397 Clouds 10 1016 87 10000 0.5 0 11:40 24.09.2019
1398 Clouds 10 1016 87 10000 0.5 0 11:21 24.09.2019
1399 Clouds 10 1015 93 10000 0.5 0 10:42 24.09.2019
1400 Clouds 9 1016 93 10000 1 0 10:22 24.09.2019
1401 Clouds 9 1016 93 10000 1 0 09:59 24.09.2019
1402 Clouds 9 1015 93 10000 1 0 09:41 24.09.2019
1403 Clouds 9 1016 87 10000 0.67 48.822 09:20 24.09.2019
1404 Clouds 9 1016 87 10000 0.67 48.822 08:56 24.09.2019
1405 Clouds 9 1015 93 10000 1 0 08:38 24.09.2019
1406 Clouds 8 1016 87 10000 1 0 08:19 24.09.2019
1407 Clouds 8 1016 87 10000 1 0 07:46 24.09.2019
1408 -273 0 0 0 0 0 07:24 24.09.2019
1409 Clouds 8 1016 87 10000 1 0 06:48 24.09.2019
1410 Clouds 8 1016 87 10000 1 0 06:30 24.09.2019
1411 Clouds 8 1016 87 10000 0.44 26.276 05:51 24.09.2019
1412 Clouds 8 1016 87 10000 0.44 26.276 05:18 24.09.2019
1413 Clouds 8 1017 87 10000 1 20 03:43 24.09.2019
1414 Clouds 8 1017 87 10000 1 10 02:46 24.09.2019
1415 Clouds 8 1018 87 0 0.5 0 01:55 24.09.2019
1416 Clouds 8 1018 93 10000 0.5 310 00:43 24.09.2019
1417 Clouds 8 1018 93 10000 0.5 310 00:25 24.09.2019
1418 Clouds 8 1019 87 0 1 50 23:56 23.09.2019
1419 Clouds 8 1019 93 10000 1 360 23:38 23.09.2019
1420 Clouds 8 1019 93 10000 1.5 20 23:20 23.09.2019
1421 Clouds 8 1019 93 10000 1.5 330 22:39 23.09.2019
1422 Clouds 8 1019 87 10000 1.5 30 22:20 23.09.2019
1423 Clouds 8 1019 87 10000 1.5 30 21:57 23.09.2019
1424 Clouds 9 1019 81 10000 1.5 70 21:39 23.09.2019
1425 Clouds 9 1019 87 10000 0.5 0 21:19 23.09.2019
1426 Clouds 9 1019 81 10000 1 10 20:41 23.09.2019
1427 Clouds 9 1019 81 10000 1 10 20:41 23.09.2019
1428 Clouds 9 1019 81 10000 1 10 20:20 23.09.2019
1429 Clouds 9 1019 81 10000 1 0 19:59 23.09.2019
1430 Clouds 10 1019 71 10000 2.1 320 19:39 23.09.2019
1431 Clouds 10 1019 71 10000 2.1 320 19:39 23.09.2019
1432 Clouds 11 1019 81 10000 1 290 19:21 23.09.2019
1433 Clouds 11 1019 81 10000 1 290 18:55 23.09.2019
1434 Clouds 11 1019 66 10000 1.5 30 18:37 23.09.2019
1435 Clouds 11 1019 66 10000 1.5 30 18:37 23.09.2019
1436 Clouds 12 1019 62 10000 2.6 30 18:18 23.09.2019
1437 Clouds 12 1020 76 10000 2.6 170 17:55 23.09.2019
1438 Clouds 12 1020 76 10000 2.6 170 17:55 23.09.2019
1439 Clouds 12 1020 76 10000 2.6 170 17:36 23.09.2019
1440 Clouds 12 1020 76 10000 2.6 170 17:36 23.09.2019
1441 Clouds 12 1020 76 10000 2.6 170 17:18 23.09.2019
1442 Clouds 12 1020 81 10000 1 0 16:39 23.09.2019
1443 Clouds 12 1021 81 10000 2.6 200 16:21 23.09.2019
1444 Clouds 12 1021 81 10000 2.6 200 15:59 23.09.2019
1445 Clouds 11 1021 81 10000 2.1 210 15:40 23.09.2019
1446 Clouds 11 1021 81 10000 2.6 200 15:20 23.09.2019
1447 Clouds 11 1021 81 10000 2.6 200 14:58 23.09.2019
1448 Clouds 11 1021 81 10000 2.6 180 14:37 23.09.2019
1449 Clouds 11 1021 81 10000 2.6 170 14:19 23.09.2019
1450 Clouds 11 1021 81 10000 2.6 170 13:42 23.09.2019
1451 Clouds 11 1021 81 10000 2.6 150 13:19 23.09.2019
1452 Clouds 11 1021 81 10000 2.6 150 12:59 23.09.2019
1453 Clouds 11 1021 81 10000 2.6 140 12:40 23.09.2019
1454 Clouds 10 1021 81 10000 2.6 140 12:21 23.09.2019
1455 Clouds 10 1022 81 10000 2.6 90 11:55 23.09.2019
1456 Clouds 10 1022 87 10000 2.1 110 11:36 23.09.2019
1457 Clouds 10 1022 87 10000 2.6 110 11:18 23.09.2019
1458 Clouds 10 1022 87 10000 2.1 100 10:41 23.09.2019
1459 Clouds 10 1022 87 10000 2.1 100 10:20 23.09.2019
1460 Clouds 9 1022 81 10000 2.6 100 09:40 23.09.2019
1461 Clouds 9 1022 81 10000 2.6 100 09:40 23.09.2019
1462 Clouds 9 1022 81 10000 2.6 100 09:21 23.09.2019
1463 Clouds 9 1022 81 10000 2.6 90 08:58 23.09.2019
1464 Clouds 9 1022 81 10000 2.6 90 08:38 23.09.2019
1465 Clouds 9 1022 81 10000 2.6 90 08:18 23.09.2019
1466 Clouds 9 1022 81 10000 2.6 90 08:18 23.09.2019
1467 Clouds 9 1022 81 10000 2.6 90 08:18 23.09.2019
1468 Clouds 9 1022 81 10000 2.6 90 08:18 23.09.2019
1469 Clouds 9 1021 81 10000 2.1 90 07:33 23.09.2019
1470 Clouds 9 1021 81 10000 3.6 130 06:53 23.09.2019
1471 Clouds 9 1021 76 0 2.6 90 06:20 23.09.2019
1472 Clouds 9 1022 87 10000 2.6 120 05:28 23.09.2019
1473 Clouds 10 1022 76 10000 2.1 110 04:56 23.09.2019
1474 Clouds 10 1022 76 10000 2.6 130 03:59 23.09.2019
1475 Clouds 10 1022 81 10000 4.1 140 01:25 23.09.2019
1476 Clouds 10 1021 81 10000 3.6 130 00:26 23.09.2019
1477 Clouds 10 1021 81 10000 3.6 130 23:58 22.09.2019
1478 Clouds 10 1021 76 10000 4.6 130 23:40 22.09.2019
1479 Clouds 10 1021 76 10000 4.6 140 23:21 22.09.2019
1480 Clouds 10 1021 76 10000 4.6 140 22:54 22.09.2019
1481 Clouds 10 1020 76 10000 4.1 120 22:36 22.09.2019
1482 Clouds 11 1020 76 10000 4.1 120 22:18 22.09.2019
1483 Clouds 11 1020 76 10000 3.6 110 21:42 22.09.2019
1484 Clouds 11 1019 76 10000 3.6 100 21:20 22.09.2019
1485 Clouds 12 1019 71 10000 3.6 100 20:45 22.09.2019
1486 Clouds 12 1019 71 10000 3.6 100 20:27 22.09.2019
1487 Clouds 13 1018 76 10000 4.1 100 19:58 22.09.2019
1488 Clouds 14 1018 76 10000 4.1 100 19:40 22.09.2019
1489 Clouds 15 1018 67 10000 5.1 100 19:20 22.09.2019
1490 Clouds 15 1018 67 10000 5.1 100 18:57 22.09.2019
1491 Clouds 16 1017 63 10000 5.7 90 18:38 22.09.2019
1492 Clear 17 1017 59 0 5.1 90 18:18 22.09.2019
1493 Clouds 19 1017 48 10000 4.6 110 17:46 22.09.2019
1494 Clouds 19 1017 48 10000 4.6 110 17:27 22.09.2019
1495 Clouds 19 1016 48 10000 5.1 150 16:57 22.09.2019
1496 Clear 19 1016 48 10000 3.6 110 16:39 22.09.2019
1497 Clear 19 1016 55 10000 2.6 130 16:20 22.09.2019
1498 Clear 19 1016 55 10000 3.1 90 15:45 22.09.2019
1499 Clear 19 1016 55 10000 3.1 90 15:26 22.09.2019
1500 Clear 19 1016 52 10000 2.6 80 14:55 22.09.2019
1501 Clear 19 1017 55 10000 3.1 110 14:37 22.09.2019
1502 Clear 18 1017 55 10000 3.1 120 14:18 22.09.2019
1503 Clear 18 1017 59 10000 3.1 90 13:42 22.09.2019
1504 Clear 17 1017 59 10000 3.1 90 13:24 22.09.2019
1505 Clear 17 1017 59 10000 3.1 90 12:57 22.09.2019
1506 Clear 15 1017 63 10000 2.1 70 12:39 22.09.2019
1507 Clear 15 1017 67 10000 2.1 50 12:18 22.09.2019
1508 Clear 13 1017 67 10000 2.1 50 11:55 22.09.2019
1509 Clear 13 1017 71 10000 2.1 30 11:36 22.09.2019
1510 Clear 12 1017 81 10000 2.1 40 11:18 22.09.2019
1511 Fog 14 1017 87 10000 1.5 330 10:42 22.09.2019
1512 Fog 12 1016 87 10000 1.5 20 10:20 22.09.2019
1513 Fog 12 1017 87 10000 1.5 330 10:20 22.09.2019
1514 Fog 11 1016 87 10000 1.5 60 09:43 22.09.2019
1515 Fog 12 1016 87 10000 1.5 20 09:43 22.09.2019
1516 Fog 12 1016 87 10000 1.5 20 09:43 22.09.2019
1517 Fog 9 1016 87 10000 1.5 60 09:21 22.09.2019
1518 Fog 9 1016 93 10000 1.5 20 08:56 22.09.2019
1519 Fog 8 1016 86 10000 1.5 360 08:38 22.09.2019
1520 Fog 8 1016 86 10000 1.5 360 08:38 22.09.2019
1521 Fog 8 1015 93 10000 1.5 360 08:19 22.09.2019
1522 Fog 8 1015 93 10000 1.5 360 07:43 22.09.2019
1523 Fog 8 1015 93 10000 1.5 360 07:25 22.09.2019
1524 Fog 8 1016 100 0 1 0 06:57 22.09.2019
1525 Fog 8 1015 93 10000 0.5 320 06:34 22.09.2019
1526 Fog 9 1015 93 10000 0.5 0 03:56 22.09.2019
1527 Fog 9 1015 93 10000 1.1 329.86 02:44 22.09.2019
1528 Fog 9 1015 93 10000 1.1 329.86 02:24 22.09.2019
1529 Fog 9 1016 93 0 1.5 160 01:36 22.09.2019
1530 Fog 10 1015 81 10000 1.32 333.94 00:44 22.09.2019
1531 Fog 10 1015 81 10000 0.18 332.736 00:26 22.09.2019
1532 Clear 10 1015 81 10000 0.18 332.736 23:47 21.09.2019
1533 Clear 10 1015 81 10000 0.18 332.736 23:27 21.09.2019
1534 Clear 11 1015 76 10000 1.5 280 22:43 21.09.2019
1535 Clear 11 1015 76 10000 1.5 280 22:23 21.09.2019
1536 Clear 12 1015 71 10000 2.1 210 21:58 21.09.2019
1537 Clear 12 1015 71 10000 3.1 200 21:40 21.09.2019
1538 Clear 13 1016 76 10000 4.1 180 21:19 21.09.2019
1539 Clear 14 1015 63 10000 4.1 200 20:41 21.09.2019
1540 Clear 14 1015 63 10000 4.1 200 20:41 21.09.2019
1541 Clear 14 1015 63 10000 4.1 200 20:23 21.09.2019
1542 Clear 15 1015 55 10000 4.1 130 19:58 21.09.2019
1543 Clear 15 1015 55 10000 4.1 130 19:39 21.09.2019
1544 Clear 16 1015 55 10000 4.1 130 19:18 21.09.2019
1545 Clear 17 1015 46 10000 4.1 190 18:40 21.09.2019
1546 Clear 20 1016 52 10000 4.6 180 18:21 21.09.2019
1547 Clear 20 1015 31 10000 2.6 240 17:42 21.09.2019
1548 Clear 20 1015 31 10000 2.6 240 17:42 21.09.2019
1549 Clear 21 1015 31 10000 2.6 240 17:23 21.09.2019
1550 Clear 22 1015 33 10000 2.6 210 16:56 21.09.2019
1551 Clear 21 1016 35 10000 2.6 230 16:37 21.09.2019
1552 Clear 22 1016 35 10000 2.6 230 16:19 21.09.2019
1553 Clear 22 1016 37 10000 4.1 190 15:42 21.09.2019
1554 Clear 22 1016 37 10000 4.1 190 15:21 21.09.2019
1555 Clear 21 1017 49 10000 3.6 180 14:47 21.09.2019
1556 Clear 21 1017 49 10000 3.6 180 14:28 21.09.2019
1557 Clear 22 1017 45 10000 3.6 190 13:46 21.09.2019
1558 Clear 20 1018 59 10000 4.6 200 13:26 21.09.2019
1559 Clear 20 1017 42 10000 2.6 180 12:59 21.09.2019
1560 Clear 19 1017 48 10000 2.1 180 12:41 21.09.2019
1561 Clear 18 1017 48 10000 2.1 180 12:21 21.09.2019
1562 Clear 17 1018 51 10000 1 0 11:58 21.09.2019
1563 Clear 16 1018 54 10000 0.5 0 11:39 21.09.2019
1564 Clear 14 1018 54 10000 1.5 190 11:19 21.09.2019
1565 Clear 14 1018 62 10000 0.5 0 10:41 21.09.2019
1566 Clear 13 1018 62 10000 0.5 0 10:22 21.09.2019
1567 Clear 12 1018 66 10000 1.5 190 09:57 21.09.2019
1568 Clear 9 1018 76 10000 1.5 170 09:38 21.09.2019
1569 Clear 8 1017 87 10000 1 0 09:20 21.09.2019
1570 Clear 8 1017 87 10000 1 0 08:51 21.09.2019
1571 Clear 7 1017 93 10000 1 210 08:25 21.09.2019
1572 Clear 6 1017 86 10000 2.14 331.099 07:40 21.09.2019
1573 Clear 6 1017 86 10000 2.14 331.099 07:21 21.09.2019
1574 Clear 6 1018 100 0 0.5 0 06:47 21.09.2019
1575 Clear 6 1018 100 0 0.5 0 06:26 21.09.2019
1576 Clear 7 1016 75 10000 0.5 0 04:49 21.09.2019
1577 Clear 7 1016 75 10000 0.5 0 04:31 21.09.2019
1578 Clear 8 1016 66 10000 1 0 02:27 21.09.2019
1579 Clear 9 1016 54 10000 0.5 0 01:52 21.09.2019
1580 Clear 9 1016 54 10000 0.5 0 01:33 21.09.2019
1581 Clouds 10 1017 62 0 1 0 00:38 21.09.2019
1582 Clouds 10 1017 62 0 2.1 260 00:18 21.09.2019
1583 Clouds 10 1017 62 0 2.1 260 00:18 21.09.2019
1584 Clear 11 1016 47 10000 2.1 290 23:41 20.09.2019
1585 Clear 12 1016 47 10000 2.1 290 23:21 20.09.2019
1586 Clear 12 1016 47 10000 4.1 290 22:41 20.09.2019
1587 Clear 13 1016 47 10000 4.1 290 22:22 20.09.2019
1588 Clear 13 1016 50 10000 2.1 260 21:56 20.09.2019
1589 Clear 13 1016 54 10000 1.5 350 21:37 20.09.2019
1590 Clear 13 1015 44 10000 1.5 0 21:18 20.09.2019
1591 Clear 14 1015 44 10000 1 0 20:42 20.09.2019
1592 Clear 14 1015 44 10000 1 0 20:21 20.09.2019
1593 Clear 14 1015 44 10000 1 0 20:21 20.09.2019
1594 Clear 14 1015 44 10000 1 0 20:21 20.09.2019
1595 Clear 14 1015 42 10000 1.5 300 19:59 20.09.2019
1596 Clear 15 1015 42 10000 1.5 300 19:40 20.09.2019
1597 Clear 15 1015 39 10000 2.1 300 19:20 20.09.2019
1598 Clear 17 1015 39 10000 2.6 300 18:40 20.09.2019
1599 Clear 18 1015 39 10000 2.6 300 18:21 20.09.2019
1600 Clear 18 1015 45 10000 3.1 260 17:59 20.09.2019
1601 Clear 19 1015 48 10000 4.1 210 17:41 20.09.2019
1602 Clear 19 1015 48 10000 4.1 210 17:23 20.09.2019
1603 Clear 19 1015 52 10000 5.7 190 16:43 20.09.2019
1604 Clear 20 1015 52 10000 6.2 180 16:21 20.09.2019
1605 Clear 20 1015 52 10000 6.2 180 15:58 20.09.2019
1606 Clear 20 1016 52 10000 6.2 180 15:39 20.09.2019
1607 Clear 20 1016 52 10000 6.2 180 15:21 20.09.2019
1608 Clear 19 1016 55 10000 5.1 170 14:42 20.09.2019
1609 Clear 18 1016 55 10000 4.1 170 14:19 20.09.2019
1610 Clear 18 1019 62 10000 3.6 210 13:48 20.09.2019
1611 Clear 18 1019 62 10000 3.6 210 13:28 20.09.2019
1612 Clear 16 1017 66 10000 4.1 180 12:58 20.09.2019
1613 Clear 16 1019 62 10000 3.6 210 12:37 20.09.2019
1614 Clear 14 1017 71 10000 2.6 210 12:18 20.09.2019
1615 Clear 13 1017 71 10000 2.6 210 11:49 20.09.2019
1616 Clear 12 1018 76 10000 1.5 210 11:21 20.09.2019
1617 Rain 9 1018 87 10000 2.1 170 10:43 20.09.2019
1618 Rain 9 1018 87 10000 2.1 170 10:24 20.09.2019
1619 Rain 8 1018 81 10000 1.5 210 09:59 20.09.2019
1620 Rain 8 1018 87 10000 1 0 09:38 20.09.2019
1621 Clear 8 1018 81 10000 1.5 220 09:18 20.09.2019
1622 Clear 7 1018 81 10000 1.5 210 08:42 20.09.2019
1623 Clear 7 1018 81 10000 1.5 210 08:23 20.09.2019
1624 Clear 6 1018 87 10000 1 0 07:47 20.09.2019
1625 Clear 6 1018 87 10000 1 0 07:28 20.09.2019
1626 Clear 6 1019 87 10000 1 0 06:45 20.09.2019
1627 Clouds 6 1020 81 0 2.1 210 06:25 20.09.2019
1628 Clear 6 1020 75 10000 1.02 296.088 05:47 20.09.2019
1629 Clear 7 1021 75 10000 1 350 03:42 20.09.2019
1630 Clear 7 1021 75 10000 1 350 03:19 20.09.2019
1631 Clouds 7 1023 81 0 1 140 01:45 20.09.2019
1632 Clear 7 1022 70 10000 0.17 239.149 01:18 20.09.2019
1633 Clear 7 1022 93 10000 1 0 00:26 20.09.2019
1634 Clear 7 1022 93 10000 0.35 137.429 23:45 19.09.2019
1635 Clear 7 1022 93 10000 0.35 137.429 23:22 19.09.2019
1636 Clear 7 1022 93 10000 1.5 240 22:57 19.09.2019
1637 Clear 7 1023 93 10000 2.1 260 22:38 19.09.2019
1638 Clear 7 1023 61 10000 2.1 250 22:19 19.09.2019
1639 Clear 7 1023 61 10000 2.1 250 21:56 19.09.2019
1640 Clear 7 1023 93 10000 1.5 240 21:37 19.09.2019
1641 Clear 7 1023 76 10000 1.5 240 21:18 19.09.2019
1642 Clear 8 1023 75 10000 1.5 220 20:43 19.09.2019
1643 Clear 8 1023 75 10000 1.5 220 20:22 19.09.2019
1644 Clear 9 1025 57 10000 1 200 19:56 19.09.2019
1645 Clear 9 1023 46 10000 1 220 19:38 19.09.2019
1646 Clear 10 1023 46 10000 1 0 19:19 19.09.2019
1647 Clear 9 1023 46 10000 1 0 19:19 19.09.2019
1648 Clear 10 1023 46 10000 1 250 18:43 19.09.2019
1649 Clear 11 1023 43 10000 1.5 260 18:24 19.09.2019
1650 Clear 12 1023 43 10000 1.5 260 17:57 19.09.2019
1651 Clear 12 1024 40 10000 2.6 320 17:39 19.09.2019
1652 Clear 12 1024 40 10000 2.6 320 17:21 19.09.2019
1653 Clear 12 1024 40 10000 1.5 310 16:57 19.09.2019
1654 Clear 13 1024 40 10000 1.5 250 16:38 19.09.2019
1655 Clear 12 1024 40 10000 2.1 0 16:18 19.09.2019
1656 Clear 12 1024 37 10000 1.5 20 15:39 19.09.2019
1657 Clear 12 1024 40 10000 2.1 20 15:18 19.09.2019
1658 Clear 12 1024 40 10000 1.5 0 14:42 19.09.2019
1659 Clear 12 1024 40 10000 1.5 0 14:23 19.09.2019
1660 Clear 12 1024 43 10000 1.5 360 13:59 19.09.2019
1661 Clear 12 1026 46 10000 2.1 290 13:39 19.09.2019
1662 Clear 12 1024 43 10000 2.1 10 13:19 19.09.2019
1663 Clear 12 1024 43 10000 2.1 10 13:19 19.09.2019
1664 Clear 11 1026 43 10000 2.6 320 12:40 19.09.2019
1665 Clear 11 1026 53 10000 2.6 320 12:19 19.09.2019
1666 Clear 11 1026 50 10000 3.1 340 11:57 19.09.2019
1667 Clear 10 1024 49 10000 5.1 350 11:39 19.09.2019
1668 Clear 10 1024 49 10000 5.1 350 11:19 19.09.2019
1669 Clear 9 1024 53 10000 3.1 350 10:41 19.09.2019
1670 Clear 9 1024 53 10000 3.1 350 10:22 19.09.2019
1671 Clear 8 1024 53 10000 2.1 350 09:59 19.09.2019
1672 Clear 7 1024 65 10000 2.1 330 09:41 19.09.2019
1673 Clear 5 1024 65 10000 2.1 330 09:21 19.09.2019
1674 Clear 5 1023 65 10000 2.6 310 08:56 19.09.2019
1675 Clear 4 1023 65 10000 3.1 300 08:29 19.09.2019
1676 Clear 3 1023 69 10000 2.1 300 07:57 19.09.2019
1677 Clear 3 1023 69 10000 2.1 300 07:38 19.09.2019
1678 Clouds 3 1024 80 0 1.61 330.671 07:20 19.09.2019
1679 Clear 3 1023 69 10000 2.1 330 06:45 19.09.2019
1680 Clear 3 1023 69 10000 2.1 330 06:25 19.09.2019
1681 Clear 3 1022 69 10000 1.5 0 05:50 19.09.2019
1682 Clear 3 1022 69 10000 1.5 0 05:50 19.09.2019
1683 Clear 4 1022 65 10000 2.1 290 04:39 19.09.2019
1684 Clear 5 1022 60 10000 1.5 0 03:22 19.09.2019
1685 Clear 6 1021 60 10000 2.6 330 01:53 19.09.2019
1686 Clear 6 1021 52 10000 4.6 340 01:21 19.09.2019
1687 Clear 7 1021 52 10000 3.1 330 00:49 19.09.2019
1688 Clear 7 1021 52 10000 3.1 330 00:25 19.09.2019
1689 Clear 8 1020 52 10000 5.7 350 23:39 18.09.2019
1690 Clear 8 1020 52 10000 5.7 350 23:21 18.09.2019
1691 Clear 8 1019 45 10000 3.1 350 22:43 18.09.2019
1692 Clear 9 1019 45 10000 3.1 350 22:20 18.09.2019
1693 Clear 8 1019 45 10000 3.1 350 21:58 18.09.2019
1694 Clear 9 1019 45 10000 2.1 350 21:40 18.09.2019
1695 Clear 9 1018 43 10000 2.1 320 21:19 18.09.2019
1696 Clear 9 1018 43 10000 2.1 320 20:58 18.09.2019
1697 Clear 9 1018 43 10000 2.1 320 20:40 18.09.2019
1698 Clear 10 1018 43 10000 2.1 320 20:22 18.09.2019
1699 Clear 10 1018 43 10000 2.1 320 20:22 18.09.2019
1700 Clear 10 1019 46 10000 2.6 300 19:58 18.09.2019
1701 Clear 10 1018 43 10000 2.1 320 19:39 18.09.2019
1702 Clear 11 1017 60 10000 3.6 350 19:19 18.09.2019
1703 Clear 12 1017 60 10000 3.6 350 18:56 18.09.2019
1704 Clear 12 1017 37 10000 5.1 360 18:37 18.09.2019
1705 Clear 14 1017 33 10000 3.6 350 18:19 18.09.2019
1706 Clear 14 1017 33 10000 3.6 350 18:19 18.09.2019
1707 Clear 14 1017 33 10000 3.6 350 17:57 18.09.2019
1708 Clear 14 1017 30 10000 4.1 360 17:39 18.09.2019
1709 Rain 15 1017 30 10000 4.1 310 17:19 18.09.2019
1710 Rain 14 1017 30 10000 4.1 310 16:56 18.09.2019
1711 Rain 14 1016 33 10000 3.1 310 16:37 18.09.2019
1712 Clear 14 1016 33 10000 5.1 360 16:18 18.09.2019
1713 Clear 15 1016 33 10000 5.1 360 15:55 18.09.2019
1714 Clear 15 1016 35 10000 5.7 360 15:36 18.09.2019
1715 Clear 15 1016 41 10000 6.2 360 15:18 18.09.2019
1716 Clear 15 1016 41 10000 6.2 360 14:57 18.09.2019
1717 Clear 15 1016 41 10000 5.1 10 14:37 18.09.2019
1718 Clear 14 1016 41 10000 5.1 10 14:19 18.09.2019
1719 Clear 15 1016 37 10000 7.7 360 13:42 18.09.2019
1720 Clear 14 1016 37 10000 7.7 360 13:19 18.09.2019
1721 Clear 14 1016 37 10000 7.7 360 13:19 18.09.2019
1722 Clear 14 1016 43 10000 4.6 350 12:53 18.09.2019
1723 Clear 14 1016 41 10000 6.2 10 12:32 18.09.2019
1724 Clear 14 1016 41 10000 6.2 10 12:32 18.09.2019
1725 Clear 13 1017 43 10000 4.6 340 11:59 18.09.2019
1726 Clear 13 1016 58 10000 5.7 360 11:39 18.09.2019
1727 Clear 12 1015 58 10000 4.6 360 11:19 18.09.2019
1728 Clear 11 1015 58 10000 4.1 350 10:40 18.09.2019
1729 Clear 11 1015 58 10000 4.1 350 10:40 18.09.2019
1730 Clear 11 1015 58 10000 4.1 350 10:21 18.09.2019
1731 Clear 10 1015 58 10000 1.5 340 09:58 18.09.2019
1732 Clear 10 1015 58 10000 1.5 340 09:58 18.09.2019
1733 Clear 9 1014 58 10000 2.31 316.911 09:39 18.09.2019
1734 Clear 7 1014 79 10000 1.5 240 09:21 18.09.2019
1735 Clear 7 1014 75 10000 2.6 350 08:45 18.09.2019
1736 Clear 6 1014 75 10000 2.6 350 08:26 18.09.2019
1737 Clear 6 1014 75 10000 2.6 350 08:26 18.09.2019
1738 Clear 5 1013 75 10000 4.1 320 07:59 18.09.2019
1739 Clear 5 1013 75 10000 4.1 320 07:40 18.09.2019
1740 Clear 5 1013 75 10000 4.1 320 07:40 18.09.2019
1741 Clear 5 1013 75 10000 2.6 320 07:22 18.09.2019
1742 Clear 5 1013 75 10000 2.6 320 06:41 18.09.2019
1743 Clear 5 1012 77 10000 2.49 314.903 05:51 18.09.2019
1744 Clear 5 1012 77 10000 2.49 314.903 05:21 18.09.2019
1745 Clear 5 1011 71 10000 2.6 340 03:23 18.09.2019
1746 Clear 6 1011 71 10000 3.1 350 02:39 18.09.2019
1747 Rain 7 1011 70 10000 3.6 350 01:34 18.09.2019
1748 Clear 7 1011 70 10000 3.6 350 00:50 18.09.2019
1749 Clear 7 1010 65 10000 2.6 300 00:25 18.09.2019
1750 Clear 8 1010 65 10000 2.1 310 23:47 17.09.2019
1751 Clear 8 1010 65 10000 2.1 310 23:23 17.09.2019
1752 Clear 8 1009 61 10000 1.5 290 22:44 17.09.2019
1753 Clear 8 1009 61 10000 1.5 290 22:25 17.09.2019
1754 Clear 9 1008 57 10000 0.5 280 21:56 17.09.2019
1755 Rain 9 1008 57 10000 3.1 320 21:37 17.09.2019
1756 Rain 9 1008 57 10000 3.1 320 21:37 17.09.2019
1757 Rain 9 1008 57 10000 3.1 320 21:19 17.09.2019
1758 Rain 9 1008 53 10000 5.1 360 20:59 17.09.2019
1759 Rain 10 1007 43 10000 8.2 360 20:40 17.09.2019
1760 Clear 10 1008 62 10000 2.6 290 20:22 17.09.2019
1761 Rain 10 1007 43 10000 8.2 360 20:22 17.09.2019
1762 Clear 10 1008 62 10000 2.6 290 19:59 17.09.2019
1763 Clear 10 1007 40 10000 2.6 330 19:39 17.09.2019
1764 Clear 11 1006 37 10000 2.1 340 19:20 17.09.2019
1765 Clear 11 1006 37 10000 3.6 350 18:57 17.09.2019
1766 Clear 11 1006 37 10000 2.1 340 18:57 17.09.2019
1767 Clear 12 1006 37 10000 3.6 350 18:39 17.09.2019
1768 Clear 13 1006 34 10000 3.1 340 18:21 17.09.2019
1769 Clear 13 1005 40 10000 4.6 360 17:46 17.09.2019
1770 Clear 13 1005 40 10000 4.6 360 17:20 17.09.2019
1771 Clear 13 1005 40 10000 5.1 360 16:58 17.09.2019
1772 Clear 13 1005 42 10000 6.7 360 16:40 17.09.2019
1773 Clear 13 1004 40 10000 6.7 360 16:21 17.09.2019
1774 Clear 13 1004 42 10000 6.2 10 15:40 17.09.2019
1775 Clear 13 1004 45 10000 6.2 10 15:21 17.09.2019
1776 Clear 12 1004 45 10000 6.2 360 15:21 17.09.2019
1777 Clear 12 1004 45 10000 6.2 360 15:21 17.09.2019
1778 Clear 13 1004 45 10000 6.2 360 14:58 17.09.2019
1779 Clear 13 1004 43 10000 6.7 350 14:39 17.09.2019
1780 Clear 12 1004 43 10000 6.7 350 14:19 17.09.2019
1781 Clouds 12 1004 46 10000 6.2 350 13:57 17.09.2019
1782 Clouds 12 1003 43 10000 7.2 360 13:39 17.09.2019
1783 Clouds 12 1003 43 10000 6.7 340 13:21 17.09.2019
1784 Clouds 11 1003 43 10000 7.2 350 12:43 17.09.2019
1785 Clouds 11 1002 46 10000 7.7 360 12:20 17.09.2019
1786 Clouds 11 1002 49 10000 7.2 360 11:57 17.09.2019
1787 Clouds 10 1002 49 10000 6.7 360 11:38 17.09.2019
1788 Clear 10 1001 57 10000 5.7 360 11:18 17.09.2019
1789 Clear 9 1001 61 10000 3.1 340 10:41 17.09.2019
1790 Clear 9 1001 61 10000 3.1 340 10:21 17.09.2019
1791 Clouds 8 1001 57 10000 2.6 310 09:56 17.09.2019
1792 Rain 8 1000 57 10000 2.1 310 09:37 17.09.2019
1793 Rain 7 1000 75 10000 1.5 300 09:19 17.09.2019
1794 Rain 7 1000 75 10000 1.5 300 09:19 17.09.2019
1795 Rain 7 1000 73 10000 2.6 360 08:43 17.09.2019
1796 Rain 6 1000 73 10000 2.6 360 08:25 17.09.2019
1797 Rain 6 1000 73 10000 2.6 350 07:45 17.09.2019
1798 Rain 6 1000 73 10000 2.6 350 07:27 17.09.2019
1799 Rain 6 1000 60 10000 1 0 06:57 17.09.2019
1800 Clear 6 1000 73 10000 2.6 310 06:36 17.09.2019
1801 Clear 6 1001 57 0 4.1 300 05:56 17.09.2019
1802 Clear 6 1000 81 10000 2.1 0 05:33 17.09.2019
1803 Clear 7 1001 75 10000 1.5 330 03:49 17.09.2019
1804 Clear 7 1001 70 10000 1 0 02:40 17.09.2019
1805 Clear 7 1002 68 10000 1 0 01:52 17.09.2019
1806 Clear 6 1002 74 10000 1 0 00:56 17.09.2019
1807 Clear 8 1003 61 10000 2.1 300 23:42 16.09.2019
1808 Clear 8 1003 61 10000 2.1 300 23:20 16.09.2019
1809 Clear 8 1003 62 10000 2.1 260 22:59 16.09.2019
1810 Clear 8 1003 57 10000 1.5 250 22:41 16.09.2019
1811 Clear 8 1003 57 10000 1.5 250 22:23 16.09.2019
1812 Clear 8 1003 62 10000 1 0 21:58 16.09.2019
1813 Clear 9 1004 62 10000 1 0 21:38 16.09.2019
1814 Clear 9 1004 60 10000 1.5 230 21:20 16.09.2019
1815 Clear 10 1004 60 10000 1.5 230 20:55 16.09.2019
1816 Clear 10 1004 43 10000 1 240 20:37 16.09.2019
1817 Clear 10 1004 43 10000 1 240 20:18 16.09.2019
1818 Clear 11 1004 40 10000 1.5 260 19:42 16.09.2019
1819 Clear 12 1004 37 10000 2.1 290 19:20 16.09.2019
1820 Clear 13 1004 37 10000 2.1 290 18:57 16.09.2019
1821 Clear 14 1006 38 10000 3.6 300 18:39 16.09.2019
1822 Clear 14 1006 38 10000 3.6 300 18:20 16.09.2019
1823 Clear 15 1004 30 10000 2.1 290 17:43 16.09.2019
1824 Clear 16 1004 30 10000 2.1 290 17:24 16.09.2019
1825 Clear 16 1005 30 10000 3.6 270 16:58 16.09.2019
1826 Clear 16 1005 30 10000 4.1 270 16:39 16.09.2019
1827 Clear 16 1005 30 10000 3.1 300 16:20 16.09.2019
1828 Clear 16 1005 30 10000 3.1 300 15:56 16.09.2019
1829 Clear 16 1005 30 10000 4.1 280 15:37 16.09.2019
1830 Clear 16 1005 30 10000 3.1 300 15:19 16.09.2019
1831 Clear 15 1005 30 10000 3.6 280 14:44 16.09.2019
1832 Clear 15 1005 30 10000 3.6 280 14:24 16.09.2019
1833 Clear 15 1005 32 10000 4.1 280 13:59 16.09.2019
1834 Clear 15 1005 35 10000 3.6 280 13:39 16.09.2019
1835 Clear 15 1005 35 10000 3.6 280 13:21 16.09.2019
1836 Clear 14 1007 35 10000 7.2 280 12:46 16.09.2019
1837 Clear 14 1007 35 10000 7.2 280 12:27 16.09.2019
1838 Clear 14 1005 40 10000 4.6 290 11:58 16.09.2019
1839 Clear 13 1004 40 10000 4.6 300 11:39 16.09.2019
1840 Clear 13 1004 40 10000 4.6 300 11:21 16.09.2019
1841 Clear 12 1004 46 10000 3.6 290 10:39 16.09.2019
1842 Clear 12 1004 46 10000 3.6 290 10:21 16.09.2019
1843 Clear 11 1004 41 10000 1.5 0 09:58 16.09.2019
1844 Clear 11 1006 50 10000 5.7 250 09:40 16.09.2019
1845 Clear 10 1003 41 10000 1.5 270 09:40 16.09.2019
1846 Clear 10 1003 67 10000 2.1 240 09:20 16.09.2019
1847 Clear 9 1003 56 10000 1.5 240 08:47 16.09.2019
1848 Clear 9 1003 56 10000 1.5 240 08:28 16.09.2019
1849 Clear 8 1003 56 10000 2.6 230 07:57 16.09.2019
1850 Clear 8 1003 56 10000 2.6 230 07:57 16.09.2019
1851 Clear 8 1003 56 10000 2.6 230 07:38 16.09.2019
1852 Clear 8 1003 56 10000 2.1 230 07:20 16.09.2019
1853 Clear 8 1003 45 10000 2.6 280 06:46 16.09.2019
1854 Clear 8 1003 45 10000 2.6 280 06:28 16.09.2019
1855 Clear 8 1006 49 0 4.6 230 05:53 16.09.2019
1856 Clear 8 1003 42 10000 2.6 0 05:32 16.09.2019
1857 Clear 9 1001 39 10000 5.7 300 04:49 16.09.2019
1858 Clear 10 1000 43 10000 4.6 290 02:59 16.09.2019
1859 Clear 11 999 50 10000 4.1 250 00:44 16.09.2019
1860 Clear 12 999 50 10000 4.1 250 00:26 16.09.2019
1861 Clear 12 998 53 10000 3.1 240 23:45 15.09.2019
1862 Clear 12 998 53 10000 3.1 240 23:22 15.09.2019
1863 Clear 12 997 50 10000 4.1 250 22:59 15.09.2019
1864 Clear 13 996 50 10000 4.1 240 22:37 15.09.2019
1865 Clear 13 996 50 10000 4.1 240 22:18 15.09.2019
1866 Clear 13 996 50 10000 3.1 260 21:56 15.09.2019
1867 Clear 13 995 50 10000 3.6 250 21:37 15.09.2019
1868 Clear 13 995 50 10000 3.6 250 21:19 15.09.2019
1869 Clear 14 995 44 10000 5.7 240 20:44 15.09.2019
1870 Clear 14 995 44 10000 5.7 240 20:26 15.09.2019
1871 Clear 14 994 44 10000 5.1 240 19:47 15.09.2019
1872 Clear 14 994 44 10000 5.1 240 19:27 15.09.2019
1873 Clear 15 994 44 10000 4.1 250 18:56 15.09.2019
1874 Clouds 15 998 41 0 10.3 270 18:38 15.09.2019
1875 Clouds 16 997 45 0 4.1 260 18:20 15.09.2019
1876 Clear 17 994 36 10000 6.7 250 17:43 15.09.2019
1877 Clear 17 994 36 10000 6.7 250 17:22 15.09.2019
1878 Clear 17 994 36 10000 5.7 270 16:58 15.09.2019
1879 Clear 17 994 36 10000 5.1 250 16:40 15.09.2019
1880 Clear 17 994 36 10000 5.1 230 16:21 15.09.2019
1881 Clear 17 994 36 10000 5.1 230 15:56 15.09.2019
1882 Clear 17 994 36 10000 6.2 230 15:37 15.09.2019
1883 Clear 17 995 38 10000 6.2 230 15:18 15.09.2019
1884 Clear 16 995 44 10000 4.6 240 14:43 15.09.2019
1885 Clear 16 995 44 10000 4.6 240 14:23 15.09.2019
1886 Clear 16 995 44 10000 7.2 220 13:55 15.09.2019
1887 Clear 16 999 38 0 7.2 250 13:37 15.09.2019
1888 Clear 15 995 45 10000 7.7 230 13:19 15.09.2019
1889 Clear 15 995 45 10000 6.2 240 12:42 15.09.2019
1890 Clear 15 995 46 10000 6.2 240 12:23 15.09.2019
1891 Clouds 14 996 43 10000 5.1 230 11:56 15.09.2019
1892 Clouds 14 996 46 10000 5.7 230 11:38 15.09.2019
1893 Clouds 14 996 46 10000 5.7 230 11:19 15.09.2019
1894 Clear 13 995 54 10000 3.1 210 10:42 15.09.2019
1895 Clear 13 995 54 10000 3.1 210 10:22 15.09.2019
1896 Clouds 12 995 57 10000 3.1 210 09:57 15.09.2019
1897 Clear 12 996 61 10000 4.1 210 09:37 15.09.2019
1898 Clear 11 996 66 10000 5.1 220 09:18 15.09.2019
1899 Clear 11 996 76 10000 4.1 210 08:44 15.09.2019
1900 Clear 10 996 76 10000 4.1 210 08:25 15.09.2019
1901 Clear 10 997 76 10000 5.1 200 07:48 15.09.2019
1902 Clear 10 997 87 10000 4.1 200 06:59 15.09.2019
1903 Clear 10 998 87 10000 3.1 210 06:33 15.09.2019
1904 Clouds 11 1001 87 10000 4.1 210 03:25 15.09.2019
1905 Rain 11 1005 87 0 5.7 210 02:30 15.09.2019
1906 Rain 12 1004 81 10000 8.2 200 01:38 15.09.2019
1907 Rain 12 1004 81 10000 8.2 200 01:38 15.09.2019
1908 Clouds 12 1006 76 0 8.2 210 00:58 15.09.2019
1909 Rain 12 1005 71 10000 8.7 200 00:39 15.09.2019
1910 Clouds 12 1006 71 10000 9.3 200 00:19 15.09.2019
1911 Clouds 12 1006 71 10000 9.3 200 23:57 14.09.2019
1912 Clouds 12 1007 71 10000 10.3 200 23:39 14.09.2019
1913 Clouds 12 1007 71 10000 10.3 200 23:19 14.09.2019
1914 Clouds 12 1008 71 10000 6.2 180 22:58 14.09.2019
1915 Clouds 12 1009 71 10000 7.7 170 22:38 14.09.2019
1916 Clouds 12 1009 71 10000 7.7 170 22:19 14.09.2019
1917 Rain 12 1010 81 10000 7.7 180 21:40 14.09.2019
1918 Rain 12 1010 81 10000 7.7 180 21:40 14.09.2019
1919 Rain 12 1010 81 10000 7.7 180 21:21 14.09.2019
1920 Clouds 12 1011 87 10000 7.2 180 20:59 14.09.2019
1921 Clouds 12 1011 87 10000 7.2 180 20:59 14.09.2019
1922 Clouds 12 1013 87 10000 4.1 180 20:40 14.09.2019
1923 Clouds 12 1014 87 10000 5.7 180 20:22 14.09.2019
1924 Clouds 12 1014 87 10000 5.7 180 19:51 14.09.2019
1925 Clouds 12 1014 87 10000 5.7 180 19:23 14.09.2019
1926 Rain 12 1014 87 10000 6.7 200 18:59 14.09.2019
1927 Rain 12 1017 67 0 6.2 210 18:40 14.09.2019
1928 Rain 12 1017 67 0 6.2 210 18:21 14.09.2019
1929 Rain 12 1017 71 10000 5.1 190 17:57 14.09.2019
1930 Rain 12 1018 66 10000 5.1 180 17:39 14.09.2019
1931 Rain 12 1018 66 10000 5.1 180 17:20 14.09.2019
1932 Clear 12 1019 62 10000 5.1 200 16:43 14.09.2019
1933 Clear 12 1019 62 10000 5.1 200 16:21 14.09.2019
1934 Clear 13 1020 58 10000 5.7 210 15:43 14.09.2019
1935 Clear 13 1020 58 10000 5.7 210 15:23 14.09.2019
1936 Rain 13 1020 58 10000 5.7 210 14:59 14.09.2019
1937 Rain 13 1021 58 10000 5.1 220 14:39 14.09.2019
1938 Clear 13 1021 62 10000 5.7 220 14:18 14.09.2019
1939 Clear 12 1024 58 10000 3.6 230 13:47 14.09.2019
1940 Clear 12 1024 58 10000 3.6 230 13:47 14.09.2019
1941 Clear 12 1021 62 10000 5.7 220 13:47 14.09.2019
1942 Clear 12 1024 58 10000 3.6 230 13:22 14.09.2019
1943 Clear 12 1024 58 10000 4.6 240 12:47 14.09.2019
1944 Clear 12 1024 58 10000 4.6 240 12:25 14.09.2019
1945 Clear 11 1022 53 10000 4.1 220 11:42 14.09.2019
1946 Clear 11 1022 53 10000 4.1 220 11:42 14.09.2019
1947 Clear 11 1022 53 10000 4.1 220 11:21 14.09.2019
1948 Clear 10 1022 62 10000 2.6 210 10:57 14.09.2019
1949 Clear 10 1022 61 10000 2.6 220 10:36 14.09.2019
1950 Clear 10 1022 61 10000 2.6 220 10:18 14.09.2019
1951 Clear 9 1022 61 10000 4.1 230 09:56 14.09.2019
1952 Clear 9 1022 65 10000 2.1 230 09:37 14.09.2019
1953 Clear 8 1022 70 10000 2.1 220 09:18 14.09.2019
1954 Clear 8 1022 70 10000 3.1 220 08:41 14.09.2019
1955 Clear 7 1022 70 10000 3.1 220 08:23 14.09.2019
1956 Clear 7 1022 70 10000 3.6 230 07:44 14.09.2019
1957 Clear 7 1022 70 10000 3.6 230 07:26 14.09.2019
1958 Clear 7 1022 65 10000 2.6 230 06:38 14.09.2019
1959 Clouds 6 1024 81 0 1 0 05:57 14.09.2019
1960 Clear 7 1022 65 10000 3.6 210 04:44 14.09.2019
1961 Clear 6 1022 65 10000 2.1 220 03:33 14.09.2019
1962 Clear 7 1022 65 10000 2.6 220 02:51 14.09.2019
1963 Clear 8 1021 61 10000 2.6 230 01:46 14.09.2019
1964 Clear 8 1021 61 10000 2.6 230 01:21 14.09.2019
1965 Clear 8 1021 61 10000 2.6 230 00:55 14.09.2019
1966 Clear 9 1021 61 10000 3.6 240 00:36 14.09.2019
1967 Clear 9 1021 65 10000 2.6 220 00:18 14.09.2019
1968 Clear 9 1021 65 10000 2.6 220 00:18 14.09.2019
1969 Clear 10 1021 53 10000 2.6 250 23:37 13.09.2019
1970 Clear 9 1021 53 10000 2.6 250 23:18 13.09.2019
1971 Clear 10 1020 53 10000 3.6 240 22:56 13.09.2019
1972 Clear 10 1020 53 10000 3.6 230 22:37 13.09.2019
1973 Clear 10 1020 53 10000 3.6 230 22:37 13.09.2019
1974 Clear 10 1020 53 10000 3.6 230 22:19 13.09.2019
1975 Clear 11 1020 50 10000 1.5 250 21:40 13.09.2019
1976 Clear 12 1020 50 10000 1.5 250 21:19 13.09.2019
1977 Clear 12 1020 50 10000 1.5 250 21:19 13.09.2019
1978 Clear 12 1019 46 10000 2.6 240 20:58 13.09.2019
1979 Clear 12 1019 46 10000 2.6 250 20:38 13.09.2019
1980 Clear 12 1019 46 10000 2.6 250 20:20 13.09.2019
1981 Clear 13 1019 41 10000 4.1 230 19:55 13.09.2019
1982 Clear 13 1019 41 10000 4.1 230 19:37 13.09.2019
1983 Clear 14 1019 41 10000 4.1 240 19:18 13.09.2019
1984 Clear 15 1019 38 10000 4.6 250 18:38 13.09.2019
1985 Clear 16 1018 38 10000 4.1 260 18:20 13.09.2019
1986 Clear 16 1018 38 10000 4.1 260 17:58 13.09.2019
1987 Clear 16 1018 38 10000 4.1 250 17:37 13.09.2019
1988 Clear 17 1018 38 10000 2.6 280 17:18 13.09.2019
1989 Clear 17 1018 38 10000 2.6 310 16:40 13.09.2019
1990 Clear 17 1018 38 10000 2.6 310 16:20 13.09.2019
1991 Clear 17 1018 38 10000 2.6 310 16:20 13.09.2019
1992 Clear 17 1018 36 10000 4.1 260 15:46 13.09.2019
1993 Clear 17 1018 36 10000 4.1 260 15:27 13.09.2019
1994 Clear 17 1017 38 10000 4.1 300 14:57 13.09.2019
1995 Clear 17 1017 36 10000 2.6 310 14:39 13.09.2019
1996 Clear 17 1017 36 10000 2.6 310 14:19 13.09.2019
1997 Clear 17 1017 41 10000 3.1 280 13:45 13.09.2019
1998 Clear 16 1017 41 10000 3.1 280 13:23 13.09.2019
1999 Clear 16 1019 41 10000 6.2 260 12:56 13.09.2019
2000 Clouds 15 1016 41 10000 4.6 290 12:38 13.09.2019
2001 Clear 15 1016 47 10000 4.1 300 12:20 13.09.2019
2002 Clear 15 1016 47 10000 4.1 300 11:54 13.09.2019
2003 Clear 15 1016 47 10000 3.6 320 11:18 13.09.2019
2004 Clear 14 1015 50 10000 3.6 290 10:38 13.09.2019
2005 Clear 13 1015 57 10000 1.5 280 10:19 13.09.2019
2006 Clear 12 1014 66 10000 2.6 320 09:44 13.09.2019
2007 Clear 11 1014 66 10000 2.6 320 09:24 13.09.2019
2008 Clear 10 1014 70 10000 2.6 340 08:58 13.09.2019
2009 Clear 10 1014 66 10000 3.1 310 08:40 13.09.2019
2010 Clear 10 1014 66 10000 3.1 310 08:40 13.09.2019
2011 Clear 9 1014 66 10000 3.1 310 08:20 13.09.2019
2012 Clear 9 1013 70 10000 2.1 0 07:45 13.09.2019
2013 Clear 9 1013 70 10000 2.1 0 07:27 13.09.2019
2014 Clear 8 1012 75 10000 2.1 320 06:47 13.09.2019
2015 Clear 9 1014 76 0 2.1 270 05:48 13.09.2019
2016 Clear 10 1011 76 10000 2.6 260 04:53 13.09.2019
2017 Clear 10 1010 71 10000 2.1 230 03:39 13.09.2019
2018 Clear 11 1010 76 10000 2.6 210 02:20 13.09.2019
2019 Clouds 11 1013 71 0 3.6 230 01:42 13.09.2019
2020 Clouds 11 1013 71 0 3.6 230 01:22 13.09.2019
2021 Clouds 11 1013 71 0 4.6 230 00:38 13.09.2019
2022 Clear 11 1010 76 10000 3.6 210 23:59 12.09.2019
2023 Clear 12 1011 71 10000 3.1 210 23:36 12.09.2019
2024 Clear 12 1013 71 10000 4.6 220 22:59 12.09.2019
2025 Clear 12 1011 71 10000 3.1 190 22:41 12.09.2019
2026 Clear 12 1011 71 10000 3.1 190 22:41 12.09.2019
2027 Clear 12 1011 71 10000 3.1 190 22:23 12.09.2019
2028 Clear 13 1011 66 10000 2.1 200 21:57 12.09.2019
2029 Clear 13 1011 66 10000 3.1 210 21:38 12.09.2019
2030 Clear 13 1011 66 10000 3.1 210 21:38 12.09.2019
2031 Clear 13 1011 58 10000 4.1 220 21:19 12.09.2019
2032 Clear 13 1011 58 10000 4.1 220 20:56 12.09.2019
2033 Clear 14 1011 66 10000 3.6 210 20:37 12.09.2019
2034 Clear 14 1011 66 10000 3.6 210 20:19 12.09.2019
2035 Clear 14 1011 66 10000 3.6 210 20:19 12.09.2019
2036 Clear 14 1010 62 10000 4.6 210 19:42 12.09.2019
2037 Clear 15 1010 62 10000 4.6 210 19:20 12.09.2019
2038 Clear 15 1010 58 10000 3.6 220 18:58 12.09.2019
2039 Clear 15 1011 62 10000 4.1 220 18:37 12.09.2019
2040 Clear 16 1011 55 10000 4.6 220 18:18 12.09.2019
2041 Clear 16 1011 55 10000 4.6 220 17:56 12.09.2019
2042 Clouds 16 1011 55 10000 5.7 230 17:38 12.09.2019
2043 Clear 16 1010 59 10000 5.7 220 17:19 12.09.2019
2044 Clouds 16 1010 62 10000 7.2 200 16:41 12.09.2019
2045 Clouds 16 1010 62 10000 7.2 200 16:21 12.09.2019
2046 Clear 16 1011 59 10000 6.7 220 15:43 12.09.2019
2047 Clear 16 1011 59 10000 6.7 220 15:24 12.09.2019
2048 Clear 16 1011 55 10000 6.7 230 14:58 12.09.2019
2049 Clouds 17 1010 51 10000 6.7 230 14:39 12.09.2019
2050 Clouds 17 1011 59 10000 5.7 230 14:20 12.09.2019
2051 Clouds 17 1011 67 10000 4.1 230 13:39 12.09.2019
2052 Clouds 17 1011 67 10000 4.1 230 13:21 12.09.2019
2053 Clear 17 1013 63 10000 5.7 230 12:49 12.09.2019
2054 Clear 16 1013 67 10000 6.2 220 12:20 12.09.2019
2055 Clear 16 1013 67 10000 6.2 220 12:20 12.09.2019
2056 Clouds 16 1011 76 10000 7.2 200 11:59 12.09.2019
2057 Clouds 15 1010 71 10000 6.7 180 11:40 12.09.2019
2058 Clouds 15 1010 71 10000 6.7 180 11:21 12.09.2019
2059 Clear 14 1010 76 10000 5.1 170 10:54 12.09.2019
2060 Clear 14 1010 81 10000 4.6 130 10:36 12.09.2019
2061 Clear 14 1009 81 10000 4.6 180 10:18 12.09.2019
2062 Clear 13 1009 81 10000 4.6 180 09:42 12.09.2019
2063 Clear 12 1009 87 10000 4.6 180 09:20 12.09.2019
2064 Clear 11 1009 87 10000 3.6 170 08:45 12.09.2019
2065 Clear 11 1009 87 10000 3.6 170 08:25 12.09.2019
2066 Clear 10 1008 87 10000 4.1 190 07:56 12.09.2019
2067 Clear 9 1008 87 10000 4.1 190 07:36 12.09.2019
2068 Clear 9 1008 87 10000 4.6 190 07:18 12.09.2019
2069 Clouds 9 1010 81 0 2.6 180 06:46 12.09.2019
2070 Clear 10 1007 76 10000 1.5 0 06:18 12.09.2019
2071 Clear 10 1007 76 10000 1 0 05:42 12.09.2019
2072 Clear 10 1007 76 10000 1 0 05:19 12.09.2019
2073 Clear 10 1006 87 10000 2.6 170 03:58 12.09.2019
2074 Clouds 11 1007 87 0 4.1 240 01:45 12.09.2019
2075 Clouds 11 1007 87 0 4.1 240 01:27 12.09.2019
2076 Clear 12 1004 87 10000 1.5 190 00:50 12.09.2019
2077 Clear 12 1004 87 10000 1.5 190 00:31 12.09.2019
2078 Clear 12 1006 87 10000 3.6 230 23:49 11.09.2019
2079 Clouds 12 1003 93 10000 1.5 190 23:27 11.09.2019
2080 Drizzle 13 1003 93 10000 1.38 279.789 22:58 11.09.2019
2081 Rain 13 1003 93 10000 1 0 22:38 11.09.2019
2082 Drizzle 13 1003 93 10000 2.6 190 22:20 11.09.2019
2083 Drizzle 13 1003 93 10000 2.6 190 22:20 11.09.2019
2084 Drizzle 13 1003 93 10000 2.6 190 21:59 11.09.2019
2085 Drizzle 13 1003 93 9000 2.6 170 21:41 11.09.2019
2086 Drizzle 13 1003 93 9000 2.6 170 21:41 11.09.2019
2087 Drizzle 13 1003 93 9000 2.6 170 21:22 11.09.2019
2088 Rain 13 1003 93 7000 3.1 170 20:56 11.09.2019
2089 Rain 13 1003 93 7000 3.6 170 20:38 11.09.2019
2090 Rain 13 1003 93 7000 3.6 170 20:19 11.09.2019
2091 Rain 13 1003 93 7000 4.6 180 19:56 11.09.2019
2092 -273 0 0 0 0 0 19:56 11.09.2019
2093 Rain 13 1004 100 4400 6.2 190 19:37 11.09.2019
2094 Rain 13 1003 93 10000 4.6 170 19:19 11.09.2019
2095 Rain 13 1004 93 10000 4.6 170 18:43 11.09.2019
2096 Rain 13 1004 93 10000 4.6 170 18:24 11.09.2019
2097 Rain 13 1005 93 6000 6.7 180 17:58 11.09.2019
2098 -273 0 0 0 0 0 17:40 11.09.2019
2099 Rain 13 1005 87 10000 6.7 190 17:21 11.09.2019
2100 Rain 13 1005 87 10000 6.7 190 16:56 11.09.2019
2101 Rain 13 1005 87 10000 6.7 190 16:56 11.09.2019
2102 Rain 13 1005 81 10000 8.2 200 16:37 11.09.2019
2103 Rain 13 1005 82 10000 6.2 190 16:19 11.09.2019
2104 Rain 13 1005 82 10000 6.2 190 15:46 11.09.2019
2105 Rain 13 1005 82 10000 6.2 190 15:23 11.09.2019
2106 Rain 14 1005 76 10000 7.2 190 14:58 11.09.2019
2107 Rain 14 1006 76 10000 7.7 190 14:38 11.09.2019
2108 Rain 14 1006 76 10000 7.7 190 14:20 11.09.2019
2109 Clouds 14 1006 71 10000 9.3 200 13:57 11.09.2019
2110 Clouds 14 1005 67 10000 8.2 200 13:36 11.09.2019
2111 Clouds 15 1005 67 10000 9.8 200 13:18 11.09.2019
2112 Clouds 15 1005 72 10000 7.7 180 12:41 11.09.2019
2113 Clouds 15 1008 72 10000 6.7 200 12:21 11.09.2019
2114 Clouds 15 1008 72 10000 6.7 200 11:56 11.09.2019
2115 Clouds 15 1005 93 10000 5.7 180 11:37 11.09.2019
2116 Clouds 15 1005 93 10000 5.7 170 11:18 11.09.2019
2117 Clouds 15 1005 93 8000 5.1 170 10:40 11.09.2019
2118 Clouds 15 1005 93 8000 5.1 170 10:22 11.09.2019
2119 Mist 14 1006 93 6000 3.6 170 09:56 11.09.2019
2120 Mist 14 1006 100 1700 4.6 170 09:36 11.09.2019
2121 Mist 14 1006 100 1500 4.6 170 09:18 11.09.2019
2122 Drizzle 14 1006 93 4000 3.6 160 08:40 11.09.2019
2123 Fog 14 1007 93 8000 3.1 150 08:21 11.09.2019
2124 Mist 13 1007 93 8000 3.1 150 07:46 11.09.2019
2125 Clouds 13 1007 93 8000 2.1 140 07:23 11.09.2019
2126 Clouds 13 1007 93 10000 1 160 06:54 11.09.2019
2127 Clouds 13 1007 93 10000 1 160 06:35 11.09.2019
2128 Fog 13 1008 100 10000 0.76 128.436 05:49 11.09.2019
2129 Fog 13 1008 100 10000 0.76 128.436 05:29 11.09.2019
2130 Fog 13 1009 93 10000 0.76 128.436 04:51 11.09.2019
2131 Fog 13 1009 100 10000 0.76 128.436 03:40 11.09.2019
2132 Fog 13 1009 93 10000 1.31 2.139 02:58 11.09.2019
2133 Mist 13 1009 93 10000 1.5 330 02:28 11.09.2019
2134 Clouds 13 1010 93 10000 1 50 01:21 11.09.2019
2135 Clouds 13 1010 93 10000 2.25 331.808 00:31 11.09.2019
2136 Clouds 14 1010 93 10000 2.25 331.808 23:58 10.09.2019
2137 Clouds 14 1011 93 10000 1 10 23:39 10.09.2019
2138 Clouds 14 1011 100 10000 2.1 40 23:20 10.09.2019
2139 Clouds 14 1011 93 10000 2.25 331.808 22:41 10.09.2019
2140 Clouds 15 1011 93 10000 1.5 20 22:20 10.09.2019
2141 Clouds 14 1011 93 10000 1.5 20 21:57 10.09.2019
2142 Clouds 15 1011 93 10000 0.5 0 21:38 10.09.2019
2143 Clouds 15 1010 93 10000 2.1 360 21:20 10.09.2019
2144 Clouds 15 1010 93 10000 2.1 360 20:58 10.09.2019
2145 Clouds 15 1010 82 10000 2.6 20 20:40 10.09.2019
2146 Clouds 15 1010 82 10000 2.6 20 20:22 10.09.2019
2147 Clear 16 1010 82 10000 2.6 20 19:57 10.09.2019
2148 Clear 16 1010 82 10000 2.6 20 19:38 10.09.2019
2149 Clear 16 1010 77 10000 3.1 360 19:20 10.09.2019
2150 Clear 16 1010 77 10000 3.1 360 18:58 10.09.2019
2151 Clear 17 1011 77 10000 3.6 10 18:40 10.09.2019
2152 Clear 17 1011 77 10000 3.6 10 18:21 10.09.2019
2153 Clouds 17 1011 77 10000 3.6 10 17:55 10.09.2019
2154 Clouds 17 1011 77 10000 3.6 10 17:37 10.09.2019
2155 Clouds 17 1011 77 10000 3.6 360 17:18 10.09.2019
2156 -273 0 0 0 0 0 16:55 10.09.2019
2157 -273 0 0 0 0 0 16:55 10.09.2019
2158 Clouds 16 1012 82 10000 3.6 360 16:36 10.09.2019
2159 Clouds 16 1012 82 10000 4.1 10 16:18 10.09.2019
2160 Clouds 16 1012 87 10000 4.6 360 15:42 10.09.2019
2161 Clouds 15 1012 87 10000 4.1 360 15:21 10.09.2019
2162 Clouds 15 1012 87 10000 4.1 360 14:55 10.09.2019
2163 Clouds 15 1012 93 10000 3.6 10 14:36 10.09.2019
2164 Clouds 15 1012 93 10000 3.6 10 14:18 10.09.2019
2165 Clouds 14 1013 87 10000 4.6 10 13:43 10.09.2019
2166 Clouds 14 1013 87 10000 4.6 10 13:22 10.09.2019
2167 Clouds 14 1013 93 10000 4.6 10 12:51 10.09.2019
2168 Rain 14 1013 93 10000 3.1 340 12:28 10.09.2019
2169 Rain 14 1013 93 10000 3.1 340 11:58 10.09.2019
2170 Rain 14 1013 93 10000 4.1 10 11:40 10.09.2019
2171 Rain 13 1013 93 10000 3.6 10 11:21 10.09.2019
2172 Rain 13 1013 93 10000 4.1 20 10:42 10.09.2019
2173 Rain 13 1013 93 10000 4.1 20 10:21 10.09.2019
2174 Rain 13 1013 93 10000 4.1 20 09:59 10.09.2019
2175 Rain 13 1013 93 9000 4.1 30 09:41 10.09.2019
2176 Rain 13 1013 93 10000 4.1 20 09:19 10.09.2019
2177 Rain 13 1013 93 10000 4.1 20 09:19 10.09.2019
2178 Rain 13 1013 93 10000 4.6 10 08:47 10.09.2019
2179 Rain 12 1013 93 10000 4.6 10 08:29 10.09.2019
2180 Rain 12 1014 93 10000 5.1 10 07:56 10.09.2019
2181 Clouds 12 1014 93 10000 4.1 20 07:37 10.09.2019
2182 Drizzle 12 1014 93 10000 3.6 20 07:19 10.09.2019
2183 Clouds 12 1014 93 10000 4.1 20 06:39 10.09.2019
2184 Clouds 12 1014 93 10000 4.1 20 06:39 10.09.2019
2185 Rain 12 1014 93 10000 3.6 20 06:19 10.09.2019
2186 Rain 12 1015 93 10000 3.6 10 04:19 10.09.2019
2187 Rain 12 1016 93 10000 2.6 20 02:38 10.09.2019
2188 Rain 12 1016 93 10000 2.6 20 02:38 10.09.2019
2189 Rain 12 1016 93 10000 2.6 20 02:19 10.09.2019
2190 Rain 12 1016 93 10000 3.1 20 01:50 10.09.2019
2191 Rain 12 1016 93 10000 3.1 20 01:50 10.09.2019
2192 Rain 12 1016 93 10000 3.1 20 01:50 10.09.2019
2193 Rain 12 1016 93 10000 3.1 20 01:50 10.09.2019
2194 Rain 12 1016 93 10000 3.1 20 01:50 10.09.2019
2195 Rain 12 1016 93 10000 3.1 30 01:22 10.09.2019
2196 Rain 12 1016 93 10000 2.6 20 00:36 10.09.2019
2197 Rain 12 1016 93 10000 2.6 20 00:36 10.09.2019
2198 Drizzle 12 1017 87 10000 2.6 10 23:56 09.09.2019
2199 Clouds 12 1017 87 10000 2.6 30 23:36 09.09.2019
2200 Clouds 12 1017 87 10000 2.6 20 23:18 09.09.2019
2201 Clouds 12 1017 87 10000 2.6 20 22:54 09.09.2019
2202 Clouds 12 1017 87 10000 2.6 20 22:36 09.09.2019
2203 Clouds 12 1017 87 10000 2.6 10 22:18 09.09.2019
2204 Clouds 12 1017 87 10000 2.6 10 21:54 09.09.2019
2205 Clouds 12 1017 87 10000 3.1 20 21:36 09.09.2019
2206 Rain 12 1016 93 0 3.1 360 21:18 09.09.2019
2207 Rain 12 1016 93 0 3.1 360 20:54 09.09.2019
2208 Rain 13 1017 81 10000 2.6 20 20:36 09.09.2019
2209 Rain 13 1017 87 7000 2.6 10 20:18 09.09.2019
2210 Drizzle 13 1017 87 7000 2.6 10 19:55 09.09.2019
2211 Drizzle 13 1017 81 10000 3.1 10 19:36 09.09.2019
2212 Clouds 13 1017 81 10000 3.6 20 19:18 09.09.2019
2213 Clouds 13 1017 81 10000 3.6 20 19:18 09.09.2019
2214 Clouds 13 1017 81 10000 4.1 20 18:41 09.09.2019
2215 Clouds 13 1017 76 10000 4.1 20 18:22 09.09.2019
2216 Clouds 14 1017 76 10000 4.1 20 17:59 09.09.2019
2217 Clouds 14 1017 76 10000 4.1 20 17:41 09.09.2019
2218 Clouds 14 1017 76 10000 3.6 20 17:21 09.09.2019
2219 Clouds 14 1017 76 10000 3.6 20 16:57 09.09.2019
2220 Clouds 14 1017 76 10000 3.6 10 16:39 09.09.2019
2221 Clouds 14 1018 81 10000 3.6 20 16:20 09.09.2019
2222 Clouds 14 1018 81 10000 3.6 20 16:20 09.09.2019
2223 Clouds 14 1018 81 10000 3.6 20 15:56 09.09.2019
2224 Clouds 14 1018 81 10000 3.6 20 15:56 09.09.2019
2225 Clouds 14 1018 81 10000 4.1 10 15:37 09.09.2019
2226 Clouds 14 1018 81 10000 4.1 10 15:19 09.09.2019
2227 Clouds 14 1018 81 10000 4.1 10 14:57 09.09.2019
2228 Clouds 14 1018 71 10000 4.1 10 14:38 09.09.2019
2229 Clouds 14 1018 76 10000 4.1 360 14:19 09.09.2019
2230 Clouds 14 1018 76 10000 3.1 10 13:45 09.09.2019
2231 Clouds 13 1018 76 10000 3.6 10 13:21 09.09.2019
2232 Rain 13 1019 76 10000 4.6 30 12:58 09.09.2019
2233 Rain 13 1019 76 10000 4.6 30 12:58 09.09.2019
2234 Rain 13 1019 76 10000 4.6 30 12:40 09.09.2019
2235 Rain 13 1019 76 10000 4.6 30 12:40 09.09.2019
2236 Clouds 13 1019 76 10000 3.6 20 12:20 09.09.2019
2237 Clouds 12 1019 81 10000 4.1 10 11:48 09.09.2019
2238 Clouds 12 1020 81 10000 4.6 30 11:24 09.09.2019
2239 Clouds 12 1020 81 10000 4.6 30 10:59 09.09.2019
2240 Clouds 12 1020 93 10000 4.6 20 10:41 09.09.2019
2241 Clouds 12 1020 93 10000 4.6 20 10:21 09.09.2019
2242 Clouds 11 1020 93 10000 4.6 10 09:57 09.09.2019
2243 Clouds 11 1020 93 10000 4.6 10 09:38 09.09.2019
2244 Clouds 11 1020 93 10000 5.1 30 09:19 09.09.2019
2245 Clouds 11 1020 93 10000 5.1 30 09:19 09.09.2019
2246 Clouds 11 1020 93 10000 4.6 50 08:39 09.09.2019
2247 Clouds 11 1020 93 10000 4.6 50 08:20 09.09.2019
2248 Clouds 11 1020 93 10000 4.6 50 08:20 09.09.2019
2249 Clouds 10 1021 93 10000 3.1 30 07:47 09.09.2019
2250 Clouds 10 1021 93 10000 3.1 30 07:23 09.09.2019
2251 Clouds 10 1021 100 10000 3.6 30 06:58 09.09.2019
2252 Fog 10 1021 93 10000 3.6 30 06:36 09.09.2019
2253 Clouds 10 1020 93 0 2.6 340 04:56 09.09.2019
2254 Clouds 10 1020 93 0 2.6 340 04:56 09.09.2019
2255 Clear 10 1022 93 10000 1.59 5.165 02:59 09.09.2019
2256 Clouds 10 1022 93 10000 1.5 20 02:38 09.09.2019
2257 Clouds 10 1022 93 10000 1.5 350 00:46 09.09.2019
2258 Clouds 10 1023 93 10000 1.5 350 00:22 09.09.2019
2259 Clouds 11 1023 93 10000 1 330 23:46 08.09.2019
2260 Clouds 11 1023 93 10000 1 330 23:24 08.09.2019
2261 Clear 11 1022 93 10000 2.6 360 22:57 08.09.2019
2262 Clouds 11 1023 93 10000 1.77 20.507 22:38 08.09.2019
2263 Clear 11 1023 93 10000 1.77 20.507 22:20 08.09.2019
2264 Clear 11 1023 87 10000 1.77 20.507 21:42 08.09.2019
2265 Clear 11 1023 87 10000 1.36 19.219 21:23 08.09.2019
2266 Clear 11 1023 87 10000 0.5 0 20:59 08.09.2019
2267 Clear 12 1023 87 10000 0.5 0 20:40 08.09.2019
2268 Clear 12 1023 87 10000 0.5 0 20:22 08.09.2019
2269 Clouds 12 1023 82 10000 3.1 350 19:59 08.09.2019
2270 Clouds 12 1023 81 10000 2.1 360 19:38 08.09.2019
2271 Clouds 13 1023 81 10000 2.1 10 19:20 08.09.2019
2272 Clouds 13 1023 81 10000 2.1 10 18:57 08.09.2019
2273 Clouds 13 1023 81 10000 2.1 360 18:38 08.09.2019
2274 Clouds 14 1023 76 0 3.6 10 18:19 08.09.2019
2275 Clouds 13 1023 81 10000 2.6 30 17:56 08.09.2019
2276 Clouds 13 1023 81 10000 2.6 30 17:56 08.09.2019
2277 Clouds 13 1023 81 10000 2.6 10 17:36 08.09.2019
2278 Clouds 13 1023 81 10000 2.6 20 17:18 08.09.2019
2279 Clouds 13 1024 81 10000 3.1 30 16:44 08.09.2019
2280 Clouds 13 1024 81 10000 3.1 30 16:22 08.09.2019
2281 Clouds 13 1024 81 10000 3.6 20 15:59 08.09.2019
2282 Clouds 13 1024 81 10000 3.6 10 15:41 08.09.2019
2283 Clouds 12 1024 81 10000 4.1 30 15:21 08.09.2019
2284 Clouds 12 1024 81 10000 4.1 30 14:57 08.09.2019
2285 Clouds 12 1024 81 10000 3.1 20 14:39 08.09.2019
2286 Rain 12 1024 81 10000 4.1 20 14:20 08.09.2019
2287 Rain 12 1024 81 10000 4.1 20 13:56 08.09.2019
2288 Rain 12 1024 81 10000 3.6 20 13:37 08.09.2019
2289 Rain 12 1024 81 10000 4.1 20 13:19 08.09.2019
2290 Clouds 11 1023 81 0 4.1 20 12:42 08.09.2019
2291 Clouds 11 1023 81 0 4.1 20 12:42 08.09.2019
2292 Rain 11 1024 87 10000 3.6 20 12:23 08.09.2019
2293 Rain 11 1024 87 10000 4.1 10 11:58 08.09.2019
2294 Rain 11 1024 81 10000 4.6 20 11:40 08.09.2019
2295 Clouds 10 1024 81 10000 4.1 20 11:20 08.09.2019
2296 Clouds 10 1023 81 10000 4.6 10 10:58 08.09.2019
2297 Clouds 10 1023 81 10000 4.6 10 10:39 08.09.2019
2298 Clouds 10 1023 81 10000 4.6 10 10:21 08.09.2019
2299 Clouds 9 1023 87 10000 4.6 10 09:38 08.09.2019
2300 Clouds 9 1023 87 10000 4.6 10 09:20 08.09.2019
2301 Clouds 9 1023 87 10000 4.6 10 08:56 08.09.2019
2302 Clouds 9 1023 87 10000 4.6 10 08:56 08.09.2019
2303 Rain 9 1023 87 10000 4.6 10 08:38 08.09.2019
2304 Rain 9 1023 87 10000 4.6 10 08:38 08.09.2019
2305 Drizzle 9 1023 87 7000 4.1 10 08:18 08.09.2019
2306 Drizzle 9 1023 87 7000 4.1 10 08:18 08.09.2019
2307 Drizzle 9 1023 87 10000 5.1 20 07:39 08.09.2019
2308 Clouds 9 1022 81 10000 6.2 10 07:20 08.09.2019
2309 Clouds 9 1022 81 10000 4.1 360 06:53 08.09.2019
2310 Clouds 9 1022 81 10000 4.1 360 06:31 08.09.2019
2311 Clear 9 1021 81 0 3.6 350 05:38 08.09.2019
2312 Clouds 8 1021 81 10000 5.1 10 03:56 08.09.2019
2313 Clouds 8 1021 81 10000 4.6 360 02:59 08.09.2019
2314 Clouds 8 1020 76 10000 4.6 360 02:26 08.09.2019
2315 Clouds 8 1020 76 10000 2.6 360 01:49 08.09.2019
2316 Clouds 8 1020 81 10000 3.1 350 01:22 08.09.2019
2317 Clouds 8 1019 81 10000 2.6 350 00:45 08.09.2019
2318 Clouds 8 1020 87 0 4.1 10 00:26 08.09.2019
2319 Clouds 9 1019 87 10000 4.1 10 23:38 07.09.2019
2320 Clouds 9 1019 87 10000 2.6 350 23:20 07.09.2019
2321 Clouds 9 1019 87 10000 2.6 350 22:57 07.09.2019
2322 Clouds 9 1018 87 10000 2.6 360 22:39 07.09.2019
2323 Clouds 9 1018 87 10000 2.6 350 22:20 07.09.2019
2324 Clouds 9 1018 87 10000 2.6 350 22:20 07.09.2019
2325 Clouds 9 1018 87 0 3.1 350 21:42 07.09.2019
2326 Clouds 10 1018 87 0 3.1 350 21:24 07.09.2019
2327 Clouds 10 1018 87 0 3.1 350 20:57 07.09.2019
2328 Clear 10 1017 87 10000 3.6 10 20:38 07.09.2019
2329 Clouds 10 1017 87 0 3.6 350 20:19 07.09.2019
2330 Clouds 11 1017 87 0 3.6 350 19:55 07.09.2019
2331 Clouds 11 1016 87 10000 4.6 10 19:37 07.09.2019
2332 Clouds 11 1016 87 10000 5.7 10 19:18 07.09.2019
2333 Rain 11 1015 87 10000 5.7 10 18:55 07.09.2019
2334 Rain 11 1015 87 10000 5.7 10 18:55 07.09.2019
2335 Rain 11 1015 87 10000 5.7 10 18:36 07.09.2019
2336 Rain 11 1015 87 10000 4.6 10 18:18 07.09.2019
2337 Rain 11 1015 87 10000 4.6 10 17:55 07.09.2019
2338 Rain 11 1015 87 10000 4.6 10 17:55 07.09.2019
2339 Rain 11 1014 87 10000 4.6 10 17:36 07.09.2019
2340 Rain 11 1014 87 10000 6.7 10 17:18 07.09.2019
2341 Rain 11 1014 93 10000 7.2 10 16:43 07.09.2019
2342 Rain 11 1013 87 10000 8.2 10 16:21 07.09.2019
2343 Rain 11 1013 87 10000 8.2 10 15:55 07.09.2019
2344 Rain 11 1013 87 10000 5.7 360 15:55 07.09.2019
2345 Rain 11 1013 87 10000 5.7 360 15:36 07.09.2019
2346 Rain 11 1013 87 10000 7.2 10 15:18 07.09.2019
2347 Rain 11 1012 87 9000 7.7 10 14:54 07.09.2019
2348 Rain 11 1012 87 9000 7.7 10 14:36 07.09.2019
2349 Rain 11 1012 87 9000 7.2 10 14:18 07.09.2019
2350 Rain 12 1012 93 10000 6.7 10 13:43 07.09.2019
2351 Drizzle 12 1011 87 9000 6.2 360 13:25 07.09.2019
2352 Drizzle 12 1011 93 7000 5.7 10 12:46 07.09.2019
2353 Drizzle 12 1010 93 6000 6.2 10 12:26 07.09.2019
2354 Drizzle 12 1010 93 6000 6.2 10 11:59 07.09.2019
2355 Drizzle 12 1010 93 5000 5.7 20 11:40 07.09.2019
2356 Rain 11 1010 93 5000 4.6 10 11:20 07.09.2019
2357 Drizzle 12 1009 87 5000 4.1 10 10:41 07.09.2019
2358 Rain 12 1009 87 10000 3.1 350 10:22 07.09.2019
2359 Rain 11 1009 87 10000 3.1 350 09:57 07.09.2019
2360 Drizzle 11 1009 93 10000 2.1 360 09:39 07.09.2019
2361 Drizzle 11 1009 93 10000 2.1 360 09:39 07.09.2019
2362 Rain 11 1009 93 10000 1.5 350 09:20 07.09.2019
2363 Rain 11 1008 93 7000 0.5 0 08:44 07.09.2019
2364 Rain 11 1008 93 7000 0.5 0 08:26 07.09.2019
2365 Drizzle 11 1008 93 9000 2.6 360 07:48 07.09.2019
2366 Drizzle 11 1008 93 9000 2.6 360 07:28 07.09.2019
2367 Rain 11 1008 93 9000 2.6 10 06:53 07.09.2019
2368 Rain 11 1008 93 9000 2.6 10 06:29 07.09.2019
2369 Rain 11 1008 100 0 1 80 05:32 07.09.2019
2370 Rain 11 1008 100 10000 1.5 40 04:25 07.09.2019
2371 Rain 11 1008 93 9000 1 0 02:57 07.09.2019
2372 Rain 11 1008 93 9000 1 50 02:21 07.09.2019
2373 Rain 11 1008 93 10000 2.1 130 01:26 07.09.2019
2374 Rain 12 1009 93 10000 2.6 140 00:44 07.09.2019
2375 Rain 12 1009 93 10000 2.6 140 00:21 07.09.2019
2376 Rain 12 1009 93 10000 4.1 150 23:55 06.09.2019
2377 Rain 12 1009 93 10000 4.1 150 23:37 06.09.2019
2378 Rain 12 1009 93 10000 3.6 140 23:18 06.09.2019
2379 Rain 12 1009 93 10000 3.1 140 22:42 06.09.2019
2380 Rain 12 1009 93 9000 3.6 150 22:20 06.09.2019
2381 Rain 12 1009 93 9000 3.6 150 21:59 06.09.2019
2382 Rain 12 1009 93 9000 3.6 150 21:59 06.09.2019
2383 Rain 12 1009 93 8000 3.6 150 21:40 06.09.2019
2384 Rain 12 1009 87 0 5.1 160 21:22 06.09.2019
2385 Rain 12 1009 87 0 5.1 160 20:59 06.09.2019
2386 Clouds 12 1009 87 10000 2.6 120 20:40 06.09.2019
2387 Rain 12 1009 87 10000 0.5 0 20:21 06.09.2019
2388 Rain 13 1010 82 10000 5.7 180 19:58 06.09.2019
2389 Rain 13 1009 87 10000 0.5 0 19:40 06.09.2019
2390 Clouds 13 1010 82 10000 6.2 180 19:20 06.09.2019
2391 Rain 13 1009 76 10000 4.1 190 18:48 06.09.2019
2392 Rain 13 1009 76 10000 4.6 170 18:29 06.09.2019
2393 Clouds 13 1010 71 10000 4.6 200 17:59 06.09.2019
2394 Clouds 13 1010 71 10000 4.6 200 17:39 06.09.2019
2395 Rain 14 1009 66 10000 7.2 180 17:20 06.09.2019
2396 Rain 14 1009 66 10000 7.2 180 17:20 06.09.2019
2397 Rain 14 1009 66 10000 7.2 180 17:20 06.09.2019
2398 Clouds 13 1009 66 10000 6.2 190 16:42 06.09.2019
2399 Rain 14 1009 58 10000 5.7 200 16:20 06.09.2019
2400 Rain 14 1009 58 10000 5.7 200 15:59 06.09.2019
2401 Rain 14 1010 58 10000 4.1 210 15:40 06.09.2019
2402 Rain 14 1010 58 10000 5.1 200 15:22 06.09.2019
2403 Rain 13 1010 62 10000 4.6 190 14:41 06.09.2019
2404 Rain 13 1010 62 10000 5.1 180 14:19 06.09.2019
2405 Rain 13 1010 71 10000 4.1 180 13:44 06.09.2019
2406 Clouds 13 1011 66 10000 4.1 200 13:23 06.09.2019
2407 Clouds 13 1010 71 10000 3.6 170 12:56 06.09.2019
2408 Clouds 12 1010 71 10000 1.5 170 12:36 06.09.2019
2409 Clear 12 1011 66 10000 3.1 200 12:18 06.09.2019
2410 Clouds 11 1010 87 10000 2.6 180 11:40 06.09.2019
2411 Clouds 10 1010 87 10000 2.6 180 11:22 06.09.2019
2412 Clouds 9 1010 93 10000 1.5 200 10:56 06.09.2019
2413 Clouds 9 1010 93 10000 1.5 210 10:38 06.09.2019
2414 Clouds 8 1010 93 10000 1 0 10:18 06.09.2019
2415 Clouds 8 1009 93 10000 1.31 205.997 09:38 06.09.2019
2416 Clouds 7 1009 93 10000 0.74 315.165 09:19 06.09.2019
2417 Clouds 7 1009 93 10000 0.74 315.165 08:55 06.09.2019
2418 -273 0 0 0 0 0 08:55 06.09.2019
2419 Clouds 6 1009 93 10000 0.74 315.165 08:37 06.09.2019
2420 Fog 6 1009 100 10000 0.74 315.165 08:18 06.09.2019
2421 Fog 5 1009 100 10000 0.74 315.165 07:42 06.09.2019
2422 Fog 5 1009 100 500 0.74 315.165 07:23 06.09.2019
2423 Fog 5 1009 93 6000 0.74 315.165 06:43 06.09.2019
2424 Clear 5 1008 93 10000 0.57 277.761 05:58 06.09.2019
2425 Clear 5 1008 93 10000 0.57 277.761 04:57 06.09.2019
2426 Clear 6 1008 93 10000 0.57 277.761 04:26 06.09.2019
2427 Clear 6 1008 93 10000 0.57 277.761 03:29 06.09.2019
2428 Clear 7 1007 87 10000 0.65 224.006 01:47 06.09.2019
2429 Clear 7 1007 93 10000 0.17 131.689 00:23 06.09.2019
2430 Clear 7 1007 87 10000 0.17 131.689 00:23 06.09.2019
2431 Clear 8 1007 93 10000 0.17 131.689 23:43 05.09.2019
2432 Clear 8 1007 93 10000 0.17 131.689 23:23 05.09.2019
2433 Clear 8 1006 87 10000 2.1 300 22:47 05.09.2019
2434 Clear 8 1006 87 10000 2.1 300 22:28 05.09.2019
2435 Clear 9 1006 81 10000 2.1 300 21:58 05.09.2019
2436 Clear 9 1006 87 10000 0.17 131.689 21:40 05.09.2019
2437 Clear 9 1006 87 10000 0.17 131.689 21:40 05.09.2019
2438 Clear 10 1005 76 10000 0.5 300 21:21 05.09.2019
2439 Clear 11 1005 71 10000 1 0 20:58 05.09.2019
2440 Clear 11 1006 81 10000 2.1 290 20:58 05.09.2019
2441 Clear 11 1005 71 10000 1 0 20:40 05.09.2019
2442 Clear 12 1005 71 10000 2.6 290 20:22 05.09.2019
2443 Clouds 12 1004 66 10000 4.1 350 20:00 05.09.2019
2444 Clouds 12 1004 66 10000 4.1 350 19:41 05.09.2019
2445 Rain 12 1004 66 10000 4.6 350 19:22 05.09.2019
2446 Rain 12 1003 71 10000 0.5 0 18:56 05.09.2019
2447 Rain 13 1003 71 10000 0.5 0 18:38 05.09.2019
2448 Rain 13 1003 71 10000 3.6 350 18:18 05.09.2019
2449 Rain 13 1002 66 10000 2.1 280 17:41 05.09.2019
2450 Clouds 13 1002 66 10000 2.1 290 17:22 05.09.2019
2451 Clouds 13 1002 66 10000 2.1 290 16:58 05.09.2019
2452 Clouds 13 1002 71 10000 1.5 280 16:40 05.09.2019
2453 Rain 13 1002 71 10000 2.1 340 16:20 05.09.2019
2454 Rain 13 1002 71 10000 2.1 340 15:55 05.09.2019
2455 Rain 13 1001 76 10000 2.6 320 15:37 05.09.2019
2456 Rain 13 1001 76 10000 3.1 320 15:18 05.09.2019
2457 Rain 14 1000 66 10000 4.1 310 14:42 05.09.2019
2458 Rain 15 1000 71 10000 2.6 290 14:20 05.09.2019
2459 Rain 15 1000 71 10000 3.6 330 13:44 05.09.2019
2460 Rain 15 999 66 10000 2.1 290 13:23 05.09.2019
2461 Rain 15 999 71 10000 2.1 260 12:58 05.09.2019
2462 Rain 15 999 71 10000 2.1 260 12:38 05.09.2019
2463 Clouds 14 999 66 10000 1.5 290 12:20 05.09.2019
2464 Clouds 14 999 66 10000 3.6 220 11:43 05.09.2019
2465 Clouds 13 998 66 10000 2.1 240 11:20 05.09.2019
2466 Clouds 12 998 81 10000 3.6 210 10:43 05.09.2019
2467 Clouds 12 998 87 10000 3.6 200 10:23 05.09.2019
2468 Clouds 12 998 87 10000 3.6 200 10:23 05.09.2019
2469 Clouds 12 998 87 10000 3.6 200 09:59 05.09.2019
2470 Clouds 11 998 81 10000 3.1 210 09:40 05.09.2019
2471 Clouds 11 997 81 10000 3.6 210 09:19 05.09.2019
2472 Clouds 10 997 87 10000 3.6 210 08:46 05.09.2019
2473 Clouds 10 997 87 10000 3.6 210 08:27 05.09.2019
2474 Clouds 9 997 93 10000 3.1 200 07:48 05.09.2019
2475 Clouds 9 997 93 10000 3.1 200 07:29 05.09.2019
2476 Clouds 9 996 93 10000 2.6 200 06:58 05.09.2019
2477 Clouds 9 996 93 10000 2.6 200 06:33 05.09.2019
2478 Rain 9 999 93 0 3.1 200 05:59 05.09.2019
2479 Rain 9 999 93 0 3.1 200 05:37 05.09.2019
2480 Clouds 10 996 93 10000 3.1 200 05:19 05.09.2019
2481 Clouds 10 996 93 10000 3.1 210 04:29 05.09.2019
2482 Clouds 11 997 93 10000 3.1 200 03:41 05.09.2019
2483 Clouds 11 997 100 10000 3.1 200 02:54 05.09.2019
2484 Clouds 11 997 100 10000 3.1 210 02:27 05.09.2019
2485 Clouds 11 997 93 6000 1 0 01:41 05.09.2019
2486 Rain 12 998 93 10000 0.44 29.599 00:51 05.09.2019
2487 Rain 12 998 100 10000 0.5 210 00:23 05.09.2019
2488 Drizzle 12 998 100 10000 1.27 267.344 23:57 04.09.2019
2489 Drizzle 12 998 100 10000 1.27 267.344 23:39 04.09.2019
2490 Drizzle 12 999 100 10000 1.27 267.344 23:18 04.09.2019
2491 Drizzle 12 999 100 10000 1.27 267.344 23:18 04.09.2019
2492 Drizzle 12 999 100 10000 1.27 267.344 23:18 04.09.2019
2493 Drizzle 12 999 100 10000 1.27 267.344 22:47 04.09.2019
2494 Drizzle 12 999 93 10000 0.5 0 22:19 04.09.2019
2495 Rain 12 1000 93 8000 2.1 320 21:41 04.09.2019
2496 Rain 12 999 93 8000 4.1 120 21:21 04.09.2019
2497 Rain 12 999 93 8000 4.1 120 20:58 04.09.2019
2498 Rain 12 999 93 8000 4.1 120 20:40 04.09.2019
2499 Rain 12 1001 93 8000 8.2 170 20:20 04.09.2019
2500 Rain 12 1001 93 8000 8.2 170 19:58 04.09.2019
2501 Rain 12 1000 100 5000 4.6 140 19:39 04.09.2019
2502 Rain 12 1001 93 5000 2.1 100 19:20 04.09.2019
2503 Rain 12 1002 93 3300 1.5 100 18:41 04.09.2019
2504 Rain 12 1003 93 5000 1.5 70 18:23 04.09.2019
2505 Rain 12 1003 93 6000 1.5 70 17:56 04.09.2019
2506 Rain 12 1003 93 6000 1.5 70 17:38 04.09.2019
2507 Rain 11 1004 93 5000 2.1 70 17:20 04.09.2019
2508 Rain 11 1005 93 6000 2.1 90 16:48 04.09.2019
2509 Rain 11 1005 93 6000 2.1 90 16:28 04.09.2019
2510 Rain 11 1006 93 3400 2.1 110 15:59 04.09.2019
2511 Rain 11 1006 93 5000 4.1 110 15:39 04.09.2019
2512 Rain 11 1006 93 5000 4.1 110 15:39 04.09.2019
2513 Rain 11 1007 87 5000 3.6 100 15:21 04.09.2019
2514 Rain 11 1007 87 5000 3.6 100 14:57 04.09.2019
2515 Rain 11 1007 93 10000 3.6 110 14:37 04.09.2019
2516 Rain 11 1008 87 10000 3.1 120 14:19 04.09.2019
2517 Rain 11 1008 87 10000 3.1 120 13:55 04.09.2019
2518 Rain 11 1008 87 10000 1.5 120 13:36 04.09.2019
2519 Rain 11 1009 93 8000 1.5 90 13:18 04.09.2019
2520 Rain 11 1009 87 10000 1.5 100 12:40 04.09.2019
2521 Rain 11 1010 81 10000 1.5 120 12:22 04.09.2019
2522 Rain 11 1010 81 10000 1.5 0 11:55 04.09.2019
2523 Rain 11 1010 81 10000 1.5 0 11:37 04.09.2019
2524 Rain 10 1010 87 10000 1 0 11:18 04.09.2019
2525 Rain 10 1011 87 10000 1.5 60 10:44 04.09.2019
2526 Rain 10 1011 87 10000 1.5 60 10:25 04.09.2019
2527 Rain 10 1011 93 10000 1 0 09:57 04.09.2019
2528 Clouds 9 1011 100 10000 1 0 09:39 04.09.2019
2529 Fog 9 1011 93 10000 0.5 0 09:18 04.09.2019
2530 Fog 9 1011 100 5000 1.16 88.074 08:41 04.09.2019
2531 Fog 8 1011 93 10000 1.16 88.074 08:23 04.09.2019
2532 Fog 8 1011 93 10000 1.16 88.074 07:56 04.09.2019
2533 Fog 7 1011 93 10000 1 0 07:33 04.09.2019
2534 Fog 7 1011 86 10000 1 30 06:49 04.09.2019
2535 Fog 7 1011 93 10000 0.72 54.851 06:21 04.09.2019
2536 Clear 7 1011 93 10000 1.5 350 04:53 04.09.2019
2537 Fog 7 1012 93 10000 1.5 320 04:20 04.09.2019
2538 Fog 8 1011 93 10000 1 0 02:21 04.09.2019
2539 Fog 8 1011 93 10000 1 0 00:55 04.09.2019
2540 Fog 9 1011 93 10000 1 0 00:35 04.09.2019
2541 Fog 9 1011 87 10000 2.6 330 00:00 04.09.2019
2542 Clear 9 1011 93 10000 2.6 320 23:38 03.09.2019
2543 Clear 9 1011 93 10000 0.5 0 23:20 03.09.2019
2544 Clear 10 1010 87 10000 1 0 22:40 03.09.2019
2545 Clear 10 1010 87 10000 1 0 22:22 03.09.2019
2546 Clear 10 1010 87 10000 1.89 339.486 21:56 03.09.2019
2547 Clear 11 1010 81 10000 1.5 310 21:38 03.09.2019
2548 Clear 12 1010 93 10000 1.5 60 21:20 03.09.2019
2549 Clear 13 1009 76 10000 1.5 320 20:44 03.09.2019
2550 Clear 13 1009 71 10000 2.1 310 20:24 03.09.2019
2551 Clouds 14 1009 67 10000 0.5 0 19:57 03.09.2019
2552 Clouds 14 1009 67 10000 0.5 0 19:39 03.09.2019
2553 Clouds 15 1008 67 10000 2.6 350 19:19 03.09.2019
2554 Rain 15 1008 67 10000 2.6 350 18:56 03.09.2019
2555 Rain 15 1008 67 10000 2.6 350 18:38 03.09.2019
2556 Rain 16 1008 71 10000 4.1 350 18:18 03.09.2019
2557 Rain 17 1008 72 10000 4.1 360 17:43 03.09.2019
2558 Clouds 17 1008 77 10000 6.2 190 17:21 03.09.2019
2559 Rain 17 1008 82 10000 3.6 20 16:59 03.09.2019
2560 Rain 17 1008 93 10000 3.6 30 16:41 03.09.2019
2561 Rain 18 1007 72 10000 4.1 190 16:22 03.09.2019
2562 Rain 18 1007 87 10000 2.6 70 15:42 03.09.2019
2563 Rain 18 1007 87 10000 2.6 70 15:42 03.09.2019
2564 Clouds 19 1007 63 10000 3.6 190 15:22 03.09.2019
2565 Clouds 19 1007 63 10000 3.6 190 14:59 03.09.2019
2566 Clouds 18 1007 68 10000 3.6 230 14:41 03.09.2019
2567 Clouds 18 1007 68 10000 3.6 230 14:41 03.09.2019
2568 Clouds 18 1007 68 10000 3.6 230 14:21 03.09.2019
2569 Rain 17 1007 87 10000 1.5 170 13:58 03.09.2019
2570 Rain 17 1007 93 10000 2.6 140 13:38 03.09.2019
2571 Rain 17 1007 93 10000 2.6 140 13:38 03.09.2019
2572 Rain 16 1007 93 8000 3.6 190 13:19 03.09.2019
2573 Rain 16 1007 93 8000 3.6 190 13:19 03.09.2019
2574 Rain 16 1007 93 8000 3.6 190 12:57 03.09.2019
2575 Rain 16 1007 93 9000 4.6 200 12:38 03.09.2019
2576 Rain 15 1007 100 7000 4.6 170 12:20 03.09.2019
2577 Rain 14 1007 93 10000 4.6 170 11:42 03.09.2019
2578 Rain 14 1007 93 10000 4.6 170 11:23 03.09.2019
2579 Rain 14 1007 93 9000 4.6 170 10:57 03.09.2019
2580 Rain 13 1007 100 10000 4.6 160 10:39 03.09.2019
2581 Rain 13 1007 93 6000 4.6 160 10:20 03.09.2019
2582 Rain 12 1007 100 10000 2.6 170 09:44 03.09.2019
2583 Rain 12 1007 100 10000 2.6 170 09:26 03.09.2019
2584 Rain 12 1008 93 4000 3.1 160 08:56 03.09.2019
2585 Rain 11 1008 93 4000 3.1 160 08:37 03.09.2019
2586 Rain 11 1008 93 8000 3.1 150 08:19 03.09.2019
2587 Rain 11 1008 100 5000 3.1 170 07:42 03.09.2019
2588 Rain 10 1009 93 2600 2.6 200 07:23 03.09.2019
2589 Rain 10 1009 93 7000 4.1 180 06:45 03.09.2019
2590 Rain 10 1009 87 10000 3.1 190 06:18 03.09.2019
2591 Clear 10 1010 87 10000 2.85 155.524 03:43 03.09.2019
2592 Clear 9 1010 93 10000 1.59 187.518 02:47 03.09.2019
2593 Clear 9 1010 87 10000 1.59 187.518 02:25 03.09.2019
2594 Clear 9 1010 87 10000 1.59 187.518 01:52 03.09.2019
2595 Clear 9 1010 93 10000 1.52 188.965 01:33 03.09.2019
2596 Clear 9 1010 87 10000 1.52 188.965 00:56 03.09.2019
2597 Clear 9 1010 93 10000 1.08 253.622 00:26 03.09.2019
2598 Clear 10 1010 87 10000 1.08 253.622 23:40 02.09.2019
2599 Clear 10 1010 87 10000 1.08 253.622 23:40 02.09.2019
2600 Clear 10 1010 87 10000 1.08 253.622 23:40 02.09.2019
2601 Clear 10 1010 81 10000 1.08 253.622 23:20 02.09.2019
2602 Clear 10 1010 81 10000 1.08 253.622 22:57 02.09.2019
2603 Clear 10 1010 93 10000 1.08 253.622 22:39 02.09.2019
2604 Clear 11 1010 81 10000 1.08 253.622 22:20 02.09.2019
2605 Clear 11 1010 81 10000 1.22 260.453 21:58 02.09.2019
2606 Clear 11 1010 81 10000 1.22 260.453 21:40 02.09.2019
2607 Clear 12 1011 47 10000 3.1 240 21:20 02.09.2019
2608 Clear 12 1011 47 10000 3.1 240 20:59 02.09.2019
2609 Clear 13 1010 71 10000 1 240 20:40 02.09.2019
2610 Clear 14 1011 44 10000 3.1 230 20:19 02.09.2019
2611 Clear 15 1009 67 10000 2.62 248.764 19:57 02.09.2019
2612 Clear 15 1009 67 10000 2.62 248.764 19:38 02.09.2019
2613 Clouds 16 1009 58 10000 2.62 248.764 19:19 02.09.2019
2614 Clouds 16 1010 67 10000 2.1 0 18:40 02.09.2019
2615 Clouds 16 1010 67 10000 2.1 0 18:40 02.09.2019
2616 Clouds 17 1010 67 10000 2.6 50 18:22 02.09.2019
2617 Clouds 17 1010 67 10000 3.6 40 17:58 02.09.2019
2618 Clouds 17 1010 67 10000 3.6 40 17:58 02.09.2019
2619 Clouds 18 1010 67 10000 3.6 40 17:39 02.09.2019
2620 Clouds 17 1010 67 10000 3.6 40 17:20 02.09.2019
2621 Rain 18 1010 71 10000 4.6 30 16:58 02.09.2019
2622 Thunderstorm 17 1009 71 10000 5.1 10 16:36 02.09.2019
2623 Rain 18 1009 67 10000 3.6 30 16:18 02.09.2019
2624 Rain 17 1009 71 10000 3.6 30 15:44 02.09.2019
2625 Rain 18 1009 58 10000 3.6 60 15:22 02.09.2019
2626 Rain 18 1009 58 10000 3.6 60 14:56 02.09.2019
2627 Rain 18 1009 58 10000 2.1 60 14:37 02.09.2019
2628 Rain 18 1009 54 10000 2.6 50 14:19 02.09.2019
2629 Clouds 17 1009 54 10000 2.1 10 13:46 02.09.2019
2630 Clouds 17 1009 58 10000 3.1 0 13:25 02.09.2019
2631 Clouds 17 1009 58 10000 3.1 0 12:59 02.09.2019
2632 Clouds 17 1008 58 10000 2.1 50 12:41 02.09.2019
2633 Clouds 17 1008 58 10000 2.1 50 12:23 02.09.2019
2634 Clear 17 1008 58 10000 1 0 11:58 02.09.2019
2635 Clear 16 1008 58 10000 1 0 11:38 02.09.2019
2636 Clouds 16 1008 67 10000 1 0 11:19 02.09.2019
2637 Clear 15 1008 66 10000 1 0 10:42 02.09.2019
2638 Clear 14 1008 66 10000 1 0 10:22 02.09.2019
2639 Clear 13 1008 76 10000 1.5 360 09:59 02.09.2019
2640 Clear 13 1008 76 10000 1.5 360 09:40 02.09.2019
2641 Clear 11 1008 76 10000 1.5 360 09:20 02.09.2019
2642 Clear 10 1008 87 10000 1.31 313.576 08:44 02.09.2019
2643 Clear 9 1008 93 10000 1.31 313.576 08:22 02.09.2019
2644 Fog 9 1007 87 10000 1.31 313.576 07:57 02.09.2019
2645 Fog 8 1007 87 10000 1.31 313.576 07:39 02.09.2019
2646 Fog 7 1007 93 10000 1.31 313.576 07:20 02.09.2019
2647 Fog 7 1007 87 10000 1.31 313.576 06:43 02.09.2019
2648 Clear 8 1007 87 10000 0.42 290.879 05:54 02.09.2019
2649 Clear 8 1007 87 10000 1.5 340 05:26 02.09.2019
2650 Clear 8 1007 87 10000 2.6 330 04:50 02.09.2019
2651 Clear 9 1006 87 10000 0.76 192.561 02:42 02.09.2019
2652 Clear 10 1006 87 10000 0.82 183.305 01:43 02.09.2019
2653 Clear 11 1006 76 10000 0.82 183.305 00:46 02.09.2019
2654 Clear 11 1006 76 10000 0.92 212.769 00:26 02.09.2019
2655 Clear 12 1005 62 10000 0.92 212.769 23:39 01.09.2019
2656 Rain 12 1005 62 10000 1.5 260 23:20 01.09.2019
2657 Clear 13 1005 62 10000 1.5 260 22:57 01.09.2019
2658 Clear 13 1005 62 10000 1 0 22:39 01.09.2019
2659 Clear 13 1005 62 10000 0.92 212.769 22:18 01.09.2019
2660 Clear 14 1005 67 10000 1.5 230 21:54 01.09.2019
2661 Clear 14 1005 67 10000 1.5 230 21:36 01.09.2019
2662 Clouds 15 1007 62 0 2.6 220 21:18 01.09.2019
2663 Clouds 15 1007 62 0 2.6 220 20:55 01.09.2019
2664 Clear 15 1005 77 10000 3.6 190 20:36 01.09.2019
2665 Clouds 16 1004 77 10000 4.6 170 20:18 01.09.2019
2666 Clouds 16 1004 77 10000 5.1 170 19:41 01.09.2019
2667 Clouds 17 1004 77 10000 4.1 180 19:21 01.09.2019
2668 Clouds 17 1004 72 10000 4.1 190 18:55 01.09.2019
2669 Clouds 17 1004 72 10000 4.1 190 18:37 01.09.2019
2670 Clouds 18 1004 77 10000 5.1 190 18:18 01.09.2019
2671 Rain 18 1004 72 10000 5.7 210 17:40 01.09.2019
2672 Rain 18 1004 72 10000 5.7 210 17:40 01.09.2019
2673 Rain 18 1004 72 10000 5.7 210 17:22 01.09.2019
2674 Clouds 18 1003 68 10000 4.6 200 16:58 01.09.2019
2675 Clouds 19 1003 68 10000 4.6 200 16:38 01.09.2019
2676 Clouds 19 1003 68 10000 4.1 210 16:18 01.09.2019
2677 Clouds 18 1003 68 10000 4.1 200 15:45 01.09.2019
2678 Clouds 19 1003 68 10000 4.1 200 15:26 01.09.2019
2679 Clouds 19 1003 68 10000 4.6 200 14:55 01.09.2019
2680 Clouds 19 1003 72 10000 6.2 200 14:37 01.09.2019
2681 Clouds 19 1003 72 10000 5.1 210 14:18 01.09.2019
2682 Clouds 19 1003 77 10000 4.6 200 13:41 01.09.2019
2683 Clouds 19 1003 77 10000 4.6 200 13:23 01.09.2019
2684 Clouds 19 1003 77 10000 6.2 210 12:45 01.09.2019
2685 Clouds 18 1003 77 10000 6.2 210 12:26 01.09.2019
2686 Clouds 18 1003 88 10000 6.7 200 11:59 01.09.2019
2687 Clouds 17 1003 82 10000 6.2 200 11:39 01.09.2019
2688 Clouds 17 1003 88 10000 6.7 200 11:19 01.09.2019
2689 Clouds 17 1002 93 10000 4.6 180 10:45 01.09.2019
2690 Clouds 17 1002 93 10000 4.6 180 10:23 01.09.2019
2691 Fog 16 1002 100 10000 5.7 180 09:56 01.09.2019
2692 Fog 16 1002 100 7000 4.6 190 09:38 01.09.2019
2693 Rain 16 1002 100 5000 1.5 190 09:19 01.09.2019
2694 Rain 15 1002 93 8000 0.5 0 08:42 01.09.2019
2695 Rain 15 1002 93 2300 2.6 220 08:21 01.09.2019
2696 Rain 15 1002 100 3600 2.6 70 07:42 01.09.2019
2697 Thunderstorm 15 1002 93 4000 2.6 80 07:21 01.09.2019
2698 Thunderstorm 15 1003 100 5000 2.1 30 06:39 01.09.2019
2699 Thunderstorm 15 1003 93 5000 1.5 340 05:59 01.09.2019
2700 Thunderstorm 15 1003 93 5000 1.5 340 05:59 01.09.2019
2701 Thunderstorm 14 1005 93 10000 1 350 04:53 01.09.2019
2702 Clouds 14 1005 100 10000 0.92 112.543 04:19 01.09.2019
2703 Fog 14 1006 93 10000 0.92 112.543 03:37 01.09.2019
2704 Clear 13 1007 87 10000 1.5 20 02:40 01.09.2019
2705 Clear 13 1007 87 10000 1.5 20 02:22 01.09.2019
2706 Clear 14 1008 87 10000 0.5 0 01:30 01.09.2019
2707 Clear 14 1008 87 10000 0.5 0 00:59 01.09.2019
2708 Clouds 14 1009 82 10000 0.88 88.828 00:40 01.09.2019
2709 Clear 14 1010 82 10000 1.25 118.497 00:20 01.09.2019
2710 Clear 14 1010 76 10000 1.25 118.497 23:43 31.08.2019
2711 Clear 14 1010 76 10000 1.25 118.497 23:21 31.08.2019
2712 Clear 14 1010 77 10000 1.5 180 22:56 31.08.2019
2713 Clear 15 1010 82 10000 2.1 210 22:37 31.08.2019
2714 Clear 15 1011 77 10000 3.1 180 22:19 31.08.2019
2715 Clear 16 1011 77 10000 3.6 170 21:45 31.08.2019
2716 Clear 16 1011 77 10000 3.6 170 21:23 31.08.2019
2717 Clouds 17 1011 82 0 3.1 140 20:59 31.08.2019
2718 Clear 17 1011 72 10000 5.1 180 20:41 31.08.2019
2719 Clouds 17 1012 82 0 3.1 160 20:23 31.08.2019
2720 Clear 18 1012 72 10000 6.2 180 19:43 31.08.2019
2721 Clouds 18 1012 68 10000 5.7 180 19:23 31.08.2019
2722 Clouds 18 1012 72 10000 5.7 180 18:58 31.08.2019
2723 Clouds 19 1012 72 10000 5.7 180 18:38 31.08.2019
2724 Clouds 19 1013 72 10000 5.7 190 18:19 31.08.2019
2725 Clouds 19 1013 72 10000 5.7 190 17:55 31.08.2019
2726 Clouds 19 1013 72 10000 6.7 190 17:37 31.08.2019
2727 Clouds 19 1013 72 10000 5.1 190 17:18 31.08.2019
2728 Clouds 20 1013 72 10000 5.1 190 16:55 31.08.2019
2729 Clouds 19 1013 68 10000 6.2 190 16:36 31.08.2019
2730 Clouds 20 1014 72 10000 6.2 180 16:18 31.08.2019
2731 Clouds 20 1014 72 10000 6.2 200 15:41 31.08.2019
2732 Clouds 19 1014 72 10000 7.2 180 15:19 31.08.2019
2733 Clouds 19 1014 72 10000 7.2 180 14:54 31.08.2019
2734 Clouds 19 1014 77 10000 6.2 190 14:36 31.08.2019
2735 Clouds 19 1014 77 10000 7.2 190 14:18 31.08.2019
2736 Clouds 19 1014 77 10000 7.2 200 13:39 31.08.2019
2737 Clouds 19 1014 77 10000 6.2 190 13:21 31.08.2019
2738 Clouds 19 1014 77 10000 7.2 200 13:21 31.08.2019
2739 Clouds 19 1014 77 10000 6.2 190 12:57 31.08.2019
2740 Clouds 18 1014 72 10000 6.7 210 12:38 31.08.2019
2741 Clouds 18 1014 77 10000 8.7 190 12:19 31.08.2019
2742 Clouds 18 1014 77 10000 7.7 200 11:44 31.08.2019
2743 Clouds 18 1014 77 10000 7.7 200 11:26 31.08.2019
2744 Rain 18 1014 77 10000 6.7 210 10:57 31.08.2019
2745 Clouds 17 1014 87 10000 7.2 200 10:39 31.08.2019
2746 Clouds 17 1014 87 10000 6.7 200 10:18 31.08.2019
2747 Clouds 17 1014 87 10000 6.2 190 09:40 31.08.2019
2748 Rain 17 1014 87 10000 5.1 200 09:22 31.08.2019
2749 Rain 17 1014 87 10000 5.1 200 08:59 31.08.2019
2750 Rain 17 1013 93 10000 5.7 190 08:40 31.08.2019
2751 Rain 17 1013 93 10000 5.7 190 08:22 31.08.2019
2752 Drizzle 16 1013 93 10000 3.6 180 07:40 31.08.2019
2753 Rain 16 1013 87 10000 4.6 190 07:19 31.08.2019
2754 Rain 16 1013 87 10000 6.7 190 06:28 31.08.2019
2755 Rain 16 1013 87 10000 5.7 170 05:55 31.08.2019
2756 Rain 16 1013 87 10000 5.7 170 05:29 31.08.2019
2757 Clouds 16 1013 87 10000 6.2 180 04:30 31.08.2019
2758 Clouds 16 1013 87 10000 5.1 190 03:44 31.08.2019
2759 Clouds 16 1014 82 10000 7.7 190 02:23 31.08.2019
2760 Clouds 16 1014 82 10000 6.7 190 01:49 31.08.2019
2761 Clouds 16 1014 82 10000 6.7 190 01:49 31.08.2019
2762 Clouds 16 1014 82 10000 6.7 190 01:31 31.08.2019
2763 Clouds 16 1013 82 10000 7.2 180 00:48 31.08.2019
2764 Clouds 16 1013 82 10000 6.7 180 00:27 31.08.2019
2765 Clouds 16 1013 82 10000 7.7 180 23:51 30.08.2019
2766 Clouds 16 1013 77 10000 8.2 180 23:20 30.08.2019
2767 Clouds 16 1013 77 10000 8.2 180 22:59 30.08.2019
2768 Clouds 16 1013 77 10000 8.7 180 22:39 30.08.2019
2769 Clouds 16 1013 82 10000 9.3 180 22:21 30.08.2019
2770 Clouds 16 1013 82 10000 9.3 180 21:57 30.08.2019
2771 Clouds 16 1014 82 10000 7.7 180 21:37 30.08.2019
2772 Clouds 16 1014 82 10000 7.7 180 21:37 30.08.2019
2773 Clouds 16 1016 82 0 8.2 200 21:18 30.08.2019
2774 Clouds 17 1014 82 10000 7.7 180 20:57 30.08.2019
2775 Clouds 17 1014 82 10000 7.7 180 20:38 30.08.2019
2776 Clouds 17 1015 82 10000 7.7 190 20:19 30.08.2019
2777 Clouds 17 1015 82 10000 7.7 190 19:55 30.08.2019
2778 Clouds 17 1015 82 10000 7.7 190 19:55 30.08.2019
2779 Clouds 17 1013 77 10000 7.2 180 19:36 30.08.2019
2780 Clouds 17 1014 77 10000 8.2 190 19:18 30.08.2019
2781 Clouds 17 1014 77 10000 8.2 190 19:18 30.08.2019
2782 Clouds 18 1014 72 10000 8.2 200 18:44 30.08.2019
2783 Rain 18 1014 68 10000 8.7 190 18:24 30.08.2019
2784 Rain 18 1014 72 10000 10.3 200 17:57 30.08.2019
2785 Rain 18 1014 72 10000 10.3 200 17:57 30.08.2019
2786 Rain 18 1014 72 10000 10.3 200 17:39 30.08.2019
2787 Rain 18 1014 68 10000 11.8 190 17:19 30.08.2019
2788 Rain 18 1014 68 10000 11.8 190 16:56 30.08.2019
2789 Rain 18 1014 72 10000 9.3 190 16:38 30.08.2019
2790 Rain 18 1014 72 10000 9.3 190 16:38 30.08.2019
2791 Clouds 18 1014 72 10000 8.2 190 16:19 30.08.2019
2792 Clouds 18 1015 77 10000 7.7 190 15:39 30.08.2019
2793 Rain 18 1014 77 10000 8.2 190 15:20 30.08.2019
2794 Rain 18 1015 72 10000 8.2 190 14:45 30.08.2019
2795 Rain 18 1015 72 10000 8.2 200 14:26 30.08.2019
2796 Rain 18 1015 72 10000 8.2 200 13:56 30.08.2019
2797 Clouds 18 1015 72 10000 7.2 210 13:38 30.08.2019
2798 Clouds 18 1015 72 10000 7.7 210 13:20 30.08.2019
2799 Clouds 18 1015 72 10000 6.2 210 12:44 30.08.2019
2800 -273 0 0 0 0 0 12:25 30.08.2019
2801 Rain 17 1015 72 10000 6.7 210 11:57 30.08.2019
2802 Rain 17 1015 72 10000 7.7 220 11:39 30.08.2019
2803 Rain 17 1015 72 10000 7.7 220 11:39 30.08.2019
2804 Rain 17 1015 77 10000 6.7 210 11:20 30.08.2019
2805 Clouds 16 1015 77 10000 6.2 200 10:37 30.08.2019
2806 Rain 16 1015 82 10000 5.1 200 10:19 30.08.2019
2807 Rain 16 1014 82 10000 3.6 190 09:55 30.08.2019
2808 Rain 15 1014 82 10000 3.6 190 09:36 30.08.2019
2809 Clear 15 1014 82 10000 3.1 130 09:18 30.08.2019
2810 Clear 14 1015 81 10000 2.1 130 08:42 30.08.2019
2811 Clear 14 1015 81 10000 2.1 130 08:23 30.08.2019
2812 Clear 13 1014 81 10000 3.1 140 07:46 30.08.2019
2813 Clear 12 1014 81 10000 3.1 140 07:25 30.08.2019
2814 Clear 12 1014 87 10000 1.5 130 06:49 30.08.2019
2815 Clear 12 1014 87 10000 1.5 130 06:31 30.08.2019
2816 Clear 12 1014 76 10000 1.5 150 05:59 30.08.2019
2817 Clear 11 1014 76 10000 1.13 191.26 04:59 30.08.2019
2818 Clear 11 1013 76 10000 2.6 180 03:56 30.08.2019
2819 Clear 11 1013 81 10000 1.5 190 03:34 30.08.2019
2820 Clear 12 1013 87 10000 0.5 0 02:35 30.08.2019
2821 Clear 13 1013 93 10000 1.5 180 01:40 30.08.2019
2822 Clear 13 1012 93 10000 2.1 200 00:46 30.08.2019
2823 Clear 14 1012 93 10000 2.6 190 00:18 30.08.2019
2824 Clear 14 1012 87 10000 3.6 190 23:42 29.08.2019
2825 Clear 14 1012 87 10000 3.6 190 23:21 29.08.2019
2826 Clear 14 1012 87 10000 3.6 190 23:21 29.08.2019
2827 Clear 14 1012 87 10000 3.6 190 23:21 29.08.2019
2828 Clear 14 1011 93 10000 3.6 210 22:45 29.08.2019
2829 Clouds 15 1011 87 10000 4.6 180 22:26 29.08.2019
2830 Clouds 15 1011 87 10000 3.6 190 21:58 29.08.2019
2831 Clouds 15 1011 87 10000 3.6 190 21:58 29.08.2019
2832 Clouds 15 1011 87 10000 3.6 190 21:58 29.08.2019
2833 Clouds 16 1011 87 10000 3.6 190 21:40 29.08.2019
2834 Clouds 16 1011 87 10000 3.6 190 21:21 29.08.2019
2835 Clouds 17 1010 82 10000 5.1 200 20:58 29.08.2019
2836 Clouds 17 1010 82 10000 5.1 200 20:39 29.08.2019
2837 Clouds 17 1010 88 10000 5.7 190 20:18 29.08.2019
2838 Clouds 18 1010 77 10000 7.2 190 19:47 29.08.2019
2839 Clouds 19 1010 77 10000 7.2 190 19:26 29.08.2019
2840 Clouds 19 1010 72 10000 4.6 210 18:57 29.08.2019
2841 Clouds 19 1010 72 10000 8.2 190 18:39 29.08.2019
2842 Clouds 19 1010 72 10000 8.2 190 18:18 29.08.2019
2843 Clouds 20 1010 72 10000 7.2 190 17:54 29.08.2019
2844 Clouds 20 1010 68 10000 8.2 190 17:36 29.08.2019
2845 Clouds 20 1010 68 10000 8.2 190 17:18 29.08.2019
2846 Clouds 20 1010 68 10000 8.2 190 17:18 29.08.2019
2847 Clouds 21 1010 72 10000 7.2 200 16:41 29.08.2019
2848 Clouds 21 1010 88 10000 5.7 180 16:23 29.08.2019
2849 Clouds 20 1010 82 10000 5.7 180 15:41 29.08.2019
2850 Clouds 19 1010 88 10000 4.6 180 15:21 29.08.2019
2851 Clouds 19 1010 88 10000 4.6 180 14:58 29.08.2019
2852 Rain 19 1010 93 10000 5.7 190 14:40 29.08.2019
2853 Rain 19 1009 93 10000 4.6 180 14:20 29.08.2019
2854 Rain 18 1009 93 10000 4.6 180 13:57 29.08.2019
2855 Rain 18 1010 93 8000 3.6 170 13:38 29.08.2019
2856 Rain 18 1010 93 10000 4.1 170 13:18 29.08.2019
2857 Rain 18 1010 93 10000 4.1 170 12:56 29.08.2019
2858 Rain 18 1009 93 10000 3.1 150 12:38 29.08.2019
2859 Rain 18 1009 88 10000 2.1 170 12:19 29.08.2019
2860 Rain 18 1009 93 10000 0.5 0 11:42 29.08.2019
2861 Rain 18 1009 93 10000 0.5 0 11:21 29.08.2019
2862 Clouds 18 1010 93 10000 1.5 130 10:57 29.08.2019
2863 Fog 18 1010 93 10000 2.1 110 10:38 29.08.2019
2864 Thunderstorm 18 1010 100 6000 2.1 300 10:20 29.08.2019
2865 Thunderstorm 18 1010 100 6000 2.1 300 09:41 29.08.2019
2866 Thunderstorm 18 1010 100 6000 2.1 300 09:41 29.08.2019
2867 Thunderstorm 17 1009 100 6000 1 0 09:19 29.08.2019
2868 Thunderstorm 17 1009 100 6000 1 0 08:56 29.08.2019
2869 Rain 17 1010 93 8000 2.6 280 08:31 29.08.2019
2870 Thunderstorm 17 1010 93 6000 2.6 60 07:59 29.08.2019
2871 Thunderstorm 17 1010 93 10000 0.5 0 07:41 29.08.2019
2872 Thunderstorm 17 1010 93 10000 0.5 0 07:23 29.08.2019
2873 Thunderstorm 17 1010 93 5000 2.1 110 06:40 29.08.2019
2874 Clouds 18 1011 93 8000 2.1 110 05:52 29.08.2019
2875 Clouds 18 1011 93 8000 2.1 110 05:32 29.08.2019
2876 Clouds 18 1011 93 8000 2.1 130 04:49 29.08.2019
2877 Clouds 18 1011 93 8000 2.1 130 04:28 29.08.2019
2878 Clouds 18 1012 88 10000 0.97 122.984 02:21 29.08.2019
2879 Clouds 18 1012 88 10000 1 0 01:40 29.08.2019
2880 Clouds 18 1013 88 10000 1.5 140 00:51 29.08.2019
2881 Clouds 18 1013 88 10000 1 0 00:24 29.08.2019
2882 Clouds 18 1013 88 10000 2.1 140 23:59 28.08.2019
2883 Clouds 18 1013 88 10000 2.1 140 23:40 28.08.2019
2884 Clouds 18 1013 88 10000 2.1 140 23:22 28.08.2019
2885 Clouds 18 1013 88 10000 2.1 140 23:22 28.08.2019
2886 Clouds 18 1013 88 10000 2.1 150 22:56 28.08.2019
2887 Clouds 18 1013 88 10000 2.1 140 22:38 28.08.2019
2888 Clouds 18 1013 88 10000 1.5 140 22:18 28.08.2019
2889 Clouds 18 1013 88 10000 1.5 140 22:18 28.08.2019
2890 Clouds 19 1013 82 10000 1.5 0 21:46 28.08.2019
2891 Clouds 19 1013 88 10000 0.5 0 21:26 28.08.2019
2892 Clouds 19 1013 88 10000 0.5 0 20:59 28.08.2019
2893 Clouds 19 1013 82 10000 2.6 170 20:40 28.08.2019
2894 Clouds 19 1013 82 10000 2.6 170 20:22 28.08.2019
2895 Clouds 19 1013 82 10000 4.1 150 19:44 28.08.2019
2896 Clouds 19 1013 82 10000 4.1 150 19:22 28.08.2019
2897 Clouds 19 1013 82 10000 4.1 150 18:59 28.08.2019
2898 Clouds 20 1014 82 10000 3.6 150 18:40 28.08.2019
2899 Clouds 19 1014 82 10000 4.1 150 18:21 28.08.2019
2900 Clouds 19 1014 82 10000 3.6 140 17:39 28.08.2019
2901 Clouds 19 1014 82 10000 3.1 150 17:19 28.08.2019
2902 Clouds 19 1014 82 10000 3.1 150 16:55 28.08.2019
2903 Clouds 19 1014 82 10000 3.1 150 16:55 28.08.2019
2904 Clouds 19 1014 82 10000 4.1 150 16:37 28.08.2019
2905 Clouds 19 1014 77 10000 4.6 150 16:18 28.08.2019
2906 Clouds 19 1015 77 10000 1.5 90 15:38 28.08.2019
2907 Clouds 19 1015 77 10000 1.5 90 15:38 28.08.2019
2908 Clouds 19 1015 82 10000 1.5 70 15:20 28.08.2019
2909 Clouds 19 1015 82 10000 2.1 50 14:58 28.08.2019
2910 Clouds 19 1015 82 10000 2.1 50 14:39 28.08.2019
2911 Clouds 19 1016 82 10000 2.6 100 14:20 28.08.2019
2912 Clouds 19 1016 82 10000 2.6 100 13:59 28.08.2019
2913 Rain 19 1016 88 10000 1.5 40 13:39 28.08.2019
2914 Rain 19 1016 82 10000 3.1 130 13:20 28.08.2019
2915 Rain 19 1017 77 10000 2.18 108.169 12:42 28.08.2019
2916 Rain 18 1017 77 10000 1.65 102.784 12:24 28.08.2019
2917 Rain 18 1017 77 10000 1.65 102.784 11:57 28.08.2019
2918 Clear 18 1017 77 10000 1 0 11:39 28.08.2019
2919 Fog 18 1017 77 10000 1.65 102.784 11:20 28.08.2019
2920 -273 0 0 0 0 0 10:56 28.08.2019
2921 Drizzle 19 1017 77 10000 2.6 30 10:56 28.08.2019
2922 Drizzle 19 1017 77 10000 2.6 30 10:37 28.08.2019
2923 Rain 19 1017 82 10000 2.1 20 10:19 28.08.2019
2924 Rain 18 1017 82 10000 1.5 40 09:41 28.08.2019
2925 Rain 17 1017 88 10000 2.1 10 09:21 28.08.2019
2926 Rain 17 1017 88 10000 2.1 10 08:55 28.08.2019
2927 Rain 17 1018 87 10000 1.5 10 08:36 28.08.2019
2928 Drizzle 17 1018 93 10000 2.1 20 08:18 28.08.2019
2929 Drizzle 16 1018 87 10000 1.5 360 07:37 28.08.2019
2930 Rain 16 1018 87 10000 1.5 350 07:19 28.08.2019
2931 Clouds 15 1019 87 10000 0.81 84.142 06:46 28.08.2019
2932 Fog 15 1019 87 10000 0.7 34.639 05:52 28.08.2019
2933 Clear 15 1019 93 10000 1.5 350 04:40 28.08.2019
2934 Clear 15 1020 82 10000 1.5 350 01:58 28.08.2019
2935 Clouds 15 1019 93 0 1 10 01:30 28.08.2019
2936 Clear 16 1020 82 10000 2.1 350 00:50 28.08.2019
2937 Clear 16 1020 82 10000 2.1 350 00:32 28.08.2019
2938 Clear 17 1021 77 10000 1.5 10 23:45 27.08.2019
2939 Clear 17 1021 77 10000 0.75 93.885 23:22 27.08.2019
2940 Clear 18 1021 77 10000 0.75 93.885 22:59 27.08.2019
2941 Clear 18 1021 72 10000 0.75 93.885 22:41 27.08.2019
2942 Clear 18 1020 82 10000 1 50 22:22 27.08.2019
2943 Clear 19 1021 64 10000 1 0 21:57 27.08.2019
2944 Clear 18 1020 64 10000 0.74 107.745 21:38 27.08.2019
2945 Clear 20 1020 73 10000 1 40 21:19 27.08.2019
2946 Clear 21 1020 73 10000 1 40 20:57 27.08.2019
2947 Clear 22 1020 56 10000 1 250 20:38 27.08.2019
2948 Clear 22 1020 53 10000 1 230 20:19 27.08.2019
2949 Clear 23 1020 50 10000 1.5 240 19:43 27.08.2019
2950 Clear 24 1020 50 10000 1.5 240 19:25 27.08.2019
2951 Clear 25 1021 53 10000 2.1 230 18:56 27.08.2019
2952 Clear 25 1021 50 10000 2.6 220 18:37 27.08.2019
2953 Clear 26 1021 53 10000 2.1 220 18:18 27.08.2019
2954 Clear 26 1021 47 10000 3.1 210 17:43 27.08.2019
2955 Clear 27 1021 47 10000 4.1 220 17:24 27.08.2019
2956 Clear 27 1021 47 10000 4.1 220 16:57 27.08.2019
2957 Clear 27 1021 47 10000 4.1 220 16:38 27.08.2019
2958 Clear 27 1022 50 10000 4.1 180 16:19 27.08.2019
2959 Clear 27 1022 50 10000 4.6 170 15:42 27.08.2019
2960 Clear 26 1022 50 10000 4.1 180 15:23 27.08.2019
2961 Clear 26 1022 50 10000 4.1 180 14:59 27.08.2019
2962 Clear 26 1022 50 10000 4.1 180 14:59 27.08.2019
2963 Clear 26 1022 53 10000 2.6 190 14:41 27.08.2019
2964 Clear 25 1023 56 10000 3.1 190 14:23 27.08.2019
2965 Clear 26 1023 57 10000 1.5 0 13:43 27.08.2019
2966 Clear 25 1023 64 10000 2.6 160 13:24 27.08.2019
2967 Clear 24 1023 60 10000 1.5 130 12:56 27.08.2019
2968 Clear 23 1023 68 10000 2.1 210 12:38 27.08.2019
2969 Clear 23 1023 68 10000 2.6 160 12:19 27.08.2019
2970 Clear 21 1023 72 10000 1.5 0 11:45 27.08.2019
2971 Clear 21 1023 72 10000 1.5 0 11:26 27.08.2019
2972 Clear 19 1023 82 10000 2.18 178.632 10:46 27.08.2019
2973 Clear 18 1023 82 10000 2.18 178.632 10:26 27.08.2019
2974 Clear 18 1023 82 10000 2.18 178.632 09:59 27.08.2019
2975 Clear 17 1023 87 10000 2.29 173.189 09:39 27.08.2019
2976 Clear 15 1023 87 10000 0.71 141.53 09:21 27.08.2019
2977 Clouds 15 1023 93 10000 0.71 141.53 08:56 27.08.2019
2978 Clouds 15 1023 93 10000 0.71 141.53 08:37 27.08.2019
2979 Clouds 15 1023 93 10000 0.71 141.53 08:37 27.08.2019
2980 Clouds 14 1023 93 10000 1 350 08:18 27.08.2019
2981 Clouds 13 1023 100 10000 0.71 141.53 07:41 27.08.2019
2982 Fog 13 1023 93 10000 0.5 0 07:19 27.08.2019
2983 Fog 12 1022 93 10000 1.5 10 06:54 27.08.2019
2984 Fog 12 1022 93 10000 1.5 10 06:26 27.08.2019
2985 Clear 12 1022 93 0 0.5 20 05:47 27.08.2019
2986 Clouds 12 1023 93 10000 0.86 130.601 04:44 27.08.2019
2987 Clear 12 1023 93 10000 1 340 03:39 27.08.2019
2988 Clear 13 1023 81 10000 0.9 136.938 02:23 27.08.2019
2989 Clear 13 1022 82 10000 0.87 138.301 01:40 27.08.2019
2990 Clear 14 1022 82 10000 0.87 138.301 01:21 27.08.2019
2991 Clear 14 1022 76 10000 0.87 138.301 00:43 27.08.2019
2992 Clear 14 1022 82 10000 1 0 00:23 27.08.2019
2993 Clear 15 1022 72 10000 1.16 144.151 23:39 26.08.2019
2994 Clear 15 1022 72 10000 1 0 23:20 26.08.2019
2995 Clear 15 1022 82 10000 1.5 130 22:40 26.08.2019
2996 Clear 16 1022 68 10000 1 0 22:20 26.08.2019
2997 Clear 16 1022 68 10000 1 0 21:59 26.08.2019
2998 Clear 17 1022 63 10000 3.6 190 21:38 26.08.2019
2999 Clear 19 1022 63 10000 3.6 190 21:20 26.08.2019
3000 Clear 19 1022 64 10000 4.6 200 20:56 26.08.2019
3001 Clear 20 1022 60 10000 4.1 200 20:38 26.08.2019
3002 Clear 20 1022 60 10000 4.1 200 20:18 26.08.2019
3003 Clear 21 1022 49 10000 5.7 200 19:43 26.08.2019
3004 Clear 22 1022 49 10000 5.7 200 19:20 26.08.2019
3005 Clear 23 1022 47 10000 5.1 200 18:58 26.08.2019
3006 Clear 23 1022 44 10000 6.2 190 18:38 26.08.2019
3007 Clear 24 1022 44 10000 6.2 190 18:19 26.08.2019
3008 Clear 24 1022 44 10000 6.7 200 17:44 26.08.2019
3009 Clear 25 1022 41 10000 6.2 210 17:20 26.08.2019
3010 Clear 25 1022 41 10000 7.2 210 16:58 26.08.2019
3011 Clear 25 1022 47 10000 6.7 210 16:39 26.08.2019
3012 Clear 25 1022 47 10000 6.7 210 16:19 26.08.2019
3013 Clear 25 1022 53 10000 6.7 210 15:56 26.08.2019
3014 Clear 25 1022 53 10000 6.7 210 15:38 26.08.2019
3015 Clear 25 1023 53 10000 6.2 190 15:20 26.08.2019
3016 Clear 25 1023 57 10000 5.1 190 14:44 26.08.2019
3017 Clear 25 1023 60 10000 4.6 190 14:23 26.08.2019
3018 Clear 24 1023 64 10000 3.6 180 13:57 26.08.2019
3019 Clear 24 1023 68 10000 3.6 170 13:38 26.08.2019
3020 Clear 24 1023 68 10000 3.6 170 13:19 26.08.2019
3021 Clear 23 1024 77 10000 2.1 210 12:43 26.08.2019
3022 Clouds 22 1023 82 10000 1.5 170 12:23 26.08.2019
3023 Clouds 20 1024 93 7000 2.6 170 11:45 26.08.2019
3024 Fog 19 1024 93 2500 2.1 0 11:27 26.08.2019
3025 Fog 19 1024 93 1900 2.6 180 10:59 26.08.2019
3026 Fog 19 1024 93 1900 2.6 180 10:41 26.08.2019
3027 Fog 16 1024 100 1800 1 0 10:20 26.08.2019
3028 Fog 15 1024 100 550 1 0 09:47 26.08.2019
3029 Fog 15 1023 93 350 0.5 0 09:26 26.08.2019
3030 Fog 15 1023 93 350 0.5 0 09:26 26.08.2019
3031 Fog 14 1023 100 300 1 0 08:59 26.08.2019
3032 Fog 14 1023 100 300 1 0 08:41 26.08.2019
3033 Fog 14 1023 100 300 0.4 158.89 08:22 26.08.2019
3034 Fog 14 1023 100 250 0.4 158.89 07:59 26.08.2019
3035 Fog 13 1023 100 250 0.4 158.89 07:38 26.08.2019
3036 Fog 13 1023 93 350 1 0 07:20 26.08.2019
3037 Fog 13 1023 93 350 0.4 158.89 06:40 26.08.2019
3038 Fog 12 1023 93 350 0.69 148.678 06:21 26.08.2019
3039 Fog 12 1023 93 450 0.69 148.678 05:48 26.08.2019
3040 Clouds 13 1023 100 10000 0.69 148.678 04:24 26.08.2019
3041 Clear 14 1023 93 10000 1.34 170.109 02:48 26.08.2019
3042 Clear 14 1023 87 10000 1.5 200 01:27 26.08.2019
3043 Clear 15 1023 82 10000 2.1 180 00:46 26.08.2019
3044 Clear 15 1023 82 10000 2.6 160 00:28 26.08.2019
3045 Rain 15 1023 77 10000 3.1 170 23:58 25.08.2019
3046 Rain 15 1023 77 10000 3.1 170 23:39 25.08.2019
3047 Clear 16 1023 82 10000 2.6 190 23:18 25.08.2019
3048 Clear 16 1023 77 10000 3.6 190 22:54 25.08.2019
3049 Clear 16 1023 72 10000 4.6 200 22:36 25.08.2019
3050 Clear 16 1023 72 10000 4.6 200 22:36 25.08.2019
3051 Clear 16 1023 72 10000 4.6 200 22:18 25.08.2019
3052 Clear 16 1023 72 10000 4.6 200 22:18 25.08.2019
3053 Clear 17 1022 68 10000 4.6 200 21:54 25.08.2019
3054 Clear 17 1022 68 10000 3.1 200 21:36 25.08.2019
3055 Clear 18 1022 68 10000 3.1 200 21:18 25.08.2019
3056 Clear 19 1022 64 10000 3.6 210 20:39 25.08.2019
3057 Clear 19 1022 64 10000 3.6 210 20:19 25.08.2019
3058 Clear 20 1022 64 10000 4.1 210 19:56 25.08.2019
3059 Clouds 21 1022 60 10000 5.1 200 19:37 25.08.2019
3060 Rain 21 1022 60 10000 5.1 200 19:18 25.08.2019
3061 Rain 21 1022 60 10000 5.1 200 18:55 25.08.2019
3062 Clouds 22 1022 60 10000 6.2 200 18:37 25.08.2019
3063 Clouds 22 1022 60 10000 6.2 200 18:18 25.08.2019
3064 Clouds 23 1022 56 10000 6.2 210 17:41 25.08.2019
3065 Clouds 23 1022 56 10000 6.2 210 17:22 25.08.2019
3066 Clouds 23 1023 60 10000 5.7 200 16:45 25.08.2019
3067 Clouds 24 1023 56 10000 5.1 220 16:24 25.08.2019
3068 Clouds 24 1023 56 10000 6.2 200 15:59 25.08.2019
3069 Clouds 24 1023 56 10000 6.2 200 15:40 25.08.2019
3070 Clouds 24 1023 60 10000 5.1 210 15:21 25.08.2019
3071 Clouds 24 1023 60 10000 5.1 210 14:41 25.08.2019
3072 Clouds 24 1023 60 10000 5.1 210 14:23 25.08.2019
3073 Clouds 23 1023 60 10000 5.7 210 13:47 25.08.2019
3074 Rain 23 1023 68 10000 5.7 210 13:22 25.08.2019
3075 Rain 22 1023 68 10000 5.7 220 12:59 25.08.2019
3076 Rain 22 1025 68 0 4.1 180 12:40 25.08.2019
3077 Clouds 22 1023 77 10000 5.1 200 12:22 25.08.2019
3078 Clouds 21 1024 77 10000 6.2 190 11:57 25.08.2019
3079 Clouds 20 1024 82 10000 6.2 210 11:37 25.08.2019
3080 Clouds 20 1024 82 10000 6.2 210 11:18 25.08.2019
3081 Clouds 20 1024 82 10000 6.2 210 11:18 25.08.2019
3082 Clouds 20 1024 82 10000 7.2 200 10:55 25.08.2019
3083 Clouds 19 1024 77 10000 6.2 200 10:36 25.08.2019
3084 Clouds 19 1024 77 10000 6.2 200 10:18 25.08.2019
3085 Clouds 17 1024 93 10000 4.6 190 09:42 25.08.2019
3086 Clouds 17 1024 93 10000 4.6 190 09:23 25.08.2019
3087 Clouds 16 1024 87 10000 3.6 180 08:44 25.08.2019
3088 Clouds 16 1024 93 7000 2.6 160 08:25 25.08.2019
3089 Clouds 16 1024 93 8000 3.1 180 07:47 25.08.2019
3090 Mist 15 1024 93 10000 3.6 170 07:27 25.08.2019
3091 Mist 15 1024 93 5000 3.6 170 06:37 25.08.2019
3092 Mist 15 1024 93 3000 3.1 170 05:27 25.08.2019
3093 Mist 15 1024 100 3500 3.1 160 03:43 25.08.2019
3094 Clouds 16 1025 87 10000 3.1 180 02:42 25.08.2019
3095 Clouds 16 1025 93 10000 3.6 200 01:49 25.08.2019
3096 Clear 15 1024 87 10000 3.1 200 00:44 25.08.2019
3097 Clear 15 1024 87 10000 2.6 190 00:22 25.08.2019
3098 Clear 16 1024 87 10000 2.6 180 23:57 24.08.2019
3099 Clear 16 1024 87 10000 2.6 180 23:57 24.08.2019
3100 Clear 16 1024 87 10000 2.6 180 23:39 24.08.2019
3101 Clear 16 1024 77 10000 3.1 200 23:21 24.08.2019
3102 Clear 16 1024 77 10000 3.1 180 22:40 24.08.2019
3103 Clouds 16 1025 93 0 3.1 160 22:19 24.08.2019
3104 Clear 17 1024 72 10000 3.1 210 21:58 24.08.2019
3105 Clear 17 1024 72 10000 3.1 210 21:39 24.08.2019
3106 Clear 17 1024 77 10000 2.1 220 21:21 24.08.2019
3107 Clear 17 1024 72 10000 3.1 220 20:57 24.08.2019
3108 Clear 18 1024 68 10000 3.1 220 20:39 24.08.2019
3109 Clear 19 1024 68 10000 3.1 220 20:19 24.08.2019
3110 Clouds 19 1024 68 10000 3.1 220 19:57 24.08.2019
3111 Clouds 19 1024 64 10000 4.6 190 19:38 24.08.2019
3112 Clouds 20 1024 64 10000 4.6 190 19:20 24.08.2019
3113 Clouds 20 1024 60 10000 3.6 190 18:46 24.08.2019
3114 Clouds 21 1024 56 10000 3.6 180 18:24 24.08.2019
3115 Clouds 22 1024 56 10000 3.6 190 17:46 24.08.2019
3116 Clouds 22 1024 56 10000 3.6 190 17:46 24.08.2019
3117 Clear 22 1025 56 10000 3.6 160 17:28 24.08.2019
3118 Clear 22 1025 52 10000 4.1 180 16:57 24.08.2019
3119 Clear 22 1025 53 10000 4.1 200 16:38 24.08.2019
3120 Clear 22 1025 53 10000 4.1 200 16:19 24.08.2019
3121 Clear 22 1025 53 10000 4.1 190 15:44 24.08.2019
3122 Clear 22 1024 52 10000 3.6 160 15:26 24.08.2019
3123 Clear 22 1024 52 10000 4.6 170 14:59 24.08.2019
3124 Clouds 23 1025 68 10000 4.1 210 14:40 24.08.2019
3125 Clear 22 1025 49 10000 3.1 170 14:18 24.08.2019
3126 Clear 22 1025 49 10000 2.6 160 13:54 24.08.2019
3127 Clear 22 1025 49 10000 2.1 220 13:36 24.08.2019
3128 Clear 22 1025 49 10000 2.1 220 13:18 24.08.2019
3129 Clear 21 1025 52 10000 1.5 0 12:41 24.08.2019
3130 Clear 20 1025 52 10000 2.1 130 12:22 24.08.2019
3131 Clear 20 1025 52 10000 2.1 0 11:52 24.08.2019
3132 Clear 19 1025 55 10000 1.5 70 11:32 24.08.2019
3133 Fog 18 1025 63 10000 1.06 112.936 10:59 24.08.2019
3134 Fog 18 1025 63 10000 1.06 112.936 10:40 24.08.2019
3135 Fog 17 1024 67 10000 1.06 112.936 10:21 24.08.2019
3136 Clear 16 1024 71 10000 0.91 93.576 09:42 24.08.2019
3137 Clear 15 1024 76 10000 1.84 344.641 09:19 24.08.2019
3138 Clear 14 1024 81 10000 1.84 344.641 08:43 24.08.2019
3139 Clear 13 1024 87 10000 0.5 0 08:25 24.08.2019
3140 Clear 12 1023 81 10000 1 0 07:53 24.08.2019
3141 Clear 11 1023 87 10000 2.1 350 07:30 24.08.2019
3142 Clear 11 1023 87 10000 1 10 06:53 24.08.2019
3143 Clear 11 1023 81 10000 1.55 331.171 06:23 24.08.2019
3144 Clear 11 1023 87 10000 1.55 331.171 05:39 24.08.2019
3145 Clear 11 1022 81 10000 1.55 331.171 03:50 24.08.2019
3146 Clear 12 1021 81 10000 1.5 360 03:31 24.08.2019
3147 Clear 12 1021 76 10000 1 0 02:19 24.08.2019
3148 Clear 13 1020 76 10000 1.5 40 01:29 24.08.2019
3149 Clear 13 1020 71 10000 1.07 329.368 00:48 24.08.2019
3150 Clear 14 1020 71 10000 0.5 0 00:24 24.08.2019
3151 Clear 15 1019 67 10000 1 0 23:47 23.08.2019
3152 Clear 15 1019 67 10000 0.97 267.451 23:21 23.08.2019
3153 Clear 15 1019 67 10000 1.5 330 22:46 23.08.2019
3154 Clear 15 1019 63 10000 1.5 270 22:27 23.08.2019
3155 Clear 16 1018 59 10000 1.5 280 21:57 23.08.2019
3156 Clear 16 1018 55 10000 1.08 263.151 21:37 23.08.2019
3157 Clear 17 1018 55 10000 0.83 282.566 21:19 23.08.2019
3158 Clear 18 1018 52 10000 1.5 340 20:53 23.08.2019
3159 Clear 18 1018 45 10000 0.83 282.566 20:35 23.08.2019
3160 Clear 18 1017 42 10000 1.5 300 19:54 23.08.2019
3161 Clear 19 1017 40 10000 1.5 0 19:36 23.08.2019
3162 Clear 20 1017 40 10000 1.5 0 19:18 23.08.2019
3163 Clear 20 1017 40 10000 1.5 0 19:18 23.08.2019
3164 Clear 20 1017 37 10000 3.1 250 18:42 23.08.2019
3165 Clear 22 1017 35 10000 4.1 260 18:24 23.08.2019
3166 Clear 22 1017 37 10000 3.6 250 17:46 23.08.2019
3167 Clear 22 1016 37 10000 5.1 240 17:28 23.08.2019
3168 Clear 22 1016 43 10000 4.6 250 16:59 23.08.2019
3169 Clouds 22 1016 43 10000 5.1 250 16:40 23.08.2019
3170 Clouds 22 1016 43 10000 5.1 250 16:22 23.08.2019
3171 Clouds 22 1017 72 10000 6.2 220 15:41 23.08.2019
3172 Clouds 22 1016 59 10000 3.1 240 15:22 23.08.2019
3173 Clouds 21 1016 68 10000 3.1 240 14:58 23.08.2019
3174 Clouds 21 1016 68 10000 3.1 240 14:39 23.08.2019
3175 Clouds 21 1015 59 10000 3.6 220 14:20 23.08.2019
3176 Clouds 21 1015 63 10000 4.6 210 13:56 23.08.2019
3177 Clouds 21 1015 63 10000 4.6 210 13:37 23.08.2019
3178 Clouds 21 1015 68 10000 4.6 210 13:19 23.08.2019
3179 Clouds 19 1016 82 10000 5.1 210 12:42 23.08.2019
3180 Clouds 19 1014 77 10000 5.1 210 12:24 23.08.2019
3181 Clouds 19 1014 77 10000 4.1 210 11:59 23.08.2019
3182 Clouds 18 1014 77 10000 4.1 210 11:40 23.08.2019
3183 Clouds 18 1014 82 10000 3.6 220 11:20 23.08.2019
3184 Clouds 17 1014 82 10000 4.6 210 10:57 23.08.2019
3185 Clouds 17 1014 82 10000 4.6 210 10:39 23.08.2019
3186 Clouds 16 1014 93 10000 3.6 200 10:20 23.08.2019
3187 Clouds 16 1014 87 10000 1 0 09:44 23.08.2019
3188 Clouds 15 1014 93 10000 1.5 320 09:25 23.08.2019
3189 Clouds 15 1014 93 10000 1 0 08:56 23.08.2019
3190 Clouds 14 1014 93 10000 1.5 300 08:37 23.08.2019
3191 Clouds 14 1014 93 10000 1.5 300 08:37 23.08.2019
3192 Clouds 14 1014 93 10000 1.5 300 08:18 23.08.2019
3193 Drizzle 14 1014 93 10000 2.6 180 07:41 23.08.2019
3194 Rain 14 1014 93 10000 2.6 170 07:23 23.08.2019
3195 Rain 13 1014 93 10000 3.6 190 06:43 23.08.2019
3196 Rain 13 1014 93 10000 4.6 170 06:23 23.08.2019
3197 Clouds 13 1015 93 10000 5.1 170 05:46 23.08.2019
3198 Clouds 13 1015 87 10000 4.1 160 05:26 23.08.2019
3199 Clouds 12 1016 93 10000 5.7 200 03:59 23.08.2019
3200 Clear 12 1016 93 10000 3.1 210 02:39 23.08.2019
3201 Clear 12 1016 93 10000 3.1 210 02:21 23.08.2019
3202 Clouds 12 1016 87 10000 2.6 220 01:36 23.08.2019
3203 Clouds 12 1016 93 10000 2.6 150 00:43 23.08.2019
3204 Clouds 12 1016 93 10000 2.6 150 00:18 23.08.2019
3205 Clouds 12 1016 93 10000 2.6 170 23:43 22.08.2019
3206 Clouds 13 1016 87 10000 3.1 160 23:22 22.08.2019
3207 Rain 13 1016 93 10000 2.6 180 22:44 22.08.2019
3208 Rain 13 1016 93 10000 2.6 180 22:24 22.08.2019
3209 Rain 13 1015 93 10000 3.6 190 21:59 22.08.2019
3210 Rain 13 1015 93 10000 3.6 180 21:41 22.08.2019
3211 Rain 14 1015 93 10000 3.6 180 21:23 22.08.2019
3212 Rain 14 1015 93 10000 4.1 200 20:59 22.08.2019
3213 Rain 14 1015 93 10000 4.1 200 20:59 22.08.2019
3214 Rain 14 1015 93 10000 4.1 200 20:40 22.08.2019
3215 Rain 14 1015 87 10000 4.1 200 20:20 22.08.2019
3216 Rain 14 1015 87 10000 4.1 200 20:20 22.08.2019
3217 Clouds 14 1015 87 10000 5.1 210 19:57 22.08.2019
3218 Clouds 14 1014 93 10000 5.1 210 19:39 22.08.2019
3219 Clouds 14 1014 93 10000 5.1 210 19:20 22.08.2019
3220 Rain 14 1014 93 10000 7.2 200 18:58 22.08.2019
3221 Rain 14 1014 93 7000 6.2 150 18:39 22.08.2019
3222 Rain 14 1014 93 7000 6.2 150 18:19 22.08.2019
3223 Rain 14 1015 87 10000 7.2 160 17:56 22.08.2019
3224 Rain 14 1015 87 10000 7.2 160 17:56 22.08.2019
3225 Rain 14 1015 87 10000 7.2 160 17:38 22.08.2019
3226 Rain 14 1017 87 10000 6.7 180 17:19 22.08.2019
3227 Rain 14 1017 87 10000 6.7 180 16:56 22.08.2019
3228 Rain 14 1017 87 10000 6.7 180 16:56 22.08.2019
3229 Rain 14 1017 93 10000 6.7 180 16:37 22.08.2019
3230 Rain 14 1017 93 10000 6.7 180 16:18 22.08.2019
3231 Rain 14 1017 93 10000 6.7 180 16:18 22.08.2019
3232 Rain 14 1017 93 10000 6.7 180 16:18 22.08.2019
3233 Rain 14 1017 93 10000 6.7 180 16:18 22.08.2019
3234 Rain 14 1017 87 10000 7.2 180 15:42 22.08.2019
3235 Rain 14 1018 87 8000 6.2 170 15:23 22.08.2019
3236 Rain 14 1018 93 10000 6.2 170 14:58 22.08.2019
3237 Rain 15 1018 93 10000 6.2 170 14:40 22.08.2019
3238 Rain 15 1018 93 10000 4.1 180 14:21 22.08.2019
3239 Rain 15 1019 87 10000 2.1 200 13:57 22.08.2019
3240 Rain 15 1019 82 10000 1.5 200 13:39 22.08.2019
3241 Rain 15 1019 82 10000 1.5 200 13:19 22.08.2019
3242 Rain 15 1020 76 10000 1.5 170 12:41 22.08.2019
3243 Clouds 15 1020 93 10000 2.1 180 12:23 22.08.2019
3244 Clouds 15 1021 87 10000 4.6 180 11:58 22.08.2019
3245 Clouds 15 1021 87 10000 4.6 180 11:58 22.08.2019
3246 Clouds 15 1021 87 10000 4.1 180 11:40 22.08.2019
3247 Clouds 15 1021 87 10000 4.1 180 11:20 22.08.2019
3248 Clouds 15 1021 87 10000 4.1 180 11:20 22.08.2019
3249 Clouds 15 1021 87 10000 4.1 180 11:20 22.08.2019
3250 Rain 14 1021 93 10000 4.1 170 10:58 22.08.2019
3251 Rain 14 1020 76 10000 2.6 170 10:38 22.08.2019
3252 Rain 13 1021 81 10000 2.6 170 10:19 22.08.2019
3253 Clouds 13 1020 81 10000 2.1 0 09:56 22.08.2019
3254 Clouds 13 1020 81 10000 2.1 0 09:37 22.08.2019
3255 Clouds 12 1020 87 10000 1.5 200 09:19 22.08.2019
3256 Fog 11 1020 93 10000 0.5 0 08:41 22.08.2019
3257 Drizzle 11 1021 93 0 2.6 110 08:22 22.08.2019
3258 Fog 11 1020 100 3500 1.33 148.799 07:58 22.08.2019
3259 Fog 10 1020 100 3500 1.33 148.799 07:38 22.08.2019
3260 Fog 10 1020 100 3500 1.33 148.799 07:19 22.08.2019
3261 Fog 9 1020 100 3500 1.33 148.799 06:46 22.08.2019
3262 Fog 9 1020 93 9000 0.53 133.32 06:21 22.08.2019
3263 Clouds 9 1021 93 10000 0.53 133.32 05:29 22.08.2019
3264 Clear 9 1021 93 10000 0.53 133.32 03:44 22.08.2019
3265 Clear 10 1020 87 10000 1.07 112.862 02:36 22.08.2019
3266 Clear 10 1020 87 10000 1.07 112.862 01:39 22.08.2019
3267 Clear 11 1020 81 10000 0.82 108.147 00:57 22.08.2019
3268 Clear 11 1020 81 10000 0.82 108.147 00:39 22.08.2019
3269 Clear 11 1020 81 10000 0.5 0 00:20 22.08.2019
3270 Clear 12 1020 76 10000 2.1 190 23:42 21.08.2019
3271 Clear 12 1020 71 10000 2.6 180 23:24 21.08.2019
3272 Clear 13 1020 71 10000 2.6 200 22:58 21.08.2019
3273 Clear 13 1020 71 10000 2.6 200 22:39 21.08.2019
3274 Clear 13 1020 71 10000 3.6 200 22:20 21.08.2019
3275 Clear 14 1020 67 10000 4.1 190 21:56 21.08.2019
3276 Clear 14 1019 67 10000 4.1 190 21:38 21.08.2019
3277 Clear 15 1019 67 10000 4.1 190 21:19 21.08.2019
3278 Clear 16 1019 59 10000 3.6 200 20:56 21.08.2019
3279 Clear 16 1019 55 10000 4.1 200 20:38 21.08.2019
3280 Clear 17 1019 55 10000 4.1 200 20:20 21.08.2019
3281 Clear 17 1019 48 10000 4.1 210 19:43 21.08.2019
3282 Clear 18 1019 48 10000 5.1 200 19:24 21.08.2019
3283 Clear 18 1019 42 10000 2.6 220 18:58 21.08.2019
3284 Clear 19 1019 37 10000 3.6 230 18:39 21.08.2019
3285 Clear 19 1019 37 10000 3.6 230 18:20 21.08.2019
3286 Clear 20 1019 37 10000 2.6 240 17:45 21.08.2019
3287 Clear 20 1019 37 10000 2.1 240 17:23 21.08.2019
3288 Clear 20 1019 37 10000 1 0 16:58 21.08.2019
3289 Clear 20 1019 37 10000 1 0 16:39 21.08.2019
3290 Clear 20 1019 42 10000 2.1 0 16:20 21.08.2019
3291 Clear 20 1019 39 10000 3.6 200 15:58 21.08.2019
3292 Clear 20 1019 39 10000 3.1 230 15:38 21.08.2019
3293 Clear 20 1019 39 10000 3.1 230 15:19 21.08.2019
3294 Clear 20 1019 39 10000 2.6 220 14:56 21.08.2019
3295 Clear 20 1019 39 10000 2.1 0 14:38 21.08.2019
3296 Clear 20 1019 39 10000 2.1 0 14:19 21.08.2019
3297 Clouds 20 1019 45 10000 1.5 0 13:43 21.08.2019
3298 Clouds 19 1019 45 10000 1.5 0 13:20 21.08.2019
3299 Clouds 19 1019 51 10000 2.6 180 12:58 21.08.2019
3300 Clouds 19 1019 51 10000 1.5 0 12:40 21.08.2019
3301 Clouds 19 1019 51 10000 1.5 0 12:20 21.08.2019
3302 Clear 18 1019 55 10000 1.5 180 11:54 21.08.2019
3303 Clear 18 1019 59 10000 0.5 0 11:36 21.08.2019
3304 Clear 18 1019 59 10000 0.5 0 11:18 21.08.2019
3305 Clear 18 1019 59 10000 0.5 0 11:18 21.08.2019
3306 Clear 17 1018 58 10000 1.5 0 10:55 21.08.2019
3307 Clear 17 1018 58 10000 1.5 0 10:37 21.08.2019
3308 Clear 16 1018 58 10000 2.6 330 10:18 21.08.2019
3309 Clear 15 1018 62 10000 2.1 300 09:41 21.08.2019
3310 Clear 14 1018 71 10000 2.1 0 09:23 21.08.2019
3311 Clouds 13 1018 76 10000 2.1 320 08:56 21.08.2019
3312 Clouds 13 1018 76 10000 1 0 08:37 21.08.2019
3313 Clouds 12 1018 76 10000 1 0 08:19 21.08.2019
3314 Clouds 11 1017 87 10000 1.5 330 07:39 21.08.2019
3315 Clear 11 1017 87 10000 2.1 310 07:20 21.08.2019
3316 Clouds 11 1017 87 10000 2.1 320 06:46 21.08.2019
3317 Clouds 11 1017 93 10000 0.95 303.169 06:20 21.08.2019
3318 Clear 11 1017 87 0 3.1 210 05:31 21.08.2019
3319 Clear 11 1016 93 10000 0.95 303.169 04:59 21.08.2019
3320 Clouds 12 1015 93 10000 2.1 190 02:55 21.08.2019
3321 Clouds 12 1015 93 10000 1 170 01:42 21.08.2019
3322 Clouds 13 1015 87 10000 3.1 180 00:43 21.08.2019
3323 Clear 13 1014 87 10000 3.1 190 00:22 21.08.2019
3324 Clear 13 1014 87 10000 4.1 180 23:55 20.08.2019
3325 Clouds 13 1014 87 10000 2.6 200 23:36 20.08.2019
3326 Clouds 13 1014 87 10000 2.6 200 23:18 20.08.2019
3327 Clear 14 1014 82 10000 5.1 180 22:54 20.08.2019
3328 Clear 14 1014 82 10000 5.7 200 22:36 20.08.2019
3329 Clear 14 1014 82 10000 5.7 200 22:18 20.08.2019
3330 Clouds 15 1014 77 10000 6.7 180 21:56 20.08.2019
3331 Clouds 15 1014 77 10000 6.7 180 21:37 20.08.2019
3332 Rain 15 1014 72 10000 6.2 200 21:18 20.08.2019
3333 Rain 16 1014 72 10000 6.2 200 20:42 20.08.2019
3334 Rain 16 1013 67 10000 1 0 20:23 20.08.2019
3335 Rain 16 1013 63 10000 5.1 210 19:42 20.08.2019
3336 Rain 17 1013 63 10000 5.1 210 19:23 20.08.2019
3337 Rain 17 1013 55 10000 6.2 210 18:59 20.08.2019
3338 Clouds 17 1012 55 10000 7.2 210 18:41 20.08.2019
3339 Clouds 18 1012 55 10000 7.2 210 18:20 20.08.2019
3340 Clouds 18 1012 55 10000 7.7 190 17:59 20.08.2019
3341 Clouds 18 1012 55 10000 7.7 190 17:39 20.08.2019
3342 Clouds 18 1012 59 10000 6.7 210 17:20 20.08.2019
3343 Clouds 19 1012 52 10000 7.7 200 16:47 20.08.2019
3344 Clouds 18 1012 52 10000 7.7 200 16:28 20.08.2019
3345 Rain 18 1012 55 10000 8.7 200 15:59 20.08.2019
3346 Rain 18 1012 55 10000 8.2 200 15:40 20.08.2019
3347 Clouds 18 1012 55 10000 7.7 200 15:18 20.08.2019
3348 -273 0 0 0 0 0 14:44 20.08.2019
3349 Rain 19 1011 55 10000 7.2 210 14:22 20.08.2019
3350 Clouds 19 1011 48 10000 7.2 190 14:22 20.08.2019
3351 Rain 18 1011 55 10000 7.2 210 13:59 20.08.2019
3352 Rain 19 1011 59 10000 6.7 200 13:40 20.08.2019
3353 Clouds 18 1011 63 10000 7.2 210 13:21 20.08.2019
3354 Clouds 18 1011 63 10000 7.2 210 12:55 20.08.2019
3355 Rain 18 1011 67 10000 6.2 210 12:36 20.08.2019
3356 Rain 18 1013 67 10000 7.2 210 12:18 20.08.2019
3357 Clouds 18 1011 67 10000 6.2 210 11:42 20.08.2019
3358 Clouds 18 1011 67 10000 6.2 210 11:22 20.08.2019
3359 Clouds 17 1011 82 10000 5.1 200 10:58 20.08.2019
3360 Clouds 17 1011 82 10000 5.1 200 10:39 20.08.2019
3361 Clouds 16 1010 82 10000 5.1 200 10:21 20.08.2019
3362 Clouds 16 1010 82 10000 5.1 200 09:58 20.08.2019
3363 Clouds 15 1010 82 10000 6.2 190 09:40 20.08.2019
3364 Clouds 15 1010 82 10000 6.2 190 09:40 20.08.2019
3365 Clouds 14 1010 87 10000 4.6 190 09:21 20.08.2019
3366 Clouds 14 1010 87 10000 4.6 190 09:21 20.08.2019
3367 Clouds 14 1010 87 10000 4.6 200 08:42 20.08.2019
3368 Clouds 13 1010 93 10000 4.1 200 08:23 20.08.2019
3369 Clouds 12 1010 93 10000 4.1 200 07:57 20.08.2019
3370 Clouds 12 1010 93 10000 4.1 200 07:57 20.08.2019
3371 Clouds 12 1010 93 10000 4.1 200 07:57 20.08.2019
3372 Clouds 12 1009 100 10000 4.1 200 07:38 20.08.2019
3373 Clouds 12 1009 93 10000 4.1 200 07:20 20.08.2019
3374 Clouds 11 1009 100 10000 2.6 200 06:43 20.08.2019
3375 Clouds 11 1009 100 9000 2.6 190 06:20 20.08.2019
3376 Clear 11 1010 87 0 2.6 220 05:42 20.08.2019
3377 Clouds 11 1008 93 10000 2.6 150 04:26 20.08.2019
3378 Clear 12 1007 87 10000 3.1 200 02:48 20.08.2019
3379 Clear 12 1007 93 10000 3.1 210 01:53 20.08.2019
3380 Clouds 12 1009 82 0 4.1 210 01:21 20.08.2019
3381 Clear 13 1007 87 10000 4.6 200 00:45 20.08.2019
3382 Clear 13 1007 87 10000 4.6 200 00:24 20.08.2019
3383 Clear 13 1006 87 10000 6.2 210 23:44 19.08.2019
3384 Clouds 13 1006 93 10000 3.6 210 23:19 19.08.2019
3385 Clouds 13 1006 93 10000 3.6 210 22:58 19.08.2019
3386 Clouds 14 1006 93 10000 3.6 200 22:40 19.08.2019
3387 Clouds 14 1006 93 10000 3.6 200 22:20 19.08.2019
3388 Clouds 14 1006 93 10000 2.6 220 21:57 19.08.2019
3389 Clouds 14 1005 93 10000 4.6 180 21:38 19.08.2019
3390 Thunderstorm 14 1007 77 0 6.7 210 21:19 19.08.2019
3391 Thunderstorm 15 1007 77 0 6.7 210 20:54 19.08.2019
3392 Thunderstorm 15 1005 82 10000 5.7 170 20:36 19.08.2019
3393 Thunderstorm 15 1006 72 10000 7.2 200 20:18 19.08.2019
3394 Thunderstorm 16 1006 72 10000 7.2 200 19:54 19.08.2019
3395 Thunderstorm 16 1004 87 10000 4.1 170 19:36 19.08.2019
3396 Thunderstorm 16 1004 76 10000 5.1 230 19:18 19.08.2019
3397 Rain 17 1004 72 10000 6.7 180 18:40 19.08.2019
3398 Rain 17 1004 72 10000 6.7 180 18:40 19.08.2019
3399 Rain 17 1003 72 10000 7.7 200 18:21 19.08.2019
3400 Rain 18 1003 72 10000 7.7 200 17:56 19.08.2019
3401 Rain 18 1003 63 10000 9.8 200 17:37 19.08.2019
3402 Rain 18 1003 63 10000 9.3 200 17:19 19.08.2019
3403 Clouds 18 1003 63 10000 9.8 200 16:54 19.08.2019
3404 Clouds 18 1003 63 10000 9.8 200 16:36 19.08.2019
3405 Clouds 18 1002 59 10000 7.2 200 16:18 19.08.2019
3406 Clouds 18 1002 59 10000 7.2 200 16:18 19.08.2019
3407 Clouds 18 1002 59 10000 7.2 210 15:43 19.08.2019
3408 Rain 18 1002 63 10000 8.2 210 15:19 19.08.2019
3409 Clouds 18 1002 63 10000 8.2 200 14:44 19.08.2019
3410 Clouds 18 1002 67 10000 6.7 200 14:24 19.08.2019
3411 Rain 18 1002 67 10000 8.7 200 13:58 19.08.2019
3412 Rain 18 1002 67 10000 8.7 200 13:40 19.08.2019
3413 Clouds 18 1001 77 10000 7.2 220 13:20 19.08.2019
3414 Clouds 18 1001 77 10000 7.2 220 13:20 19.08.2019
3415 Rain 18 1001 77 10000 5.7 210 12:58 19.08.2019
3416 Rain 17 1001 87 10000 1.5 0 12:40 19.08.2019
3417 Rain 17 1001 87 10000 1.5 0 12:20 19.08.2019
3418 Rain 16 1001 82 10000 2.1 230 11:41 19.08.2019
3419 Rain 16 1001 82 10000 6.2 200 11:23 19.08.2019
3420 Rain 15 1003 87 10000 5.1 180 10:58 19.08.2019
3421 Rain 15 1003 87 10000 5.1 180 10:39 19.08.2019
3422 Rain 15 1001 87 10000 5.7 200 10:19 19.08.2019
3423 Clouds 14 1001 87 10000 4.6 190 09:54 19.08.2019
3424 Rain 14 1001 87 10000 4.1 180 09:36 19.08.2019
3425 Rain 14 1001 87 10000 4.1 180 09:18 19.08.2019
3426 Clouds 13 1001 87 10000 3.1 170 08:41 19.08.2019
3427 Clouds 13 1001 87 10000 3.1 170 08:20 19.08.2019
3428 Clouds 12 1001 93 10000 4.1 170 07:52 19.08.2019
3429 Clouds 12 1000 93 10000 4.6 180 07:32 19.08.2019
3430 Clouds 11 1000 93 10000 3.6 200 06:58 19.08.2019
3431 Clouds 11 1000 93 10000 2.6 190 06:36 19.08.2019
3432 Clouds 11 1000 100 10000 2.6 180 05:26 19.08.2019
3433 Clouds 11 1000 93 8000 2.6 200 04:33 19.08.2019
3434 Clouds 12 1000 93 10000 1 0 03:24 19.08.2019
3435 Rain 12 1000 93 10000 1.5 180 02:30 19.08.2019
3436 Clouds 13 1000 93 10000 0.6 159.567 01:36 19.08.2019
3437 Rain 13 1000 93 10000 0.5 0 00:44 19.08.2019
3438 Rain 13 1000 87 10000 1.04 140.462 00:23 19.08.2019
3439 Clouds 13 1000 87 10000 1 0 23:43 18.08.2019
3440 Rain 13 1000 93 10000 1 0 23:22 18.08.2019
3441 Rain 13 1000 87 10000 0.5 0 22:59 18.08.2019
3442 Rain 13 1000 87 10000 0.5 0 22:39 18.08.2019
3443 Clouds 13 1000 87 10000 1.5 10 22:21 18.08.2019
3444 Rain 14 1000 87 10000 2.6 200 21:56 18.08.2019
3445 Rain 15 1000 82 10000 1 0 21:37 18.08.2019
3446 Rain 15 1000 82 10000 1 0 21:19 18.08.2019
3447 Rain 16 1001 72 10000 4.1 180 20:44 18.08.2019
3448 Rain 16 1001 72 10000 4.1 180 20:26 18.08.2019
3449 Rain 16 1001 72 10000 4.1 180 20:26 18.08.2019
3450 Clouds 17 1001 63 10000 6.2 180 19:56 18.08.2019
3451 Clear 17 1001 63 10000 5.7 190 19:38 18.08.2019
3452 Clear 17 1001 63 10000 5.7 190 19:19 18.08.2019
3453 Clear 17 1001 59 10000 5.7 160 18:54 18.08.2019
3454 Clouds 17 1001 59 10000 4.6 170 18:36 18.08.2019
3455 Clouds 17 1001 59 10000 4.6 170 18:18 18.08.2019
3456 Clear 17 1001 59 10000 4.6 170 17:42 18.08.2019
3457 Clear 17 1002 63 10000 4.6 180 17:19 18.08.2019
3458 Clear 17 1002 63 10000 5.1 180 16:57 18.08.2019
3459 Clouds 17 1002 59 10000 7.2 170 16:38 18.08.2019
3460 Clouds 18 1002 59 10000 7.2 170 16:20 18.08.2019
3461 Rain 18 1002 48 10000 6.2 190 15:57 18.08.2019
3462 Clouds 18 1002 52 10000 5.7 180 15:38 18.08.2019
3463 Clouds 18 1002 52 10000 5.7 180 15:20 18.08.2019
3464 Clouds 18 1002 55 10000 5.7 180 14:54 18.08.2019
3465 Clouds 18 1002 55 10000 6.2 170 14:36 18.08.2019
3466 Clouds 18 1002 55 10000 6.2 170 14:18 18.08.2019
3467 Clouds 18 1002 55 10000 5.1 200 13:42 18.08.2019
3468 Clouds 17 1002 59 10000 4.6 190 13:24 18.08.2019
3469 Clouds 17 1002 59 10000 5.1 200 12:58 18.08.2019
3470 Clouds 17 1002 59 10000 5.1 200 12:39 18.08.2019
3471 Clouds 17 1002 59 10000 5.1 200 12:21 18.08.2019
3472 Clouds 17 1002 67 10000 3.6 190 11:43 18.08.2019
3473 Clouds 17 1002 67 10000 4.6 190 11:23 18.08.2019
3474 Clouds 16 1002 77 10000 4.6 190 10:59 18.08.2019
3475 Clouds 16 1002 77 10000 4.6 190 10:40 18.08.2019
3476 Clouds 16 1002 82 10000 4.6 190 10:19 18.08.2019
3477 Clouds 15 1001 82 10000 4.6 180 09:44 18.08.2019
3478 Clouds 15 1001 82 10000 4.1 200 09:21 18.08.2019
3479 Clouds 14 1001 87 10000 3.6 180 08:44 18.08.2019
3480 Clouds 14 1001 93 10000 3.6 180 08:25 18.08.2019
3481 Clouds 14 1001 93 10000 3.6 180 08:25 18.08.2019
3482 Clouds 13 1001 93 10000 4.6 190 07:59 18.08.2019
3483 Clouds 13 1001 93 10000 4.6 200 07:41 18.08.2019
3484 Clouds 13 1001 93 10000 4.6 200 07:22 18.08.2019
3485 Clouds 13 1000 93 10000 6.2 190 05:45 18.08.2019
3486 Clouds 14 1000 93 10000 5.7 190 04:44 18.08.2019
3487 Clouds 15 1000 87 10000 7.2 170 03:20 18.08.2019
3488 Clouds 15 1000 87 10000 8.7 180 02:43 18.08.2019
3489 Rain 15 1000 93 10000 6.2 180 02:18 18.08.2019
3490 Rain 15 999 93 10000 5.1 180 01:28 18.08.2019
3491 Clouds 15 999 93 10000 5.7 170 00:43 18.08.2019
3492 Clouds 15 999 93 10000 5.7 170 00:24 18.08.2019
3493 Clouds 15 999 93 10000 5.7 170 23:58 17.08.2019
3494 Clouds 15 999 93 10000 5.7 170 23:38 17.08.2019
3495 Clouds 15 999 93 10000 5.7 170 23:20 17.08.2019
3496 Clouds 16 999 87 10000 4.6 160 22:58 17.08.2019
3497 Clouds 16 999 87 10000 4.6 160 22:40 17.08.2019
3498 Clouds 16 999 93 10000 5.1 170 22:21 17.08.2019
3499 Clouds 16 998 87 10000 5.1 180 21:55 17.08.2019
3500 Clouds 16 998 87 10000 5.1 180 21:55 17.08.2019
3501 Clouds 16 999 93 10000 5.1 180 21:37 17.08.2019
3502 Clouds 16 999 93 10000 5.1 180 21:19 17.08.2019
3503 Rain 16 998 93 7000 5.1 170 20:39 17.08.2019
3504 Rain 16 998 93 7000 5.1 170 20:20 17.08.2019
3505 Drizzle 16 998 93 7000 6.7 160 19:56 17.08.2019
3506 Rain 16 998 93 3900 6.2 150 19:38 17.08.2019
3507 Rain 16 998 93 3900 6.2 150 19:19 17.08.2019
3508 Rain 16 999 93 5000 6.7 150 18:39 17.08.2019
3509 Rain 16 999 93 5000 6.7 150 18:19 17.08.2019
3510 Rain 16 999 93 4500 7.2 150 18:19 17.08.2019
3511 Rain 16 999 93 5000 6.7 150 18:19 17.08.2019
3512 Rain 16 999 93 4500 7.2 150 17:56 17.08.2019
3513 Rain 16 999 93 8000 7.7 150 17:38 17.08.2019
3514 Rain 16 999 93 8000 7.7 150 17:20 17.08.2019
3515 Rain 15 999 93 5000 7.7 150 16:44 17.08.2019
3516 Rain 15 999 93 5000 8.2 150 16:26 17.08.2019
3517 Rain 15 999 93 8000 7.2 150 15:58 17.08.2019
3518 Rain 15 999 93 8000 7.2 150 15:39 17.08.2019
3519 Rain 15 1000 93 7000 6.7 140 15:20 17.08.2019
3520 Rain 15 1000 93 7000 6.7 140 15:20 17.08.2019
3521 Rain 15 1000 93 9000 7.2 140 14:41 17.08.2019
3522 Rain 15 1000 93 9000 7.2 140 14:41 17.08.2019
3523 Rain 15 1000 93 7000 7.2 140 14:41 17.08.2019
3524 Rain 15 1000 93 9000 7.2 140 14:23 17.08.2019
3525 Rain 15 1001 87 10000 6.7 150 13:49 17.08.2019
3526 Rain 15 1001 87 9000 6.2 140 13:23 17.08.2019
3527 Rain 15 1001 87 9000 6.2 140 13:23 17.08.2019
3528 Rain 15 1001 87 9000 6.7 150 12:59 17.08.2019
3529 Rain 15 1002 93 9000 6.2 150 12:41 17.08.2019
3530 Rain 14 1002 93 9000 6.2 150 12:19 17.08.2019
3531 Rain 14 1002 93 8000 6.7 140 11:56 17.08.2019
3532 Rain 14 1002 93 9000 6.2 140 11:36 17.08.2019
3533 Rain 14 1002 93 9000 6.2 140 11:18 17.08.2019
3534 Rain 14 1003 87 9000 5.1 140 10:39 17.08.2019
3535 Rain 14 1003 87 9000 5.1 140 10:19 17.08.2019
3536 Rain 14 1003 87 10000 5.7 140 09:49 17.08.2019
3537 Rain 14 1004 87 10000 4.6 150 09:30 17.08.2019
3538 Rain 13 1004 87 10000 4.6 150 08:54 17.08.2019
3539 Rain 13 1004 87 10000 5.1 150 08:25 17.08.2019
3540 Rain 13 1004 87 10000 5.7 160 07:52 17.08.2019
3541 Drizzle 13 1004 87 10000 5.1 150 07:22 17.08.2019
3542 Rain 13 1004 87 10000 5.1 160 06:54 17.08.2019
3543 Clouds 14 1005 82 10000 3.1 150 05:35 17.08.2019
3544 Clouds 14 1005 87 10000 3.1 160 04:29 17.08.2019
3545 Clouds 14 1005 82 10000 4.6 180 03:35 17.08.2019
3546 Clouds 14 1006 87 10000 3.6 150 01:48 17.08.2019
3547 Clouds 14 1006 87 10000 2.6 140 01:28 17.08.2019
3548 Clouds 14 1006 87 10000 4.1 170 00:55 17.08.2019
3549 Clouds 14 1006 87 10000 4.1 160 00:31 17.08.2019
3550 Clouds 14 1006 87 10000 5.1 170 23:52 16.08.2019
3551 Clouds 14 1006 87 10000 6.2 160 23:28 16.08.2019
3552 Clouds 15 1006 87 10000 6.2 170 22:57 16.08.2019
3553 Clouds 15 1006 87 10000 6.2 170 22:39 16.08.2019
3554 Clouds 14 1006 87 10000 6.7 170 22:19 16.08.2019
3555 Clouds 14 1006 87 10000 6.7 170 22:19 16.08.2019
3556 Clouds 15 1006 77 10000 7.2 170 21:41 16.08.2019
3557 Clouds 15 1006 77 10000 7.2 170 21:20 16.08.2019
3558 Clouds 16 1006 82 10000 5.7 170 20:56 16.08.2019
3559 Clouds 16 1006 82 10000 6.2 170 20:38 16.08.2019
3560 Clouds 16 1006 82 10000 6.2 170 20:18 16.08.2019
3561 Clouds 16 1006 77 10000 5.7 180 19:44 16.08.2019
3562 Clouds 17 1006 77 10000 5.7 180 19:23 16.08.2019
3563 Clouds 17 1006 77 10000 5.7 170 18:54 16.08.2019
3564 Clouds 18 1006 77 10000 5.1 180 18:36 16.08.2019
3565 Clouds 18 1006 77 10000 5.1 180 18:18 16.08.2019
3566 Clouds 19 1006 77 10000 2.1 200 17:41 16.08.2019
3567 Clouds 19 1006 77 10000 4.1 160 17:41 16.08.2019
3568 Clouds 19 1006 77 10000 2.1 200 17:23 16.08.2019
3569 Clouds 19 1006 77 10000 1.5 230 16:56 16.08.2019
3570 Clouds 19 1007 88 10000 1.5 180 16:37 16.08.2019
3571 Clouds 19 1007 88 10000 1.5 180 16:18 16.08.2019
3572 Rain 19 1007 87 10000 1.5 200 15:40 16.08.2019
3573 Rain 18 1007 87 10000 1.5 200 15:21 16.08.2019
3574 Rain 18 1007 87 10000 1.5 200 15:21 16.08.2019
3575 Rain 18 1007 87 10000 1.5 200 15:21 16.08.2019
3576 Rain 18 1007 87 10000 2.1 190 14:58 16.08.2019
3577 Clouds 18 1008 77 10000 5.7 190 14:39 16.08.2019
3578 Clouds 18 1008 77 10000 5.7 190 14:19 16.08.2019
3579 Clouds 18 1007 72 10000 4.6 190 13:57 16.08.2019
3580 Rain 17 1007 93 10000 1.5 170 13:37 16.08.2019
3581 Clouds 17 1007 77 10000 5.1 180 13:18 16.08.2019
3582 Rain 16 1007 93 10000 2.1 170 12:38 16.08.2019
3583 Rain 16 1007 93 10000 2.1 170 12:20 16.08.2019
3584 Clouds 16 1007 93 10000 3.6 140 11:42 16.08.2019
3585 Clouds 15 1007 93 10000 3.6 140 11:24 16.08.2019
3586 Clouds 15 1007 93 10000 2.6 140 10:45 16.08.2019
3587 Clouds 15 1007 93 8000 2.1 190 10:27 16.08.2019
3588 Clouds 15 1007 93 9000 2.6 180 09:58 16.08.2019
3589 Clouds 14 1007 87 10000 2.6 170 09:37 16.08.2019
3590 Clouds 14 1007 87 10000 2.6 170 09:18 16.08.2019
3591 Drizzle 14 1007 93 10000 2.6 140 08:42 16.08.2019
3592 Rain 14 1007 87 10000 0.5 0 08:21 16.08.2019
3593 Rain 14 1007 87 10000 1.5 110 07:59 16.08.2019
3594 Rain 13 1007 87 10000 1.5 110 07:41 16.08.2019
3595 Rain 13 1006 87 10000 1.5 120 07:21 16.08.2019
3596 Clouds 13 1007 93 10000 0.5 50 06:33 16.08.2019
3597 Rain 13 1007 93 10000 0.5 0 05:43 16.08.2019
3598 Rain 13 1007 87 10000 1.11 93.879 04:33 16.08.2019
3599 Rain 13 1007 82 10000 1 0 03:18 16.08.2019
3600 Rain 14 1007 76 10000 2.6 150 01:43 16.08.2019
3601 Rain 14 1007 76 10000 2.6 150 01:21 16.08.2019
3602 Clouds 14 1008 76 10000 3.1 170 00:43 16.08.2019
3603 Clouds 14 1008 76 10000 3.1 170 00:21 16.08.2019
3604 Clouds 14 1008 71 10000 2.1 130 23:45 15.08.2019
3605 Clouds 14 1008 76 10000 1.5 140 23:22 15.08.2019
3606 Clear 14 1008 76 10000 1.5 130 22:58 15.08.2019
3607 Clear 14 1008 76 10000 1.5 130 22:40 15.08.2019
3608 Clear 14 1008 76 10000 1.5 180 22:21 15.08.2019
3609 Drizzle 14 1008 82 10000 1.5 210 21:56 15.08.2019
3610 Clear 14 1008 82 10000 1.5 210 21:38 15.08.2019
3611 Clouds 15 1008 82 10000 1.5 220 21:18 15.08.2019
3612 Rain 15 1008 77 10000 1.5 220 20:43 15.08.2019
3613 Clouds 16 1008 77 10000 2.1 230 20:22 15.08.2019
3614 Rain 16 1007 72 10000 2.6 220 19:58 15.08.2019
3615 Rain 16 1008 67 10000 4.6 200 19:39 15.08.2019
3616 Rain 16 1008 67 10000 4.6 200 19:21 15.08.2019
3617 Clouds 16 1007 63 10000 6.2 200 18:47 15.08.2019
3618 Clouds 16 1007 63 10000 6.2 200 18:23 15.08.2019
3619 Clear 17 1007 45 10000 5.7 200 17:58 15.08.2019
3620 Clear 17 1007 45 10000 4.6 200 17:38 15.08.2019
3621 Clear 17 1007 45 10000 4.6 200 17:19 15.08.2019
3622 Clear 17 1007 42 10000 4.1 200 16:56 15.08.2019
3623 Clear 17 1007 42 10000 5.1 190 16:38 15.08.2019
3624 Clear 17 1007 42 10000 5.1 190 16:20 15.08.2019
3625 Clear 18 1007 36 10000 4.6 190 15:38 15.08.2019
3626 Clear 18 1007 36 10000 4.6 190 15:20 15.08.2019
3627 Clear 18 1007 39 10000 6.2 160 14:56 15.08.2019
3628 Clear 18 1007 45 10000 3.1 200 14:37 15.08.2019
3629 Clear 18 1007 45 10000 3.1 200 14:18 15.08.2019
3630 Clouds 18 1009 59 10000 4.6 200 13:55 15.08.2019
3631 Clouds 19 1009 55 10000 4.6 200 13:37 15.08.2019
3632 Clouds 19 1009 55 10000 4.6 200 13:18 15.08.2019
3633 Clouds 18 1009 59 10000 5.1 210 12:40 15.08.2019
3634 Clouds 18 1009 59 10000 5.1 210 12:20 15.08.2019
3635 Clouds 18 1009 59 10000 4.1 200 11:57 15.08.2019
3636 Clouds 18 1009 59 10000 4.1 200 11:57 15.08.2019
3637 Clear 17 1009 63 10000 4.6 200 11:38 15.08.2019
3638 Clear 16 1009 63 10000 4.6 200 11:18 15.08.2019
3639 Clear 16 1009 55 10000 4.1 190 10:58 15.08.2019
3640 Mist 15 1008 93 5000 0.5 0 10:37 15.08.2019
3641 Clear 16 1009 62 10000 3.6 190 10:37 15.08.2019
3642 Mist 14 1008 93 5000 0.5 0 10:18 15.08.2019
3643 Fog 13 1008 100 2000 1 0 09:43 15.08.2019
3644 Fog 12 1008 100 2000 1 0 09:22 15.08.2019
3645 Fog 11 1008 100 2000 0.79 83.29 08:39 15.08.2019
3646 Fog 10 1008 93 2500 0.79 83.29 08:21 15.08.2019
3647 Fog 10 1008 93 5000 0.79 83.29 07:58 15.08.2019
3648 Fog 9 1008 93 5000 0.79 83.29 07:39 15.08.2019
3649 Fog 9 1008 93 9000 0.79 83.29 07:20 15.08.2019
3650 Fog 8 1008 93 10000 1 0 06:48 15.08.2019
3651 Fog 7 1008 93 10000 1 0 06:25 15.08.2019
3652 Fog 8 1007 87 10000 1 10 05:30 15.08.2019
3653 Clear 8 1008 93 10000 0.5 0 04:57 15.08.2019
3654 Clear 8 1008 93 10000 1 0 03:57 15.08.2019
3655 Clear 8 1008 93 10000 1 340 03:19 15.08.2019
3656 Clear 9 1008 93 10000 0.54 98.357 02:34 15.08.2019
3657 Clear 9 1008 87 10000 0.54 98.357 01:44 15.08.2019
3658 Clear 10 1007 87 10000 1.5 360 00:58 15.08.2019
3659 Clear 10 1007 76 10000 0.46 71.288 00:37 15.08.2019
3660 Clear 10 1007 76 10000 0.78 66.647 00:19 15.08.2019
3661 Clear 11 1007 76 10000 0.78 66.647 23:55 14.08.2019
3662 Clear 11 1007 76 10000 0.78 66.647 23:37 14.08.2019
3663 Clear 11 1007 76 10000 0.78 66.647 23:18 14.08.2019
3664 Clear 12 1007 71 10000 0.78 66.647 22:42 14.08.2019
3665 Clear 12 1007 71 10000 1.5 200 22:22 14.08.2019
3666 Rain 13 1007 71 10000 3.1 180 21:57 14.08.2019
3667 Rain 14 1007 58 10000 3.6 170 21:39 14.08.2019
3668 Rain 14 1007 58 10000 3.6 170 21:21 14.08.2019
3669 Rain 15 1007 62 10000 3.1 150 20:57 14.08.2019
3670 Rain 15 1007 59 10000 2.1 120 20:39 14.08.2019
3671 Clear 16 1007 55 10000 3.6 150 20:19 14.08.2019
3672 Clear 17 1007 55 10000 3.6 150 19:54 14.08.2019
3673 Clear 16 1007 59 10000 3.6 170 19:36 14.08.2019
3674 Clear 17 1007 59 10000 1.5 180 19:18 14.08.2019
3675 Clear 17 1007 59 10000 1.5 180 18:41 14.08.2019
3676 Clouds 18 1007 51 10000 2.1 90 18:23 14.08.2019
3677 Clouds 18 1007 51 10000 1.5 0 17:59 14.08.2019
3678 Clouds 18 1007 51 10000 1.5 0 17:40 14.08.2019
3679 Clouds 18 1007 51 10000 1 0 17:22 14.08.2019
3680 Clouds 17 1007 59 10000 1 0 16:57 14.08.2019
3681 Clouds 17 1007 59 10000 1 0 16:57 14.08.2019
3682 Rain 17 1007 55 10000 1 0 16:39 14.08.2019
3683 Rain 17 1007 55 10000 1 0 16:19 14.08.2019
3684 Clouds 17 1007 62 10000 1.5 60 15:43 14.08.2019
3685 Clouds 17 1007 62 10000 1.5 60 15:43 14.08.2019
3686 Clouds 17 1007 62 10000 1.5 60 15:43 14.08.2019
3687 Clouds 16 1007 58 10000 1.5 0 15:19 14.08.2019
3688 Clouds 16 1007 67 10000 2.1 30 14:57 14.08.2019
3689 Clouds 16 1007 67 10000 1.5 340 14:39 14.08.2019
3690 Clouds 16 1007 67 10000 1.5 340 14:19 14.08.2019
3691 Clouds 16 1007 67 10000 1.5 310 13:44 14.08.2019
3692 Clouds 15 1007 67 10000 1.5 320 13:24 14.08.2019
3693 Clouds 15 1007 66 10000 2.6 360 12:59 14.08.2019
3694 Clouds 14 1007 66 10000 2.6 360 12:40 14.08.2019
3695 Clouds 14 1007 66 10000 4.1 350 12:22 14.08.2019
3696 Rain 14 1006 71 10000 3.6 360 11:57 14.08.2019
3697 Rain 14 1006 71 10000 3.6 360 11:39 14.08.2019
3698 Rain 13 1006 76 10000 2.6 340 11:21 14.08.2019
3699 Rain 12 1006 81 10000 1.5 350 10:45 14.08.2019
3700 Rain 12 1006 81 10000 2.1 320 10:25 14.08.2019
3701 Rain 13 1006 87 10000 3.1 350 09:58 14.08.2019
3702 Rain 12 1006 87 10000 2.1 340 09:39 14.08.2019
3703 Rain 12 1006 87 10000 2.1 340 09:19 14.08.2019
3704 Rain 12 1005 87 10000 2.6 350 08:40 14.08.2019
3705 Rain 12 1005 87 10000 4.1 350 08:21 14.08.2019
3706 Rain 11 1005 87 10000 5.1 360 07:53 14.08.2019
3707 Rain 12 1004 87 10000 5.1 10 07:33 14.08.2019
3708 Rain 12 1004 87 10000 4.1 10 06:47 14.08.2019
3709 Clouds 12 1004 93 10000 2.1 340 05:54 14.08.2019
3710 Clouds 12 1004 87 10000 1.5 350 05:28 14.08.2019
3711 Clear 12 1003 87 10000 1.5 340 03:38 14.08.2019
3712 Clouds 13 1003 87 10000 2.1 330 02:34 14.08.2019
3713 Clouds 12 1003 87 10000 2.1 310 01:54 14.08.2019
3714 Clouds 12 1003 93 10000 2.6 330 01:21 14.08.2019
3715 Clouds 13 1003 93 10000 1.71 330.484 23:56 13.08.2019
3716 Clouds 13 1003 93 10000 1.71 330.484 23:37 13.08.2019
3717 Clouds 13 1003 93 10000 1.71 330.484 23:18 13.08.2019
3718 Clouds 13 1003 93 10000 1 0 22:42 13.08.2019
3719 Rain 13 1002 100 10000 2.1 330 22:24 13.08.2019
3720 Rain 14 1002 82 10000 1 0 21:59 13.08.2019
3721 Rain 14 1002 82 10000 1.71 330.484 21:39 13.08.2019
3722 Rain 15 1002 82 10000 0.11 45 21:19 13.08.2019
3723 Rain 16 1002 82 10000 1 0 20:58 13.08.2019
3724 Rain 16 1002 82 10000 1 0 20:40 13.08.2019
3725 Rain 16 1002 87 10000 2.6 40 20:19 13.08.2019
3726 Clouds 17 1002 87 10000 0.5 0 19:55 13.08.2019
3727 Rain 17 1002 93 10000 4.1 20 19:37 13.08.2019
3728 Clear 18 1003 55 10000 5.1 190 19:18 13.08.2019
3729 Clear 18 1003 59 10000 5.1 190 18:41 13.08.2019
3730 Thunderstorm 18 1002 93 10000 3.6 10 18:21 13.08.2019
3731 Thunderstorm 18 1002 87 10000 2.6 30 17:43 13.08.2019
3732 Rain 18 1002 82 10000 3.1 40 17:23 13.08.2019
3733 Rain 18 1002 93 10000 3.6 30 16:59 13.08.2019
3734 Rain 18 1002 93 10000 3.6 30 16:59 13.08.2019
3735 Rain 18 1002 87 10000 2.1 290 16:40 13.08.2019
3736 Rain 18 1002 87 10000 2.1 290 16:21 13.08.2019
3737 Rain 18 1002 87 10000 3.1 50 15:59 13.08.2019
3738 Rain 18 1002 87 10000 2.6 340 15:38 13.08.2019
3739 Rain 20 1002 87 10000 2.6 340 15:19 13.08.2019
3740 Rain 18 1002 82 10000 3.1 20 14:45 13.08.2019
3741 Rain 19 1002 82 10000 3.6 30 14:20 13.08.2019
3742 Rain 19 1002 77 10000 2.6 360 13:58 13.08.2019
3743 Rain 19 1002 77 10000 2.6 360 13:40 13.08.2019
3744 Rain 19 1002 63 10000 2.6 170 13:20 13.08.2019
3745 Rain 19 1001 63 10000 5.7 170 12:56 13.08.2019
3746 Rain 19 1001 63 10000 5.7 170 12:38 13.08.2019
3747 Rain 19 1001 63 10000 4.6 190 12:19 13.08.2019
3748 Rain 19 1001 68 10000 4.1 170 11:42 13.08.2019
3749 Clouds 18 1002 72 10000 3.1 160 11:22 13.08.2019
3750 Clouds 18 1002 77 10000 2.6 170 10:58 13.08.2019
3751 Clouds 17 1002 77 10000 3.6 200 10:38 13.08.2019
3752 Clouds 16 1002 77 10000 3.6 200 10:19 13.08.2019
3753 Clouds 16 1002 82 10000 3.6 170 09:46 13.08.2019
3754 Clouds 15 1002 82 10000 3.6 150 09:25 13.08.2019
3755 Clouds 15 1001 87 10000 3.6 170 08:59 13.08.2019
3756 Clouds 14 1001 87 10000 3.6 170 08:39 13.08.2019
3757 Clouds 14 1001 87 10000 3.6 160 08:20 13.08.2019
3758 Clouds 13 1001 87 10000 4.1 170 07:46 13.08.2019
3759 Clouds 13 1001 87 10000 4.6 160 07:25 13.08.2019
3760 Clouds 12 1001 87 10000 3.1 160 06:44 13.08.2019
3761 Rain 12 1001 87 10000 5.1 180 05:59 13.08.2019
3762 Rain 12 1001 87 10000 4.1 170 05:32 13.08.2019
3763 Clouds 14 1001 93 10000 2.6 180 02:22 13.08.2019
3764 Clouds 14 1001 93 10000 2.6 170 01:41 13.08.2019
3765 Clouds 15 1002 87 10000 3.1 150 00:52 13.08.2019
3766 Clouds 15 1002 87 10000 3.1 170 00:22 13.08.2019
3767 Clouds 15 1002 87 10000 3.1 160 23:47 12.08.2019
3768 Clouds 15 1001 87 10000 3.6 170 23:21 12.08.2019
3769 Clouds 15 1001 87 10000 4.1 170 22:56 12.08.2019
3770 Clouds 15 1001 87 10000 3.1 160 22:38 12.08.2019
3771 Clouds 15 1001 87 10000 3.1 160 22:18 12.08.2019
3772 Clouds 16 1002 77 10000 5.1 180 21:54 12.08.2019
3773 Clouds 16 1002 82 10000 4.6 180 21:36 12.08.2019
3774 Clouds 16 1002 82 10000 4.6 180 21:18 12.08.2019
3775 Clouds 17 1001 77 10000 6.7 190 20:41 12.08.2019
3776 Rain 17 1001 72 10000 7.2 180 20:21 12.08.2019
3777 Thunderstorm 17 1001 77 10000 7.7 190 19:58 12.08.2019
3778 Thunderstorm 18 1001 77 10000 7.7 190 19:39 12.08.2019
3779 Rain 18 1001 68 10000 7.7 190 19:21 12.08.2019
3780 Rain 18 1001 72 10000 6.7 190 18:59 12.08.2019
3781 Rain 18 1001 68 10000 6.2 190 18:40 12.08.2019
3782 Rain 19 1001 68 10000 6.2 190 18:21 12.08.2019
3783 Rain 19 1001 68 10000 7.2 190 17:56 12.08.2019
3784 Rain 19 1001 68 10000 7.2 190 17:56 12.08.2019
3785 Rain 19 1001 68 10000 6.7 200 17:38 12.08.2019
3786 Rain 20 1001 68 10000 6.7 200 17:20 12.08.2019
3787 Rain 20 1001 68 10000 6.7 190 16:55 12.08.2019
3788 Rain 20 1001 68 10000 6.7 190 16:55 12.08.2019
3789 Rain 20 1001 72 10000 6.2 190 16:37 12.08.2019
3790 Rain 20 1001 72 10000 6.2 190 16:18 12.08.2019
3791 Rain 20 1001 72 10000 6.2 190 16:18 12.08.2019
3792 -273 0 0 0 0 0 15:42 12.08.2019
3793 Rain 20 1001 77 10000 4.1 210 15:41 12.08.2019
3794 Rain 20 1001 77 10000 4.1 210 15:21 12.08.2019
3795 Rain 19 1001 88 10000 3.6 210 14:57 12.08.2019
3796 Rain 19 1001 88 10000 3.6 210 14:57 12.08.2019
3797 Rain 19 1001 77 10000 5.1 180 14:39 12.08.2019
3798 Rain 19 1001 77 10000 5.1 180 14:20 12.08.2019
3799 Rain 19 1001 77 10000 5.1 180 14:20 12.08.2019
3800 Rain 19 1001 82 10000 6.2 190 13:47 12.08.2019
3801 Rain 19 1001 82 10000 6.2 190 13:47 12.08.2019
3802 Rain 19 1001 72 10000 6.2 200 13:24 12.08.2019
3803 Rain 19 1001 77 10000 5.7 190 12:59 12.08.2019
3804 Rain 18 1001 82 10000 4.6 180 12:40 12.08.2019
3805 Rain 18 1001 82 10000 4.6 180 12:18 12.08.2019
3806 Rain 18 1001 87 10000 5.1 190 11:42 12.08.2019
3807 Rain 18 1001 87 10000 5.1 190 11:42 12.08.2019
3808 Rain 18 1001 87 10000 5.1 190 11:41 12.08.2019
3809 Clouds 17 1002 82 10000 6.2 180 11:23 12.08.2019
3810 Rain 17 1002 87 10000 5.1 190 10:43 12.08.2019
3811 Rain 17 1001 82 10000 6.2 190 10:23 12.08.2019
3812 Clouds 16 1001 93 10000 5.1 180 09:56 12.08.2019
3813 Clouds 16 1001 93 10000 4.1 190 09:38 12.08.2019
3814 Clouds 16 1001 93 10000 4.1 190 09:38 12.08.2019
3815 Clouds 16 1001 93 10000 4.1 190 09:19 12.08.2019
3816 Clouds 16 1001 93 10000 4.1 190 09:19 12.08.2019
3817 Clouds 16 1001 93 10000 4.1 190 09:19 12.08.2019
3818 Rain 16 1001 93 10000 4.1 180 08:58 12.08.2019
3819 Rain 16 1001 93 10000 4.1 180 08:38 12.08.2019
3820 Rain 16 1001 93 10000 4.6 180 08:19 12.08.2019
3821 Clouds 16 1001 87 10000 4.1 180 07:52 12.08.2019
3822 Clouds 16 1001 87 10000 5.1 190 07:27 12.08.2019
3823 Clouds 16 1001 93 10000 4.1 200 06:50 12.08.2019
3824 Clouds 15 1001 87 10000 3.6 190 05:39 12.08.2019
3825 Clouds 16 1002 93 10000 5.7 190 02:44 12.08.2019
3826 Clouds 16 1002 93 10000 6.2 190 01:55 12.08.2019
3827 Clouds 16 1002 87 10000 5.7 200 01:21 12.08.2019
3828 Clouds 16 1001 87 10000 6.2 180 00:58 12.08.2019
3829 Clouds 16 1001 93 10000 5.1 190 00:38 12.08.2019
3830 Clouds 16 1001 93 10000 5.1 190 00:19 12.08.2019
3831 Clouds 16 1001 93 10000 5.7 200 23:54 11.08.2019
3832 Clouds 16 1001 93 10000 6.2 190 23:36 11.08.2019
3833 Clouds 16 1001 93 10000 6.2 190 23:18 11.08.2019
3834 Clouds 17 1001 93 10000 5.7 190 22:40 11.08.2019
3835 Rain 17 1001 88 10000 5.7 190 22:20 11.08.2019
3836 Rain 17 1000 93 10000 4.6 190 21:59 11.08.2019
3837 Rain 17 1000 93 10000 4.6 200 21:41 11.08.2019
3838 Rain 17 1000 93 10000 4.6 200 21:21 11.08.2019
3839 Rain 17 1000 93 10000 4.6 200 20:57 11.08.2019
3840 Rain 17 1000 93 10000 4.6 200 20:57 11.08.2019
3841 Rain 17 1000 88 10000 4.1 210 20:39 11.08.2019
3842 Rain 18 1000 88 10000 4.1 210 20:20 11.08.2019
3843 Rain 18 999 93 10000 4.1 200 19:43 11.08.2019
3844 Rain 18 999 93 10000 4.1 200 19:19 11.08.2019
3845 Rain 19 999 88 10000 4.6 210 18:42 11.08.2019
3846 Rain 19 999 88 10000 4.6 210 18:42 11.08.2019
3847 Rain 19 999 93 10000 4.1 200 18:23 11.08.2019
3848 Rain 19 999 93 10000 6.2 180 17:59 11.08.2019
3849 Rain 18 998 88 10000 4.6 170 17:40 11.08.2019
3850 Rain 18 998 88 10000 4.6 170 17:20 11.08.2019
3851 Rain 18 998 82 10000 6.2 170 16:57 11.08.2019
3852 Rain 18 998 88 10000 5.1 160 16:38 11.08.2019
3853 Rain 18 998 88 10000 5.1 160 16:20 11.08.2019
3854 Rain 18 999 82 10000 6.2 170 15:44 11.08.2019
3855 Rain 18 998 82 10000 6.7 170 15:25 11.08.2019
3856 Rain 18 998 88 10000 6.7 160 14:59 11.08.2019
3857 Rain 18 998 88 10000 6.2 180 14:39 11.08.2019
3858 Rain 18 998 88 10000 6.2 180 14:20 11.08.2019
3859 Rain 18 998 93 10000 3.1 180 13:44 11.08.2019
3860 Rain 18 999 93 8000 3.1 220 13:26 11.08.2019
3861 Rain 18 999 88 10000 5.1 170 12:56 11.08.2019
3862 Rain 18 999 93 10000 3.6 160 12:37 11.08.2019
3863 Rain 18 999 93 10000 3.6 160 12:18 11.08.2019
3864 Rain 18 998 88 9000 2.1 160 11:39 11.08.2019
3865 Rain 17 998 88 9000 2.1 160 11:21 11.08.2019
3866 Rain 17 998 93 10000 2.6 180 10:55 11.08.2019
3867 Rain 17 998 93 10000 3.6 170 10:37 11.08.2019
3868 Rain 17 998 93 10000 3.6 170 10:18 11.08.2019
3869 Rain 17 998 93 10000 3.6 160 09:42 11.08.2019
3870 Rain 16 998 93 9000 3.1 120 09:23 11.08.2019
3871 Rain 16 998 93 6000 2.1 100 08:49 11.08.2019
3872 Rain 16 998 93 5000 1.5 90 08:29 11.08.2019
3873 Rain 16 998 93 8000 2.6 110 07:59 11.08.2019
3874 Clouds 16 998 93 10000 3.6 130 07:31 11.08.2019
3875 Rain 16 998 93 10000 3.6 140 06:46 11.08.2019
3876 Fog 15 999 93 8000 3.6 160 06:28 11.08.2019
3877 Clouds 15 999 93 10000 4.6 170 04:40 11.08.2019
3878 Rain 16 999 100 9000 4.1 150 02:50 11.08.2019
3879 Rain 16 999 93 10000 4.1 150 01:56 11.08.2019
3880 Rain 16 999 93 9000 3.6 140 01:30 11.08.2019
3881 -273 0 0 0 0 0 00:56 11.08.2019
3882 Rain 16 999 93 10000 3.1 140 00:56 11.08.2019
3883 Rain 16 1000 93 10000 3.6 150 00:34 11.08.2019
3884 Rain 16 1000 93 10000 3.6 120 23:49 10.08.2019
3885 Rain 16 1000 93 7000 3.1 110 23:29 10.08.2019
3886 Rain 16 1000 93 10000 3.1 110 22:54 10.08.2019
3887 Rain 16 1000 93 10000 2.6 110 22:36 10.08.2019
3888 Rain 16 1000 93 10000 2.6 110 22:18 10.08.2019
3889 Drizzle 16 1001 93 10000 3.1 130 21:40 10.08.2019
3890 Drizzle 17 1001 93 10000 3.1 130 21:21 10.08.2019
3891 Rain 17 1001 87 10000 2.6 140 20:57 10.08.2019
3892 Rain 16 1001 87 10000 2.6 140 20:39 10.08.2019
3893 Rain 17 1001 87 6000 5.1 150 20:19 10.08.2019
3894 Rain 17 1001 93 8000 4.6 130 19:43 10.08.2019
3895 Rain 17 1001 93 9000 4.6 140 19:24 10.08.2019
3896 Rain 17 1001 93 9000 4.1 140 18:43 10.08.2019
3897 Rain 17 1001 93 9000 3.6 150 18:25 10.08.2019
3898 Rain 17 1002 93 8000 2.6 130 17:57 10.08.2019
3899 Rain 17 1002 93 9000 2.6 130 17:38 10.08.2019
3900 Rain 16 1002 93 9000 2.6 130 17:19 10.08.2019
3901 Rain 16 1002 87 8000 2.1 100 16:43 10.08.2019
3902 Rain 16 1002 87 8000 2.1 100 16:24 10.08.2019
3903 Rain 16 1003 87 4000 1.5 130 15:48 10.08.2019
3904 Rain 16 1003 82 3500 4.6 160 15:22 10.08.2019
3905 Rain 16 1003 77 10000 4.6 130 14:44 10.08.2019
3906 Rain 16 1003 77 10000 4.6 130 14:21 10.08.2019
3907 Clouds 16 1003 72 10000 6.2 150 13:41 10.08.2019
3908 Clouds 16 1004 77 10000 4.6 130 13:20 10.08.2019
3909 Rain 16 1004 82 10000 5.1 130 12:55 10.08.2019
3910 Clouds 16 1004 87 10000 2.6 100 12:37 10.08.2019
3911 Rain 16 1005 87 10000 2.1 110 12:19 10.08.2019
3912 Rain 16 1005 87 10000 2.1 110 11:42 10.08.2019
3913 Rain 16 1005 93 10000 2.1 110 11:22 10.08.2019
3914 Rain 16 1005 93 9000 2.1 100 10:56 10.08.2019
3915 Rain 16 1005 93 9000 1.5 100 10:37 10.08.2019
3916 Rain 16 1005 93 9000 1.5 100 10:19 10.08.2019
3917 Rain 15 1005 87 10000 3.1 140 09:43 10.08.2019
3918 Rain 15 1005 87 10000 3.1 140 09:23 10.08.2019
3919 Rain 15 1005 93 10000 3.1 140 08:42 10.08.2019
3920 Rain 15 1006 93 10000 4.6 190 08:22 10.08.2019
3921 Rain 15 1006 87 10000 3.1 200 07:54 10.08.2019
3922 Rain 15 1006 87 10000 1.45 126.554 07:29 10.08.2019
3923 Rain 15 1006 87 10000 1.45 126.554 06:52 10.08.2019
3924 Rain 15 1006 82 10000 0.62 86.968 06:30 10.08.2019
3925 Rain 15 1007 82 10000 0.5 0 05:44 10.08.2019
3926 Drizzle 15 1007 87 10000 1 0 05:18 10.08.2019
3927 Clear 15 1008 76 10000 0.62 86.968 03:32 10.08.2019
3928 Clouds 15 1009 82 10000 0.91 104.875 02:32 10.08.2019
3929 Clouds 15 1009 82 10000 0.91 104.875 01:44 10.08.2019
3930 Clouds 15 1009 77 10000 1.05 87.48 01:23 10.08.2019
3931 Clouds 15 1009 67 10000 1.05 87.48 00:58 10.08.2019
3932 Clouds 15 1009 63 10000 0.5 220 00:39 10.08.2019
3933 Clear 15 1010 63 10000 1 0 00:18 10.08.2019
3934 Clouds 16 1010 82 0 0.5 0 23:38 09.08.2019
3935 Clouds 16 1010 82 0 0.5 0 23:20 09.08.2019
3936 Clear 16 1010 59 10000 3.6 190 22:54 09.08.2019
3937 Clear 16 1010 59 10000 3.6 190 22:36 09.08.2019
3938 Clear 17 1010 59 10000 3.6 190 22:18 09.08.2019
3939 Clear 17 1009 48 10000 3.1 190 21:40 09.08.2019
3940 Clear 18 1009 48 10000 3.1 190 21:21 09.08.2019
3941 Clouds 19 1009 52 10000 3.6 210 20:57 09.08.2019
3942 Clouds 20 1009 60 10000 3.1 220 20:38 09.08.2019
3943 Clouds 20 1009 60 10000 3.1 220 20:18 09.08.2019
3944 Clouds 20 1009 56 10000 3.6 200 19:43 09.08.2019
3945 Clouds 21 1009 49 10000 2.1 210 19:22 09.08.2019
3946 Clouds 21 1009 46 10000 4.1 200 18:56 09.08.2019
3947 Clouds 21 1009 46 10000 3.6 180 18:38 09.08.2019
3948 Clouds 22 1009 46 10000 3.6 180 18:19 09.08.2019
3949 Clouds 23 1009 49 10000 3.6 180 17:43 09.08.2019
3950 Clouds 22 1009 53 10000 3.1 210 17:43 09.08.2019
3951 Clouds 23 1009 53 10000 3.1 210 17:24 09.08.2019
3952 -273 0 0 0 0 0 16:55 09.08.2019
3953 Clouds 23 1009 56 10000 2.6 220 16:36 09.08.2019
3954 Clouds 23 1009 56 10000 2.6 220 16:18 09.08.2019
3955 Clouds 23 1009 56 10000 2.6 220 16:18 09.08.2019
3956 Clouds 23 1009 56 10000 2.6 230 15:41 09.08.2019
3957 Clouds 23 1009 56 10000 2.6 230 15:21 09.08.2019
3958 Clouds 23 1009 60 10000 2.1 230 14:58 09.08.2019
3959 Clouds 23 1009 56 10000 1 0 14:38 09.08.2019
3960 Clouds 23 1009 56 10000 1 0 14:20 09.08.2019
3961 Clouds 23 1009 60 10000 1.5 0 13:46 09.08.2019
3962 Clouds 22 1009 64 10000 1 0 13:21 09.08.2019
3963 Clouds 22 1009 63 10000 1.5 0 12:56 09.08.2019
3964 Clouds 22 1009 60 10000 1.5 50 12:37 09.08.2019
3965 Clouds 21 1009 72 10000 1.5 30 12:18 09.08.2019
3966 Clouds 20 1009 77 10000 1.05 102.872 11:41 09.08.2019
3967 Clouds 19 1009 77 10000 1.05 102.872 11:21 09.08.2019
3968 Clouds 19 1009 82 10000 1.05 102.872 10:54 09.08.2019
3969 Fog 18 1009 82 10000 1.05 102.872 10:36 09.08.2019
3970 Fog 17 1009 82 10000 1.05 102.872 10:18 09.08.2019
3971 Fog 16 1008 93 10000 1.05 102.872 09:40 09.08.2019
3972 Fog 15 1008 93 10000 0.88 343.885 09:19 09.08.2019
3973 Fog 14 1008 87 10000 1.15 351.212 08:45 09.08.2019
3974 Fog 14 1007 93 10000 1.15 351.212 08:25 09.08.2019
3975 Fog 13 1007 93 10000 1.15 351.212 07:56 09.08.2019
3976 Fog 13 1007 93 10000 1.5 340 07:37 09.08.2019
3977 Fog 12 1007 93 10000 1.5 340 07:19 09.08.2019
3978 Fog 12 1007 100 10000 1 0 06:44 09.08.2019
3979 Fog 11 1007 93 10000 1 30 06:21 09.08.2019
3980 Fog 11 1006 100 10000 2.1 20 05:31 09.08.2019
3981 Fog 12 1005 93 10000 1.2 337.185 02:28 09.08.2019
3982 Clouds 12 1004 93 10000 1.22 327.825 01:24 09.08.2019
3983 Fog 13 1004 93 10000 1.22 327.825 00:42 09.08.2019
3984 Fog 13 1004 100 9000 0.42 121.034 00:23 09.08.2019
3985 Fog 13 1004 93 10000 0.42 121.034 23:57 08.08.2019
3986 Fog 14 1003 87 10000 0.42 121.034 23:37 08.08.2019
3987 Fog 14 1003 87 10000 0.42 121.034 23:19 08.08.2019
3988 Fog 14 1003 87 10000 0.42 121.034 22:54 08.08.2019
3989 Clouds 15 1003 82 10000 0.42 121.034 22:36 08.08.2019
3990 Clouds 15 1003 82 10000 0.42 121.034 22:18 08.08.2019
3991 Clouds 15 1003 82 10000 0.42 121.034 22:18 08.08.2019
3992 Clouds 16 1003 82 10000 1 330 21:42 08.08.2019
3993 Clouds 16 1003 77 10000 1.63 166.237 21:23 08.08.2019
3994 Clouds 17 1002 77 10000 1 0 20:57 08.08.2019
3995 Clouds 18 1002 77 10000 1 0 20:39 08.08.2019
3996 Clouds 18 1002 77 10000 0.5 0 20:19 08.08.2019
3997 Rain 18 1002 82 10000 1 0 19:48 08.08.2019
3998 Clear 19 1002 82 10000 2.6 10 19:29 08.08.2019
3999 Clear 19 1002 72 10000 1.5 40 18:57 08.08.2019
4000 Rain 19 1002 72 10000 2.1 30 18:36 08.08.2019
4001 Rain 20 1002 72 10000 2.1 30 18:18 08.08.2019
4002 Rain 20 1002 72 10000 2.1 30 18:18 08.08.2019
4003 Thunderstorm 21 1002 72 10000 2.6 10 17:42 08.08.2019
4004 Thunderstorm 21 1002 72 10000 2.6 10 17:24 08.08.2019
4005 Rain 21 1002 72 10000 2.6 340 16:57 08.08.2019
4006 Rain 21 1002 72 10000 2.6 340 16:39 08.08.2019
4007 Rain 21 1001 68 10000 2.6 360 16:20 08.08.2019
4008 Thunderstorm 20 1001 67 10000 4.1 330 15:56 08.08.2019
4009 Thunderstorm 20 1001 67 10000 4.1 330 15:37 08.08.2019
4010 Thunderstorm 21 1001 56 10000 4.6 40 15:19 08.08.2019
4011 Rain 20 1001 68 10000 3.1 0 14:37 08.08.2019
4012 Rain 20 1001 68 10000 3.1 0 14:18 08.08.2019
4013 Rain 20 1001 68 10000 3.1 0 14:18 08.08.2019
4014 Rain 20 1001 72 10000 0.5 0 13:42 08.08.2019
4015 Rain 19 1001 72 10000 0.5 0 13:23 08.08.2019
4016 Rain 19 1001 77 10000 1 0 12:57 08.08.2019
4017 Rain 19 1001 77 10000 2.1 180 12:37 08.08.2019
4018 Rain 19 1001 77 10000 2.1 180 12:18 08.08.2019
4019 Rain 19 1001 82 10000 1.5 200 11:42 08.08.2019
4020 Rain 18 1001 82 10000 1.5 200 11:23 08.08.2019
4021 Rain 18 1001 82 10000 1.5 200 11:23 08.08.2019
4022 Clouds 18 1001 87 10000 2.1 180 10:41 08.08.2019
4023 Clouds 18 1001 87 10000 2.1 180 10:41 08.08.2019
4024 Clouds 18 1001 87 10000 3.1 180 10:22 08.08.2019
4025 Clouds 17 1001 93 10000 2.6 190 09:57 08.08.2019
4026 Clouds 16 1001 87 10000 2.1 200 09:39 08.08.2019
4027 Clouds 16 1001 87 10000 2.1 200 09:19 08.08.2019
4028 Clouds 15 1001 93 9000 2.1 180 08:40 08.08.2019
4029 Clouds 15 1001 93 10000 2.1 160 08:21 08.08.2019
4030 Clouds 14 1001 93 9000 2.1 140 07:42 08.08.2019
4031 Clouds 14 1001 87 10000 2.1 140 07:21 08.08.2019
4032 Clouds 14 1001 93 10000 2.6 150 06:59 08.08.2019
4033 Clouds 14 1001 93 10000 2.6 150 06:41 08.08.2019
4034 Clouds 14 1000 87 10000 2.1 150 05:55 08.08.2019
4035 Clouds 14 1000 87 10000 2.1 150 05:28 08.08.2019
4036 Clouds 14 1000 87 10000 2.6 150 03:57 08.08.2019
4037 Clouds 14 1000 87 10000 3.1 150 03:35 08.08.2019
4038 Drizzle 14 1000 87 10000 2.6 170 01:41 08.08.2019
4039 Clouds 15 1001 82 10000 3.6 170 00:57 08.08.2019
4040 Clouds 15 1000 82 10000 3.1 190 00:21 08.08.2019
4041 Clouds 15 1000 82 10000 4.1 190 23:23 07.08.2019
4042 Clouds 15 1000 82 10000 3.6 190 23:00 07.08.2019
4043 Clouds 15 1000 82 10000 4.1 200 22:41 07.08.2019
4044 Clouds 16 1000 82 10000 4.1 200 22:21 07.08.2019
4045 Clouds 16 1000 77 10000 4.1 190 21:57 07.08.2019
4046 Clear 16 1000 77 10000 3.6 200 21:39 07.08.2019
4047 Clear 17 1000 77 10000 3.6 200 21:20 07.08.2019
4048 Clouds 17 1000 77 10000 4.1 200 20:59 07.08.2019
4049 Clouds 17 1000 77 10000 3.6 220 20:40 07.08.2019
4050 Clouds 17 1000 77 10000 3.6 220 20:20 07.08.2019
4051 Clouds 17 1000 77 10000 3.6 220 20:20 07.08.2019
4052 Rain 18 1000 82 10000 1 0 19:55 07.08.2019
4053 Rain 18 1000 77 10000 3.1 190 19:36 07.08.2019
4054 Rain 18 1000 77 10000 3.1 190 19:18 07.08.2019
4055 Rain 19 999 77 10000 5.1 170 18:40 07.08.2019
4056 Rain 19 1000 63 10000 3.1 220 18:20 07.08.2019
4057 Rain 19 999 68 10000 1.5 230 17:55 07.08.2019
4058 Rain 20 999 68 10000 1.5 230 17:55 07.08.2019
4059 Rain 20 999 68 10000 1.5 230 17:37 07.08.2019
4060 Rain 20 1000 77 10000 4.31 179.23 17:19 07.08.2019
4061 Rain 20 1000 77 10000 4.31 179.23 16:56 07.08.2019
4062 Rain 20 1000 77 10000 4.31 179.23 16:38 07.08.2019
4063 Clouds 20 1001 68 10000 7.2 190 16:19 07.08.2019
4064 Clouds 21 1001 72 10000 7.7 190 15:43 07.08.2019
4065 Rain 20 1000 82 10000 2.6 270 15:21 07.08.2019
4066 Rain 20 1000 72 10000 3.1 260 14:50 07.08.2019
4067 Rain 20 1000 52 10000 4.6 200 14:31 07.08.2019
4068 Rain 21 999 52 10000 4.6 190 13:59 07.08.2019
4069 Rain 21 999 52 10000 4.6 190 13:59 07.08.2019
4070 Clouds 21 1000 56 10000 3.6 220 13:40 07.08.2019
4071 Clouds 21 1000 56 10000 3.6 220 13:19 07.08.2019
4072 Clouds 21 1000 60 10000 4.6 210 12:57 07.08.2019
4073 Clouds 20 1000 68 10000 3.6 150 12:38 07.08.2019
4074 Clouds 20 1000 68 10000 3.6 150 12:38 07.08.2019
4075 Clouds 20 1000 68 10000 3.6 150 12:19 07.08.2019
4076 Clouds 20 1000 63 10000 3.1 190 11:57 07.08.2019
4077 Clouds 19 1001 68 10000 6.7 190 11:39 07.08.2019
4078 Clouds 19 1001 68 10000 6.7 190 11:18 07.08.2019
4079 Clouds 18 1000 77 10000 3.1 170 10:40 07.08.2019
4080 Clouds 17 1000 77 10000 3.1 170 10:20 07.08.2019
4081 Clouds 17 1000 82 10000 2.6 170 09:55 07.08.2019
4082 Clouds 16 1000 87 10000 3.6 170 09:37 07.08.2019
4083 Clouds 16 1000 87 10000 3.6 170 09:18 07.08.2019
4084 Clouds 15 1000 87 10000 3.1 170 08:45 07.08.2019
4085 Clouds 14 1000 87 10000 3.1 180 08:24 07.08.2019
4086 Clouds 14 1000 87 10000 2.6 200 07:50 07.08.2019
4087 Clouds 13 1000 93 10000 3.6 170 07:30 07.08.2019
4088 Clouds 13 1000 87 10000 3.6 180 06:47 07.08.2019
4089 Fog 13 1000 93 10000 2.1 170 06:22 07.08.2019
4090 Fog 13 1000 93 7000 2.1 180 05:42 07.08.2019
4091 Clouds 13 1000 93 10000 3.6 180 04:37 07.08.2019
4092 Clouds 14 1000 93 10000 2.6 170 02:55 07.08.2019
4093 Clouds 14 1000 87 10000 2.6 150 02:36 07.08.2019
4094 Clouds 14 1000 93 10000 2.1 170 01:50 07.08.2019
4095 Clouds 15 1000 87 10000 3.1 180 00:57 07.08.2019
4096 Rain 15 1000 87 10000 3.6 170 00:24 07.08.2019
4097 Rain 15 1000 93 10000 3.6 180 23:58 06.08.2019
4098 Rain 15 1000 93 10000 3.6 180 23:37 06.08.2019
4099 Rain 15 1000 82 10000 0.43 281.232 23:18 06.08.2019
4100 Clouds 15 1000 77 10000 0.43 281.232 22:40 06.08.2019
4101 Clouds 15 1001 77 10000 0.43 281.232 22:21 06.08.2019
4102 Clouds 16 1001 77 10000 0.43 281.232 21:57 06.08.2019
4103 Clouds 16 1001 77 10000 1.5 230 21:38 06.08.2019
4104 Clouds 16 1001 77 10000 1.5 230 21:19 06.08.2019
4105 Rain 17 1001 77 10000 2.1 240 20:46 06.08.2019
4106 Rain 17 1001 72 10000 2.1 230 20:27 06.08.2019
4107 Rain 17 1001 72 10000 3.6 200 19:57 06.08.2019
4108 Rain 17 1001 72 10000 2.6 190 19:38 06.08.2019
4109 Rain 17 1001 72 10000 2.6 190 19:19 06.08.2019
4110 Rain 17 1001 72 10000 3.6 170 18:41 06.08.2019
4111 Rain 18 1001 72 10000 4.1 180 18:23 06.08.2019
4112 Rain 18 1002 72 10000 2.6 200 17:57 06.08.2019
4113 Clouds 18 1002 72 10000 2.6 210 17:37 06.08.2019
4114 Clouds 18 1002 72 10000 2.6 210 17:37 06.08.2019
4115 Clouds 18 1002 72 10000 2.6 210 17:19 06.08.2019
4116 Clouds 18 1002 72 10000 2.1 180 16:47 06.08.2019
4117 Clouds 18 1002 72 10000 2.6 210 16:25 06.08.2019
4118 Clouds 18 1002 67 10000 2.1 220 15:59 06.08.2019
4119 Clouds 18 1002 67 10000 2.1 220 15:41 06.08.2019
4120 Clouds 18 1002 63 10000 1.5 70 15:22 06.08.2019
4121 Clouds 18 1002 67 10000 2.1 100 14:59 06.08.2019
4122 Clouds 18 1002 63 10000 2.1 90 14:38 06.08.2019
4123 Clouds 17 1002 63 10000 2.1 90 14:20 06.08.2019
4124 Rain 17 1003 67 10000 2.1 0 13:45 06.08.2019
4125 Rain 17 1003 63 10000 2.1 40 13:27 06.08.2019
4126 Rain 17 1003 63 10000 1.5 0 12:59 06.08.2019
4127 Rain 17 1003 59 10000 1 0 12:40 06.08.2019
4128 Rain 17 1003 59 10000 1 0 12:22 06.08.2019
4129 Rain 16 1003 67 10000 1.5 0 11:46 06.08.2019
4130 Rain 16 1003 72 10000 0.5 0 11:21 06.08.2019
4131 Rain 16 1003 67 10000 1 0 10:59 06.08.2019
4132 Rain 16 1003 77 10000 1 0 10:40 06.08.2019
4133 Rain 16 1003 77 10000 1 0 10:21 06.08.2019
4134 Rain 15 1003 76 10000 1 0 09:43 06.08.2019
4135 Rain 15 1003 76 10000 1 0 09:23 06.08.2019
4136 Clouds 15 1003 82 10000 0.58 61.09 08:55 06.08.2019
4137 Clouds 14 1004 82 10000 1.5 60 08:36 06.08.2019
4138 Clouds 14 1004 82 10000 1.5 60 08:18 06.08.2019
4139 Clouds 14 1004 82 10000 0.85 41.154 07:31 06.08.2019
4140 Clouds 13 1004 87 10000 0.85 41.154 06:45 06.08.2019
4141 Clouds 13 1004 87 10000 0.51 72.345 06:24 06.08.2019
4142 Clouds 13 1004 87 10000 0.51 72.345 05:46 06.08.2019
4143 Clouds 13 1005 87 10000 0.4 74.231 02:58 06.08.2019
4144 Clouds 13 1005 87 10000 0.5 93.333 01:26 06.08.2019
4145 Clear 13 1006 87 10000 0.5 93.333 00:59 06.08.2019
4146 Clear 14 1006 81 10000 1 0 00:23 06.08.2019
4147 Clear 14 1006 76 10000 2.6 180 23:21 05.08.2019
4148 Clear 13 1006 76 10000 2.1 200 22:59 05.08.2019
4149 Clear 14 1006 76 10000 2.1 200 22:39 05.08.2019
4150 Clear 14 1007 71 10000 1.5 220 22:21 05.08.2019
4151 Clear 14 1006 76 10000 4.6 200 21:42 05.08.2019
4152 Clouds 15 1006 72 10000 4.6 190 21:21 05.08.2019
4153 Clouds 16 1006 72 10000 5.1 190 20:58 05.08.2019
4154 Clouds 16 1007 72 10000 4.6 180 20:40 05.08.2019
4155 Clouds 16 1007 72 10000 4.6 180 20:22 05.08.2019
4156 Clouds 17 1007 72 10000 5.7 200 19:59 05.08.2019
4157 Clouds 17 1007 67 10000 6.2 190 19:38 05.08.2019
4158 Clouds 17 1007 67 10000 6.2 190 19:20 05.08.2019
4159 Clouds 17 1007 72 10000 6.2 190 18:42 05.08.2019
4160 Clouds 17 1007 72 10000 6.2 190 18:21 05.08.2019
4161 Clouds 17 1007 77 10000 5.7 190 17:56 05.08.2019
4162 Clouds 17 1007 77 10000 5.7 190 17:38 05.08.2019
4163 Clouds 17 1007 77 10000 6.2 200 17:20 05.08.2019
4164 Clouds 18 1007 72 10000 6.7 190 16:42 05.08.2019
4165 Clouds 18 1007 72 10000 6.7 190 16:23 05.08.2019
4166 Clouds 18 1007 77 10000 5.7 170 15:43 05.08.2019
4167 Clouds 18 1008 77 10000 5.1 200 15:20 05.08.2019
4168 Clouds 18 1008 77 10000 5.7 200 14:42 05.08.2019
4169 Clouds 18 1008 77 10000 5.7 200 14:23 05.08.2019
4170 Clouds 18 1008 77 10000 5.7 200 14:23 05.08.2019
4171 Clouds 18 1008 82 10000 5.1 190 13:57 05.08.2019
4172 Clouds 17 1009 72 10000 5.1 170 13:38 05.08.2019
4173 Clouds 17 1009 72 10000 5.1 170 13:18 05.08.2019
4174 Clouds 17 1008 88 10000 4.1 170 12:42 05.08.2019
4175 Clouds 17 1008 88 10000 4.1 170 12:19 05.08.2019
4176 Clouds 17 1008 87 10000 4.1 170 11:43 05.08.2019
4177 Clouds 17 1008 87 10000 4.1 170 11:43 05.08.2019
4178 Clouds 17 1008 87 10000 3.6 170 11:25 05.08.2019
4179 Clouds 17 1008 93 10000 3.1 170 10:48 05.08.2019
4180 Clouds 16 1008 93 10000 3.1 180 10:30 05.08.2019
4181 Clouds 16 1009 93 10000 3.1 180 09:57 05.08.2019
4182 Drizzle 16 1009 93 8000 3.6 180 09:37 05.08.2019
4183 Drizzle 16 1009 93 8000 3.6 180 09:19 05.08.2019
4184 Drizzle 16 1009 93 6000 2.6 180 08:44 05.08.2019
4185 Drizzle 16 1009 93 4700 2.1 140 08:24 05.08.2019
4186 Rain 16 1009 93 4500 1.5 130 07:48 05.08.2019
4187 Mist 15 1009 100 5000 2.1 140 07:28 05.08.2019
4188 Clouds 15 1009 93 9000 2.1 140 06:56 05.08.2019
4189 Clouds 15 1009 87 9000 1.5 150 06:21 05.08.2019
4190 Clouds 15 1009 93 9000 1.5 190 05:31 05.08.2019
4191 Clouds 15 1009 93 9000 1.5 180 04:50 05.08.2019
4192 Clouds 15 1010 93 7000 2.1 180 03:50 05.08.2019
4193 Clouds 15 1010 93 10000 2.6 190 02:46 05.08.2019
4194 Clouds 15 1010 93 10000 2.6 170 01:55 05.08.2019
4195 Clouds 15 1010 93 10000 3.1 180 01:22 05.08.2019
4196 Clouds 16 1010 93 10000 3.6 180 00:40 05.08.2019
4197 Clouds 16 1010 87 10000 4.1 170 00:19 05.08.2019
4198 Clouds 16 1010 82 10000 4.1 170 23:43 04.08.2019
4199 Clouds 16 1010 82 10000 3.6 200 23:23 04.08.2019
4200 Clouds 16 1010 82 10000 4.1 200 22:57 04.08.2019
4201 Clouds 16 1010 82 10000 4.1 200 22:38 04.08.2019
4202 Clouds 16 1010 82 10000 3.6 190 22:19 04.08.2019
4203 Clouds 16 1010 82 10000 4.1 200 21:46 04.08.2019
4204 Clouds 17 1010 77 10000 3.6 200 21:24 04.08.2019
4205 Clouds 17 1010 77 10000 3.1 220 20:59 04.08.2019
4206 Clouds 18 1010 77 10000 3.1 220 20:41 04.08.2019
4207 Clouds 18 1010 72 10000 2.6 230 20:19 04.08.2019
4208 Clouds 18 1010 72 10000 3.1 230 19:49 04.08.2019
4209 Clouds 19 1010 72 10000 3.1 230 19:28 04.08.2019
4210 Clouds 18 1010 72 10000 3.6 210 18:58 04.08.2019
4211 Clouds 18 1010 72 10000 3.6 210 18:40 04.08.2019
4212 Clouds 19 1011 72 10000 3.6 200 18:20 04.08.2019
4213 Clouds 20 1011 72 10000 3.6 220 17:43 04.08.2019
4214 Clouds 19 1011 72 10000 3.6 210 17:24 04.08.2019
4215 Clouds 19 1011 72 10000 3.6 220 16:46 04.08.2019
4216 Clouds 19 1012 68 10000 3.1 230 16:27 04.08.2019
4217 Clouds 19 1012 72 10000 3.1 220 15:56 04.08.2019
4218 Clouds 19 1012 72 10000 2.6 240 15:37 04.08.2019
4219 Clouds 19 1012 72 10000 2.6 240 15:37 04.08.2019
4220 Clouds 19 1012 72 10000 2.6 240 15:18 04.08.2019
4221 Clouds 19 1012 77 10000 2.1 210 14:42 04.08.2019
4222 Clouds 19 1012 72 10000 3.1 210 14:21 04.08.2019
4223 Clouds 19 1012 77 10000 2.6 200 13:43 04.08.2019
4224 Clouds 19 1012 77 10000 2.1 250 13:24 04.08.2019
4225 Clouds 19 1012 77 10000 2.1 250 13:24 04.08.2019
4226 Clouds 18 1012 82 10000 1 0 12:55 04.08.2019
4227 Clouds 18 1012 82 10000 1 0 12:37 04.08.2019
4228 Clouds 18 1012 82 10000 1 0 12:37 04.08.2019
4229 Clouds 18 1012 72 10000 0.96 83.436 12:19 04.08.2019
4230 Clouds 18 1012 77 10000 0.5 0 11:41 04.08.2019
4231 Clouds 18 1012 77 10000 1.5 0 11:22 04.08.2019
4232 Clouds 17 1012 82 10000 1.5 60 10:47 04.08.2019
4233 Clouds 17 1012 77 10000 2.1 40 10:22 04.08.2019
4234 Clouds 17 1012 72 10000 4.1 40 09:46 04.08.2019
4235 Clouds 17 1012 87 10000 2.6 50 09:25 04.08.2019
4236 Clouds 16 1012 87 10000 2.1 40 08:57 04.08.2019
4237 Clouds 16 1012 82 10000 0.88 63.755 08:33 04.08.2019
4238 Clouds 16 1012 87 10000 1 0 07:54 04.08.2019
4239 Clouds 16 1012 93 10000 0.88 63.755 07:28 04.08.2019
4240 Clouds 16 1012 93 10000 0.5 20 06:40 04.08.2019
4241 Clouds 16 1012 93 10000 1 0 06:18 04.08.2019
4242 Thunderstorm 16 1012 87 10000 3.6 160 03:36 04.08.2019
4243 Thunderstorm 16 1012 87 10000 3.6 200 01:52 04.08.2019
4244 Thunderstorm 16 1012 82 10000 3.6 190 01:32 04.08.2019
4245 Clear 16 1012 82 10000 4.1 190 00:42 04.08.2019
4246 Clear 16 1012 82 10000 4.1 190 00:23 04.08.2019
4247 Clear 17 1012 77 10000 5.1 180 23:42 03.08.2019
4248 Clear 17 1012 68 10000 3.6 200 23:19 03.08.2019
4249 Rain 16 1012 87 0 3.6 150 22:59 03.08.2019
4250 Rain 17 1013 82 0 4.1 140 22:39 03.08.2019
4251 Rain 17 1013 82 0 4.1 140 22:19 03.08.2019
4252 Rain 18 1013 82 0 3.6 160 21:39 03.08.2019
4253 Clouds 19 1011 53 10000 2.6 140 21:20 03.08.2019
4254 Clear 20 1011 53 10000 2.6 120 20:45 03.08.2019
4255 Clear 20 1011 53 10000 2.6 120 20:45 03.08.2019
4256 Clear 21 1011 56 10000 2.6 180 20:24 03.08.2019
4257 Clear 21 1012 53 10000 3.1 140 19:55 03.08.2019
4258 Clear 22 1012 53 10000 2.6 140 19:36 03.08.2019
4259 Clear 23 1012 53 10000 2.6 140 19:18 03.08.2019
4260 Clear 23 1012 49 10000 3.1 130 18:40 03.08.2019
4261 Clouds 24 1012 49 10000 3.1 150 18:21 03.08.2019
4262 Clouds 24 1012 53 10000 2.6 190 17:42 03.08.2019
4263 Clouds 25 1013 53 10000 3.1 130 17:19 03.08.2019
4264 Clouds 24 1013 56 10000 2.6 140 16:38 03.08.2019
4265 Clouds 24 1013 56 10000 2.6 140 16:20 03.08.2019
4266 Clouds 24 1013 56 10000 2.6 140 15:46 03.08.2019
4267 Clouds 25 1013 56 10000 2.6 140 15:25 03.08.2019
4268 Clouds 24 1014 56 10000 3.1 130 14:48 03.08.2019
4269 Clouds 24 1014 60 10000 3.1 130 14:24 03.08.2019
4270 Clouds 24 1014 60 10000 3.1 160 13:57 03.08.2019
4271 Clear 24 1014 56 10000 2.1 10 13:37 03.08.2019
4272 Clear 24 1014 56 10000 2.1 10 13:19 03.08.2019
4273 Clouds 23 1014 73 10000 2.1 120 12:42 03.08.2019
4274 Clouds 23 1014 73 10000 2.1 120 12:23 03.08.2019
4275 Clouds 22 1014 63 10000 1.5 110 11:55 03.08.2019
4276 Clouds 22 1014 63 10000 2.1 100 11:35 03.08.2019
4277 Clear 21 1014 63 10000 2.1 60 10:47 03.08.2019
4278 Clear 20 1014 59 10000 1.5 50 10:24 03.08.2019
4279 Clear 19 1014 55 10000 2.1 0 09:45 03.08.2019
4280 Clear 18 1014 55 10000 3.1 30 09:24 03.08.2019
4281 Clear 17 1014 59 10000 3.6 30 08:57 03.08.2019
4282 Fog 16 1014 59 10000 3.6 30 08:25 03.08.2019
4283 Fog 16 1014 62 10000 2.1 20 07:38 03.08.2019
4284 Fog 14 1014 62 10000 1 0 06:47 03.08.2019
4285 Clear 14 1014 67 10000 3.1 40 06:18 03.08.2019
4286 Clear 14 1013 71 10000 0.5 0 02:59 03.08.2019
4287 Clear 14 1013 67 10000 1.5 10 02:23 03.08.2019
4288 Clear 15 1013 67 10000 1 20 00:58 03.08.2019
4289 Clear 15 1013 55 10000 0.5 0 00:32 03.08.2019
4290 Clear 17 1013 59 10000 2.6 340 23:42 02.08.2019
4291 Clear 17 1013 59 10000 2.6 330 23:20 02.08.2019
4292 Clear 17 1013 59 10000 1.5 320 22:58 02.08.2019
4293 Clear 17 1013 59 10000 1.5 320 22:40 02.08.2019
4294 Clear 18 1013 56 10000 1.5 260 22:21 02.08.2019
4295 Clear 19 1013 49 10000 1 250 21:55 02.08.2019
4296 Clear 20 1013 41 10000 1 250 21:37 02.08.2019
4297 Clear 21 1013 41 10000 1 250 21:18 02.08.2019
4298 Clear 21 1013 41 10000 1 250 21:18 02.08.2019
4299 Clear 24 1013 38 10000 0.32 107.807 20:42 02.08.2019
4300 Clear 23 1013 38 10000 0.32 107.807 20:21 02.08.2019
4301 Clear 23 1013 36 10000 1 0 19:49 02.08.2019
4302 Clear 24 1013 38 10000 1.5 360 19:29 02.08.2019
4303 Clear 25 1013 38 10000 2.6 330 18:47 02.08.2019
4304 Clear 26 1013 38 10000 3.1 10 18:29 02.08.2019
4305 Clear 26 1013 38 10000 2.6 350 17:56 02.08.2019
4306 Clear 26 1013 38 10000 2.6 350 17:38 02.08.2019
4307 Clear 26 1013 38 10000 2.1 40 17:18 02.08.2019
4308 Clear 26 1014 38 10000 2.1 0 16:39 02.08.2019
4309 Clear 26 1014 38 10000 2.1 0 16:20 02.08.2019
4310 Clear 26 1014 41 10000 4.1 40 15:45 02.08.2019
4311 Clear 25 1014 43 10000 2.1 0 15:21 02.08.2019
4312 Clear 25 1014 43 10000 3.1 20 14:59 02.08.2019
4313 Clear 25 1014 43 10000 3.1 20 14:40 02.08.2019
4314 Clear 25 1014 40 10000 3.1 40 14:18 02.08.2019
4315 Clear 25 1014 43 10000 3.6 360 13:45 02.08.2019
4316 Clear 24 1015 46 10000 3.1 10 13:20 02.08.2019
4317 Clear 24 1015 49 10000 3.1 30 12:43 02.08.2019
4318 Clear 23 1015 49 10000 4.6 10 12:19 02.08.2019
4319 Clear 23 1015 49 10000 5.1 30 11:41 02.08.2019
4320 Clear 22 1015 49 10000 5.1 30 11:22 02.08.2019
4321 Clear 22 1015 49 10000 3.6 350 10:45 02.08.2019
4322 Clear 21 1015 52 10000 4.6 360 10:24 02.08.2019
4323 Clear 20 1015 52 10000 4.6 360 09:55 02.08.2019
4324 Clear 19 1016 59 10000 3.6 10 09:37 02.08.2019
4325 Clear 18 1016 59 10000 3.6 10 09:18 02.08.2019
4326 Clear 17 1015 63 10000 1.5 350 08:40 02.08.2019
4327 Clear 16 1016 72 10000 1.5 350 08:18 02.08.2019
4328 Clear 16 1016 77 10000 1.94 332.103 07:40 02.08.2019
4329 Clear 14 1016 76 10000 1.94 332.103 07:21 02.08.2019
4330 Clear 13 1016 76 10000 1.94 332.103 06:31 02.08.2019
4331 Fog 12 1016 87 10000 2.06 329.623 05:43 02.08.2019
4332 Clear 13 1016 82 10000 1.5 10 03:34 02.08.2019
4333 Clear 13 1016 82 10000 2.6 340 02:38 02.08.2019
4334 Clear 14 1016 82 10000 2.6 350 01:36 02.08.2019
4335 Clear 14 1016 82 10000 2.1 320 00:31 02.08.2019
4336 Clear 16 1016 77 10000 1.5 350 23:44 01.08.2019
4337 Clear 16 1016 77 10000 1.28 316.013 23:25 01.08.2019
4338 Clear 16 1016 59 10000 1.28 316.013 22:44 01.08.2019
4339 Clear 17 1016 63 10000 1.28 316.013 22:25 01.08.2019
4340 Clear 17 1016 59 10000 1.28 316.013 21:57 01.08.2019
4341 Clear 19 1016 56 10000 1.28 316.013 21:39 01.08.2019
4342 Clear 19 1016 56 10000 0.8 317.424 21:21 01.08.2019
4343 Clear 20 1016 56 10000 0.79 272.837 20:46 01.08.2019
4344 Clear 21 1016 52 10000 0.5 0 20:23 01.08.2019
4345 Clear 21 1016 49 10000 1.5 100 19:54 01.08.2019
4346 Clear 21 1016 46 10000 1 0 19:36 01.08.2019
4347 Clear 22 1016 46 10000 1 0 19:18 01.08.2019
4348 Clear 22 1017 43 10000 2.1 0 18:42 01.08.2019
4349 Clear 23 1016 43 10000 2.1 70 18:23 01.08.2019
4350 Clear 23 1016 43 10000 2.1 70 18:23 01.08.2019
4351 Clear 23 1016 43 10000 2.6 100 17:47 01.08.2019
4352 Clear 23 1017 40 10000 1 0 17:27 01.08.2019
4353 Clear 23 1018 40 10000 2.1 0 16:45 01.08.2019
4354 Clear 23 1017 43 10000 1 0 16:23 01.08.2019
4355 Clear 23 1017 43 10000 1.5 350 15:46 01.08.2019
4356 Clear 23 1017 46 10000 1 0 15:22 01.08.2019
4357 Clear 23 1017 46 10000 1 0 15:22 01.08.2019
4358 Clear 22 1018 52 10000 1 0 14:59 01.08.2019
4359 Clear 22 1018 45 10000 1.5 0 14:41 01.08.2019
4360 Clear 22 1018 45 10000 1.5 0 14:18 01.08.2019
4361 Clear 22 1018 45 10000 1 0 13:56 01.08.2019
4362 Clear 22 1018 45 10000 1 0 13:38 01.08.2019
4363 Clear 22 1018 45 10000 1.5 0 13:20 01.08.2019
4364 Clear 21 1018 48 10000 1.5 0 12:41 01.08.2019
4365 Clear 21 1019 55 10000 1.5 320 12:22 01.08.2019
4366 Clear 20 1019 55 10000 1 0 11:43 01.08.2019
4367 Clear 19 1019 55 10000 1 0 11:24 01.08.2019
4368 Clear 18 1019 63 10000 1.08 289.024 10:46 01.08.2019
4369 Clear 18 1019 63 10000 1.08 289.024 10:28 01.08.2019
4370 Clear 17 1019 77 10000 0.5 0 09:59 01.08.2019
4371 Clear 17 1019 77 10000 0.5 0 09:41 01.08.2019
4372 Clear 17 1019 77 10000 0.5 0 09:41 01.08.2019
4373 Clear 16 1019 76 10000 1.32 327.907 09:22 01.08.2019
4374 Clear 15 1020 82 10000 1.02 325.906 08:45 01.08.2019
4375 Clear 14 1020 82 10000 1 0 08:20 01.08.2019
4376 Clear 14 1020 82 10000 1 0 07:50 01.08.2019
4377 Clear 13 1020 81 10000 1.5 330 07:25 01.08.2019
4378 Clear 13 1019 87 10000 1.5 340 06:49 01.08.2019
4379 Clear 12 1019 93 10000 0.5 0 05:51 01.08.2019
4380 Clear 13 1020 87 10000 1 30 04:24 01.08.2019
4381 Clear 13 1020 81 10000 2.1 330 02:35 01.08.2019
4382 Clear 13 1019 87 10000 1.5 350 00:46 01.08.2019
4383 Clear 13 1019 81 10000 1.5 340 00:25 01.08.2019
4384 Clear 13 1019 81 10000 1.5 340 23:43 31.07.2019
4385 Clear 13 1019 81 10000 1.5 340 23:43 31.07.2019
4386 Clear 13 1019 76 10000 2.1 340 23:21 31.07.2019
4387 Clear 13 1019 76 10000 1.5 350 22:58 31.07.2019
4388 Clear 13 1019 76 10000 1.5 350 22:40 31.07.2019
4389 Clear 14 1019 71 10000 1.5 340 22:21 31.07.2019
4390 Clear 14 1019 67 10000 1.96 321.917 21:39 31.07.2019
4391 Clear 14 1019 67 10000 1.96 321.917 21:39 31.07.2019
4392 Clear 15 1019 67 10000 2.37 314.88 21:20 31.07.2019
4393 Clear 15 1019 63 10000 2.37 314.88 20:48 31.07.2019
4394 Clear 15 1019 62 10000 1 0 20:22 31.07.2019
4395 Clear 16 1019 59 10000 2.1 360 19:43 31.07.2019
4396 Clear 16 1019 62 10000 2.1 350 19:24 31.07.2019
4397 Clear 16 1019 62 10000 2.1 10 18:55 31.07.2019
4398 Clear 16 1019 59 10000 2.6 350 18:37 31.07.2019
4399 Clear 16 1019 59 10000 2.6 350 18:18 31.07.2019
4400 Clouds 16 1019 62 10000 2.6 350 17:42 31.07.2019
4401 Clouds 16 1019 62 10000 2.6 350 17:20 31.07.2019
4402 Clouds 17 1019 62 10000 2.6 10 16:46 31.07.2019
4403 Clouds 16 1019 62 10000 1.5 10 16:20 31.07.2019
4404 Clouds 16 1020 58 10000 3.1 10 15:46 31.07.2019
4405 Clouds 16 1020 58 10000 3.1 10 15:26 31.07.2019
4406 Clouds 16 1020 58 10000 1 0 14:59 31.07.2019
4407 Clouds 16 1020 58 10000 1 0 14:40 31.07.2019
4408 Clouds 16 1020 58 10000 1 0 14:18 31.07.2019
4409 Clouds 16 1020 62 10000 1 0 13:45 31.07.2019
4410 Clouds 15 1021 67 10000 2.1 20 13:26 31.07.2019
4411 Clouds 15 1021 71 10000 2.1 350 12:57 31.07.2019
4412 Clouds 15 1021 76 10000 1.5 340 12:38 31.07.2019
4413 Clouds 14 1021 76 10000 1.5 340 12:18 31.07.2019
4414 Rain 14 1021 76 10000 2.1 20 11:39 31.07.2019
4415 Rain 14 1021 76 10000 2.1 20 11:39 31.07.2019
4416 Rain 14 1021 76 10000 2.1 20 11:20 31.07.2019
4417 Rain 13 1021 87 10000 1.5 360 10:44 31.07.2019
4418 Rain 13 1021 81 10000 1.5 20 10:21 31.07.2019
4419 Rain 13 1021 81 10000 2.1 40 09:57 31.07.2019
4420 Rain 13 1021 81 10000 2.1 50 09:38 31.07.2019
4421 Rain 12 1021 81 10000 2.1 50 09:20 31.07.2019
4422 Clouds 12 1021 76 10000 2.6 50 08:41 31.07.2019
4423 Rain 12 1021 81 10000 2.1 40 08:21 31.07.2019
4424 Clear 12 1021 76 10000 1 0 07:35 31.07.2019
4425 Clear 12 1020 76 10000 1 50 06:44 31.07.2019
4426 Rain 12 1020 81 10000 0.56 349.713 04:56 31.07.2019
4427 Rain 12 1020 76 10000 1.55 357.898 03:25 31.07.2019
4428 Clear 12 1019 87 10000 3.1 50 00:20 31.07.2019
4429 Clear 12 1019 87 10000 2.1 20 23:40 30.07.2019
4430 Clear 12 1019 87 10000 2.1 20 23:19 30.07.2019
4431 Drizzle 12 1019 87 10000 2.6 30 22:46 30.07.2019
4432 Drizzle 13 1018 87 10000 1.5 20 22:25 30.07.2019
4433 Rain 13 1018 87 10000 1.5 20 21:56 30.07.2019
4434 Clear 13 1018 87 10000 1.5 20 21:36 30.07.2019
4435 Rain 13 1018 82 10000 1.5 360 21:18 30.07.2019
4436 Clear 14 1018 82 10000 2.1 360 20:42 30.07.2019
4437 Clear 14 1018 82 10000 2.1 360 20:23 30.07.2019
4438 Clouds 13 1018 82 10000 2.6 360 19:58 30.07.2019
4439 Rain 14 1018 82 10000 1.5 350 19:39 30.07.2019
4440 Rain 14 1018 87 10000 1.5 330 18:58 30.07.2019
4441 Rain 14 1018 82 10000 1.5 360 18:38 30.07.2019
4442 Rain 14 1018 82 10000 1.5 360 18:18 30.07.2019
4443 Clouds 14 1019 82 10000 2.1 360 17:41 30.07.2019
4444 Rain 14 1019 82 10000 1 0 17:19 30.07.2019
4445 Rain 14 1019 87 10000 1.5 10 16:51 30.07.2019
4446 Rain 14 1019 87 10000 2.1 360 16:21 30.07.2019
4447 Rain 14 1019 87 10000 2.1 360 15:58 30.07.2019
4448 Rain 13 1019 87 10000 2.1 350 15:37 30.07.2019
4449 Rain 13 1019 87 10000 2.1 350 15:18 30.07.2019
4450 Rain 13 1019 81 10000 2.1 10 14:42 30.07.2019
4451 Rain 13 1019 81 10000 2.1 10 14:20 30.07.2019
4452 Clouds 13 1019 76 10000 2.6 360 13:47 30.07.2019
4453 Clouds 13 1019 76 10000 2.6 360 13:29 30.07.2019
4454 Clouds 13 1019 76 10000 2.6 360 12:59 30.07.2019
4455 Clouds 13 1019 76 10000 2.6 360 12:59 30.07.2019
4456 Clouds 13 1019 76 10000 2.6 360 12:40 30.07.2019
4457 Clouds 12 1019 81 10000 2.6 40 12:22 30.07.2019
4458 Rain 12 1019 76 10000 2.1 60 11:40 30.07.2019
4459 Clouds 12 1019 81 10000 3.1 50 11:20 30.07.2019
4460 Clouds 12 1019 87 10000 3.6 70 10:46 30.07.2019
4461 Rain 12 1018 87 10000 4.1 70 10:27 30.07.2019
4462 Rain 12 1018 87 10000 3.6 70 09:55 30.07.2019
4463 Rain 12 1018 87 9000 4.6 60 09:37 30.07.2019
4464 Rain 13 1018 87 9000 4.6 60 09:18 30.07.2019
4465 Rain 14 1017 87 8000 5.1 70 08:32 30.07.2019
4466 Rain 15 1016 87 9000 6.2 70 07:50 30.07.2019
4467 Drizzle 15 1016 82 10000 5.7 80 07:31 30.07.2019
4468 Rain 17 1015 87 10000 7.2 70 06:48 30.07.2019
4469 Rain 17 1014 82 10000 7.2 70 06:28 30.07.2019
4470 Clouds 19 1012 72 10000 5.1 70 05:34 30.07.2019
4471 Clear 19 1011 77 10000 3.63 64.663 03:28 30.07.2019
4472 Clear 20 1011 77 10000 1.5 360 01:22 30.07.2019
4473 Clear 21 1011 77 10000 0.5 0 00:25 30.07.2019
4474 Clear 22 1011 73 10000 1.7 13.84 23:47 29.07.2019
4475 Clear 22 1011 73 10000 1.7 13.84 23:28 29.07.2019
4476 Clear 22 1011 69 10000 1.7 13.84 22:58 29.07.2019
4477 Clear 22 1011 69 10000 1.7 13.84 22:58 29.07.2019
4478 Clear 22 1011 69 10000 1.7 13.84 22:39 29.07.2019
4479 Clear 23 1011 64 10000 1.7 13.84 22:20 29.07.2019
4480 Clear 23 1011 64 10000 1.7 13.84 21:59 29.07.2019
4481 Clear 24 1011 57 10000 0.5 310 21:41 29.07.2019
4482 Clear 24 1011 57 10000 0.5 310 21:22 29.07.2019
4483 Clear 25 1011 54 10000 0.5 0 20:55 29.07.2019
4484 Clear 26 1011 50 10000 0.41 221.517 20:36 29.07.2019
4485 Clear 26 1011 50 10000 0.41 221.517 20:18 29.07.2019
4486 Clouds 27 1011 44 10000 2.1 140 19:41 29.07.2019
4487 Clouds 27 1011 44 10000 2.1 140 19:21 29.07.2019
4488 Clouds 28 1011 54 10000 0.5 0 18:43 29.07.2019
4489 Clouds 28 1011 54 10000 0.5 0 18:23 29.07.2019
4490 Clouds 28 1012 51 10000 1.5 0 17:57 29.07.2019
4491 Clouds 28 1012 47 10000 1 0 17:39 29.07.2019
4492 Clouds 28 1012 47 10000 1 0 17:20 29.07.2019
4493 Clear 28 1012 54 10000 3.6 260 16:43 29.07.2019
4494 Clouds 28 1012 54 10000 2.6 20 16:23 29.07.2019
4495 Clear 28 1012 54 10000 3.6 250 15:53 29.07.2019
4496 Clear 28 1012 54 10000 3.6 260 15:35 29.07.2019
4497 Clouds 28 1013 57 10000 2.1 330 14:57 29.07.2019
4498 Clouds 28 1013 57 10000 2.1 330 14:38 29.07.2019
4499 Clouds 28 1012 54 9000 2.1 90 14:20 29.07.2019
4500 Clouds 28 1012 54 9000 2.1 90 14:20 29.07.2019
4501 Clouds 27 1013 57 10000 3.1 50 13:43 29.07.2019
4502 Clouds 27 1013 61 10000 1.5 0 13:23 29.07.2019
4503 Clear 27 1013 61 10000 2.1 40 12:43 29.07.2019
4504 Clear 26 1013 61 10000 2.1 40 12:25 29.07.2019
4505 Clear 26 1013 65 10000 2.6 50 11:45 29.07.2019
4506 Clear 25 1013 65 10000 2.6 50 11:24 29.07.2019
4507 Clear 25 1014 64 10000 1.5 0 10:57 29.07.2019
4508 Clear 25 1014 64 10000 1.5 0 10:57 29.07.2019
4509 Clear 25 1014 64 10000 1.5 0 10:39 29.07.2019
4510 Clear 25 1014 64 10000 2.1 0 10:20 29.07.2019
4511 Clear 23 1014 64 10000 1.5 60 09:40 29.07.2019
4512 Clear 22 1014 64 10000 2.1 70 09:19 29.07.2019
4513 Clear 22 1014 73 10000 1.5 30 08:41 29.07.2019
4514 Clear 21 1014 73 10000 1.5 30 08:20 29.07.2019
4515 Clear 20 1014 72 10000 1.17 54.383 07:45 29.07.2019
4516 Clear 20 1014 72 10000 1 50 07:23 29.07.2019
4517 Clear 18 1014 72 10000 1.42 44.341 05:50 29.07.2019
4518 Clear 19 1013 72 10000 1.42 44.341 04:59 29.07.2019
4519 Clear 20 1013 68 10000 2.1 350 02:28 29.07.2019
4520 Clear 20 1013 73 10000 1.5 360 01:46 29.07.2019
4521 Clear 20 1013 68 10000 1.5 30 01:24 29.07.2019
4522 Clear 20 1013 56 10000 1 0 00:50 29.07.2019
4523 Clear 21 1013 60 10000 2.6 160 00:22 29.07.2019
4524 Rain 21 1013 64 10000 1.5 160 23:41 28.07.2019
4525 Rain 21 1012 60 10000 2.6 180 23:19 28.07.2019
4526 Rain 21 1012 60 10000 2.6 180 23:19 28.07.2019
4527 Rain 21 1012 60 10000 2.1 190 22:41 28.07.2019
4528 Clear 22 1012 53 10000 2.1 180 22:22 28.07.2019
4529 Rain 22 1011 73 0 2.6 10 21:49 28.07.2019
4530 Thunderstorm 23 1012 44 10000 1.5 120 21:19 28.07.2019
4531 Thunderstorm 24 1011 42 10000 3.1 110 20:48 28.07.2019
4532 Rain 25 1011 39 10000 2.6 90 20:29 28.07.2019
4533 Clouds 25 1011 37 10000 3.6 70 19:56 28.07.2019
4534 Clear 24 1011 35 10000 3.6 90 19:38 28.07.2019
4535 Clear 25 1011 35 10000 3.6 90 19:19 28.07.2019
4536 Rain 25 1011 35 10000 4.6 70 18:43 28.07.2019
4537 Clear 28 1012 33 10000 5.1 90 18:24 28.07.2019
4538 Clear 30 1012 35 10000 5.1 90 17:43 28.07.2019
4539 Clear 30 1012 35 10000 5.1 90 17:22 28.07.2019
4540 Clear 30 1012 35 10000 5.1 70 16:58 28.07.2019
4541 Clear 30 1012 35 10000 5.1 70 16:58 28.07.2019
4542 Clear 30 1013 39 10000 4.6 80 16:39 28.07.2019
4543 Clear 30 1013 39 10000 4.6 80 16:21 28.07.2019
4544 Clear 30 1013 42 10000 5.1 60 15:43 28.07.2019
4545 Clear 30 1013 45 10000 4.1 60 15:22 28.07.2019
4546 Clear 29 1014 51 10000 5.1 40 14:38 28.07.2019
4547 Clear 29 1014 47 10000 4.1 60 14:19 28.07.2019
4548 Clear 29 1014 47 10000 4.1 60 13:55 28.07.2019
4549 Clouds 29 1014 50 10000 3.6 80 13:36 28.07.2019
4550 Clouds 28 1014 50 10000 3.6 80 13:18 28.07.2019
4551 Clouds 28 1015 47 10000 3.1 50 12:41 28.07.2019
4552 Clouds 27 1015 47 10000 3.1 50 12:23 28.07.2019
4553 Clouds 27 1015 57 10000 3.6 20 11:48 28.07.2019
4554 Clouds 27 1015 61 10000 3.1 40 11:27 28.07.2019
4555 Clouds 26 1016 60 10000 2.6 50 10:42 28.07.2019
4556 Clear 25 1016 64 10000 2.1 50 10:23 28.07.2019
4557 Clear 24 1016 69 10000 2.6 50 09:57 28.07.2019
4558 Clear 24 1016 69 10000 2.6 50 09:38 28.07.2019
4559 Clear 23 1016 64 10000 3.1 30 09:19 28.07.2019
4560 Clear 22 1016 73 10000 3.6 40 08:41 28.07.2019
4561 Clear 21 1016 73 10000 3.1 30 08:21 28.07.2019
4562 Clear 21 1016 82 10000 1.5 350 07:39 28.07.2019
4563 Clear 19 1017 82 10000 2.1 20 06:47 28.07.2019
4564 Clear 18 1017 82 10000 2.1 20 05:59 28.07.2019
4565 Clear 18 1017 88 10000 1.5 360 04:37 28.07.2019
4566 Clear 19 1017 77 10000 2.1 360 02:24 28.07.2019
4567 Clear 19 1017 77 10000 2.1 360 01:25 28.07.2019
4568 Clear 20 1018 72 10000 1.5 340 00:49 28.07.2019
4569 Clear 20 1018 77 10000 1.5 10 00:24 28.07.2019
4570 Clear 20 1018 73 10000 1.5 350 23:48 27.07.2019
4571 Clear 21 1017 73 10000 2.1 30 23:26 27.07.2019
4572 Clear 22 1017 64 10000 1 360 22:43 27.07.2019
4573 Clouds 22 1017 60 0 1.5 360 22:23 27.07.2019
4574 Clear 23 1017 44 10000 0.5 0 21:45 27.07.2019
4575 Clear 26 1017 44 10000 0.5 0 21:23 27.07.2019
4576 Clear 26 1017 47 10000 1 0 20:55 27.07.2019
4577 Clear 27 1017 42 10000 2.1 100 20:32 27.07.2019
4578 Clear 27 1017 44 10000 1.5 120 19:59 27.07.2019
4579 Clear 28 1017 39 10000 3.6 120 19:39 27.07.2019
4580 Clear 28 1017 39 10000 3.6 120 19:19 27.07.2019
4581 Clear 29 1018 39 10000 3.1 120 18:46 27.07.2019
4582 Clear 29 1018 42 10000 3.1 150 18:28 27.07.2019
4583 Clear 29 1018 39 10000 3.6 120 17:50 27.07.2019
4584 Clear 29 1018 39 10000 3.6 110 17:31 27.07.2019
4585 Clear 29 1018 39 10000 3.6 110 16:54 27.07.2019
4586 Clear 29 1019 39 10000 3.6 90 16:34 27.07.2019
4587 Clear 28 1019 42 10000 3.1 90 15:56 27.07.2019
4588 Clear 28 1019 44 10000 4.6 90 15:28 27.07.2019
4589 Clear 28 1020 42 10000 3.1 0 14:59 27.07.2019
4590 Clear 28 1020 44 10000 4.1 110 14:41 27.07.2019
4591 Clear 28 1020 44 10000 4.1 110 14:21 27.07.2019
4592 Clear 28 1020 44 10000 4.6 100 13:46 27.07.2019
4593 Clear 28 1020 41 10000 5.7 100 13:22 27.07.2019
4594 Clouds 27 1020 44 10000 4.6 110 12:49 27.07.2019
4595 Clouds 26 1020 53 10000 3.1 80 12:26 27.07.2019
4596 Clouds 26 1021 53 10000 4.1 80 11:54 27.07.2019
4597 Clouds 26 1020 53 10000 3.1 70 11:36 27.07.2019
4598 Clear 25 1021 57 10000 2.1 70 11:18 27.07.2019
4599 Clear 25 1021 60 10000 1.5 90 10:40 27.07.2019
4600 Clear 25 1021 60 10000 1.5 90 10:20 27.07.2019
4601 Rain 24 1021 64 10000 2.6 110 09:40 27.07.2019
4602 Clear 23 1021 60 10000 2.6 110 09:22 27.07.2019
4603 Rain 23 1021 64 10000 2.6 100 08:48 27.07.2019
4604 Clear 22 1021 64 10000 1 0 08:29 27.07.2019
4605 Clear 22 1021 68 10000 2.6 0 07:50 27.07.2019
4606 Clear 20 1020 82 10000 2.1 50 07:27 27.07.2019
4607 -273 0 0 0 0 0 06:56 27.07.2019
4608 Clear 20 1020 88 10000 1 350 06:30 27.07.2019
4609 Clear 19 1020 88 10000 1 0 05:49 27.07.2019
4610 Clear 19 1020 88 10000 1 0 05:18 27.07.2019
4611 Clear 19 1020 88 10000 1 360 04:30 27.07.2019
4612 Clear 20 1019 77 10000 1.5 20 02:58 27.07.2019
4613 Clear 21 1019 77 10000 1.09 69.148 02:31 27.07.2019
4614 Clear 21 1019 73 10000 1.09 69.148 01:44 27.07.2019
4615 Clear 22 1019 60 10000 0.72 80.315 00:59 27.07.2019
4616 Clear 23 1019 61 10000 1.5 0 00:32 27.07.2019
4617 Clear 24 1019 57 10000 2.6 60 23:53 26.07.2019
4618 Clear 23 1018 73 10000 1.5 360 23:32 26.07.2019
4619 Clear 22 1018 61 10000 0.94 28.562 22:56 26.07.2019
4620 Clear 23 1018 57 10000 1.5 50 22:38 26.07.2019
4621 Clear 23 1018 57 10000 1.5 50 22:20 26.07.2019
4622 Clear 25 1018 54 10000 2.1 60 21:44 26.07.2019
4623 Clear 26 1018 51 10000 1 330 21:44 26.07.2019
4624 Clear 27 1018 51 10000 1 330 21:19 26.07.2019
4625 Clear 29 1018 45 10000 1 0 20:42 26.07.2019
4626 Clear 29 1018 45 10000 1 0 20:22 26.07.2019
4627 Clear 29 1019 45 10000 1.5 280 19:43 26.07.2019
4628 Clear 30 1019 45 10000 1.5 280 19:24 26.07.2019
4629 Clear 30 1019 42 10000 1.5 270 18:57 26.07.2019
4630 Clear 31 1019 45 10000 1.5 290 18:37 26.07.2019
4631 Clear 31 1019 42 10000 2.6 290 18:19 26.07.2019
4632 Clear 31 1019 42 10000 2.6 290 17:44 26.07.2019
4633 Clear 31 1019 42 10000 2.6 260 17:19 26.07.2019
4634 Clear 31 1020 42 10000 2.6 240 16:57 26.07.2019
4635 Clear 31 1020 40 10000 2.1 270 16:38 26.07.2019
4636 Clear 31 1020 40 10000 2.1 270 16:19 26.07.2019
4637 Clear 31 1020 37 10000 2.1 230 15:55 26.07.2019
4638 Clear 31 1020 39 10000 2.6 230 15:36 26.07.2019
4639 Clear 31 1020 39 10000 2.6 230 15:18 26.07.2019
4640 Clear 30 1020 42 10000 2.1 230 14:42 26.07.2019
4641 Clear 30 1020 39 10000 1 0 14:22 26.07.2019
4642 Clear 29 1021 47 10000 1.5 0 13:40 26.07.2019
4643 Clear 29 1021 47 10000 1.5 0 13:22 26.07.2019
4644 Clear 29 1021 50 10000 1.5 290 12:48 26.07.2019
4645 Clear 28 1021 54 10000 1.5 240 12:20 26.07.2019
4646 Clear 27 1021 54 10000 1 0 11:47 26.07.2019
4647 Clear 26 1021 50 10000 0.5 0 11:22 26.07.2019
4648 Clear 26 1021 53 10000 1 0 10:58 26.07.2019
4649 Clear 25 1022 60 10000 1 0 10:38 26.07.2019
4650 Clear 23 1022 64 10000 1 0 09:59 26.07.2019
4651 Clear 22 1022 64 10000 1 0 09:41 26.07.2019
4652 Clear 21 1022 68 10000 0.49 127.433 09:21 26.07.2019
4653 Clear 20 1022 72 10000 1.5 360 08:40 26.07.2019
4654 Clear 19 1022 72 10000 1.5 360 08:20 26.07.2019
4655 Clear 18 1021 82 10000 1.5 20 07:36 26.07.2019
4656 Clear 17 1021 82 10000 1.5 340 06:58 26.07.2019
4657 Clear 15 1021 82 10000 1 40 05:43 26.07.2019
4658 Clear 16 1021 82 10000 1.5 350 04:30 26.07.2019
4659 Clear 16 1021 87 10000 1.5 340 03:44 26.07.2019
4660 Clear 17 1020 72 10000 0.39 108.714 01:45 26.07.2019
4661 Clear 18 1020 68 10000 1.5 210 00:50 26.07.2019
4662 Clear 19 1020 68 10000 3.6 200 00:25 26.07.2019
4663 Clear 20 1020 56 10000 3.1 190 23:26 25.07.2019
4664 Clear 20 1020 56 10000 3.1 190 23:26 25.07.2019
4665 Clear 19 1020 56 10000 2.1 210 22:59 25.07.2019
4666 Clear 20 1020 50 10000 2.1 230 22:41 25.07.2019
4667 Clear 20 1020 50 10000 2.1 230 22:21 25.07.2019
4668 Clear 22 1020 50 10000 2.1 230 21:47 25.07.2019
4669 Clear 24 1020 50 10000 2.6 220 21:23 25.07.2019
4670 Clear 25 1020 50 10000 3.1 220 20:49 25.07.2019
4671 Clear 25 1020 44 10000 3.6 210 20:30 25.07.2019
4672 Clear 25 1020 44 10000 3.1 220 19:55 25.07.2019
4673 Clear 26 1020 44 10000 3.1 230 19:37 25.07.2019
4674 Clear 27 1020 44 10000 3.1 230 19:19 25.07.2019
4675 Clear 27 1019 45 10000 3.6 230 18:40 25.07.2019
4676 Clear 28 1019 45 10000 3.6 230 18:22 25.07.2019
4677 Clear 28 1019 54 10000 4.6 190 17:48 25.07.2019
4678 Clear 28 1019 54 10000 5.1 190 17:30 25.07.2019
4679 Clear 28 1020 54 10000 4.6 180 16:56 25.07.2019
4680 Clear 28 1020 51 10000 4.6 180 16:37 25.07.2019
4681 Clear 29 1020 51 10000 4.6 180 16:18 25.07.2019
4682 Clear 28 1020 54 10000 4.6 180 15:38 25.07.2019
4683 Clear 28 1020 54 10000 4.6 180 15:19 25.07.2019
4684 Clear 28 1020 54 10000 4.6 170 14:41 25.07.2019
4685 Clear 28 1020 54 10000 4.6 150 14:22 25.07.2019
4686 Clear 27 1020 61 10000 4.1 160 13:44 25.07.2019
4687 Clear 27 1020 61 10000 3.6 170 13:26 25.07.2019
4688 Clear 27 1021 61 10000 1.5 290 12:57 25.07.2019
4689 Clear 26 1020 69 10000 3.1 170 12:28 25.07.2019
4690 Clear 24 1020 68 10000 2.1 190 11:46 25.07.2019
4691 Clear 23 1020 64 10000 2.6 180 11:25 25.07.2019
4692 Clear 23 1020 68 10000 2.1 0 10:55 25.07.2019
4693 Clear 23 1020 68 10000 2.1 0 10:55 25.07.2019
4694 Clear 23 1020 72 10000 2.6 150 10:36 25.07.2019
4695 Clear 22 1020 72 10000 2.6 150 10:18 25.07.2019
4696 Clear 20 1020 68 10000 2.6 130 09:40 25.07.2019
4697 Clear 19 1020 77 10000 2.1 160 09:18 25.07.2019
4698 Clear 18 1020 82 10000 0.5 0 08:42 25.07.2019
4699 Clear 17 1020 82 10000 0.98 157.808 07:56 25.07.2019
4700 Clear 16 1020 87 10000 0.98 157.808 07:34 25.07.2019
4701 Fog 15 1019 87 10000 1 30 06:43 25.07.2019
4702 Fog 14 1019 93 10000 0.5 0 05:37 25.07.2019
4703 Fog 14 1019 93 10000 0.5 0 05:18 25.07.2019
4704 Clouds 14 1020 100 0 0.5 0 04:36 25.07.2019
4705 Fog 16 1019 77 10000 0.93 128.804 01:45 25.07.2019
4706 Fog 16 1020 93 0 2.6 190 01:18 25.07.2019
4707 Fog 17 1019 72 10000 1.29 136.943 00:20 25.07.2019
4708 Mist 18 1019 72 10000 1 0 23:46 24.07.2019
4709 Clear 19 1019 68 10000 2.1 210 23:27 24.07.2019
4710 Clear 18 1019 64 10000 2.1 210 22:55 24.07.2019
4711 Clear 19 1019 64 10000 1.5 210 22:36 24.07.2019
4712 Clear 19 1019 64 10000 1.5 210 22:18 24.07.2019
4713 Clear 20 1018 60 10000 3.1 190 21:42 24.07.2019
4714 Clear 22 1018 56 10000 5.1 200 21:21 24.07.2019
4715 Clear 23 1018 56 10000 5.1 200 21:21 24.07.2019
4716 Clear 24 1018 57 10000 4.6 220 20:55 24.07.2019
4717 Clear 24 1018 53 10000 4.1 220 20:37 24.07.2019
4718 Clear 24 1018 53 10000 4.1 220 20:19 24.07.2019
4719 Clear 24 1018 53 10000 4.6 210 19:42 24.07.2019
4720 Clear 25 1018 50 10000 4.6 200 19:22 24.07.2019
4721 Clear 26 1018 47 10000 3.6 220 18:45 24.07.2019
4722 Clear 26 1018 50 10000 4.6 230 18:25 24.07.2019
4723 Clear 26 1018 54 10000 4.6 200 17:56 24.07.2019
4724 Clear 26 1018 57 10000 3.6 230 17:37 24.07.2019
4725 Clear 26 1018 57 10000 3.6 230 17:18 24.07.2019
4726 Clear 27 1018 54 10000 4.6 220 16:40 24.07.2019
4727 Clear 27 1018 54 10000 4.6 220 16:21 24.07.2019
4728 Clear 26 1018 57 10000 6.2 180 15:39 24.07.2019
4729 Clear 26 1018 57 10000 6.2 180 15:21 24.07.2019
4730 Clear 26 1019 61 10000 6.2 190 14:47 24.07.2019
4731 Clouds 26 1019 61 10000 5.1 190 14:23 24.07.2019
4732 Clouds 26 1019 61 10000 5.1 180 13:58 24.07.2019
4733 Clouds 25 1019 69 10000 4.6 170 13:36 24.07.2019
4734 Clouds 25 1019 69 10000 4.6 170 13:18 24.07.2019
4735 Clear 24 1019 78 10000 3.1 170 12:46 24.07.2019
4736 Clouds 22 1019 83 10000 3.1 150 12:23 24.07.2019
4737 Clouds 21 1019 88 9000 2.6 180 11:37 24.07.2019
4738 Clouds 21 1019 88 9000 2.6 180 11:19 24.07.2019
4739 Fog 21 1019 93 9000 2.6 180 10:43 24.07.2019
4740 Fog 20 1019 93 9000 2.1 150 10:24 24.07.2019
4741 Fog 19 1019 93 1900 1.5 120 09:44 24.07.2019
4742 Fog 18 1019 93 1900 1.5 120 09:24 24.07.2019
4743 Fog 18 1018 93 600 0.5 0 08:54 24.07.2019
4744 Fog 17 1018 100 450 1.12 143.294 08:27 24.07.2019
4745 Fog 17 1018 100 400 1.12 143.294 07:51 24.07.2019
4746 Fog 17 1018 100 600 1.5 160 07:23 24.07.2019
4747 Fog 17 1018 93 1000 0.57 96.362 06:28 24.07.2019
4748 Fog 17 1018 93 1000 0.57 96.362 06:28 24.07.2019
4749 Fog 17 1018 93 10000 0.57 96.362 05:26 24.07.2019
4750 Clear 17 1018 82 10000 2.6 190 01:58 24.07.2019
4751 Clear 17 1018 93 0 2.1 140 01:28 24.07.2019
4752 Clear 17 1018 93 0 1.5 150 00:54 24.07.2019
4753 Clear 18 1017 82 10000 2.1 200 00:22 24.07.2019
4754 Clear 19 1017 77 10000 2.6 200 23:41 23.07.2019
4755 Clear 19 1017 77 10000 2.6 200 23:22 23.07.2019
4756 Clear 20 1017 73 10000 4.1 200 22:39 23.07.2019
4757 Clear 20 1017 73 10000 4.1 200 22:19 23.07.2019
4758 Clear 21 1017 64 10000 4.1 210 21:57 23.07.2019
4759 Clear 23 1016 60 10000 4.1 200 21:39 23.07.2019
4760 Clear 23 1016 60 10000 4.1 200 21:21 23.07.2019
4761 Clear 24 1016 57 10000 4.1 200 20:44 23.07.2019
4762 Clear 25 1016 57 10000 4.1 200 20:21 23.07.2019
4763 Clouds 25 1016 57 10000 3.6 190 19:41 23.07.2019
4764 Clouds 25 1016 57 10000 3.6 180 19:19 23.07.2019
4765 Clouds 25 1016 57 10000 3.1 190 18:47 23.07.2019
4766 Clouds 25 1016 57 10000 3.1 190 18:23 23.07.2019
4767 Clouds 26 1016 61 10000 3.1 190 17:45 23.07.2019
4768 Clouds 26 1016 60 10000 3.1 200 17:25 23.07.2019
4769 Clouds 26 1016 60 10000 3.6 200 16:57 23.07.2019
4770 Clouds 26 1016 60 10000 3.1 190 16:39 23.07.2019
4771 Clouds 26 1016 60 10000 3.1 190 16:18 23.07.2019
4772 Clouds 26 1016 60 10000 3.1 0 15:43 23.07.2019
4773 Clear 25 1017 60 10000 2.1 110 15:23 23.07.2019
4774 Clouds 25 1017 64 10000 2.1 260 14:39 23.07.2019
4775 Clouds 25 1016 68 10000 2.1 170 14:20 23.07.2019
4776 Clouds 24 1016 68 10000 1 0 13:57 23.07.2019
4777 Clouds 24 1016 64 10000 2.1 0 13:38 23.07.2019
4778 Clouds 24 1016 64 10000 2.1 0 13:20 23.07.2019
4779 Clouds 23 1016 72 10000 2.6 180 12:45 23.07.2019
4780 Clouds 22 1016 72 10000 1.5 160 12:25 23.07.2019
4781 Clouds 21 1016 77 10000 2.1 160 11:46 23.07.2019
4782 Clouds 21 1016 77 10000 2.1 160 11:27 23.07.2019
4783 Clouds 20 1015 82 10000 1.5 0 10:54 23.07.2019
4784 Clouds 19 1015 82 10000 0.5 0 10:36 23.07.2019
4785 Clouds 19 1015 82 10000 0.5 0 10:18 23.07.2019
4786 Clouds 18 1015 87 10000 0.6 124.43 09:40 23.07.2019
4787 Clouds 17 1015 87 10000 0.35 38.584 09:18 23.07.2019
4788 Clouds 16 1014 93 10000 1 0 08:40 23.07.2019
4789 Clouds 16 1014 100 10000 1 0 08:19 23.07.2019
4790 Clouds 16 1014 93 8000 1 0 07:51 23.07.2019
4791 Mist 16 1014 93 5000 1.5 190 07:33 23.07.2019
4792 Drizzle 15 1013 100 2000 2.1 160 06:38 23.07.2019
4793 Rain 15 1014 93 2300 2.1 140 06:38 23.07.2019
4794 Rain 15 1013 100 3000 2.1 170 05:51 23.07.2019
4795 Rain 15 1014 100 9000 3.1 150 01:58 23.07.2019
4796 Rain 15 1014 100 8000 3.6 150 01:27 23.07.2019
4797 Drizzle 15 1013 100 5000 3.6 150 00:30 23.07.2019
4798 Rain 15 1014 93 9000 3.6 150 23:41 22.07.2019
4799 Rain 15 1014 100 6000 3.6 150 23:21 22.07.2019
4800 Rain 15 1014 93 8000 5.1 170 22:58 22.07.2019
4801 Rain 15 1014 93 8000 4.1 170 22:40 22.07.2019
4802 Rain 15 1014 93 8000 4.1 170 22:20 22.07.2019
4803 Rain 15 1014 93 8000 4.1 170 22:20 22.07.2019
4804 Rain 15 1014 87 10000 4.1 180 21:42 22.07.2019
4805 Rain 15 1014 87 10000 5.7 190 21:21 22.07.2019
4806 Rain 15 1014 87 10000 5.1 200 20:48 22.07.2019
4807 Drizzle 15 1013 77 10000 5.7 200 20:29 22.07.2019
4808 Drizzle 16 1013 72 10000 6.7 200 19:54 22.07.2019
4809 Drizzle 16 1013 72 10000 6.7 200 19:36 22.07.2019
4810 Drizzle 16 1013 72 10000 6.7 200 19:18 22.07.2019
4811 Clouds 16 1013 68 10000 7.2 200 18:40 22.07.2019
4812 Clouds 17 1013 63 10000 6.7 190 18:22 22.07.2019
4813 Clouds 18 1013 56 10000 6.7 200 17:42 22.07.2019
4814 Clouds 19 1013 56 10000 6.7 200 17:23 22.07.2019
4815 Clouds 19 1013 49 10000 5.1 220 16:42 22.07.2019
4816 Clouds 19 1013 49 10000 5.1 220 16:21 22.07.2019
4817 Clouds 20 1013 49 10000 5.7 200 15:59 22.07.2019
4818 Clouds 20 1013 52 10000 5.7 210 15:37 22.07.2019
4819 Clouds 20 1013 52 10000 5.7 210 15:18 22.07.2019
4820 Clouds 20 1013 52 10000 5.7 220 14:43 22.07.2019
4821 Clouds 20 1013 52 10000 5.1 200 14:20 22.07.2019
4822 Clouds 20 1013 49 10000 5.7 180 13:47 22.07.2019
4823 Clouds 20 1013 56 10000 6.2 170 13:28 22.07.2019
4824 Clouds 20 1013 59 10000 5.7 180 12:46 22.07.2019
4825 Clouds 20 1013 68 10000 5.1 180 12:27 22.07.2019
4826 Clouds 19 1013 77 10000 2.1 180 11:45 22.07.2019
4827 Clouds 19 1013 77 10000 2.1 180 11:25 22.07.2019
4828 Clouds 19 1013 72 10000 1.5 160 10:53 22.07.2019
4829 Clouds 19 1013 72 10000 0.5 0 10:30 22.07.2019
4830 Clouds 17 1013 77 10000 0.5 0 09:45 22.07.2019
4831 Clear 16 1013 77 10000 2.1 310 09:25 22.07.2019
4832 Clouds 16 1013 82 10000 2.6 300 08:47 22.07.2019
4833 Clouds 14 1013 87 10000 0.83 342.457 08:26 22.07.2019
4834 Clouds 14 1013 87 10000 1 0 07:59 22.07.2019
4835 Clouds 14 1013 87 10000 1 0 07:40 22.07.2019
4836 Clear 13 1012 93 10000 1 0 07:21 22.07.2019
4837 Clouds 13 1012 93 10000 1.21 319.716 03:59 22.07.2019
4838 Clouds 14 1012 93 10000 1 230 02:45 22.07.2019
4839 Clouds 15 1011 93 10000 1 220 00:58 22.07.2019
4840 Clouds 15 1011 93 10000 1 230 00:38 22.07.2019
4841 Clouds 15 1011 93 10000 1 230 00:18 22.07.2019
4842 Clouds 16 1011 93 10000 2.1 230 23:42 21.07.2019
4843 Clouds 16 1011 93 10000 3.1 210 22:56 21.07.2019
4844 Rain 16 1010 100 10000 2.1 200 22:37 21.07.2019
4845 Rain 16 1010 100 10000 2.1 200 22:19 21.07.2019
4846 Rain 16 1010 93 10000 2.6 200 21:47 21.07.2019
4847 Rain 16 1010 93 10000 1.5 160 21:25 21.07.2019
4848 Rain 17 1010 93 6000 2.1 150 20:56 21.07.2019
4849 Rain 17 1010 87 10000 3.1 160 20:38 21.07.2019
4850 Rain 17 1010 87 10000 3.1 160 20:19 21.07.2019
4851 Rain 17 1010 93 10000 4.1 170 19:47 21.07.2019
4852 Rain 17 1009 93 10000 4.6 170 19:26 21.07.2019
4853 Rain 17 1009 87 10000 5.1 180 18:48 21.07.2019
4854 Rain 17 1009 82 10000 6.2 190 18:26 21.07.2019
4855 Rain 18 1009 88 10000 4.1 190 17:44 21.07.2019
4856 Rain 18 1009 88 10000 4.1 190 17:21 21.07.2019
4857 Rain 18 1009 88 10000 4.1 180 16:59 21.07.2019
4858 Rain 18 1009 88 10000 4.1 180 16:40 21.07.2019
4859 Rain 18 1009 82 10000 4.6 170 16:20 21.07.2019
4860 Rain 18 1009 88 10000 4.6 160 15:39 21.07.2019
4861 Rain 18 1009 88 10000 4.6 160 15:19 21.07.2019
4862 Rain 18 1009 88 10000 4.6 140 14:42 21.07.2019
4863 Rain 18 1009 93 10000 4.1 130 14:23 21.07.2019
4864 Rain 18 1009 87 10000 3.1 130 13:53 21.07.2019
4865 Rain 17 1009 93 10000 3.6 140 13:32 21.07.2019
4866 Drizzle 17 1009 93 7000 3.6 130 12:46 21.07.2019
4867 Rain 17 1009 93 6000 4.1 140 12:28 21.07.2019
4868 Rain 16 1009 93 10000 4.1 130 11:55 21.07.2019
4869 Clouds 16 1009 93 9000 3.6 130 11:37 21.07.2019
4870 Clouds 16 1009 93 9000 3.6 130 11:18 21.07.2019
4871 Rain 16 1008 93 8000 5.7 130 10:41 21.07.2019
4872 Rain 16 1008 87 6000 3.6 110 10:22 21.07.2019
4873 Rain 15 1008 93 3500 3.6 100 09:42 21.07.2019
4874 Rain 15 1008 93 3500 1.5 60 09:24 21.07.2019
4875 Rain 15 1008 93 5000 2.1 70 08:45 21.07.2019
4876 Rain 15 1009 93 6000 1.5 60 08:45 21.07.2019
4877 Rain 15 1009 93 6000 1.5 60 08:26 21.07.2019
4878 Rain 15 1009 93 7000 1.24 98.464 07:38 21.07.2019
4879 Rain 15 1009 93 4200 1.24 98.464 06:52 21.07.2019
4880 Rain 15 1009 87 10000 1.5 30 05:43 21.07.2019
4881 Drizzle 15 1010 87 10000 1.5 30 02:53 21.07.2019
4882 Clear 16 1011 82 10000 1 360 01:19 21.07.2019
4883 Clear 15 1011 82 10000 1 350 00:41 21.07.2019
4884 Clouds 15 1011 87 10000 0.73 77.046 00:18 21.07.2019
4885 Clear 16 1011 82 10000 1 0 23:41 20.07.2019
4886 Clear 16 1012 82 10000 0.73 77.046 23:21 20.07.2019
4887 Clear 16 1012 77 10000 0.5 0 22:45 20.07.2019
4888 Clear 16 1012 82 10000 1.5 20 22:22 20.07.2019
4889 Clear 17 1012 77 10000 1.5 30 21:56 20.07.2019
4890 Clear 17 1012 67 10000 0.73 77.046 21:37 20.07.2019
4891 Clear 17 1012 67 10000 1.03 47.647 21:18 20.07.2019
4892 Clear 17 1012 67 10000 1.5 250 20:40 20.07.2019
4893 Rain 17 1012 72 10000 1.5 240 20:18 20.07.2019
4894 Rain 17 1012 63 10000 1.5 230 19:45 20.07.2019
4895 Clear 17 1012 59 10000 2.6 230 19:20 20.07.2019
4896 Drizzle 18 1012 59 10000 4.1 220 18:42 20.07.2019
4897 Drizzle 19 1012 59 10000 4.1 220 18:20 20.07.2019
4898 Rain 19 1012 52 10000 5.7 180 17:53 20.07.2019
4899 Clear 20 1012 52 10000 5.7 190 17:23 20.07.2019
4900 Clear 20 1012 60 10000 6.2 190 16:44 20.07.2019
4901 Clear 20 1012 56 10000 6.2 190 16:26 20.07.2019
4902 Clouds 20 1012 52 10000 5.7 170 15:58 20.07.2019
4903 Clouds 20 1012 49 10000 4.6 190 15:38 20.07.2019
4904 Clouds 20 1012 49 10000 4.6 190 15:20 20.07.2019
4905 Clouds 20 1013 56 10000 5.1 190 14:47 20.07.2019
4906 Clouds 21 1013 52 10000 5.1 160 14:24 20.07.2019
4907 Clouds 21 1014 63 10000 5.1 210 13:39 20.07.2019
4908 Clouds 20 1013 63 10000 3.6 180 13:20 20.07.2019
4909 Clouds 20 1013 63 10000 3.6 180 13:20 20.07.2019
4910 Clouds 20 1013 68 10000 3.1 170 12:54 20.07.2019
4911 Clouds 20 1013 68 10000 4.6 170 12:24 20.07.2019
4912 Clouds 20 1013 68 10000 3.1 150 11:57 20.07.2019
4913 Clouds 19 1013 72 10000 3.6 180 11:24 20.07.2019
4914 Clouds 19 1013 77 10000 3.6 180 10:55 20.07.2019
4915 Clouds 19 1013 77 10000 3.6 170 10:36 20.07.2019
4916 Clouds 18 1013 77 10000 3.6 170 10:18 20.07.2019
4917 Clouds 18 1013 77 10000 3.6 170 10:18 20.07.2019
4918 Clouds 18 1013 77 10000 2.6 180 09:45 20.07.2019
4919 Clouds 17 1013 87 10000 3.6 180 09:22 20.07.2019
4920 Clouds 16 1013 93 10000 3.1 160 08:45 20.07.2019
4921 Clouds 16 1013 93 10000 2.1 180 08:20 20.07.2019
4922 Clouds 15 1012 93 10000 1.5 140 07:21 20.07.2019
4923 Clouds 14 1012 87 10000 1.5 100 06:41 20.07.2019
4924 Clouds 14 1012 93 10000 1.5 130 04:31 20.07.2019
4925 Clouds 14 1012 93 10000 1 120 03:40 20.07.2019
4926 Clouds 15 1012 93 10000 1 0 01:21 20.07.2019
4927 Clouds 15 1012 93 10000 1 0 00:47 20.07.2019
4928 Clouds 16 1012 93 10000 1 0 00:21 20.07.2019
4929 Rain 16 1012 93 10000 1 0 23:45 19.07.2019
4930 Rain 16 1012 93 10000 1.25 134.968 23:26 19.07.2019
4931 Clouds 16 1012 93 10000 1.25 134.968 22:50 19.07.2019
4932 Clouds 16 1012 87 10000 1.25 134.968 22:26 19.07.2019
4933 Rain 16 1012 87 10000 1.25 134.968 21:53 19.07.2019
4934 Rain 16 1012 87 10000 1.5 110 21:34 19.07.2019
4935 Rain 17 1012 87 10000 1 0 20:59 19.07.2019
4936 Clouds 17 1012 87 10000 1.5 110 20:40 19.07.2019
4937 Clouds 17 1012 87 10000 1.5 110 20:22 19.07.2019
4938 Clouds 17 1012 87 10000 2.6 100 19:35 19.07.2019
4939 Rain 18 1012 87 10000 2.6 190 18:47 19.07.2019
4940 Rain 18 1012 87 10000 2.6 190 18:25 19.07.2019
4941 Rain 18 1012 87 8000 4.6 170 17:57 19.07.2019
4942 Rain 18 1012 82 10000 2.1 0 17:32 19.07.2019
4943 Clouds 18 1011 77 10000 1.5 140 16:59 19.07.2019
4944 Rain 18 1012 82 10000 2.1 120 16:40 19.07.2019
4945 Clouds 18 1012 88 10000 4.6 180 16:18 19.07.2019
4946 Rain 18 1012 87 10000 1 0 15:47 19.07.2019
4947 Rain 18 1012 87 10000 2.6 140 15:29 19.07.2019
4948 Thunderstorm 17 1011 87 10000 8.2 240 14:47 19.07.2019
4949 Thunderstorm 17 1011 87 10000 8.2 240 14:27 19.07.2019
4950 Rain 18 1011 72 10000 1.5 190 13:58 19.07.2019
4951 Rain 18 1011 77 10000 1 0 13:39 19.07.2019
4952 Rain 18 1011 77 10000 1 0 13:20 19.07.2019
4953 Rain 18 1011 87 10000 1.5 320 12:45 19.07.2019
4954 Rain 17 1011 87 10000 1.5 290 12:26 19.07.2019
4955 Rain 18 1011 82 10000 2.1 270 11:46 19.07.2019
4956 Rain 17 1011 72 10000 2.1 240 11:19 19.07.2019
4957 Rain 18 1011 67 10000 1 0 10:56 19.07.2019
4958 Clear 18 1011 77 10000 1 0 10:37 19.07.2019
4959 Clear 17 1011 77 10000 1 0 10:18 19.07.2019
4960 Clouds 17 1011 77 10000 1.55 126.973 09:43 19.07.2019
4961 Clouds 16 1011 87 10000 0.5 0 09:22 19.07.2019
4962 Clouds 15 1011 87 10000 0.5 0 08:50 19.07.2019
4963 Rain 15 1011 87 10000 0.87 103.715 08:27 19.07.2019
4964 Rain 14 1011 93 10000 1 360 07:32 19.07.2019
4965 Rain 14 1011 87 10000 0.87 103.715 06:33 19.07.2019
4966 Clear 12 1011 87 10000 0.5 20 02:58 19.07.2019
4967 Clear 13 1011 82 10000 1 210 01:42 19.07.2019
4968 Clear 13 1011 82 10000 1.35 137.427 00:47 19.07.2019
4969 Clear 13 1011 76 10000 2.6 200 23:59 18.07.2019
4970 Clear 14 1011 76 10000 3.6 210 23:40 18.07.2019
4971 Clear 14 1011 76 10000 3.6 210 23:22 18.07.2019
4972 Clear 15 1010 67 10000 4.6 190 22:44 18.07.2019
4973 Clear 15 1010 67 10000 4.6 190 22:20 18.07.2019
4974 Clear 16 1010 63 10000 4.1 200 21:56 18.07.2019
4975 Clear 16 1010 63 10000 1 0 21:37 18.07.2019
4976 Rain 17 1010 59 10000 1.5 240 21:18 18.07.2019
4977 Rain 18 1010 52 10000 4.6 210 20:42 18.07.2019
4978 Rain 18 1010 52 10000 4.6 210 20:23 18.07.2019
4979 Clouds 19 1011 49 10000 6.2 200 19:47 18.07.2019
4980 Clouds 19 1011 49 10000 6.2 200 19:27 18.07.2019
4981 Clouds 19 1011 49 10000 6.2 200 18:50 18.07.2019
4982 Clouds 20 1011 52 10000 5.1 210 18:22 18.07.2019
4983 Clouds 20 1011 52 10000 4.6 200 17:56 18.07.2019
4984 Clouds 20 1011 56 10000 6.2 210 17:37 18.07.2019
4985 Clouds 20 1011 56 10000 6.2 210 17:19 18.07.2019
4986 Clouds 20 1011 59 10000 5.7 220 16:49 18.07.2019
4987 Clouds 19 1011 63 10000 6.2 200 16:25 18.07.2019
4988 Clouds 19 1011 55 10000 7.7 200 15:55 18.07.2019
4989 Clouds 19 1011 59 10000 6.7 190 15:36 18.07.2019
4990 Clouds 19 1011 63 10000 6.2 170 14:56 18.07.2019
4991 Clouds 19 1011 63 10000 6.2 180 14:37 18.07.2019
4992 Clouds 19 1011 63 10000 6.2 180 14:37 18.07.2019
4993 Clouds 18 1011 59 10000 6.7 190 13:59 18.07.2019
4994 Clouds 18 1013 77 10000 5.7 180 13:37 18.07.2019
4995 Clouds 18 1011 67 10000 6.7 180 13:18 18.07.2019
4996 Clouds 18 1012 77 10000 6.2 190 12:44 18.07.2019
4997 Clouds 18 1011 67 10000 5.7 180 12:20 18.07.2019
4998 Clouds 17 1011 72 10000 7.2 180 11:50 18.07.2019
4999 Clouds 17 1011 72 10000 6.7 170 11:32 18.07.2019
5000 Clouds 17 1011 72 10000 5.7 180 10:52 18.07.2019
5001 Clouds 16 1011 72 10000 6.7 170 10:23 18.07.2019
5002 Clouds 16 1011 67 10000 5.1 180 09:44 18.07.2019
5003 Clouds 16 1011 82 10000 4.1 170 09:23 18.07.2019
5004 Clouds 16 1011 77 10000 4.1 170 08:46 18.07.2019
5005 Clouds 15 1011 82 10000 3.6 170 08:19 18.07.2019
5006 Clouds 15 1011 82 10000 3.6 180 07:37 18.07.2019
5007 Clouds 15 1011 82 10000 3.6 180 07:19 18.07.2019
5008 Clouds 14 1011 82 0 4.1 190 06:35 18.07.2019
5009 Clear 13 1010 87 10000 2.6 180 04:21 18.07.2019
5010 Clear 13 1011 76 10000 3.1 180 02:52 18.07.2019
5011 Clear 14 1010 71 10000 3.6 180 01:38 18.07.2019
5012 Clear 15 1010 62 10000 4.1 180 00:28 18.07.2019
5013 Clear 15 1010 55 10000 4.6 180 23:49 17.07.2019
5014 Clear 15 1010 55 10000 4.6 180 23:19 17.07.2019
5015 Clouds 15 1011 87 0 4.1 170 22:44 17.07.2019
5016 Clouds 15 1011 87 0 4.1 170 22:23 17.07.2019
5017 Clouds 16 1011 82 0 5.1 180 21:59 17.07.2019
5018 Clear 17 1010 39 10000 6.7 180 21:40 17.07.2019
5019 Clear 17 1010 39 10000 6.7 180 21:21 17.07.2019
5020 Clear 18 1010 42 10000 6.7 180 20:58 17.07.2019
5021 Clear 18 1010 45 10000 7.7 180 20:39 17.07.2019
5022 Clear 19 1012 72 10000 6.2 190 20:20 17.07.2019
5023 Clear 20 1010 42 10000 7.7 180 19:43 17.07.2019
5024 Clear 20 1010 42 10000 7.7 180 19:22 17.07.2019
5025 Clear 21 1010 37 10000 6.7 200 18:56 17.07.2019
5026 Clear 21 1012 68 10000 6.2 190 18:38 17.07.2019
5027 Clear 22 1012 60 10000 6.7 180 18:18 17.07.2019
5028 Clear 22 1012 60 10000 6.7 180 17:43 17.07.2019
5029 Clear 22 1010 40 10000 8.2 200 17:23 17.07.2019
5030 Clear 23 1010 40 10000 6.7 210 16:42 17.07.2019
5031 Clear 23 1011 40 10000 6.2 210 16:22 17.07.2019
5032 Clear 23 1011 43 10000 6.2 200 15:51 17.07.2019
5033 Clear 23 1011 43 10000 6.2 200 15:32 17.07.2019
5034 Clear 22 1011 43 10000 7.2 200 14:58 17.07.2019
5035 Clear 23 1011 38 10000 6.2 200 14:40 17.07.2019
5036 Clear 22 1011 43 10000 5.7 200 14:21 17.07.2019
5037 Clear 23 1011 40 10000 6.7 180 13:57 17.07.2019
5038 Clear 23 1011 40 10000 6.7 180 13:36 17.07.2019
5039 Clear 22 1011 46 10000 5.7 160 13:18 17.07.2019
5040 Clear 22 1012 46 10000 6.2 200 12:39 17.07.2019
5041 Clear 22 1012 49 10000 6.2 180 12:19 17.07.2019
5042 Clear 21 1012 55 10000 5.1 170 11:44 17.07.2019
5043 Clear 20 1012 55 10000 4.6 180 11:20 17.07.2019
5044 Clear 20 1012 63 10000 4.1 190 10:50 17.07.2019
5045 Clear 20 1012 63 10000 4.1 190 10:25 17.07.2019
5046 Clear 18 1012 63 10000 2.1 150 09:46 17.07.2019
5047 Clear 18 1012 63 10000 2.1 150 09:28 17.07.2019
5048 Clear 17 1012 67 10000 1 0 08:58 17.07.2019
5049 Clear 16 1013 71 10000 1.56 158.702 08:39 17.07.2019
5050 Clouds 16 1013 77 0 1.5 150 08:21 17.07.2019
5051 Clear 14 1013 81 10000 1.56 158.702 07:41 17.07.2019
5052 Clear 13 1013 81 10000 1.56 158.702 07:22 17.07.2019
5053 Clear 13 1013 81 10000 1.56 158.702 07:22 17.07.2019
5054 Clear 13 1013 87 10000 1.56 158.702 06:46 17.07.2019
5055 Clear 13 1013 87 10000 1.56 158.702 06:46 17.07.2019
5056 Clear 12 1013 87 10000 0.65 98.353 06:28 17.07.2019
5057 Clouds 11 1013 87 0 0.5 0 05:42 17.07.2019
5058 Clear 11 1013 81 10000 0.65 98.353 05:20 17.07.2019
5059 Clear 11 1013 81 10000 0.65 98.353 04:29 17.07.2019
5060 Clear 11 1013 81 10000 0.81 107.896 02:47 17.07.2019
5061 Clear 11 1013 76 10000 1.5 340 01:58 17.07.2019
5062 Clear 12 1013 76 10000 1.5 340 01:24 17.07.2019
5063 Clear 12 1013 76 10000 0.74 105.753 00:43 17.07.2019
5064 Clear 12 1013 76 10000 0.56 111.744 00:23 17.07.2019
5065 Clear 14 1013 67 10000 0.56 111.744 23:49 16.07.2019
5066 Clear 14 1013 67 10000 0.56 111.744 23:28 16.07.2019
5067 Clear 15 1013 48 10000 0.5 0 22:57 16.07.2019
5068 Clear 15 1013 48 10000 0.5 0 22:39 16.07.2019
5069 Clear 16 1013 48 10000 0.56 111.744 22:19 16.07.2019
5070 Clear 19 1012 42 10000 1.5 0 21:43 16.07.2019
5071 Clear 19 1012 45 10000 4.1 350 21:20 16.07.2019
5072 Clear 20 1012 45 10000 4.1 350 20:56 16.07.2019
5073 Clear 20 1012 45 10000 4.1 350 20:38 16.07.2019
5074 Clear 21 1012 43 10000 3.1 30 20:19 16.07.2019
5075 Clear 21 1012 40 10000 3.6 50 19:44 16.07.2019
5076 Clear 21 1012 40 10000 3.6 50 19:26 16.07.2019
5077 Clear 22 1012 40 10000 3.6 340 18:45 16.07.2019
5078 Clear 22 1012 40 10000 4.1 20 18:21 16.07.2019
5079 Clear 21 1012 45 10000 4.6 10 17:58 16.07.2019
5080 Clear 22 1012 45 10000 4.6 10 17:38 16.07.2019
5081 Clear 22 1012 40 10000 5.7 30 17:20 16.07.2019
5082 Clear 22 1012 40 10000 5.7 20 16:40 16.07.2019
5083 Clear 21 1012 42 10000 5.1 20 16:19 16.07.2019
5084 Clouds 21 1012 45 10000 5.7 30 15:41 16.07.2019
5085 Clouds 21 1012 42 10000 5.7 350 15:21 16.07.2019
5086 Clouds 21 1012 42 10000 5.7 350 14:58 16.07.2019
5087 Clouds 21 1012 45 10000 5.7 10 14:39 16.07.2019
5088 Clouds 20 1012 45 10000 5.7 10 14:20 16.07.2019
5089 Clouds 20 1012 45 10000 6.7 360 13:45 16.07.2019
5090 Clouds 20 1012 45 10000 6.7 360 13:24 16.07.2019
5091 Clouds 19 1012 48 10000 7.2 360 12:45 16.07.2019
5092 Clouds 18 1012 48 10000 7.2 360 12:21 16.07.2019
5093 Clouds 18 1012 48 10000 7.2 360 11:58 16.07.2019
5094 Clouds 17 1012 51 10000 7.2 350 11:40 16.07.2019
5095 Clouds 17 1012 51 10000 7.2 350 11:40 16.07.2019
5096 Clouds 18 1012 51 10000 7.2 350 11:22 16.07.2019
5097 Clear 17 1012 54 10000 8.2 360 10:47 16.07.2019
5098 Clear 16 1012 54 10000 8.2 360 10:22 16.07.2019
5099 Clear 16 1012 54 10000 8.2 360 09:58 16.07.2019
5100 Clear 15 1012 54 10000 7.2 360 09:40 16.07.2019
5101 Clear 14 1012 58 10000 7.2 360 09:19 16.07.2019
5102 Clear 13 1012 62 10000 7.2 360 08:42 16.07.2019
5103 Clear 13 1012 66 10000 6.7 360 08:20 16.07.2019
5104 Clear 12 1012 66 10000 5.1 340 07:42 16.07.2019
5105 Clear 12 1012 66 10000 5.1 340 07:24 16.07.2019
5106 Clouds 11 1012 71 10000 6.2 350 06:47 16.07.2019
5107 Clouds 11 1012 71 10000 6.2 350 06:26 16.07.2019
5108 Clouds 11 1012 93 10000 3.1 350 05:36 16.07.2019
5109 Clouds 11 1012 93 10000 3.1 350 05:18 16.07.2019
5110 Clouds 11 1012 100 0 1 0 03:54 16.07.2019
5111 Rain 11 1012 93 0 1.5 340 03:20 16.07.2019
5112 Clear 12 1011 87 10000 1 0 02:30 16.07.2019
5113 Rain 12 1011 93 0 1.5 150 01:44 16.07.2019
5114 Rain 12 1011 87 10000 1 0 00:47 16.07.2019
5115 Rain 13 1011 87 0 1.5 70 00:20 16.07.2019
5116 Rain 13 1011 87 10000 0.5 0 23:47 15.07.2019
5117 Rain 13 1011 87 10000 3.1 10 23:29 15.07.2019
5118 Rain 14 1011 76 8000 5.1 360 22:48 15.07.2019
5119 Rain 14 988 76 0 0.45 90 22:22 15.07.2019
5120 Rain 15 1011 63 0 2.1 240 21:59 15.07.2019
5121 Clear 16 1010 48 10000 1 0 21:40 15.07.2019
5122 Rain 17 1010 45 10000 2.1 30 21:20 15.07.2019
5123 Rain 18 1010 45 10000 2.1 30 20:56 15.07.2019
5124 Rain 18 1010 45 10000 2.1 30 20:38 15.07.2019
5125 Rain 18 1010 48 10000 2.1 100 20:19 15.07.2019
5126 Clear 20 1010 42 10000 2.6 20 19:40 15.07.2019
5127 Clear 20 1010 42 10000 2.6 20 19:20 15.07.2019
5128 Clear 21 1010 39 10000 3.1 40 18:55 15.07.2019
5129 Clear 21 1010 42 10000 3.6 30 18:36 15.07.2019
5130 Clear 22 1011 40 10000 2.6 20 18:18 15.07.2019
5131 Clear 22 1010 40 10000 4.1 30 17:42 15.07.2019
5132 Clear 21 1010 40 10000 4.1 30 17:23 15.07.2019
5133 Clear 21 1011 42 10000 4.6 30 16:59 15.07.2019
5134 Clear 22 1011 40 10000 4.1 10 16:38 15.07.2019
5135 Clear 21 1012 42 10000 5.1 50 16:20 15.07.2019
5136 Clear 21 1012 42 10000 5.1 50 15:54 15.07.2019
5137 Clear 20 1012 42 10000 5.7 20 15:36 15.07.2019
5138 Clear 21 1012 45 10000 6.2 10 15:18 15.07.2019
5139 Clear 20 1012 42 10000 4.6 360 14:41 15.07.2019
5140 Clouds 19 1012 42 10000 5.1 360 14:22 15.07.2019
5141 Clouds 19 1012 45 10000 6.7 30 13:49 15.07.2019
5142 Clouds 19 1012 45 10000 7.2 30 13:21 15.07.2019
5143 Clouds 19 1013 48 10000 5.7 10 12:57 15.07.2019
5144 Clouds 18 1013 48 10000 5.7 10 12:39 15.07.2019
5145 Clouds 18 1013 48 10000 9.3 20 12:20 15.07.2019
5146 Clouds 16 1012 51 10000 7.2 30 11:41 15.07.2019
5147 Clouds 16 1012 51 10000 7.2 30 11:41 15.07.2019
5148 Clouds 16 1013 62 10000 4.6 40 11:21 15.07.2019
5149 Clouds 15 1013 62 10000 3.6 20 10:45 15.07.2019
5150 Clouds 15 1013 62 10000 6.7 30 10:25 15.07.2019
5151 Clouds 14 1013 66 10000 6.7 20 09:47 15.07.2019
5152 Clouds 14 1013 66 10000 6.7 20 09:25 15.07.2019
5153 Mist 14 1012 66 10000 7.7 30 08:49 15.07.2019
5154 Mist 14 1012 66 10000 6.7 30 08:27 15.07.2019
5155 Mist 14 1012 66 10000 6.7 30 07:58 15.07.2019
5156 Drizzle 14 1012 62 10000 5.7 30 07:36 15.07.2019
5157 Drizzle 14 1012 62 10000 4.1 20 06:51 15.07.2019
5158 Drizzle 14 1012 62 10000 4.1 20 06:32 15.07.2019
5159 Mist 14 1011 93 0 1 190 05:44 15.07.2019
5160 Clouds 15 1012 62 10000 5.1 20 05:19 15.07.2019
5161 Clouds 15 1012 87 10000 3.6 20 04:41 15.07.2019
5162 Rain 15 1012 82 10000 1 140 03:30 15.07.2019
5163 Clouds 15 1012 82 10000 2.1 220 02:26 15.07.2019
5164 Clouds 15 1012 87 10000 3.1 200 01:38 15.07.2019
5165 Clouds 15 1012 87 10000 3.1 200 00:54 15.07.2019
5166 Clouds 15 1012 87 10000 3.1 200 00:29 15.07.2019
5167 Rain 15 1012 82 10000 3.6 190 00:00 15.07.2019
5168 Rain 16 1012 82 10000 2.6 200 23:41 14.07.2019
5169 Rain 16 1012 77 10000 2.6 220 23:21 14.07.2019
5170 Rain 16 1012 77 10000 2.6 220 22:58 14.07.2019
5171 Rain 16 1012 77 10000 3.6 220 22:39 14.07.2019
5172 Rain 16 1012 72 10000 3.1 220 22:21 14.07.2019
5173 Clouds 17 1012 68 10000 4.1 190 21:46 14.07.2019
5174 Rain 18 1012 52 10000 4.6 200 21:20 14.07.2019
5175 Rain 18 1012 52 10000 4.6 200 20:59 14.07.2019
5176 Rain 18 1012 52 10000 4.6 200 20:39 14.07.2019
5177 Rain 19 1014 77 0 4.1 180 20:20 14.07.2019
5178 Rain 19 1014 77 0 4.1 180 19:56 14.07.2019
5179 Clouds 19 1012 53 10000 5.1 190 19:38 14.07.2019
5180 Clouds 20 1012 53 10000 6.2 200 19:19 14.07.2019
5181 Clouds 20 1012 49 10000 5.7 210 18:41 14.07.2019
5182 Clouds 20 1012 49 10000 5.7 210 18:41 14.07.2019
5183 Clouds 21 1012 49 10000 5.7 190 18:22 14.07.2019
5184 Clouds 21 1012 49 10000 5.7 190 17:58 14.07.2019
5185 Clouds 21 1012 46 10000 6.7 180 17:23 14.07.2019
5186 Clouds 21 1012 46 10000 6.7 180 16:55 14.07.2019
5187 Clouds 22 1012 53 10000 5.7 180 16:26 14.07.2019
5188 Thunderstorm 22 1012 53 10000 4.6 170 15:58 14.07.2019
5189 Thunderstorm 22 1013 56 10000 4.1 190 15:40 14.07.2019
5190 Thunderstorm 22 1013 56 10000 5.1 180 15:22 14.07.2019
5191 Thunderstorm 22 1013 53 10000 4.1 170 14:45 14.07.2019
5192 Thunderstorm 22 1013 53 10000 4.1 170 14:20 14.07.2019
5193 Thunderstorm 22 1013 56 10000 4.1 180 13:46 14.07.2019
5194 Thunderstorm 22 1013 56 10000 4.1 180 13:24 14.07.2019
5195 Clear 21 1013 64 10000 3.6 170 12:57 14.07.2019
5196 Clear 21 1013 64 10000 3.6 170 12:38 14.07.2019
5197 Clear 20 1013 60 10000 3.1 150 12:18 14.07.2019
5198 Clear 20 1014 68 10000 2.6 160 11:45 14.07.2019
5199 Clouds 19 1014 72 10000 2.6 180 11:20 14.07.2019
5200 Clouds 19 1014 72 10000 2.6 180 11:20 14.07.2019
5201 Clouds 19 1014 77 10000 2.1 190 10:43 14.07.2019
5202 Clouds 18 1014 77 10000 2.1 190 10:21 14.07.2019
5203 Clouds 18 1014 72 10000 2.26 159.895 09:48 14.07.2019
5204 Clouds 17 1014 72 10000 2.26 159.895 09:29 14.07.2019
5205 Fog 17 1014 82 10000 0.74 164.002 08:46 14.07.2019
5206 Fog 16 1014 87 10000 0.74 164.002 08:27 14.07.2019
5207 Fog 16 1014 77 10000 1 0 07:43 14.07.2019
5208 Fog 16 1014 87 10000 1 0 07:19 14.07.2019
5209 Clear 15 1014 87 10000 0.68 112.723 05:46 14.07.2019
5210 Clear 15 1013 87 10000 0.68 112.723 03:53 14.07.2019
5211 Clear 14 1013 82 10000 0.16 0.707 03:34 14.07.2019
5212 Clear 15 1013 82 10000 0.16 0.707 02:52 14.07.2019
5213 Clear 15 1013 82 10000 0.16 0.707 02:23 14.07.2019
5214 Clear 15 1013 82 10000 1 310 01:45 14.07.2019
5215 Clear 15 1013 82 10000 1 310 01:24 14.07.2019
5216 Clear 15 1013 72 10000 1 0 00:41 14.07.2019
5217 Clear 16 1013 77 10000 1 0 00:20 14.07.2019
5218 Clear 16 1013 77 10000 1 0 23:56 13.07.2019
5219 Clear 16 1013 72 10000 2.1 110 23:37 13.07.2019
5220 Clear 17 1012 72 10000 1.5 110 23:19 13.07.2019
5221 Clear 17 1012 63 10000 3.1 120 22:41 13.07.2019
5222 Clear 18 1012 60 10000 4.1 120 22:21 13.07.2019
5223 Clear 18 1011 56 10000 4.1 130 21:45 13.07.2019
5224 Rain 19 1012 82 0 4.6 120 21:20 13.07.2019
5225 Clouds 20 1011 52 10000 6.2 90 20:51 13.07.2019
5226 Clouds 21 1011 52 10000 6.2 90 20:32 13.07.2019
5227 Clear 22 1010 46 10000 4.1 190 19:50 13.07.2019
5228 Clear 22 1010 46 10000 4.1 190 19:29 13.07.2019
5229 Clear 23 1010 41 10000 2.1 210 18:46 13.07.2019
5230 Clear 25 1010 41 10000 2.6 210 18:24 13.07.2019
5231 -273 0 0 0 0 0 17:56 13.07.2019
5232 -273 0 0 0 0 0 17:56 13.07.2019
5233 Clear 25 1010 41 10000 2.6 150 17:37 13.07.2019
5234 Clear 25 1010 44 10000 3.1 210 17:18 13.07.2019
5235 Clear 25 1010 44 10000 2.1 0 16:42 13.07.2019
5236 Clear 25 1010 44 10000 4.1 180 16:23 13.07.2019
5237 Clouds 25 1011 47 10000 3.6 230 15:46 13.07.2019
5238 Clouds 24 1011 47 10000 3.6 230 15:23 13.07.2019
5239 Clouds 23 1011 43 10000 2.1 0 14:46 13.07.2019
5240 Clouds 23 1011 43 10000 2.1 0 14:26 13.07.2019
5241 Clear 24 1011 43 10000 2.6 160 13:56 13.07.2019
5242 Clear 23 1011 40 10000 2.6 140 13:37 13.07.2019
5243 Clouds 23 1011 46 10000 2.6 0 13:18 13.07.2019
5244 Clouds 22 1011 49 10000 2.6 150 12:40 13.07.2019
5245 Clouds 22 1011 49 10000 2.6 150 12:40 13.07.2019
5246 Clouds 20 1011 52 10000 2.6 0 12:22 13.07.2019
5247 Clouds 20 1011 52 10000 2.6 0 12:22 13.07.2019
5248 Clouds 20 1011 52 10000 2.6 0 11:52 13.07.2019
5249 Clouds 20 1011 60 10000 1.5 0 11:20 13.07.2019
5250 Clouds 20 1011 63 10000 3.1 60 10:46 13.07.2019
5251 Clouds 20 1011 63 10000 3.1 60 10:25 13.07.2019
5252 Clear 19 1011 63 10000 3.1 60 09:59 13.07.2019
5253 Clear 19 1011 68 10000 3.6 50 09:41 13.07.2019
5254 Clear 18 1011 72 10000 3.6 30 09:18 13.07.2019
5255 Clear 16 1011 72 10000 2.6 50 08:41 13.07.2019
5256 Clear 16 1011 72 10000 2.6 40 08:22 13.07.2019
5257 Clear 15 1011 77 10000 2.1 20 07:30 13.07.2019
5258 Clear 14 1011 87 10000 1 360 06:50 13.07.2019
5259 Clear 14 1011 87 10000 1 360 06:22 13.07.2019
5260 Clouds 13 1010 100 0 1 130 05:33 13.07.2019
5261 Clear 13 1010 87 10000 1 20 04:24 13.07.2019
5262 Clear 13 1010 87 10000 1 360 03:57 13.07.2019
5263 Clear 13 1010 87 10000 1 360 03:38 13.07.2019
5264 Clear 14 1010 82 10000 1.5 210 02:18 13.07.2019
5265 Clear 15 1010 76 10000 2.6 200 01:41 13.07.2019
5266 Clear 15 1010 72 10000 3.6 200 01:19 13.07.2019
5267 Clear 16 1010 72 10000 3.6 200 00:54 13.07.2019
5268 Clear 16 1010 67 10000 3.6 190 00:20 13.07.2019
5269 Clear 17 1009 59 10000 4.6 170 23:48 12.07.2019
5270 Clear 17 1009 59 10000 4.6 170 23:29 12.07.2019
5271 Clear 18 1009 63 10000 4.1 200 22:46 12.07.2019
5272 Clear 18 1009 56 10000 4.6 190 22:24 12.07.2019
5273 Clear 20 1009 52 10000 5.7 170 21:44 12.07.2019
5274 Rain 21 1010 77 0 5.1 180 21:23 12.07.2019
5275 Rain 21 1010 77 0 5.1 180 20:57 12.07.2019
5276 Clouds 22 1008 49 10000 2.6 160 20:39 12.07.2019
5277 Clouds 22 1008 49 10000 2.6 160 20:21 12.07.2019
5278 Clouds 22 1008 43 10000 3.1 220 19:42 12.07.2019
5279 Clouds 23 1008 43 10000 3.1 220 19:24 12.07.2019
5280 Clear 24 1008 44 10000 4.6 210 18:46 12.07.2019
5281 Clear 24 1008 41 10000 7.2 190 18:22 12.07.2019
5282 Clear 24 1008 39 10000 4.6 220 17:55 12.07.2019
5283 Clear 25 1008 39 10000 4.6 220 17:30 12.07.2019
5284 Clear 25 1008 36 10000 5.1 200 16:52 12.07.2019
5285 Clear 26 1008 36 10000 5.1 200 16:25 12.07.2019
5286 Clear 25 1009 33 10000 4.6 200 15:56 12.07.2019
5287 Clear 26 1009 33 10000 4.6 200 15:36 12.07.2019
5288 Clear 25 1009 36 10000 5.7 170 15:18 12.07.2019
5289 Clear 25 987 32 0 0.45 315 14:43 12.07.2019
5290 Clear 25 1009 36 10000 5.7 170 14:20 12.07.2019
5291 Clear 25 1009 37 10000 4.6 170 13:43 12.07.2019
5292 Clear 25 1009 37 10000 4.6 170 13:21 12.07.2019
5293 Clear 24 1009 43 10000 4.1 160 12:41 12.07.2019
5294 Clear 23 1009 43 10000 4.1 160 12:23 12.07.2019
5295 Clear 22 1011 56 10000 3.6 200 11:46 12.07.2019
5296 Clear 22 1010 56 10000 2.1 80 11:24 12.07.2019
5297 Clear 21 1010 56 10000 2.1 80 10:55 12.07.2019
5298 Clear 21 1010 56 10000 2.1 60 10:37 12.07.2019
5299 Clear 20 1010 68 10000 2.1 120 10:19 12.07.2019
5300 Clear 19 1010 72 10000 1.5 180 09:51 12.07.2019
5301 Clear 18 1010 72 10000 1.5 180 09:24 12.07.2019
5302 Clear 17 1010 77 10000 2.6 190 08:45 12.07.2019
5303 Clear 16 1010 77 10000 2.6 200 08:22 12.07.2019
5304 Clear 16 1010 82 10000 2.6 210 07:47 12.07.2019
5305 Clear 15 1010 82 10000 2.6 210 07:29 12.07.2019
5306 Fog 12 1010 81 10000 2.1 190 06:29 12.07.2019
5307 Clear 12 1011 93 0 3.1 130 05:50 12.07.2019
5308 Clear 12 1009 76 10000 3.1 190 04:25 12.07.2019
5309 Clear 13 1009 71 10000 2.6 210 01:51 12.07.2019
5310 Clear 14 1009 71 10000 2.6 210 01:32 12.07.2019
5311 Clear 15 1010 63 10000 2.6 190 00:35 12.07.2019
5312 Clear 15 1009 63 10000 4.1 190 23:56 11.07.2019
5313 Clear 16 1009 55 10000 4.6 190 23:38 11.07.2019
5314 Clear 16 1009 52 10000 4.6 200 23:19 11.07.2019
5315 Clear 17 1009 48 10000 5.1 200 22:43 11.07.2019
5316 Clouds 17 1010 72 0 4.1 180 22:23 11.07.2019
5317 Clear 19 1009 43 10000 5.1 200 21:43 11.07.2019
5318 Clouds 20 1010 72 0 3.6 180 21:20 11.07.2019
5319 Clear 22 1009 38 10000 5.1 220 20:59 11.07.2019
5320 Clear 22 1009 38 10000 5.1 220 20:41 11.07.2019
5321 Clear 22 1011 48 10000 5.1 170 20:22 11.07.2019
5322 Clear 22 1009 40 10000 3.1 220 19:54 11.07.2019
5323 Clear 22 1009 40 10000 3.1 220 19:36 11.07.2019
5324 Clear 22 1009 38 10000 3.1 220 19:18 11.07.2019
5325 Clear 23 1009 38 10000 3.6 230 18:38 11.07.2019
5326 Clear 24 1009 38 10000 3.1 230 18:20 11.07.2019
5327 Clear 24 1009 35 10000 1.5 240 17:43 11.07.2019
5328 Clear 25 1009 33 10000 2.6 260 17:25 11.07.2019
5329 Clear 24 1009 33 10000 2.6 260 16:52 11.07.2019
5330 Clear 25 1009 36 10000 2.1 270 16:24 11.07.2019
5331 Clear 25 1009 40 10000 2.1 260 15:55 11.07.2019
5332 Clear 25 1009 40 10000 1.5 270 15:36 11.07.2019
5333 Clear 25 1009 38 10000 2.1 250 15:18 11.07.2019
5334 Clear 25 1009 33 10000 4.1 230 14:43 11.07.2019
5335 Clear 25 1009 33 10000 4.1 230 14:22 11.07.2019
5336 Clouds 25 1010 36 10000 3.1 200 13:47 11.07.2019
5337 Clouds 25 1010 36 10000 3.1 200 13:28 11.07.2019
5338 Rain 25 1010 36 10000 2.6 160 12:47 11.07.2019
5339 Rain 24 1010 36 10000 2.6 160 12:28 11.07.2019
5340 Rain 24 1010 38 10000 1 0 11:59 11.07.2019
5341 Rain 23 1010 37 10000 1.5 0 11:41 11.07.2019
5342 Clear 23 1010 37 10000 1.5 0 11:22 11.07.2019
5343 Clear 23 1011 40 10000 1.5 70 10:46 11.07.2019
5344 Clear 22 1011 40 10000 2.6 50 10:19 11.07.2019
5345 Clear 21 1011 42 10000 3.6 40 09:48 11.07.2019
5346 Clear 20 1011 42 10000 3.6 40 09:29 11.07.2019
5347 Clear 18 1011 77 10000 2.1 190 08:53 11.07.2019
5348 Clear 17 1011 52 10000 1 0 08:27 11.07.2019
5349 Clear 17 1011 63 10000 1.32 336.517 07:55 11.07.2019
5350 Clear 17 1011 63 10000 1.32 336.517 07:36 11.07.2019
5351 Clear 14 1011 71 10000 1.32 336.517 06:41 11.07.2019
5352 Clouds 12 1011 93 0 1.5 100 05:53 11.07.2019
5353 Clouds 12 1011 93 0 1.5 100 05:30 11.07.2019
5354 Clear 11 1011 71 10000 1.77 325.159 04:55 11.07.2019
5355 Clear 13 1011 66 10000 0.5 0 02:41 11.07.2019
5356 Clouds 14 1012 71 0 1.5 130 01:38 11.07.2019
5357 Clouds 15 1012 77 0 1.5 170 00:29 11.07.2019
5358 Clear 16 1011 55 10000 1 0 23:37 10.07.2019
5359 Clear 17 1011 52 10000 0.58 321.848 23:19 10.07.2019
5360 Clear 17 1011 48 10000 0.58 321.848 22:46 10.07.2019
5361 Clear 17 1011 48 10000 0.58 321.848 22:21 10.07.2019
5362 Clear 21 1011 40 10000 0.58 321.848 21:45 10.07.2019
5363 Clear 22 1011 40 10000 0.74 140.464 21:26 10.07.2019
5364 Clouds 23 1012 46 0 3.1 240 20:57 10.07.2019
5365 Clear 23 1011 31 10000 1 0 20:39 10.07.2019
5366 Clear 23 1012 40 10000 4.1 240 20:19 10.07.2019
5367 Clear 23 1012 31 10000 2.1 0 19:53 10.07.2019
5368 Clear 24 1012 31 10000 2.1 0 19:22 10.07.2019
5369 Clear 24 1012 27 10000 2.6 0 18:57 10.07.2019
5370 Clear 25 1012 27 10000 2.1 340 18:38 10.07.2019
5371 Clear 25 1012 29 10000 2.6 340 18:20 10.07.2019
5372 Clear 25 1012 27 10000 2.1 0 17:41 10.07.2019
5373 Clear 25 1012 29 10000 2.1 0 17:20 10.07.2019
5374 Clear 25 1012 27 10000 3.6 340 16:38 10.07.2019
5375 Clear 25 1013 29 10000 3.1 0 16:18 10.07.2019
5376 Clear 25 1013 29 10000 2.6 0 15:45 10.07.2019
5377 Clear 25 1013 28 10000 3.1 360 15:21 10.07.2019
5378 Clear 24 1013 28 10000 4.6 40 14:41 10.07.2019
5379 Clear 24 1013 28 10000 4.6 40 14:23 10.07.2019
5380 Clear 24 1013 28 10000 4.6 40 14:23 10.07.2019
5381 Clear 24 1013 33 10000 3.6 50 13:52 10.07.2019
5382 Clear 24 1014 33 10000 3.6 30 13:19 10.07.2019
5383 Clear 23 1014 33 10000 3.6 30 13:19 10.07.2019
5384 Clear 23 1014 33 10000 3.6 30 12:58 10.07.2019
5385 Clear 23 1014 37 10000 3.1 10 12:38 10.07.2019
5386 Clear 23 1014 37 10000 2.6 0 12:19 10.07.2019
5387 Clear 23 1014 40 10000 3.6 30 11:47 10.07.2019
5388 Clear 22 1014 40 10000 3.6 30 11:21 10.07.2019
5389 Clear 21 1014 45 10000 3.6 350 10:46 10.07.2019
5390 Clear 20 1014 45 10000 3.6 350 10:23 10.07.2019
5391 Clear 19 1014 52 10000 4.6 30 09:44 10.07.2019
5392 Clear 18 1014 52 10000 4.6 30 09:21 10.07.2019
5393 Clear 17 1014 51 10000 3.6 20 08:55 10.07.2019
5394 Clear 17 1014 51 10000 3.6 20 08:36 10.07.2019
5395 Clear 16 1014 59 10000 2.6 350 08:18 10.07.2019
5396 Clear 15 1014 58 10000 3.1 20 07:42 10.07.2019
5397 Clear 14 1014 62 10000 2.6 20 07:20 10.07.2019
5398 Clear 10 1015 76 10000 2.6 10 05:59 10.07.2019
5399 Rain 10 1015 93 0 0.5 360 05:39 10.07.2019
5400 Clear 10 1015 76 10000 1 360 04:28 10.07.2019
5401 Clear 13 1014 58 10000 2.1 330 00:48 10.07.2019
5402 Clear 13 1014 58 10000 2.1 330 00:29 10.07.2019
5403 Clear 15 1014 54 10000 2.1 310 23:42 09.07.2019
5404 Clear 15 1014 48 10000 1.48 13.858 23:22 09.07.2019
5405 Clear 15 1014 45 10000 2.1 10 22:43 09.07.2019
5406 Clear 16 1014 42 10000 1.5 360 22:24 09.07.2019
5407 Clear 17 1014 42 10000 1.5 360 21:59 09.07.2019
5408 Clear 18 1014 39 10000 1.5 350 21:40 09.07.2019
5409 Rain 20 1014 39 10000 1.5 350 21:22 09.07.2019
5410 Rain 21 1014 34 10000 2.6 10 20:43 09.07.2019
5411 Rain 21 1014 34 10000 2.6 10 20:43 09.07.2019
5412 Clear 21 1014 34 10000 2.6 10 20:25 09.07.2019
5413 Clear 21 1013 32 10000 2.1 350 19:42 09.07.2019
5414 Clear 21 1014 35 10000 2.6 330 19:24 09.07.2019
5415 Clear 21 1014 34 10000 3.6 20 18:47 09.07.2019
5416 Clear 22 1014 35 10000 4.1 360 18:26 09.07.2019
5417 Clear 22 1014 35 10000 4.1 360 18:26 09.07.2019
5418 Clear 22 1014 32 10000 3.6 360 17:57 09.07.2019
5419 Clear 22 1014 32 10000 3.6 360 17:38 09.07.2019
5420 Clear 22 1014 37 10000 2.6 30 17:19 09.07.2019
5421 Clear 22 1014 37 10000 4.1 30 16:50 09.07.2019
5422 Clear 22 1014 37 10000 4.1 30 16:25 09.07.2019
5423 Clear 22 1014 37 10000 4.6 40 15:50 09.07.2019
5424 Clear 21 1014 37 10000 4.6 40 15:32 09.07.2019
5425 Clear 21 1014 39 10000 4.6 360 14:58 09.07.2019
5426 Clear 21 1014 42 10000 4.1 360 14:39 09.07.2019
5427 Clear 21 1014 49 10000 3.1 330 14:19 09.07.2019
5428 Clouds 20 1014 42 10000 4.1 30 13:45 09.07.2019
5429 Clouds 20 1014 42 10000 4.1 30 13:27 09.07.2019
5430 Clouds 20 1014 42 10000 4.1 30 13:27 09.07.2019
5431 Clear 19 1015 52 10000 3.1 30 12:41 09.07.2019
5432 Clear 19 1015 52 10000 3.1 30 12:22 09.07.2019
5433 Clear 19 1015 52 10000 3.1 30 12:22 09.07.2019
5434 Clear 19 1014 52 10000 5.7 20 11:58 09.07.2019
5435 Clouds 19 1014 55 10000 6.2 30 11:39 09.07.2019
5436 Clouds 18 1014 55 10000 6.2 30 11:21 09.07.2019
5437 Clouds 18 1014 63 10000 4.6 360 11:21 09.07.2019
5438 Clouds 18 1014 63 10000 4.6 360 10:54 09.07.2019
5439 Clouds 17 1015 62 10000 3.6 350 10:33 09.07.2019
5440 Clear 16 1015 67 10000 3.6 10 09:42 09.07.2019
5441 Clear 15 1015 67 10000 3.1 350 09:22 09.07.2019
5442 Clear 15 1015 67 10000 3.6 10 08:55 09.07.2019
5443 Clear 15 1015 67 10000 3.6 10 08:37 09.07.2019
5444 Clear 8 1007 67 10000 2.29 326.442 04:18 05.07.2019
5445 Clear 7 1007 61 10000 1 0 03:38 05.07.2019
5446 Clear 8 1007 61 10000 3.1 310 03:19 05.07.2019
5447 Clear 8 1007 61 10000 2.6 320 02:46 05.07.2019
5448 Clear 9 1006 57 10000 4.6 350 01:44 05.07.2019
5449 Clear 9 1006 57 10000 4.6 350 01:25 05.07.2019
5450 Clear 9 1006 57 10000 2.6 340 00:47 05.07.2019
5451 Clear 9 1006 57 10000 3.1 330 00:20 05.07.2019
5452 Clear 10 1005 57 10000 2.6 340 23:23 04.07.2019
5453 Clear 11 1005 53 10000 4.6 350 22:58 04.07.2019
5454 Clear 11 1005 53 10000 4.6 350 22:40 04.07.2019
5455 Clouds 11 1005 50 10000 5.1 360 22:19 04.07.2019
5456 Clouds 12 1005 50 10000 6.7 350 21:40 04.07.2019
5457 Clouds 13 1005 44 0 4.1 360 21:22 04.07.2019
5458 Clouds 14 1004 46 10000 7.2 350 20:55 04.07.2019
5459 Clouds 14 1004 46 10000 7.2 350 20:37 04.07.2019
5460 Rain 14 1004 54 10000 6.2 360 20:18 04.07.2019
5461 Clouds 15 982 43 0 0.45 317 19:41 04.07.2019
5462 Clouds 15 982 38 0 0.89 340 19:20 04.07.2019
5463 Rain 15 1003 46 10000 10.8 20 18:44 04.07.2019
5464 Rain 16 1003 44 10000 3.6 320 18:26 04.07.2019
5465 Clouds 17 1004 50 10000 2.1 0 17:48 04.07.2019
5466 Clouds 16 1004 47 10000 4.1 350 17:19 04.07.2019
5467 Clouds 17 1004 62 10000 4.6 20 16:36 04.07.2019
5468 Rain 16 1003 54 10000 9.8 30 15:42 04.07.2019
5469 Rain 16 1003 54 10000 9.8 30 15:24 04.07.2019
5470 Rain 16 1003 58 10000 3.6 10 14:58 04.07.2019
5471 Rain 16 981 41 0 0.45 39 14:38 04.07.2019
5472 Rain 16 981 44 0 0.89 42 14:18 04.07.2019
5473 Rain 17 1003 51 10000 4.1 350 13:55 04.07.2019
5474 Rain 17 1003 51 10000 4.1 350 13:37 04.07.2019
5475 Rain 17 1003 54 10000 4.6 340 13:18 04.07.2019
5476 Rain 16 1003 54 10000 2.6 310 12:38 04.07.2019
5477 Rain 16 1003 66 10000 3.6 330 12:19 04.07.2019
5478 Rain 15 1003 54 10000 6.7 200 11:40 04.07.2019
5479 Rain 14 1004 62 10000 6.2 210 11:20 04.07.2019
5480 Clear 13 1004 62 10000 4.1 220 10:44 04.07.2019
5481 Clear 13 1004 62 10000 4.1 220 10:25 04.07.2019
5482 Clear 12 1005 61 10000 4.1 210 09:46 04.07.2019
5483 Clear 12 1005 61 10000 4.1 210 09:26 04.07.2019
5484 Clear 11 1006 66 10000 4.1 220 08:57 04.07.2019
5485 Clear 11 1006 66 10000 4.1 220 08:29 04.07.2019
5486 Clear 11 1006 61 10000 3.1 220 07:57 04.07.2019
5487 Clear 11 1007 61 10000 4.1 200 07:37 04.07.2019
5488 Clear 10 1007 61 10000 2.6 170 07:18 04.07.2019
5489 Clear 10 1007 61 10000 2.6 170 07:18 04.07.2019
5490 Clear 10 1008 57 10000 2.1 230 06:20 04.07.2019
5491 Clear 10 1008 61 10000 1.5 220 05:41 04.07.2019
5492 Clear 10 1009 66 10000 1 0 03:48 04.07.2019
5493 Clear 10 1010 46 10000 1.5 0 01:48 04.07.2019
5494 Clear 10 1010 46 10000 1.5 0 01:26 04.07.2019
5495 Clear 10 1010 57 10000 3.1 0 00:39 04.07.2019
5496 Clear 11 1011 49 10000 1.5 300 23:52 03.07.2019
5497 Clear 12 1010 49 10000 2.1 300 23:21 03.07.2019
5498 Clear 12 1010 49 10000 2.1 300 22:56 03.07.2019
5499 Clear 12 1011 46 10000 1 0 22:37 03.07.2019
5500 Clear 13 1011 47 10000 2.1 270 22:19 03.07.2019
5501 Clear 14 1011 47 10000 1.5 230 21:54 03.07.2019
5502 Clear 14 1011 47 10000 1.5 230 21:35 03.07.2019
5503 Clear 15 1011 36 10000 1 0 20:48 03.07.2019
5504 Clouds 15 989 33 0 0.45 89 20:29 03.07.2019
5505 Clear 16 1011 36 10000 2.6 250 19:59 03.07.2019
5506 Clear 16 1011 36 10000 2.6 250 19:40 03.07.2019
5507 Clear 16 1011 38 10000 2.1 300 19:20 03.07.2019
5508 Clouds 17 989 32 0 0.45 3 18:44 03.07.2019
5509 Clear 16 1012 33 10000 2.6 280 18:22 03.07.2019
5510 Clouds 17 990 31 0 0.45 40 17:49 03.07.2019
5511 Clear 17 1012 33 10000 3.6 0 17:19 03.07.2019
5512 Clear 16 1012 33 10000 3.6 0 16:57 03.07.2019
5513 Clear 16 1012 30 10000 4.1 290 16:39 03.07.2019
5514 Clear 16 1012 33 10000 4.1 280 16:18 03.07.2019
5515 Clear 16 1012 29 10000 2.6 270 15:42 03.07.2019
5516 Clear 16 1012 24 10000 2.6 310 15:24 03.07.2019
5517 Clouds 16 990 30 0 0.89 316 14:43 03.07.2019
5518 Rain 15 1012 41 10000 4.1 0 14:22 03.07.2019
5519 Rain 15 1012 24 10000 3.1 220 13:46 03.07.2019
5520 Rain 15 1012 43 10000 3.1 220 13:27 03.07.2019
5521 Rain 15 1012 37 10000 1.5 0 12:52 03.07.2019
5522 Clouds 15 1012 37 10000 1 0 12:19 03.07.2019
5523 Clouds 15 1012 37 10000 1 0 11:54 03.07.2019
5524 Clouds 14 1012 46 10000 1 0 11:36 03.07.2019
5525 Clouds 14 1012 32 10000 2.1 220 11:18 03.07.2019
5526 Clouds 13 1012 32 10000 1.5 140 10:38 03.07.2019
5527 Clouds 13 1012 46 10000 2.6 0 10:20 03.07.2019
5528 Clouds 13 1012 32 10000 3.1 30 09:41 03.07.2019
5529 Clouds 12 1012 50 10000 4.6 10 09:20 03.07.2019
5530 Clouds 12 1011 50 10000 2.6 340 08:52 03.07.2019
5531 Clouds 12 1011 50 10000 2.6 340 08:31 03.07.2019
5532 Clear 11 1011 51 10000 2.1 320 07:47 03.07.2019
5533 Clear 10 1011 51 10000 2.6 300 07:28 03.07.2019
5534 Clear 10 1011 57 10000 2.6 330 06:30 03.07.2019
5535 Clear 9 1010 70 10000 2.1 310 05:35 03.07.2019
5536 Clear 10 1010 70 10000 1.5 0 04:50 03.07.2019
5537 Clear 10 1010 57 10000 3.1 10 03:26 03.07.2019
5538 Clear 10 1009 53 10000 2.1 280 02:27 03.07.2019
5539 Clear 10 1009 53 10000 2.1 260 01:21 03.07.2019
5540 Clear 11 1009 50 10000 2.6 250 00:52 03.07.2019
5541 Clear 11 1009 50 10000 2.6 250 00:32 03.07.2019
5542 Clear 12 1009 50 10000 2.1 0 23:38 02.07.2019
5543 Clear 12 1009 50 10000 2.1 0 23:38 02.07.2019
5544 Clear 12 1009 48 10000 2.1 300 23:20 02.07.2019
5545 Clear 12 1009 48 10000 1.5 260 22:57 02.07.2019
5546 Clear 12 1009 48 10000 1.5 260 22:39 02.07.2019
5547 Clear 13 1009 37 10000 2.6 290 22:20 02.07.2019
5548 Clear 13 1008 33 10000 3.6 300 21:46 02.07.2019
5549 Clear 15 1008 30 10000 3.6 300 21:25 02.07.2019
5550 Clear 16 1008 30 10000 3.6 300 20:59 02.07.2019
5551 Clear 16 1008 35 10000 2.1 290 20:40 02.07.2019
5552 Clear 16 1008 35 10000 2.6 300 20:22 02.07.2019
5553 Clear 16 1008 31 10000 3.6 300 19:44 02.07.2019
5554 Clear 16 1008 30 10000 4.6 290 19:24 02.07.2019
5555 Clear 16 1008 31 10000 3.6 300 19:24 02.07.2019
5556 Clear 16 1008 30 10000 4.6 290 18:58 02.07.2019
5557 Clear 17 1008 29 10000 5.1 290 18:37 02.07.2019
5558 Clear 17 1008 29 10000 5.1 290 18:18 02.07.2019
5559 Clear 17 1008 26 10000 4.1 310 17:37 02.07.2019
5560 Clear 18 1008 27 10000 4.6 290 17:19 02.07.2019
5561 Clear 18 1008 27 10000 5.1 300 16:45 02.07.2019
5562 Clear 18 1008 27 10000 5.1 300 16:26 02.07.2019
5563 Clear 17 1008 27 10000 3.1 0 15:42 02.07.2019
5564 Clear 18 1008 27 10000 3.6 0 15:23 02.07.2019
5565 Clear 17 1008 31 10000 2.6 0 14:49 02.07.2019
5566 Clear 17 1008 31 10000 2.6 0 14:28 02.07.2019
5567 Clear 17 1008 44 10000 3.1 0 13:45 02.07.2019
5568 Clear 16 1008 47 10000 1.5 0 13:20 02.07.2019
5569 Rain 16 986 33 0 0.45 45 12:46 02.07.2019
5570 Clear 15 1008 47 10000 2.6 330 12:25 02.07.2019
5571 Clear 15 1008 47 10000 4.1 360 11:57 02.07.2019
5572 Clear 14 1008 47 10000 4.1 360 11:39 02.07.2019
5573 Clouds 14 1007 47 10000 6.2 10 11:18 02.07.2019
5574 Clouds 14 1007 54 10000 6.2 30 10:44 02.07.2019
5575 Clouds 13 1007 54 10000 6.2 30 10:24 02.07.2019
5576 Clouds 13 1007 58 10000 3.6 10 09:44 02.07.2019
5577 Clouds 12 1007 62 10000 4.1 350 09:21 02.07.2019
5578 Clear 11 1007 62 10000 3.6 350 08:42 02.07.2019
5579 Clear 10 1006 66 10000 3.6 360 08:20 02.07.2019
5580 Clear 11 1006 71 10000 4.1 350 07:53 02.07.2019
5581 Rain 10 1006 71 10000 2.6 360 07:21 02.07.2019
5582 Rain 10 1005 81 10000 2.6 350 06:49 02.07.2019
5583 Rain 10 1005 76 10000 4.1 10 06:25 02.07.2019
5584 Rain 11 1004 81 10000 3.6 360 04:57 02.07.2019
5585 Clouds 15 1001 76 10000 5.1 20 01:37 02.07.2019
5586 Clear 16 999 59 10000 5.7 10 23:49 01.07.2019
5587 Clear 16 998 51 10000 2.6 300 23:22 01.07.2019
5588 Clear 17 998 48 10000 1 0 22:46 01.07.2019
5589 Clear 17 997 52 10000 1 0 22:27 01.07.2019
5590 Clear 18 997 48 10000 1.5 240 21:47 01.07.2019
5591 Clear 19 997 48 10000 1.5 240 21:26 01.07.2019
5592 Rain 20 996 48 10000 3.1 240 20:51 01.07.2019
5593 Clear 20 996 49 10000 2.6 220 20:22 01.07.2019
5594 Clear 19 996 48 10000 2.6 230 19:59 01.07.2019
5595 Clear 19 996 48 10000 2.6 230 19:40 01.07.2019
5596 Clear 20 996 40 10000 5.1 220 19:22 01.07.2019
5597 Clear 20 996 45 10000 4.1 240 18:53 01.07.2019
5598 Clear 20 996 45 10000 4.1 240 18:31 01.07.2019
5599 Clear 20 996 43 10000 5.7 240 17:59 01.07.2019
5600 Clear 20 996 42 10000 3.6 240 17:41 01.07.2019
5601 Clear 21 996 42 10000 4.1 250 17:21 01.07.2019
5602 Clear 20 996 45 10000 6.2 240 16:47 01.07.2019
5603 Clouds 20 996 42 10000 4.1 0 16:25 01.07.2019
5604 Rain 20 996 48 10000 3.1 0 15:54 01.07.2019
5605 Thunderstorm 19 997 52 10000 4.6 260 15:36 01.07.2019
5606 Thunderstorm 19 997 52 10000 4.6 260 15:18 01.07.2019
5607 Thunderstorm 18 996 40 10000 5.7 230 14:42 01.07.2019
5608 Thunderstorm 19 996 40 10000 5.7 230 14:19 01.07.2019
5609 Rain 19 996 45 10000 4.6 220 13:40 01.07.2019
5610 Rain 19 996 45 10000 4.6 220 13:22 01.07.2019
5611 Rain 19 997 63 10000 5.7 210 12:46 01.07.2019
5612 Rain 19 997 63 10000 5.7 210 12:27 01.07.2019
5613 Rain 19 997 67 10000 5.1 210 11:59 01.07.2019
5614 Rain 19 997 67 10000 6.2 200 11:39 01.07.2019
5615 Rain 18 997 67 10000 6.2 200 11:19 01.07.2019
5616 Clear 19 997 72 10000 5.1 210 10:46 01.07.2019
5617 Clear 18 997 72 10000 4.1 210 10:22 01.07.2019
5618 Rain 18 999 77 10000 5.7 220 09:45 01.07.2019
5619 Rain 17 999 77 10000 5.7 220 09:27 01.07.2019
5620 Rain 17 997 82 10000 5.7 200 08:59 01.07.2019
5621 Rain 16 997 72 10000 4.6 210 08:37 01.07.2019
5622 Clear 15 997 67 10000 4.1 210 07:39 01.07.2019
5623 Rain 15 997 71 10000 4.1 210 06:52 01.07.2019
5624 Clear 15 997 71 10000 2.6 190 05:34 01.07.2019
5625 Clear 16 998 55 10000 2.08 222.429 01:27 01.07.2019
5626 Clear 17 998 51 10000 2.1 0 00:44 01.07.2019
5627 Clear 17 998 51 10000 2.1 0 00:22 01.07.2019
5628 Clear 18 997 45 10000 2.6 240 23:39 30.06.2019
5629 Clear 19 997 45 10000 2.6 240 23:18 30.06.2019
5630 Clear 19 996 37 10000 5.1 250 22:43 30.06.2019
5631 Rain 20 996 37 10000 5.1 250 22:20 30.06.2019
5632 Clear 20 996 40 10000 4.1 240 21:41 30.06.2019
5633 Rain 22 996 35 10000 5.7 220 21:19 30.06.2019
5634 Rain 22 996 35 10000 3.6 240 20:55 30.06.2019
5635 Clouds 22 996 49 10000 6.2 210 20:36 30.06.2019
5636 Clouds 22 996 49 10000 6.2 210 20:18 30.06.2019
5637 Clouds 22 996 49 10000 6.2 210 20:18 30.06.2019
5638 Clouds 23 996 53 10000 7.7 200 19:43 30.06.2019
5639 Clouds 23 996 53 10000 7.7 200 19:24 30.06.2019
5640 Clear 24 996 56 10000 6.2 210 18:26 30.06.2019
5641 Rain 24 996 53 10000 6.7 190 17:57 30.06.2019
5642 Rain 24 996 56 10000 8.7 190 17:38 30.06.2019
5643 Rain 23 997 49 10000 6.2 200 17:18 30.06.2019
5644 Clear 23 998 45 10000 6.2 220 16:45 30.06.2019
5645 Clear 22 998 45 10000 6.2 220 16:25 30.06.2019
5646 Thunderstorm 21 998 52 10000 7.7 180 15:37 30.06.2019
5647 Thunderstorm 21 998 52 10000 7.7 180 15:18 30.06.2019
5648 Rain 21 998 56 10000 6.7 180 14:50 30.06.2019
5649 Rain 20 999 60 10000 7.7 180 14:30 30.06.2019
5650 Rain 21 999 68 10000 6.2 120 13:48 30.06.2019
5651 Rain 21 1001 64 10000 6.2 180 13:29 30.06.2019
5652 Clear 21 1001 68 10000 7.7 180 12:53 30.06.2019
5653 Clear 22 1001 52 10000 6.7 180 12:28 30.06.2019
5654 Clear 22 1002 64 10000 5.1 190 11:58 30.06.2019
5655 Clear 22 1002 68 10000 4.6 200 11:38 30.06.2019
5656 Clear 22 1002 68 10000 4.6 200 11:38 30.06.2019
5657 Clear 22 1002 68 10000 4.6 200 11:19 30.06.2019
5658 Clear 21 1003 68 10000 4.1 190 10:45 30.06.2019
5659 Clear 21 1004 68 10000 3.6 150 10:20 30.06.2019
5660 Clear 20 1004 68 10000 3.6 140 09:57 30.06.2019
5661 Clear 19 1004 72 10000 3.6 150 09:37 30.06.2019
5662 Rain 19 1004 72 10000 3.6 150 09:19 30.06.2019
5663 Rain 18 1005 82 10000 0.5 0 08:40 30.06.2019
5664 Rain 18 1005 82 10000 0.5 0 08:20 30.06.2019
5665 Clear 17 1006 82 10000 1.5 110 07:41 30.06.2019
5666 Clear 16 1006 82 10000 1.5 110 07:22 30.06.2019
5667 Clear 15 1006 87 10000 0.29 327.619 06:31 30.06.2019
5668 Clear 15 1006 87 10000 2.1 140 03:32 30.06.2019
5669 Clear 16 1007 82 10000 2.1 170 01:52 30.06.2019
5670 Clear 17 1007 72 10000 3.6 190 00:45 30.06.2019
5671 Clear 18 1007 72 10000 2.6 210 00:23 30.06.2019
5672 Clear 19 1007 64 10000 3.6 220 23:43 29.06.2019
5673 Clear 19 1007 64 10000 3.6 220 23:22 29.06.2019
5674 Clear 19 1007 64 10000 4.1 220 22:46 29.06.2019
5675 Clear 20 1007 60 10000 3.1 190 22:22 29.06.2019
5676 Rain 20 1007 60 10000 3.6 200 21:55 29.06.2019
5677 Rain 22 1006 53 10000 2.6 120 21:25 29.06.2019
5678 Clear 22 1007 53 10000 4.1 210 20:47 29.06.2019
5679 Clear 24 1008 47 10000 5.7 220 20:29 29.06.2019
5680 Clear 24 1008 44 10000 5.7 210 19:58 29.06.2019
5681 Clear 25 1008 41 10000 5.7 220 19:39 29.06.2019
5682 Clear 25 1008 41 10000 5.7 220 19:19 29.06.2019
5683 Clear 26 1009 44 10000 5.1 230 18:47 29.06.2019
5684 Clear 26 1009 39 10000 6.2 210 18:24 29.06.2019
5685 Clear 27 1009 36 10000 7.2 210 17:37 29.06.2019
5686 Clear 27 1009 36 10000 7.2 210 17:19 29.06.2019
5687 Clear 27 1010 39 10000 5.1 180 16:42 29.06.2019
5688 Rain 27 1010 39 10000 4.6 190 15:59 29.06.2019
5689 Rain 27 1011 33 10000 4.6 210 15:32 29.06.2019
5690 Clear 26 1012 36 10000 4.1 190 14:46 29.06.2019
5691 Clear 25 1012 38 10000 3.1 210 14:27 29.06.2019
5692 Clear 25 1012 43 10000 2.1 0 13:56 29.06.2019
5693 Clear 24 1012 40 10000 3.1 170 13:37 29.06.2019
5694 Clear 24 1012 40 10000 3.1 170 13:19 29.06.2019
5695 Clear 23 1012 52 10000 4.6 170 12:40 29.06.2019
5696 Clear 22 1012 52 10000 4.6 170 12:22 29.06.2019
5697 Clear 22 1013 56 10000 4.1 180 11:45 29.06.2019
5698 Clear 22 1013 55 10000 3.1 170 11:27 29.06.2019
5699 Clear 21 1014 77 10000 3.1 200 10:51 29.06.2019
5700 Clear 20 1013 59 10000 1 0 10:22 29.06.2019
5701 Clear 20 1014 59 10000 1.93 265.572 09:57 29.06.2019
5702 Rain 17 1016 93 0 2.6 200 08:55 29.06.2019
5703 Clear 16 1014 87 10000 0.78 326.167 08:31 29.06.2019
5704 Clear 16 1014 87 10000 2.1 220 07:45 29.06.2019
5705 Clear 15 1014 82 10000 1.5 230 06:55 29.06.2019
5706 Clear 15 1014 82 10000 1.84 294.294 06:36 29.06.2019
5707 Clear 14 1014 82 10000 1.84 294.294 06:18 29.06.2019
5708 Clear 15 1016 72 10000 2.1 200 01:54 29.06.2019
5709 Clear 15 1016 63 10000 2.6 160 00:51 29.06.2019
5710 Clear 16 1017 63 10000 1.5 220 23:53 28.06.2019
5711 Clear 17 1017 63 10000 3.1 210 23:21 28.06.2019
5712 Clear 17 1017 55 10000 4.1 200 22:47 28.06.2019
5713 Clear 17 1018 67 10000 4.1 180 22:21 28.06.2019
5714 Clear 18 1017 52 10000 5.7 200 21:45 28.06.2019
5715 Clear 20 1017 49 10000 5.7 190 21:19 28.06.2019
5716 Clear 21 1017 46 10000 5.7 210 20:42 28.06.2019
5717 Clear 22 1017 40 10000 6.7 210 20:20 28.06.2019
5718 Clear 22 1017 40 10000 5.1 210 19:42 28.06.2019
5719 Clear 23 1017 40 10000 5.1 210 19:23 28.06.2019
5720 Clear 24 1017 38 10000 5.7 210 18:41 28.06.2019
5721 Clear 24 1017 38 10000 5.7 210 18:22 28.06.2019
5722 Rain 24 1018 40 10000 5.7 180 17:46 28.06.2019
5723 Rain 24 1018 40 10000 5.7 180 17:25 28.06.2019
5724 Rain 25 1018 38 10000 5.7 160 16:46 28.06.2019
5725 Clear 24 1019 40 10000 5.1 170 16:20 28.06.2019
5726 Clear 24 1019 40 10000 5.1 170 15:45 28.06.2019
5727 Clear 24 1019 40 10000 5.1 180 15:18 28.06.2019
5728 Clear 24 1020 43 10000 4.1 190 14:42 28.06.2019
5729 Clear 23 1020 43 10000 4.1 190 14:21 28.06.2019
5730 Clear 23 1020 40 10000 3.6 180 13:49 28.06.2019
5731 Clear 22 1021 42 10000 3.1 190 13:29 28.06.2019
5732 Clear 22 1021 48 10000 2.6 0 12:53 28.06.2019
5733 Clear 21 1021 42 10000 3.1 200 12:33 28.06.2019
5734 Clear 20 1021 42 10000 1.5 0 11:44 28.06.2019
5735 Clear 20 1023 49 10000 1.5 0 11:19 28.06.2019
5736 Clear 20 1022 48 10000 3.1 190 11:19 28.06.2019
5737 Clear 19 1022 48 10000 3.1 190 10:42 28.06.2019
5738 Clear 19 1022 45 10000 2.6 200 10:19 28.06.2019
5739 Clear 18 1022 48 10000 1.5 180 09:46 28.06.2019
5740 Clear 17 1023 48 10000 0.5 0 09:28 28.06.2019
5741 Clear 17 1023 59 10000 3.1 70 08:43 28.06.2019
5742 Clear 16 1023 62 10000 0.5 0 08:24 28.06.2019
5743 Clear 15 1023 71 10000 1 330 07:43 28.06.2019
5744 Clear 13 1023 76 10000 0.5 0 06:54 28.06.2019
5745 Clear 10 1023 76 10000 1.5 350 04:35 28.06.2019
5746 Clear 13 1022 58 10000 2.6 30 00:48 28.06.2019
5747 Clear 14 1022 48 10000 1 82.541 00:20 28.06.2019
5748 Clear 15 1021 48 10000 2.6 350 23:46 27.06.2019
5749 Clear 15 1021 48 10000 2.6 350 23:46 27.06.2019
5750 Clear 16 1021 48 10000 2.6 350 23:24 27.06.2019
5751 Clear 17 1020 42 10000 1.5 20 22:44 27.06.2019
5752 Clear 17 1020 42 10000 1.5 20 22:25 27.06.2019
5753 Clear 18 1020 34 10000 1 350 21:58 27.06.2019
5754 Clear 20 1020 37 10000 1 82.541 21:40 27.06.2019
5755 Clear 20 1020 37 10000 1.07 205.082 21:20 27.06.2019
5756 Clear 20 1020 40 10000 0.5 0 20:49 27.06.2019
5757 Rain 21 1020 37 10000 1.5 240 20:31 27.06.2019
5758 Rain 21 1020 40 10000 1 0 19:50 27.06.2019
5759 Clear 22 1020 37 10000 1 0 19:30 27.06.2019
5760 Clear 23 1020 40 10000 1.5 0 18:55 27.06.2019
5761 Clear 23 1020 37 10000 1.5 10 18:33 27.06.2019
5762 Clear 22 1020 37 10000 2.1 0 17:58 27.06.2019
5763 Clear 22 1021 40 10000 1 0 17:37 27.06.2019
5764 Clear 23 1022 35 10000 3.1 320 17:19 27.06.2019
5765 Clear 22 1021 40 10000 1.5 0 16:39 27.06.2019
5766 Clear 22 1021 40 10000 1.5 0 16:19 27.06.2019
5767 Clear 22 1021 40 10000 1.5 0 16:19 27.06.2019
5768 Clear 22 1021 42 10000 5.1 20 15:47 27.06.2019
5769 Clear 22 1021 42 10000 5.1 20 15:26 27.06.2019
5770 Clear 21 1021 42 10000 4.6 20 14:52 27.06.2019
5771 Clear 21 1022 42 10000 5.1 350 14:30 27.06.2019
5772 Clear 21 1022 42 10000 5.1 360 13:56 27.06.2019
5773 Clear 20 1022 45 10000 5.1 360 13:36 27.06.2019
5774 Clear 20 1022 45 10000 5.1 360 13:18 27.06.2019
5775 Clouds 19 1022 48 10000 4.6 20 12:40 27.06.2019
5776 Clouds 19 1022 48 10000 4.6 20 12:21 27.06.2019
5777 Clouds 18 1022 51 10000 4.1 10 11:42 27.06.2019
5778 Clouds 17 1022 51 10000 4.6 360 11:21 27.06.2019
5779 Clear 17 1022 48 10000 5.1 360 10:56 27.06.2019
5780 Clear 17 1022 47 10000 6.2 360 10:36 27.06.2019
5781 Clear 17 1022 47 10000 6.2 360 10:18 27.06.2019
5782 Clear 15 1021 54 10000 5.1 360 09:37 27.06.2019
5783 Clear 15 1021 54 10000 5.1 360 09:19 27.06.2019
5784 Clear 14 1021 58 10000 4.1 10 08:44 27.06.2019
5785 Clear 14 1021 58 10000 4.1 30 08:22 27.06.2019
5786 Clear 13 1021 62 10000 2.6 40 07:39 27.06.2019
5787 Clear 12 1020 66 10000 3.1 20 06:54 27.06.2019
5788 Clear 12 1020 62 10000 3.6 10 06:29 27.06.2019
5789 Rain 13 1019 62 10000 5.1 20 03:50 27.06.2019
5790 Rain 13 1018 67 10000 5.1 10 02:40 27.06.2019
5791 Rain 14 1017 82 10000 2.1 10 01:18 27.06.2019
5792 Clear 14 1017 87 10000 2.33 9.98 00:45 27.06.2019
5793 Rain 14 1017 93 10000 1 0 00:24 27.06.2019
5794 Clear 15 1017 87 10000 2.41 9.412 23:45 26.06.2019
5795 Thunderstorm 15 1016 87 10000 2.41 9.412 23:22 26.06.2019
5796 Thunderstorm 16 1016 82 10000 1.5 330 22:55 26.06.2019
5797 Rain 16 1016 82 10000 2.41 9.412 22:37 26.06.2019
5798 Rain 17 1016 82 10000 2.41 9.412 22:18 26.06.2019
5799 Rain 17 1016 77 10000 1 0 21:41 26.06.2019
5800 Rain 18 1016 77 10000 1 0 21:19 26.06.2019
5801 Rain 19 1016 68 10000 1.5 310 20:50 26.06.2019
5802 Rain 20 1016 55 10000 3.6 30 20:30 26.06.2019
5803 Clear 20 1016 56 10000 2.1 10 19:57 26.06.2019
5804 Clouds 20 1016 49 10000 3.1 10 19:38 26.06.2019
5805 Clouds 20 1016 49 10000 3.1 10 19:19 26.06.2019
5806 Clouds 21 1016 56 10000 1.5 0 18:44 26.06.2019
5807 Clouds 22 1016 56 10000 1.5 0 18:22 26.06.2019
5808 Clear 22 1017 60 10000 4.1 260 17:47 26.06.2019
5809 Clouds 22 1016 68 10000 0.5 0 17:27 26.06.2019
5810 Clouds 21 1017 68 10000 1 0 16:52 26.06.2019
5811 Clouds 21 1017 72 10000 1.18 56.592 16:30 26.06.2019
5812 Clouds 21 1017 72 10000 1.18 56.592 16:30 26.06.2019
5813 Clouds 22 1018 64 10000 3.1 250 15:58 26.06.2019
5814 Clouds 21 1018 64 10000 2.6 250 15:29 26.06.2019
5815 Clouds 21 1018 60 10000 1 0 14:57 26.06.2019
5816 Rain 20 1018 72 10000 0.62 349.052 14:37 26.06.2019
5817 Rain 21 1018 72 10000 0.62 349.052 14:18 26.06.2019
5818 Clouds 21 1019 68 10000 1.5 350 13:39 26.06.2019
5819 Clouds 20 1018 68 10000 2.1 0 13:18 26.06.2019
5820 Clouds 20 1019 72 10000 2.6 330 12:40 26.06.2019
5821 Clouds 19 1019 72 10000 1.5 0 12:20 26.06.2019
5822 Clouds 19 1019 72 10000 1.5 0 12:20 26.06.2019
5823 Clouds 18 1019 72 10000 1 0 11:38 26.06.2019
5824 Clouds 17 1019 72 10000 1 0 11:18 26.06.2019
5825 Clouds 16 1019 77 10000 1.5 0 10:39 26.06.2019
5826 Clouds 16 1019 77 10000 1.5 0 10:20 26.06.2019
5827 Clouds 15 1019 82 10000 1 0 09:36 26.06.2019
5828 Clouds 15 1019 82 10000 1 0 09:18 26.06.2019
5829 Drizzle 13 1019 87 10000 1 0 08:38 26.06.2019
5830 Drizzle 13 1019 87 10000 1 0 08:19 26.06.2019
5831 Clouds 12 1020 87 10000 0.82 334.153 07:41 26.06.2019
5832 Rain 12 1020 93 10000 0.5 0 06:33 26.06.2019
5833 Rain 12 1021 100 10000 2.6 360 03:34 26.06.2019
5834 Fog 12 1023 87 10000 0.61 21.732 00:42 26.06.2019
5835 Fog 12 1023 87 10000 0.83 129.211 00:19 26.06.2019
5836 Drizzle 13 1023 87 10000 1 0 23:39 25.06.2019
5837 Drizzle 13 1023 87 10000 1 0 23:20 25.06.2019
5838 Clouds 13 1023 87 10000 1 0 22:43 25.06.2019
5839 Clouds 13 1023 87 10000 1 0 22:24 25.06.2019
5840 Drizzle 13 1023 87 10000 0.83 129.211 21:51 25.06.2019
5841 Drizzle 13 1023 87 10000 1 0 21:27 25.06.2019
5842 Rain 13 1023 87 10000 1 0 20:59 25.06.2019
5843 Clouds 14 1023 87 10000 0.78 158.538 20:37 25.06.2019
5844 Clouds 14 1023 87 10000 0.78 158.538 20:18 25.06.2019
5845 Clouds 14 1023 87 10000 0.78 158.538 20:18 25.06.2019
5846 Rain 14 1024 93 10000 0.5 0 19:45 25.06.2019
5847 Rain 13 1024 93 10000 0.5 0 19:22 25.06.2019
5848 Rain 13 1024 87 9000 1.5 320 18:43 25.06.2019
5849 Rain 14 1024 87 9000 1.5 320 18:24 25.06.2019
5850 -273 0 0 0 0 0 17:49 25.06.2019
5851 -273 0 0 0 0 0 17:49 25.06.2019
5852 Rain 14 1024 87 10000 1.23 136.021 17:28 25.06.2019
5853 Rain 14 1024 87 10000 1.23 136.021 17:28 25.06.2019
5854 Rain 14 1024 87 10000 1.23 136.021 17:28 25.06.2019
5855 Rain 15 1025 77 10000 0.5 0 16:55 25.06.2019
5856 Rain 15 1025 77 10000 0.5 0 16:55 25.06.2019
5857 Rain 15 1025 62 10000 1.23 136.021 16:37 25.06.2019
5858 Rain 15 1025 62 10000 1.23 136.021 16:18 25.06.2019
5859 Rain 15 1025 87 10000 2.6 30 15:39 25.06.2019
5860 Rain 15 1025 87 10000 2.6 30 15:20 25.06.2019
5861 Rain 15 1025 87 10000 2.6 30 15:20 25.06.2019
5862 Rain 16 1025 82 10000 3.1 30 14:50 25.06.2019
5863 Rain 16 1025 77 10000 2.6 20 14:31 25.06.2019
5864 Rain 16 1025 72 10000 2.1 30 13:43 25.06.2019
5865 Rain 16 1025 72 10000 2.1 30 13:24 25.06.2019
5866 Rain 17 1025 72 10000 2.1 30 12:43 25.06.2019
5867 Rain 17 1025 72 10000 2.1 30 12:24 25.06.2019
5868 Clear 17 1025 72 10000 2.1 30 11:46 25.06.2019
5869 Clear 17 1025 72 10000 2.1 50 11:25 25.06.2019
5870 Rain 17 1025 72 10000 2.6 50 10:59 25.06.2019
5871 Rain 16 1026 72 10000 2.6 50 10:37 25.06.2019
5872 Rain 16 1026 72 10000 2.6 50 10:19 25.06.2019
5873 Clear 16 1026 72 10000 2.1 30 09:40 25.06.2019
5874 Clear 16 1026 72 10000 2.1 30 09:22 25.06.2019
5875 Clear 16 1026 72 10000 2.1 30 08:59 25.06.2019
5876 Clear 15 1026 76 10000 2.6 50 08:31 25.06.2019
5877 Rain 15 1026 71 10000 2.6 40 07:51 25.06.2019
5878 Rain 15 1026 71 10000 2.1 40 07:31 25.06.2019
5879 Rain 15 1026 71 10000 2.1 10 06:49 25.06.2019
5880 Rain 14 1026 71 10000 2.1 20 06:23 25.06.2019
5881 Rain 15 1027 71 10000 2.1 10 02:44 25.06.2019
5882 Clear 15 1028 72 10000 2.1 350 01:18 25.06.2019
5883 Rain 16 1028 63 10000 2.6 350 00:28 25.06.2019
5884 Rain 17 1028 63 10000 2.1 330 23:52 24.06.2019
5885 Clear 17 1027 55 10000 1 0 23:33 24.06.2019
5886 Clear 17 1027 52 10000 1 0 22:49 24.06.2019
5887 Clear 18 1027 42 10000 1 0 22:22 24.06.2019
5888 Clear 18 1027 42 10000 2.1 120 21:58 24.06.2019
5889 Rain 19 1026 42 10000 2.1 150 21:37 24.06.2019
5890 Rain 19 1026 42 10000 2.1 150 21:37 24.06.2019
5891 Rain 19 1026 42 10000 2.1 150 21:18 24.06.2019
5892 Rain 20 1027 40 10000 0.5 0 20:43 24.06.2019
5893 Rain 20 1027 40 10000 0.5 0 20:23 24.06.2019
5894 Clear 21 1027 40 10000 1.5 210 19:58 24.06.2019
5895 Clear 21 1027 40 10000 2.6 220 19:39 24.06.2019
5896 Rain 21 1027 40 10000 2.6 220 19:21 24.06.2019
5897 Rain 22 1027 37 10000 3.6 210 18:42 24.06.2019
5898 Clear 22 1027 37 10000 3.6 210 18:23 24.06.2019
5899 Clear 22 1028 37 10000 2.1 200 17:37 24.06.2019
5900 Clear 22 1028 37 10000 2.1 200 17:18 24.06.2019
5901 Clear 22 1028 40 10000 3.6 200 16:45 24.06.2019
5902 Clear 23 1028 35 10000 3.6 160 16:20 24.06.2019
5903 Clear 22 1028 35 10000 3.6 140 15:44 24.06.2019
5904 Clear 23 1028 35 10000 3.6 140 15:25 24.06.2019
5905 Clear 22 1029 40 10000 2.6 190 14:39 24.06.2019
5906 Clear 22 1029 40 10000 2.6 190 14:20 24.06.2019
5907 Clear 22 1029 42 10000 2.6 210 13:35 24.06.2019
5908 Clear 21 1029 39 10000 2.1 240 12:59 24.06.2019
5909 Clear 21 1029 39 10000 2.1 240 12:41 24.06.2019
5910 Clear 20 1029 37 10000 1 0 12:20 24.06.2019
5911 Clear 19 1029 45 10000 1 0 11:45 24.06.2019
5912 Clear 19 1029 45 10000 1 0 11:27 24.06.2019
5913 Clear 18 1029 48 10000 0.5 0 10:53 24.06.2019
5914 Clear 18 1029 48 10000 1.5 20 10:34 24.06.2019
5915 Clear 17 1029 51 10000 2.1 0 09:56 24.06.2019
5916 Clear 16 1029 54 10000 3.1 30 09:38 24.06.2019
5917 Clear 15 1029 54 10000 3.1 40 09:18 24.06.2019
5918 Clear 14 1029 58 10000 3.1 30 08:36 24.06.2019
5919 Clear 13 1029 58 10000 3.6 30 07:58 24.06.2019
5920 Clear 13 1028 62 10000 2.6 30 07:40 24.06.2019
5921 Clear 12 1028 62 10000 2.6 30 07:21 24.06.2019
5922 Clear 11 1028 66 10000 2.1 360 06:23 24.06.2019
5923 Clear 10 1028 66 10000 2.1 10 05:32 24.06.2019
5924 Clear 9 1027 70 10000 3.1 340 04:43 24.06.2019
5925 Clear 9 1027 66 10000 1.5 360 03:48 24.06.2019
5926 Clear 11 1027 58 10000 2.1 310 02:36 24.06.2019
5927 Clear 11 1027 58 10000 2.25 349.46 01:55 24.06.2019
5928 Clear 11 1026 54 10000 1.97 345.611 01:31 24.06.2019
5929 Clear 12 1026 54 10000 1.5 340 00:46 24.06.2019
5930 Clear 12 1026 54 10000 1 310 00:20 24.06.2019
5931 Clear 13 1025 54 10000 0.34 80.621 23:48 23.06.2019
5932 Clear 14 1025 55 10000 1 0 23:28 23.06.2019
5933 Clear 14 1025 76 0 3.1 170 22:57 23.06.2019
5934 Clear 14 1025 77 0 3.6 180 22:39 23.06.2019
5935 Clear 15 1025 77 0 3.6 180 22:19 23.06.2019
5936 Clear 16 1023 42 10000 1 0 21:41 23.06.2019
5937 Clear 18 1023 42 10000 1 0 21:41 23.06.2019
5938 Clear 18 1023 42 10000 1 0 21:22 23.06.2019
5939 Clear 18 1023 37 10000 0.5 0 20:49 23.06.2019
5940 Clear 18 1023 37 10000 1.5 240 20:29 23.06.2019
5941 Clear 19 1023 37 10000 2.6 220 19:47 23.06.2019
5942 Clear 19 1023 42 10000 2.6 240 19:23 23.06.2019
5943 Clear 19 1023 45 10000 3.6 240 18:55 23.06.2019
5944 Clear 19 1023 39 10000 3.6 230 18:36 23.06.2019
5945 Clear 20 1023 39 10000 3.6 230 18:18 23.06.2019
5946 Clear 20 1023 37 10000 1 0 17:39 23.06.2019
5947 Clear 20 1023 37 10000 1 0 17:21 23.06.2019
5948 Clear 20 1023 37 10000 0.5 0 16:43 23.06.2019
5949 Clear 20 1023 37 10000 0.5 0 16:24 23.06.2019
5950 Clear 20 1023 37 10000 2.1 340 15:42 23.06.2019
5951 Clear 20 1023 37 10000 2.1 340 15:23 23.06.2019
5952 Clear 20 1023 39 10000 1 0 14:56 23.06.2019
5953 Clear 19 1023 39 10000 2.1 0 14:37 23.06.2019
5954 Clear 19 1023 39 10000 2.1 0 14:18 23.06.2019
5955 Clear 19 1023 39 10000 2.1 200 13:42 23.06.2019
5956 Clear 18 1023 39 10000 2.1 0 13:20 23.06.2019
5957 Clear 18 1023 39 10000 2.1 0 12:54 23.06.2019
5958 Clear 18 1023 44 10000 1.5 220 12:36 23.06.2019
5959 Clear 18 1023 44 10000 1.5 220 12:18 23.06.2019
5960 Clear 17 1023 41 10000 2.1 0 11:42 23.06.2019
5961 Clear 17 1023 41 10000 2.1 0 11:24 23.06.2019
5962 Clear 16 1023 44 10000 2.1 0 10:47 23.06.2019
5963 Clear 15 1022 47 10000 2.1 230 10:20 23.06.2019
5964 Clear 15 1022 50 10000 2.13 277.406 09:53 23.06.2019
5965 Clear 14 1022 50 10000 1.5 210 09:21 23.06.2019
5966 Clear 13 1022 50 10000 1.5 170 08:46 23.06.2019
5967 Clear 13 1022 54 10000 1.5 200 08:27 23.06.2019
5968 Clear 13 1022 58 10000 1.42 272.304 07:55 23.06.2019
5969 Clear 11 1022 62 10000 1.42 272.304 07:24 23.06.2019
5970 Clear 11 1022 61 10000 1.42 272.304 06:55 23.06.2019
5971 Clear 8 1023 66 0 2.1 250 05:55 23.06.2019
5972 Clear 7 1021 61 10000 2.1 300 04:38 23.06.2019
5973 Clear 10 1021 53 10000 1.12 285.448 02:20 23.06.2019
5974 Clear 10 1021 53 10000 1.5 300 01:37 23.06.2019
5975 Clear 11 1020 50 10000 2.6 310 00:37 23.06.2019
5976 Clear 12 1020 46 10000 1.5 10 23:57 22.06.2019
5977 Clear 13 1020 43 10000 1 0 23:38 22.06.2019
5978 Clear 13 1019 41 10000 1.55 301.719 23:20 22.06.2019
5979 Clear 14 1019 59 10000 1.55 301.719 22:44 22.06.2019
5980 Clear 15 1019 59 10000 1.55 301.719 22:22 22.06.2019
5981 Clear 17 1019 59 10000 2.1 250 21:41 22.06.2019
5982 Clouds 17 1020 63 0 3.1 190 21:20 22.06.2019
5983 Clear 18 1019 33 10000 2.1 280 20:51 22.06.2019
5984 Clear 18 1018 31 10000 2.6 260 20:26 22.06.2019
5985 Clear 18 1018 32 10000 2.1 260 19:50 22.06.2019
5986 Clear 19 1018 32 10000 2.1 260 19:28 22.06.2019
5987 Clear 19 1018 31 10000 4.1 240 18:56 22.06.2019
5988 Clear 19 1018 39 10000 3.1 260 18:36 22.06.2019
5989 Clear 19 1018 29 10000 3.1 260 18:18 22.06.2019
5990 Clear 20 1018 29 10000 3.6 250 17:38 22.06.2019
5991 Clear 20 1018 29 10000 3.6 250 17:18 22.06.2019
5992 Clear 19 1018 31 10000 4.1 230 16:39 22.06.2019
5993 Clear 19 1018 31 10000 4.1 230 16:39 22.06.2019
5994 Clear 19 1018 31 10000 4.1 230 16:20 22.06.2019
5995 Clear 19 1018 31 10000 4.1 230 16:20 22.06.2019
5996 Clear 19 1018 34 10000 4.1 240 15:40 22.06.2019
5997 Clear 19 1018 33 10000 3.6 250 15:22 22.06.2019
5998 Clear 19 1017 31 10000 4.1 0 14:41 22.06.2019
5999 Clear 19 1017 31 10000 4.1 0 14:20 22.06.2019
6000 Clear 19 1017 31 10000 4.6 240 13:42 22.06.2019
6001 Clear 19 1017 29 10000 5.7 280 13:23 22.06.2019
6002 Clear 19 1019 45 10000 3.6 180 12:54 22.06.2019
6003 Clear 19 1017 36 10000 4.1 250 12:35 22.06.2019
6004 Clear 18 1017 38 10000 3.1 260 11:59 22.06.2019
6005 Clear 17 1017 41 10000 3.6 270 11:34 22.06.2019
6006 Clear 17 1016 44 10000 4.1 240 10:54 22.06.2019
6007 Clear 16 1016 41 10000 2.6 270 10:21 22.06.2019
6008 Clear 15 1016 44 10000 3.1 260 09:55 22.06.2019
6009 Clear 15 1015 44 10000 2.6 290 09:23 22.06.2019
6010 Clear 14 1015 50 10000 1.5 0 08:44 22.06.2019
6011 Clear 13 1015 54 10000 1.5 0 08:25 22.06.2019
6012 Clear 12 1014 62 10000 3.84 286.646 07:35 22.06.2019
6013 Clear 11 1014 66 10000 2.6 280 06:56 22.06.2019
6014 Clear 9 1013 66 10000 1 0 05:30 22.06.2019
6015 Clear 10 1011 66 10000 2.1 260 02:34 22.06.2019
6016 Clear 10 1010 87 10000 2.1 200 01:24 22.06.2019
6017 Clear 11 1010 87 10000 1.5 210 00:47 22.06.2019
6018 Clear 11 1010 87 10000 1.5 210 00:22 22.06.2019
6019 Clear 11 1009 87 10000 4.1 200 23:45 21.06.2019
6020 Clear 11 1009 87 10000 4.1 200 23:22 21.06.2019
6021 Clear 12 1009 81 10000 4.6 200 22:52 21.06.2019
6022 Rain 12 1009 81 10000 4.6 200 22:24 21.06.2019
6023 Rain 13 1009 71 10000 4.1 210 21:55 21.06.2019
6024 Rain 13 1009 62 10000 2.6 220 21:37 21.06.2019
6025 Rain 13 1009 62 10000 2.6 220 21:18 21.06.2019
6026 Rain 14 1008 54 10000 4.1 250 20:44 21.06.2019
6027 Rain 14 1008 54 10000 4.1 250 20:22 21.06.2019
6028 Rain 15 1008 48 10000 8.2 200 19:35 21.06.2019
6029 Rain 15 1008 54 10000 7.7 200 18:50 21.06.2019
6030 Rain 16 1008 51 10000 6.7 200 18:30 21.06.2019
6031 Rain 16 1008 44 10000 8.2 210 17:47 21.06.2019
6032 Rain 17 1008 48 10000 8.2 190 17:29 21.06.2019
6033 Clear 17 1008 45 10000 6.7 200 16:42 21.06.2019
6034 Clear 16 1008 45 10000 6.7 200 16:22 21.06.2019
6035 Clear 17 1008 42 10000 6.7 200 15:43 21.06.2019
6036 Clear 17 1008 42 10000 6.7 200 15:23 21.06.2019
6037 Clear 18 1008 42 10000 6.7 200 14:52 21.06.2019
6038 Clear 18 1008 42 10000 6.7 210 14:31 21.06.2019
6039 Clear 18 1008 42 10000 6.7 210 13:57 21.06.2019
6040 Clear 18 1008 42 10000 6.7 210 13:36 21.06.2019
6041 Clear 18 1008 42 10000 6.7 210 13:18 21.06.2019
6042 Clear 18 1008 42 10000 7.7 200 12:39 21.06.2019
6043 Clouds 18 1007 48 10000 6.7 200 12:18 21.06.2019
6044 Clouds 17 1007 51 10000 7.7 200 11:47 21.06.2019
6045 Clouds 17 1007 51 10000 7.7 200 11:26 21.06.2019
6046 Clouds 16 1007 55 10000 6.2 200 10:51 21.06.2019
6047 Clouds 16 1007 59 10000 5.1 210 10:22 21.06.2019
6048 Clouds 16 1007 62 10000 5.1 200 09:59 21.06.2019
6049 Clouds 15 1007 67 10000 5.1 200 09:40 21.06.2019
6050 Clouds 15 1007 67 10000 5.1 200 09:19 21.06.2019
6051 Clear 15 1006 67 10000 5.7 210 08:42 21.06.2019
6052 Clear 14 1006 67 10000 5.7 210 08:22 21.06.2019
6053 Clear 14 1006 67 10000 5.7 210 08:22 21.06.2019
6054 Clear 14 1006 71 10000 4.6 200 07:50 21.06.2019
6055 Clear 13 1006 82 10000 3.6 210 07:29 21.06.2019
6056 Clouds 12 1006 82 10000 2.1 190 06:53 21.06.2019
6057 Clouds 12 1005 93 10000 3.1 200 06:21 21.06.2019
6058 Clouds 11 1005 93 10000 3.1 220 05:25 21.06.2019
6059 Clouds 11 1005 93 10000 3.1 170 04:26 21.06.2019
6060 Clouds 12 1005 93 10000 4.6 170 03:33 21.06.2019
6061 Clouds 13 1005 87 10000 5.1 170 02:48 21.06.2019
6062 Clouds 13 1005 87 10000 5.1 180 01:48 21.06.2019
6063 Clouds 14 1005 87 10000 4.6 170 00:55 21.06.2019
6064 Clouds 14 1004 87 10000 5.1 180 00:22 21.06.2019
6065 Clouds 14 1004 82 10000 5.7 180 23:47 20.06.2019
6066 Clouds 14 1004 87 10000 5.1 180 23:23 20.06.2019
6067 Clouds 14 1004 87 10000 5.7 180 22:58 20.06.2019
6068 Clouds 15 1004 87 10000 5.7 180 22:58 20.06.2019
6069 Clouds 15 1004 87 10000 5.1 190 22:38 20.06.2019
6070 Clouds 15 1004 87 10000 5.1 190 22:20 20.06.2019
6071 Clouds 15 1004 82 10000 4.1 210 21:48 20.06.2019
6072 Clouds 16 1004 82 10000 5.7 190 21:19 20.06.2019
6073 Clouds 16 1004 82 10000 5.7 190 20:48 20.06.2019
6074 Clouds 16 1003 82 10000 5.1 200 20:27 20.06.2019
6075 Clouds 17 1003 87 10000 4.1 200 19:58 20.06.2019
6076 Clouds 17 1003 82 10000 5.1 200 19:39 20.06.2019
6077 Clouds 17 1003 82 10000 5.1 200 19:18 20.06.2019
6078 Clouds 17 1003 77 10000 4.6 200 18:43 20.06.2019
6079 Clouds 17 1003 77 10000 4.6 200 18:23 20.06.2019
6080 Clouds 17 1004 77 10000 5.1 210 17:55 20.06.2019
6081 Clouds 17 1003 77 10000 6.2 200 17:37 20.06.2019
6082 Clouds 17 1004 72 10000 5.1 190 16:57 20.06.2019
6083 Clouds 17 1004 82 10000 5.7 180 16:39 20.06.2019
6084 Clouds 17 1004 82 10000 5.7 180 16:18 20.06.2019
6085 Rain 17 1004 87 10000 4.6 180 15:42 20.06.2019
6086 Rain 16 1004 87 10000 4.6 180 15:22 20.06.2019
6087 Rain 16 1004 93 10000 4.1 190 14:50 20.06.2019
6088 Rain 16 1003 87 10000 3.6 200 14:24 20.06.2019
6089 Drizzle 16 1004 87 8000 2.6 210 13:42 20.06.2019
6090 Drizzle 16 1004 87 8000 2.6 210 13:21 20.06.2019
6091 Rain 16 1004 87 6000 2.1 210 12:54 20.06.2019
6092 Drizzle 16 1004 93 7000 3.05 197.292 12:36 20.06.2019
6093 Drizzle 16 1004 93 7000 2.3 177.038 12:18 20.06.2019
6094 Clouds 16 1003 93 7000 1 0 11:39 20.06.2019
6095 Clouds 16 1003 93 7000 1 0 11:20 20.06.2019
6096 Clouds 15 1003 93 10000 1 0 10:42 20.06.2019
6097 Clouds 15 1003 93 10000 1 0 10:23 20.06.2019
6098 Mist 15 1003 93 3000 0.5 0 09:41 20.06.2019
6099 Fog 14 1003 93 4500 1 0 09:23 20.06.2019
6100 Fog 14 1003 93 4500 2.1 10 08:47 20.06.2019
6101 Fog 14 1003 93 4500 2.1 10 08:28 20.06.2019
6102 Rain 13 1003 93 10000 2.1 330 07:55 20.06.2019
6103 Mist 13 1003 93 5000 1 0 07:31 20.06.2019
6104 Clouds 13 1003 93 10000 0.75 343.761 06:46 20.06.2019
6105 Clouds 13 1003 93 10000 1 0 06:18 20.06.2019
6106 Rain 13 1005 93 8000 3.6 40 03:37 20.06.2019
6107 Rain 13 1007 76 10000 1.5 10 00:43 20.06.2019
6108 Rain 13 1007 76 10000 1.5 10 00:24 20.06.2019
6109 Rain 14 1007 71 10000 1 30 23:42 19.06.2019
6110 Rain 14 1007 71 10000 1 30 23:23 19.06.2019
6111 Clear 14 1007 67 10000 2.6 360 22:48 19.06.2019
6112 Rain 15 1008 67 10000 2.6 30 22:20 19.06.2019
6113 Rain 15 1008 72 10000 1.5 50 21:54 19.06.2019
6114 Rain 15 1008 72 10000 1.5 50 21:54 19.06.2019
6115 Rain 15 1008 63 10000 4.1 350 21:36 19.06.2019
6116 Rain 16 1008 63 10000 4.1 350 21:18 19.06.2019
6117 Rain 16 1008 63 10000 4.1 350 21:18 19.06.2019
6118 Clear 16 1008 59 10000 0.51 129.676 20:39 19.06.2019
6119 Clear 16 1008 59 10000 0.51 129.676 20:20 19.06.2019
6120 Rain 16 1009 55 10000 1 0 19:42 19.06.2019
6121 Rain 17 1009 55 10000 1 0 19:21 19.06.2019
6122 Drizzle 17 1009 45 10000 2.6 180 18:51 19.06.2019
6123 Drizzle 17 1009 45 10000 2.6 180 18:21 19.06.2019
6124 Rain 18 1010 52 10000 2.6 190 17:41 19.06.2019
6125 Rain 18 1010 52 10000 2.6 190 17:41 19.06.2019
6126 Rain 18 1010 52 10000 2.6 190 17:22 19.06.2019
6127 Rain 18 1010 59 10000 3.1 170 16:40 19.06.2019
6128 Rain 18 1010 59 10000 3.1 170 16:22 19.06.2019
6129 Rain 18 1010 55 10000 4.6 150 15:55 19.06.2019
6130 Clouds 18 1011 48 10000 3.6 170 15:31 19.06.2019
6131 Clouds 18 1011 52 10000 2.6 160 14:57 19.06.2019
6132 Clouds 19 1011 48 10000 2.6 200 14:39 19.06.2019
6133 Clouds 19 1011 48 10000 2.6 200 14:21 19.06.2019
6134 Clouds 19 1011 59 10000 3.1 180 13:43 19.06.2019
6135 Clouds 19 1011 59 10000 3.1 180 13:24 19.06.2019
6136 Clouds 18 1011 63 10000 2.1 160 12:44 19.06.2019
6137 Clouds 18 1011 63 10000 2.1 160 12:22 19.06.2019
6138 Clouds 18 1011 67 10000 2.1 200 11:56 19.06.2019
6139 Clouds 17 1012 77 10000 1.5 180 11:38 19.06.2019
6140 Clouds 17 1011 72 10000 2.1 160 11:19 19.06.2019
6141 Clouds 17 1012 77 10000 1 0 10:45 19.06.2019
6142 Clouds 17 1012 77 10000 1 0 10:26 19.06.2019
6143 Clouds 16 1011 82 10000 1.5 180 09:43 19.06.2019
6144 Clouds 15 1011 82 10000 1.5 180 09:22 19.06.2019
6145 Clouds 15 1011 82 10000 1 0 08:51 19.06.2019
6146 Clouds 14 1011 82 10000 1 0 08:29 19.06.2019
6147 Clouds 14 1011 93 10000 1.5 130 07:52 19.06.2019
6148 Clouds 13 1011 93 10000 0.47 236.074 07:34 19.06.2019
6149 Mist 12 1011 93 10000 0.47 236.074 06:55 19.06.2019
6150 Clouds 12 1011 93 8000 0.13 255.124 06:30 19.06.2019
6151 Mist 12 1011 93 9000 0.13 255.124 05:50 19.06.2019
6152 Clear 11 1010 87 10000 2.6 180 04:41 19.06.2019
6153 Clear 11 1010 93 10000 2.1 170 03:48 19.06.2019
6154 Clear 12 1010 87 10000 1.25 153.374 02:34 19.06.2019
6155 Clear 13 1010 82 10000 3.6 180 01:29 19.06.2019
6156 Clear 13 1010 76 10000 4.1 190 00:52 19.06.2019
6157 Clear 13 1010 76 10000 3.6 190 00:34 19.06.2019
6158 Clear 14 1010 82 10000 3.1 210 23:58 18.06.2019
6159 Clear 14 1010 82 10000 3.1 210 23:58 18.06.2019
6160 Clear 14 1010 82 10000 3.1 210 23:58 18.06.2019
6161 Clear 14 1011 72 10000 3.6 200 23:30 18.06.2019
6162 Clear 15 1011 72 10000 3.1 190 22:55 18.06.2019
6163 Clouds 15 1010 72 10000 4.6 180 22:37 18.06.2019
6164 Clouds 15 1010 72 10000 4.6 180 22:18 18.06.2019
6165 Clouds 16 1010 67 10000 5.7 180 21:43 18.06.2019
6166 Clouds 16 1010 67 10000 6.2 190 21:21 18.06.2019
6167 Clouds 17 1010 63 10000 7.7 190 20:44 18.06.2019
6168 Clouds 18 1010 63 10000 7.7 190 20:26 18.06.2019
6169 Clouds 17 1010 59 10000 7.2 180 19:56 18.06.2019
6170 Clouds 17 1010 63 10000 7.7 190 19:38 18.06.2019
6171 Clouds 18 1010 63 10000 7.7 190 19:19 18.06.2019
6172 Clouds 18 1011 63 10000 6.7 200 18:45 18.06.2019
6173 Clouds 18 1011 63 10000 6.2 180 18:24 18.06.2019
6174 Clouds 19 1011 63 10000 6.2 190 17:42 18.06.2019
6175 Clouds 19 1011 63 10000 6.2 190 17:20 18.06.2019
6176 Clouds 19 1011 63 10000 6.7 180 16:47 18.06.2019
6177 Clouds 19 1012 59 10000 6.7 180 16:27 18.06.2019
6178 Clouds 19 1012 63 10000 8.2 190 15:58 18.06.2019
6179 Clouds 19 1012 63 10000 7.2 180 15:37 18.06.2019
6180 Clouds 19 1012 63 10000 7.2 180 15:19 18.06.2019
6181 Clouds 19 1012 72 10000 4.1 180 14:45 18.06.2019
6182 Clouds 19 1012 72 10000 4.1 180 14:45 18.06.2019
6183 Clouds 19 1012 72 10000 4.1 180 14:22 18.06.2019
6184 Clouds 19 1013 82 10000 4.6 170 13:56 18.06.2019
6185 Clouds 19 1014 77 10000 6.2 180 13:38 18.06.2019
6186 Clouds 18 1014 77 10000 6.2 180 13:19 18.06.2019
6187 Clouds 17 1014 82 10000 5.7 180 12:42 18.06.2019
6188 Rain 16 1013 87 10000 5.7 170 12:24 18.06.2019
6189 Rain 16 1013 82 10000 4.6 170 11:43 18.06.2019
6190 Rain 16 1013 82 10000 4.6 170 11:21 18.06.2019
6191 Rain 15 1014 76 10000 5.1 170 10:57 18.06.2019
6192 Rain 15 1014 76 10000 4.6 180 10:37 18.06.2019
6193 Rain 15 1014 76 10000 4.6 180 10:18 18.06.2019
6194 Clouds 14 1014 76 10000 4.6 190 09:47 18.06.2019
6195 Clouds 14 1014 76 10000 4.6 190 09:22 18.06.2019
6196 Clouds 14 1014 76 10000 3.1 200 08:43 18.06.2019
6197 Clouds 14 1014 82 10000 4.6 190 08:21 18.06.2019
6198 Clouds 13 1014 87 10000 6.2 200 07:41 18.06.2019
6199 Clouds 13 1014 87 10000 6.2 200 07:20 18.06.2019
6200 Clouds 13 1014 87 10000 6.2 200 06:33 18.06.2019
6201 Clouds 12 1014 87 10000 5.7 200 05:19 18.06.2019
6202 Clouds 12 1014 87 10000 6.2 200 02:53 18.06.2019
6203 Clouds 13 1014 82 10000 7.2 200 01:55 18.06.2019
6204 Clouds 13 1015 82 10000 7.2 200 01:24 18.06.2019
6205 Clouds 13 1014 82 10000 7.2 190 00:54 18.06.2019
6206 Rain 13 1017 87 0 3.6 190 00:26 18.06.2019
6207 Rain 14 1015 82 10000 7.7 200 23:41 17.06.2019
6208 Rain 14 1015 82 10000 7.7 200 23:20 17.06.2019
6209 Clouds 14 1014 82 10000 7.2 200 22:55 17.06.2019
6210 Clouds 14 1014 76 10000 6.7 200 22:36 17.06.2019
6211 Clouds 14 1014 77 10000 8.7 200 22:18 17.06.2019
6212 Clouds 15 1014 72 10000 8.2 200 21:42 17.06.2019
6213 Clouds 15 1014 72 10000 8.2 200 21:21 17.06.2019
6214 Clouds 16 1013 59 10000 8.2 210 20:37 17.06.2019
6215 Clouds 17 1013 59 10000 8.2 210 20:19 17.06.2019
6216 Clouds 17 1014 56 10000 7.2 210 19:42 17.06.2019
6217 Clouds 17 1014 56 10000 7.2 210 19:23 17.06.2019
6218 Clouds 18 1014 56 10000 7.7 220 18:58 17.06.2019
6219 Clouds 18 1014 52 10000 7.7 210 18:37 17.06.2019
6220 Clouds 19 1014 52 10000 6.7 200 18:18 17.06.2019
6221 Clouds 19 1014 52 10000 6.7 200 17:46 17.06.2019
6222 Clouds 19 1014 52 10000 6.7 200 17:28 17.06.2019
6223 Clouds 19 1014 49 10000 8.2 190 16:48 17.06.2019
6224 Clouds 20 1014 49 10000 7.7 190 16:29 17.06.2019
6225 Clear 20 1014 43 10000 7.7 200 15:58 17.06.2019
6226 Clear 20 1014 43 10000 7.7 200 15:38 17.06.2019
6227 Clouds 20 1014 45 10000 7.2 190 15:19 17.06.2019
6228 Clear 20 1014 43 10000 8.2 200 14:51 17.06.2019
6229 Clear 20 1014 43 10000 8.2 200 14:32 17.06.2019
6230 Clear 20 1014 42 10000 7.2 200 13:54 17.06.2019
6231 Clear 21 1014 40 10000 7.2 210 13:36 17.06.2019
6232 Clouds 20 1014 42 10000 7.7 200 13:18 17.06.2019
6233 Clouds 20 1014 52 10000 6.7 200 12:32 17.06.2019
6234 Clouds 20 1014 55 10000 5.7 210 11:58 17.06.2019
6235 Clouds 19 1014 55 10000 5.7 210 11:38 17.06.2019
6236 Clouds 19 1014 59 10000 5.7 190 11:18 17.06.2019
6237 Clouds 18 1014 67 10000 5.1 180 10:44 17.06.2019
6238 Clouds 18 1014 67 10000 5.1 180 10:25 17.06.2019
6239 Clouds 17 1014 82 10000 4.1 190 09:55 17.06.2019
6240 Clouds 16 1014 82 10000 4.1 190 09:31 17.06.2019
6241 Clouds 15 1014 87 10000 3.6 180 08:44 17.06.2019
6242 Clouds 14 1014 93 10000 3.1 190 08:24 17.06.2019
6243 Clouds 14 1014 93 10000 3.6 180 07:51 17.06.2019
6244 Clouds 13 1014 93 10000 3.6 180 07:32 17.06.2019
6245 Clouds 12 1014 93 10000 4.1 180 06:48 17.06.2019
6246 Clouds 11 1014 93 9000 3.6 190 05:53 17.06.2019
6247 Clouds 11 1014 93 10000 3.1 190 04:52 17.06.2019
6248 Clouds 12 1014 87 10000 3.6 200 03:50 17.06.2019
6249 Clouds 12 1014 87 10000 2.6 200 03:25 17.06.2019
6250 Clouds 12 1014 87 10000 2.6 190 02:42 17.06.2019
6251 Clouds 12 1014 87 10000 2.6 200 02:19 17.06.2019
6252 Clouds 12 1014 87 10000 3.1 200 01:35 17.06.2019
6253 Clouds 13 1014 87 10000 4.1 180 00:47 17.06.2019
6254 Clouds 13 1014 82 10000 5.1 170 00:26 17.06.2019
6255 Clouds 13 1014 87 10000 3.6 170 23:58 16.06.2019
6256 Clouds 14 1014 87 10000 3.6 170 23:37 16.06.2019
6257 Clouds 14 1013 87 10000 3.6 170 23:19 16.06.2019
6258 Clouds 14 1013 87 10000 4.1 180 22:43 16.06.2019
6259 Clouds 15 1013 87 10000 3.6 190 22:19 16.06.2019
6260 Clouds 15 1013 87 10000 3.6 190 21:56 16.06.2019
6261 Clouds 15 1014 87 9000 4.1 190 21:38 16.06.2019
6262 Clouds 16 1015 82 0 5.7 180 21:20 16.06.2019
6263 Clouds 16 1014 87 10000 5.1 190 20:38 16.06.2019
6264 Rain 16 1015 82 0 5.7 180 20:19 16.06.2019
6265 Rain 16 1015 82 0 5.7 180 20:19 16.06.2019
6266 Rain 16 1015 82 0 5.7 180 19:58 16.06.2019
6267 Rain 16 1014 87 9000 4.1 200 19:38 16.06.2019
6268 Drizzle 16 1014 87 9000 4.6 200 19:19 16.06.2019
6269 Rain 16 1014 87 9000 3.6 200 18:41 16.06.2019
6270 Drizzle 17 1014 82 3500 5.1 210 18:21 16.06.2019
6271 Rain 16 1013 77 10000 3.6 200 17:49 16.06.2019
6272 Rain 16 1013 77 10000 2.1 210 17:25 16.06.2019
6273 Rain 16 1013 77 10000 2.1 210 16:58 16.06.2019
6274 Rain 16 1014 77 10000 3.1 210 16:40 16.06.2019
6275 Rain 16 1013 77 10000 2.6 220 16:21 16.06.2019
6276 Rain 17 1013 77 10000 2.6 220 15:57 16.06.2019
6277 Rain 17 1013 68 10000 4.1 200 15:38 16.06.2019
6278 Rain 17 1013 68 10000 3.6 200 15:19 16.06.2019
6279 Rain 17 1013 72 10000 2.6 230 14:37 16.06.2019
6280 Rain 17 1013 72 10000 1 0 14:19 16.06.2019
6281 Rain 17 1013 72 10000 1 0 13:46 16.06.2019
6282 Rain 18 1013 72 10000 1 0 13:25 16.06.2019
6283 Rain 18 1013 63 10000 3.1 180 12:45 16.06.2019
6284 Clear 18 1013 72 10000 2.6 190 12:22 16.06.2019
6285 Clear 18 1013 68 10000 1 0 11:56 16.06.2019
6286 Clear 18 1013 68 10000 1 0 11:38 16.06.2019
6287 Clear 18 1013 72 10000 1 0 11:18 16.06.2019
6288 Clear 17 1013 72 10000 1.5 50 10:44 16.06.2019
6289 Rain 17 1013 72 10000 1 0 10:19 16.06.2019
6290 Clear 17 1013 72 10000 0.5 0 09:43 16.06.2019
6291 Clear 17 1013 72 10000 0.5 0 09:24 16.06.2019
6292 Clear 16 1013 77 10000 0.5 0 08:47 16.06.2019
6293 Clear 16 1013 77 10000 1.5 30 08:21 16.06.2019
6294 Rain 16 1013 82 10000 2.1 20 07:49 16.06.2019
6295 Rain 16 1013 76 10000 1.5 10 07:31 16.06.2019
6296 Rain 16 1013 76 10000 0.5 50 06:53 16.06.2019
6297 Clouds 15 1013 82 0 2.1 150 05:57 16.06.2019
6298 Clear 15 1013 82 10000 2.1 20 05:24 16.06.2019
6299 Clear 15 1013 76 10000 1.5 10 04:22 16.06.2019
6300 Clear 15 1014 71 10000 2.1 360 03:42 16.06.2019
6301 Clear 15 1014 76 10000 2.1 40 03:22 16.06.2019
6302 Clear 16 1014 72 10000 1.5 350 01:49 16.06.2019
6303 Clear 16 1014 72 10000 1.5 350 01:30 16.06.2019
6304 Clear 16 1014 67 10000 1.5 350 00:44 16.06.2019
6305 Clear 17 1014 59 10000 1.5 340 00:25 16.06.2019
6306 Clear 17 1014 59 10000 1.5 340 23:58 15.06.2019
6307 Clear 17 1014 55 10000 1.24 19.353 23:39 15.06.2019
6308 Clear 18 1014 43 10000 1.24 19.353 23:20 15.06.2019
6309 Clear 19 1014 43 10000 1.24 19.353 22:44 15.06.2019
6310 Clear 20 1014 40 10000 1 210 22:25 15.06.2019
6311 Clear 21 1014 43 10000 1 230 21:45 15.06.2019
6312 Clear 22 1014 43 10000 1 230 21:21 15.06.2019
6313 Clear 22 1014 33 10000 1.5 240 20:46 15.06.2019
6314 Clear 22 1014 33 10000 1.5 240 20:23 15.06.2019
6315 Clear 23 1015 27 10000 2.1 210 19:50 15.06.2019
6316 Clear 23 1015 29 10000 2.6 210 19:28 15.06.2019
6317 Clear 24 1015 29 10000 3.1 180 18:46 15.06.2019
6318 Clear 24 1015 31 10000 2.1 0 18:26 15.06.2019
6319 Clear 25 1015 31 10000 2.1 0 17:58 15.06.2019
6320 Clear 25 1016 31 10000 3.1 190 17:40 15.06.2019
6321 Clear 25 1016 33 10000 3.1 190 17:21 15.06.2019
6322 Clear 25 1016 33 10000 2.1 150 16:43 15.06.2019
6323 Clear 25 1016 31 10000 2.6 110 16:18 15.06.2019
6324 Clear 25 1016 31 10000 0.5 0 15:41 15.06.2019
6325 Clear 25 1017 35 10000 1 0 15:21 15.06.2019
6326 Clear 25 1017 35 10000 1 0 15:21 15.06.2019
6327 Clear 24 1017 38 10000 2.1 0 14:38 15.06.2019
6328 Clear 24 1017 37 10000 2.6 120 14:18 15.06.2019
6329 Clear 23 1018 40 10000 3.1 190 13:44 15.06.2019
6330 Clear 23 1018 43 10000 2.1 180 13:21 15.06.2019
6331 Clear 22 1018 43 10000 2.1 180 12:58 15.06.2019
6332 Clear 22 1018 40 10000 2.1 0 12:40 15.06.2019
6333 Clouds 22 1018 45 10000 1 0 12:20 15.06.2019
6334 Clouds 21 1018 49 10000 1.5 330 11:42 15.06.2019
6335 Clouds 21 1018 49 10000 1.5 330 11:42 15.06.2019
6336 Clouds 21 1018 49 10000 1.5 330 11:23 15.06.2019
6337 Clouds 20 1019 55 10000 0.5 0 10:42 15.06.2019
6338 Clouds 19 1019 63 10000 2.6 160 10:24 15.06.2019
6339 Clouds 18 1019 67 10000 2.1 160 09:48 15.06.2019
6340 Clear 17 1019 72 10000 1.5 160 09:26 15.06.2019
6341 Clear 16 1019 77 10000 0.5 0 08:54 15.06.2019
6342 Clear 16 1019 77 10000 0.5 0 08:54 15.06.2019
6343 Clear 15 1019 77 10000 0.5 0 08:34 15.06.2019
6344 Clear 15 1019 77 10000 0.5 0 08:33 15.06.2019
6345 Rain 15 1019 76 10000 1 0 07:54 15.06.2019
6346 Rain 13 1019 87 10000 1 0 07:25 15.06.2019
6347 Rain 14 1019 87 10000 0.49 194.32 07:25 15.06.2019
6348 Clouds 12 1019 87 10000 0.49 194.32 06:47 15.06.2019
6349 Fog 11 1019 93 0 1.5 50 06:20 15.06.2019
6350 Fog 10 1019 93 0 0.5 0 05:29 15.06.2019
6351 Fog 10 1019 87 10000 1.5 360 04:46 15.06.2019
6352 Fog 10 1019 87 10000 0.25 220.846 03:49 15.06.2019
6353 Clear 11 1019 87 10000 0.5 20 02:58 15.06.2019
6354 Clear 12 1019 87 10000 1.03 158.374 02:23 15.06.2019
6355 Clear 12 1019 87 10000 1.03 158.374 01:50 15.06.2019
6356 Clear 12 1019 87 10000 0.5 0 00:59 15.06.2019
6357 Clear 12 1019 82 10000 2.1 210 00:40 15.06.2019
6358 Clear 13 1019 82 10000 2.1 210 23:55 14.06.2019
6359 Clear 13 1019 76 10000 1.5 220 23:27 14.06.2019
6360 Clear 13 1019 76 10000 2.6 210 22:57 14.06.2019
6361 Clouds 13 1018 67 10000 2.1 210 22:39 14.06.2019
6362 Clouds 14 1018 67 10000 3.1 210 22:19 14.06.2019
6363 Clouds 14 1018 63 10000 4.1 200 21:41 14.06.2019
6364 Rain 16 1019 82 0 2.1 210 21:22 14.06.2019
6365 Clouds 17 1018 55 10000 1 0 20:43 14.06.2019
6366 Clear 18 1019 67 10000 3.1 200 20:19 14.06.2019
6367 Clear 18 1019 67 10000 3.1 200 19:57 14.06.2019
6368 Clouds 18 1018 67 10000 3.6 200 19:36 14.06.2019
6369 Clouds 18 1018 67 10000 3.1 210 19:18 14.06.2019
6370 Clear 18 1019 63 10000 4.1 200 18:43 14.06.2019
6371 Rain 18 1018 67 10000 4.1 190 18:24 14.06.2019
6372 Clouds 18 1018 63 10000 3.6 200 17:55 14.06.2019
6373 Clouds 18 1018 63 10000 3.6 200 17:37 14.06.2019
6374 Clouds 18 1018 67 10000 2.6 140 17:19 14.06.2019
6375 Clouds 17 1019 67 10000 1.5 150 16:45 14.06.2019
6376 Clouds 17 1019 72 10000 1.5 160 16:21 14.06.2019
6377 Clouds 17 1019 72 10000 1.5 160 16:21 14.06.2019
6378 Clouds 17 1019 72 10000 1.5 160 15:57 14.06.2019
6379 Clouds 17 1019 77 10000 2.1 130 15:38 14.06.2019
6380 Clouds 17 1019 77 10000 3.1 120 15:18 14.06.2019
6381 Rain 16 1019 82 10000 3.1 140 14:40 14.06.2019
6382 Rain 16 1019 82 10000 2.1 130 14:21 14.06.2019
6383 Rain 16 1019 77 10000 2.6 130 13:44 14.06.2019
6384 Rain 16 1019 72 10000 3.1 160 13:24 14.06.2019
6385 Rain 15 1019 72 10000 2.6 160 12:44 14.06.2019
6386 Rain 15 1019 72 10000 2.6 160 12:26 14.06.2019
6387 Rain 15 1019 77 10000 2.1 230 11:58 14.06.2019
6388 Clouds 15 1019 72 10000 1.5 220 11:39 14.06.2019
6389 Clouds 14 1019 77 10000 1.5 190 11:20 14.06.2019
6390 Rain 13 1019 77 10000 1 0 10:44 14.06.2019
6391 Rain 13 1018 77 10000 1 0 10:20 14.06.2019
6392 Rain 13 1018 77 10000 2.6 60 09:48 14.06.2019
6393 Rain 14 1018 77 10000 2.6 60 09:25 14.06.2019
6394 Rain 14 1018 77 10000 2.6 60 09:25 14.06.2019
6395 Rain 13 1018 82 10000 1.5 0 08:47 14.06.2019
6396 Rain 14 1018 87 10000 0.71 86.464 08:19 14.06.2019
6397 Fog 13 1018 87 10000 1.5 20 07:51 14.06.2019
6398 Fog 12 1018 87 10000 1.5 20 07:22 14.06.2019
6399 Fog 12 1017 100 10000 1 0 06:39 14.06.2019
6400 Fog 11 1017 87 0 2.1 30 05:58 14.06.2019
6401 Fog 10 1018 100 900 0.77 54.965 05:33 14.06.2019
6402 Fog 10 1017 100 500 1.5 60 04:48 14.06.2019
6403 Fog 10 1017 100 400 1 360 03:56 14.06.2019
6404 Fog 10 1017 93 3500 1 10 03:26 14.06.2019
6405 Fog 10 1016 93 2000 2.1 20 02:56 14.06.2019
6406 Fog 10 1017 93 800 0.5 10 02:27 14.06.2019
6407 Fog 11 1017 93 6000 2.1 20 01:26 14.06.2019
6408 Clouds 11 1017 93 10000 0.59 133.961 00:36 14.06.2019
6409 Clouds 11 1017 93 10000 1.39 169.216 00:18 14.06.2019
6410 Clouds 11 1016 87 10000 1.39 169.216 23:47 13.06.2019
6411 Clear 12 1016 93 10000 2.1 200 23:22 13.06.2019
6412 Clouds 12 1015 87 10000 3.1 190 22:40 13.06.2019
6413 Clouds 13 1015 87 10000 3.1 180 22:22 13.06.2019
6414 Clouds 13 1015 87 10000 3.1 200 21:41 13.06.2019
6415 Clear 14 1015 72 10000 2.1 210 21:20 13.06.2019
6416 Clear 14 1015 72 10000 2.1 210 20:59 13.06.2019
6417 Clouds 14 1014 82 10000 4.1 170 20:40 13.06.2019
6418 Clear 15 1015 67 10000 3.6 200 20:19 13.06.2019
6419 Clouds 15 1014 87 10000 5.1 180 19:42 13.06.2019
6420 Clouds 15 1014 87 10000 5.1 180 19:23 13.06.2019
6421 Clouds 15 1013 87 10000 6.2 170 18:58 13.06.2019
6422 Clouds 15 1013 87 10000 6.2 170 18:40 13.06.2019
6423 Clouds 14 1013 93 10000 2.1 200 18:21 13.06.2019
6424 Clouds 14 1012 93 10000 1.5 120 17:44 13.06.2019
6425 Drizzle 14 1012 93 9000 1.5 100 17:21 13.06.2019
6426 Drizzle 13 1012 93 3900 1.5 100 16:55 13.06.2019
6427 Drizzle 13 1012 93 4900 1.5 130 16:23 13.06.2019
6428 Drizzle 13 1012 93 4900 1.5 130 15:59 13.06.2019
6429 Drizzle 13 1012 93 3600 1.5 0 15:40 13.06.2019
6430 Drizzle 13 1012 100 3400 1 0 15:19 13.06.2019
6431 Mist 13 1011 93 4200 2.1 40 14:48 13.06.2019
6432 Mist 13 1011 93 4200 2.1 40 14:29 13.06.2019
6433 Drizzle 12 1011 93 2400 2.6 30 13:47 13.06.2019
6434 Drizzle 12 1011 93 3400 2.6 40 13:22 13.06.2019
6435 Drizzle 12 1011 93 3400 2.6 40 12:59 13.06.2019
6436 Drizzle 12 1011 100 2900 3.1 40 12:39 13.06.2019
6437 Drizzle 12 1011 93 2500 2.6 30 12:21 13.06.2019
6438 Drizzle 11 1011 93 3500 2.6 30 11:44 13.06.2019
6439 Drizzle 11 1011 93 3500 2.6 30 11:25 13.06.2019
6440 Drizzle 11 1010 100 3200 3.1 10 10:48 13.06.2019
6441 Drizzle 11 1010 100 3200 3.1 10 10:28 13.06.2019
6442 Drizzle 10 1010 93 2500 3.1 30 09:52 13.06.2019
6443 Drizzle 10 1010 93 9000 3.1 20 09:29 13.06.2019
6444 Drizzle 10 1010 93 9000 2.6 20 08:56 13.06.2019
6445 Drizzle 10 1010 93 9000 2.6 20 08:56 13.06.2019
6446 Drizzle 10 1010 93 9000 2.6 20 08:56 13.06.2019
6447 Rain 10 1010 93 8000 3.6 30 08:38 13.06.2019
6448 Rain 10 1010 100 8000 3.6 10 08:19 13.06.2019
6449 Rain 9 1011 93 5000 3.1 30 07:39 13.06.2019
6450 Rain 9 1011 93 9000 2.6 30 07:19 13.06.2019
6451 Rain 9 1010 93 10000 4.1 30 06:40 13.06.2019
6452 Rain 9 1012 93 4700 2.1 60 06:21 13.06.2019
6453 Rain 9 1012 93 8000 3.6 10 05:39 13.06.2019
6454 Rain 9 1012 93 8000 3.6 10 05:19 13.06.2019
6455 Rain 9 1012 93 8000 6.2 20 03:50 13.06.2019
6456 Drizzle 9 1015 93 7000 4.6 10 02:20 13.06.2019
6457 Clouds 9 1017 93 10000 4.1 10 00:36 13.06.2019
6458 Clouds 9 1018 93 10000 5.1 10 23:38 12.06.2019
6459 Rain 9 1018 93 10000 4.6 10 23:20 12.06.2019
6460 Rain 9 1019 93 4400 4.1 10 22:41 12.06.2019
6461 Rain 9 1019 93 10000 4.1 10 22:22 12.06.2019
6462 Rain 9 1019 93 7000 5.1 10 21:47 12.06.2019
6463 Rain 9 1019 93 7000 5.1 10 21:28 12.06.2019
6464 Drizzle 9 1019 93 8000 4.1 10 20:49 12.06.2019
6465 Drizzle 9 1019 93 8000 4.1 10 20:31 12.06.2019
6466 Drizzle 9 1020 93 8000 4.1 20 19:59 12.06.2019
6467 Drizzle 9 1020 93 8000 4.1 20 19:41 12.06.2019
6468 Drizzle 10 1020 87 10000 4.1 10 19:22 12.06.2019
6469 Drizzle 10 1020 87 10000 4.1 10 18:51 12.06.2019
6470 Rain 10 1020 87 10000 3.6 10 18:29 12.06.2019
6471 Drizzle 10 1021 87 10000 4.1 20 17:58 12.06.2019
6472 Rain 10 1020 66 10000 3.6 40 17:39 12.06.2019
6473 Rain 10 1021 81 10000 4.1 20 17:18 12.06.2019
6474 Rain 10 1021 81 10000 3.6 10 16:40 12.06.2019
6475 Clouds 10 1022 76 10000 3.1 10 16:22 12.06.2019
6476 Clouds 10 1022 76 10000 3.1 10 15:47 12.06.2019
6477 Rain 11 1022 71 10000 5.1 30 15:29 12.06.2019
6478 Clear 11 1022 71 10000 5.1 30 14:42 12.06.2019
6479 Clear 11 1022 71 10000 7.2 30 14:22 12.06.2019
6480 Clear 11 1022 71 10000 6.2 20 13:42 12.06.2019
6481 Clear 11 1022 76 10000 5.7 10 13:20 12.06.2019
6482 Clear 11 1023 76 10000 5.7 10 12:56 12.06.2019
6483 Clear 11 1023 76 10000 5.7 10 12:38 12.06.2019
6484 Clear 11 1023 76 10000 5.7 10 12:19 12.06.2019
6485 Rain 10 1023 81 10000 4.6 10 11:45 12.06.2019
6486 Rain 10 1023 81 10000 4.6 10 11:27 12.06.2019
6487 Rain 10 1024 81 10000 4.6 10 10:50 12.06.2019
6488 Rain 10 1024 87 10000 5.1 30 10:25 12.06.2019
6489 Rain 10 1024 81 10000 6.2 30 09:45 12.06.2019
6490 Clouds 10 1024 87 10000 5.7 30 09:23 12.06.2019
6491 Clouds 10 1024 87 10000 5.7 30 08:55 12.06.2019
6492 Clouds 10 1024 87 10000 5.7 20 08:21 12.06.2019
6493 Clear 10 1025 87 10000 4.6 10 07:45 12.06.2019
6494 Rain 10 1024 87 10000 5.1 30 06:54 12.06.2019
6495 Rain 10 1025 93 10000 3.6 10 05:27 12.06.2019
6496 Rain 10 1025 93 10000 3.6 10 04:54 12.06.2019
6497 Rain 10 1026 87 8000 1.5 100 01:44 12.06.2019
6498 Rain 11 1025 81 8000 2.1 100 00:40 12.06.2019
6499 Rain 12 1024 87 8000 1 0 23:48 11.06.2019
6500 Rain 12 1024 87 8000 1 0 23:30 11.06.2019
6501 Rain 12 1023 82 10000 3.1 110 22:44 11.06.2019
6502 Rain 12 1023 76 10000 3.6 120 22:21 11.06.2019
6503 Rain 13 1023 76 10000 3.6 120 21:58 11.06.2019
6504 Rain 13 1023 63 10000 4.6 140 21:39 11.06.2019
6505 Rain 14 1022 82 0 4.6 50 21:20 11.06.2019
6506 Rain 14 1022 82 0 4.6 50 21:20 11.06.2019
6507 Rain 14 1021 48 10000 4.1 110 20:49 11.06.2019
6508 Drizzle 15 1021 82 10000 4.1 50 20:26 11.06.2019
6509 Drizzle 15 1021 77 10000 5.1 60 19:57 11.06.2019
6510 -273 0 0 0 0 0 19:38 11.06.2019
6511 Rain 16 1021 37 10000 4.6 90 19:37 11.06.2019
6512 Drizzle 15 1021 77 10000 5.1 60 19:37 11.06.2019
6513 Rain 16 1021 37 10000 4.6 90 19:36 11.06.2019
6514 Rain 17 1021 37 10000 4.6 90 18:58 11.06.2019
6515 Drizzle 18 1021 40 10000 4.6 100 18:23 11.06.2019
6516 Drizzle 19 1021 37 10000 4.6 90 17:57 11.06.2019
6517 Drizzle 19 1021 37 10000 4.6 90 17:39 11.06.2019
6518 Clear 20 1021 40 10000 4.6 80 17:19 11.06.2019
6519 Clear 20 1021 40 10000 4.6 60 16:42 11.06.2019
6520 Clear 21 1021 37 10000 5.7 70 16:23 11.06.2019
6521 Clear 21 1021 34 10000 5.1 80 15:43 11.06.2019
6522 Clear 21 1021 34 10000 5.1 80 15:25 11.06.2019
6523 Clear 21 1021 42 10000 4.6 80 14:54 11.06.2019
6524 Clear 20 1021 45 10000 4.1 50 14:23 11.06.2019
6525 Clear 20 1022 52 10000 3.6 60 13:58 11.06.2019
6526 Clear 20 1022 52 10000 3.6 60 13:37 11.06.2019
6527 Clear 20 1022 45 10000 3.1 80 13:19 11.06.2019
6528 Clouds 20 1022 42 10000 2.1 100 12:41 11.06.2019
6529 Clouds 19 1022 52 10000 3.6 20 12:21 11.06.2019
6530 Clouds 18 1022 51 10000 3.1 40 11:41 11.06.2019
6531 Clouds 18 1022 55 10000 3.6 50 11:21 11.06.2019
6532 Clear 17 1022 55 10000 3.6 40 10:50 11.06.2019
6533 Clear 16 1022 55 10000 3.6 40 10:27 11.06.2019
6534 Clear 15 1021 62 10000 5.1 30 09:51 11.06.2019
6535 Clear 14 1021 62 10000 5.1 30 09:25 11.06.2019
6536 Clear 13 1021 71 10000 4.1 30 08:56 11.06.2019
6537 Clear 12 1021 71 10000 4.1 30 08:38 11.06.2019
6538 Clear 12 1021 81 10000 2.6 30 08:19 11.06.2019
6539 Clear 10 1021 87 10000 1 0 07:32 11.06.2019
6540 Clear 9 1021 87 10000 1.5 360 06:52 11.06.2019
6541 Mist 8 1021 87 10000 1.41 20.722 05:21 11.06.2019
6542 Fog 7 1020 87 10000 1.41 20.722 04:27 11.06.2019
6543 Clear 8 1019 81 10000 1 0 01:58 11.06.2019
6544 Clear 9 1020 71 10000 2.6 190 00:49 11.06.2019
6545 Clear 10 1019 71 10000 3.1 190 00:24 11.06.2019
6546 Clear 11 1019 71 10000 3.6 190 23:44 10.06.2019
6547 Clear 12 1019 66 10000 4.1 190 23:20 10.06.2019
6548 Clear 12 1019 62 10000 4.6 180 22:43 10.06.2019
6549 Clear 13 1018 62 10000 5.1 180 22:25 10.06.2019
6550 Clear 13 1018 62 10000 5.1 180 21:55 10.06.2019
6551 Clear 14 1018 58 10000 5.7 190 21:37 10.06.2019
6552 Clear 16 1018 55 10000 5.7 180 21:19 10.06.2019
6553 Clear 16 1018 55 10000 5.7 180 20:41 10.06.2019
6554 Clear 17 1018 55 10000 5.7 180 20:21 10.06.2019
6555 Clear 17 1018 51 10000 6.2 180 19:44 10.06.2019
6556 Clear 18 1017 51 10000 6.7 180 19:22 10.06.2019
6557 Clear 18 1017 51 10000 6.7 180 18:56 10.06.2019
6558 Clear 18 1017 48 10000 7.2 190 18:38 10.06.2019
6559 Clear 19 1017 45 10000 6.2 180 18:19 10.06.2019
6560 Clear 19 1017 45 10000 6.2 180 18:19 10.06.2019
6561 Clear 19 1017 45 10000 6.7 180 17:43 10.06.2019
6562 Clear 19 1017 42 10000 4.1 210 17:24 10.06.2019
6563 Clear 19 1017 42 10000 5.7 210 16:49 10.06.2019
6564 Clear 19 1017 42 10000 5.7 210 16:30 10.06.2019
6565 Clear 19 1017 39 10000 5.1 190 15:57 10.06.2019
6566 Clear 19 1017 45 10000 5.1 200 15:38 10.06.2019
6567 Clear 19 1017 42 10000 4.6 210 15:20 10.06.2019
6568 Clear 19 1017 48 10000 6.2 190 14:41 10.06.2019
6569 Clear 19 1017 45 10000 5.1 190 14:23 10.06.2019
6570 Clear 18 1017 45 10000 4.6 200 13:46 10.06.2019
6571 Clouds 18 1017 48 10000 6.2 190 13:26 10.06.2019
6572 Clouds 18 1017 48 10000 5.1 190 12:54 10.06.2019
6573 Clouds 17 1017 48 10000 5.1 200 12:30 10.06.2019
6574 Clouds 17 1017 54 10000 6.2 190 11:54 10.06.2019
6575 Clouds 16 1017 54 10000 6.2 190 11:30 10.06.2019
6576 Clouds 16 1017 54 10000 5.7 180 10:59 10.06.2019
6577 Clear 16 1017 54 10000 3.6 210 10:41 10.06.2019
6578 Clear 15 1017 58 10000 4.6 210 10:19 10.06.2019
6579 Clear 15 1017 62 10000 4.6 210 09:51 10.06.2019
6580 Clear 14 1017 62 10000 4.6 210 09:29 10.06.2019
6581 Clear 13 1017 66 10000 4.1 200 08:49 10.06.2019
6582 Clear 13 1017 66 10000 4.1 200 08:26 10.06.2019
6583 Clear 12 1017 76 10000 5.1 200 07:41 10.06.2019
6584 Clear 8 1016 81 10000 2.6 200 04:43 10.06.2019
6585 Clear 9 1016 81 10000 3.1 200 03:29 10.06.2019
6586 Clear 10 1015 76 10000 4.1 210 01:55 10.06.2019
6587 Clear 10 1014 81 10000 5.7 210 01:19 10.06.2019
6588 Clear 11 1014 76 10000 6.7 210 00:47 10.06.2019
6589 Clear 11 1014 87 10000 5.7 180 23:47 09.06.2019
6590 Clear 11 1014 87 10000 5.7 180 23:47 09.06.2019
6591 Clear 12 1014 87 10000 5.7 180 23:23 09.06.2019
6592 Clear 12 1014 81 10000 5.1 200 22:48 09.06.2019
6593 Clouds 12 1013 87 10000 5.1 190 22:26 09.06.2019
6594 Clouds 13 1013 87 10000 5.1 190 21:57 09.06.2019
6595 Rain 13 1013 87 10000 5.1 190 21:37 09.06.2019
6596 Rain 13 1016 71 0 7.2 200 21:18 09.06.2019
6597 Rain 14 1013 82 10000 7.2 190 20:41 09.06.2019
6598 Rain 14 1012 76 10000 6.2 200 20:21 09.06.2019
6599 Rain 14 1012 76 10000 6.2 200 19:45 09.06.2019
6600 Rain 14 1012 76 10000 6.7 190 19:18 09.06.2019
6601 Rain 14 1012 76 10000 6.7 190 19:18 09.06.2019
6602 Clouds 15 1012 76 10000 6.2 190 18:44 09.06.2019
6603 Clouds 15 1012 76 10000 6.2 190 18:25 09.06.2019
6604 Clouds 15 1012 71 10000 7.2 190 17:56 09.06.2019
6605 Clouds 15 1012 67 10000 6.7 190 17:30 09.06.2019
6606 Clouds 16 1012 72 10000 7.7 190 16:59 09.06.2019
6607 Clouds 15 1012 72 10000 7.7 190 16:59 09.06.2019
6608 Clouds 15 1012 76 10000 9.3 190 16:40 09.06.2019
6609 Clouds 15 1012 76 10000 9.3 190 16:40 09.06.2019
6610 Clouds 15 1012 76 10000 7.2 190 16:20 09.06.2019
6611 Clouds 15 1012 76 10000 8.2 190 15:50 09.06.2019
6612 Clouds 15 1012 76 10000 8.2 190 15:29 09.06.2019
6613 Rain 14 1012 82 10000 7.7 190 14:56 09.06.2019
6614 Rain 14 1012 82 10000 7.7 190 14:38 09.06.2019
6615 Rain 14 1011 67 10000 6.7 210 14:19 09.06.2019
6616 Rain 15 1011 72 10000 8.2 200 13:48 09.06.2019
6617 Rain 14 1011 76 10000 7.2 200 12:57 09.06.2019
6618 Rain 14 1011 76 10000 5.7 200 12:35 09.06.2019
6619 Rain 14 1011 76 10000 6.2 200 11:58 09.06.2019
6620 Rain 14 1011 76 10000 5.1 190 11:36 09.06.2019
6621 Rain 14 1011 82 10000 5.1 190 11:18 09.06.2019
6622 Rain 14 1010 87 10000 4.6 190 10:43 09.06.2019
6623 Rain 14 1010 87 10000 4.6 190 10:43 09.06.2019
6624 Clouds 13 1010 87 10000 4.1 180 10:20 09.06.2019
6625 Clouds 13 1010 87 10000 5.1 180 09:39 09.06.2019
6626 Rain 13 1011 82 0 5.7 200 09:20 09.06.2019
6627 Rain 12 1010 93 10000 4.6 190 08:45 09.06.2019
6628 Rain 12 1011 87 0 5.1 200 07:57 09.06.2019
6629 Clouds 11 1010 93 10000 4.1 170 06:48 09.06.2019
6630 Clouds 11 1010 93 10000 4.1 170 06:29 09.06.2019
6631 Rain 12 1010 93 10000 2.1 130 03:21 09.06.2019
6632 Clouds 12 1011 87 10000 1 0 01:38 09.06.2019
6633 Clouds 12 1011 93 10000 2.1 200 01:19 09.06.2019
6634 Clouds 12 1011 87 10000 4.1 180 00:42 09.06.2019
6635 Clouds 12 1011 87 10000 3.6 190 23:42 08.06.2019
6636 Clouds 12 1011 87 10000 3.6 180 23:23 08.06.2019
6637 Clouds 12 1011 87 10000 3.6 180 22:56 08.06.2019
6638 Clouds 12 1011 87 10000 4.6 180 22:37 08.06.2019
6639 Rain 13 1010 87 10000 4.1 200 22:18 08.06.2019
6640 Rain 13 1010 82 10000 6.2 190 21:49 08.06.2019
6641 Rain 13 1010 87 10000 3.6 200 21:24 08.06.2019
6642 Rain 14 1010 87 10000 3.6 200 20:46 08.06.2019
6643 Rain 14 1010 87 10000 3.6 200 20:25 08.06.2019
6644 Rain 14 1012 82 0 4.6 180 19:58 08.06.2019
6645 Rain 15 1010 87 10000 4.1 170 19:39 08.06.2019
6646 Clouds 15 1010 82 10000 2.6 160 19:19 08.06.2019
6647 Clouds 15 1010 82 10000 2.6 180 18:43 08.06.2019
6648 Clouds 15 1011 87 10000 2.1 160 18:25 08.06.2019
6649 Clouds 15 1011 93 10000 1.5 120 17:46 08.06.2019
6650 Rain 14 1012 93 10000 1.5 120 17:22 08.06.2019
6651 Rain 14 1012 93 10000 1.5 120 16:54 08.06.2019
6652 Rain 14 1012 87 8000 2.1 140 16:35 08.06.2019
6653 Rain 14 1012 87 10000 3.1 190 15:54 08.06.2019
6654 Rain 14 1011 87 10000 3.1 200 15:35 08.06.2019
6655 Rain 14 1011 63 10000 5.1 210 14:49 08.06.2019
6656 Rain 14 1011 63 10000 5.1 210 14:31 08.06.2019
6657 Rain 15 1011 52 10000 5.1 190 13:51 08.06.2019
6658 Rain 16 1011 55 10000 3.1 0 12:54 08.06.2019
6659 Rain 16 1011 55 10000 3.1 0 12:35 08.06.2019
6660 Drizzle 17 1011 52 10000 1.5 0 11:56 08.06.2019
6661 Clear 17 1012 55 10000 1.5 210 11:37 08.06.2019
6662 Clear 17 1012 59 10000 1 0 11:19 08.06.2019
6663 Clouds 16 1012 67 10000 1.5 0 10:42 08.06.2019
6664 Clear 16 1012 77 10000 1.5 0 10:19 08.06.2019
6665 Clouds 15 1012 77 10000 1.5 0 09:33 08.06.2019
6666 Clouds 14 1012 82 10000 0.5 0 08:58 08.06.2019
6667 Fog 12 1012 100 5000 0.5 0 08:22 08.06.2019
6668 Fog 12 1012 93 2300 1.18 131.86 07:27 08.06.2019
6669 Fog 11 1012 100 2400 0.5 0 06:45 08.06.2019
6670 Fog 10 1012 93 500 1 40 03:37 08.06.2019
6671 Fog 11 1013 93 10000 0.85 117.346 02:20 08.06.2019
6672 Clear 11 1012 87 10000 1.01 116.236 00:32 08.06.2019
6673 Clear 12 1012 87 10000 0.5 0 23:59 07.06.2019
6674 Clouds 13 1012 93 10000 2.1 230 23:21 07.06.2019
6675 Clouds 13 1012 93 10000 2.1 230 22:53 07.06.2019
6676 Clouds 13 1012 93 10000 1.5 210 22:33 07.06.2019
6677 Clouds 14 1012 87 10000 2.6 200 21:56 07.06.2019
6678 Clouds 15 1013 82 0 3.1 190 21:37 07.06.2019
6679 Rain 15 1013 87 0 4.1 210 21:19 07.06.2019
6680 Rain 16 1011 77 10000 0.5 0 20:42 07.06.2019
6681 Clear 16 1012 72 10000 3.6 160 20:23 07.06.2019
6682 Clouds 17 1012 82 10000 4.1 190 19:46 07.06.2019
6683 Clouds 17 1012 77 10000 4.1 190 19:19 07.06.2019
6684 Clouds 17 1012 77 10000 3.6 190 18:43 07.06.2019
6685 Clouds 17 1012 77 10000 3.6 190 18:25 07.06.2019
6686 Clouds 16 1011 82 10000 1.5 190 17:45 07.06.2019
6687 Clouds 16 1011 82 10000 1.5 190 17:23 07.06.2019
6688 Clouds 16 1012 93 10000 3.1 230 16:42 07.06.2019
6689 Rain 17 1012 87 10000 3.1 240 16:21 07.06.2019
6690 Rain 17 1012 82 10000 3.1 220 15:48 07.06.2019
6691 Rain 17 1012 87 10000 3.6 230 15:20 07.06.2019
6692 Rain 17 1012 87 10000 3.1 240 14:45 07.06.2019
6693 Rain 16 1012 87 10000 3.1 240 14:22 07.06.2019
6694 Rain 16 1012 87 10000 4.1 200 13:28 07.06.2019
6695 Rain 16 1012 87 10000 5.1 190 12:56 07.06.2019
6696 Rain 16 1012 87 10000 5.1 190 12:37 07.06.2019
6697 Rain 16 1011 93 9000 4.6 180 12:18 07.06.2019
6698 Rain 16 1011 93 7000 4.6 180 11:39 07.06.2019
6699 Rain 16 1011 93 7000 5.1 180 11:21 07.06.2019
6700 Rain 16 1010 88 10000 4.1 150 10:43 07.06.2019
6701 Rain 16 1010 93 10000 3.1 130 10:21 07.06.2019
6702 Rain 16 1010 93 8000 2.6 120 09:49 07.06.2019
6703 Rain 16 1010 100 8000 2.1 110 09:27 07.06.2019
6704 Thunderstorm 16 1010 93 6000 1 0 08:49 07.06.2019
6705 Thunderstorm 16 1010 93 6000 1 0 08:28 07.06.2019
6706 Clouds 15 1010 88